<?xml version="1.0" encoding="UTF-8" standalone="no" ?>
<gpx xmlns="http://www.topografix.com/GPX/1/1" xmlns:xsi="http://www.w3.org/2001/XMLSchema-instance" xsi:schemaLocation="http://www.topografix.com/GPX/1/1 http://www.topografix.com/GPX/1/1/gpx.xsd" version="1.1" creator="VisuGPX - https://www.visugpx.com">
  <metadata>
    <name>Pornichet VTT 26 mai 2019</name>
    <desc><![CDATA[Sortie VTT du dimanche 26 mai 2019]]></desc>
  </metadata>
  <trk>
    <name><![CDATA[Pornichet Cyclisme]]></name>
    <trkseg>
      <trkpt lat="47.26406" lon="-2.31564">
        <ele>9.6</ele>
        <time>2019-05-26T06:56:33.000Z</time>
      </trkpt>
      <trkpt lat="47.26407" lon="-2.31588">
        <ele>-0.20000000298023</ele>
        <time>2019-05-26T06:56:36.000Z</time>
      </trkpt>
      <trkpt lat="47.26407" lon="-2.31593">
        <ele>-0.20000000298023</ele>
        <time>2019-05-26T06:56:39.000Z</time>
      </trkpt>
      <trkpt lat="47.26406" lon="-2.31627">
        <ele>-0.20000000298023</ele>
        <time>2019-05-26T06:56:46.000Z</time>
      </trkpt>
      <trkpt lat="47.26409" lon="-2.31653">
        <ele>-0.20000000298023</ele>
        <time>2019-05-26T06:56:52.000Z</time>
      </trkpt>
      <trkpt lat="47.26408" lon="-2.31657">
        <ele>-0.20000000298023</ele>
        <time>2019-05-26T06:56:53.000Z</time>
      </trkpt>
      <trkpt lat="47.26404" lon="-2.31663">
        <ele>-0.20000000298023</ele>
        <time>2019-05-26T06:56:55.000Z</time>
      </trkpt>
      <trkpt lat="47.26397" lon="-2.31667">
        <ele>-0.20000000298023</ele>
        <time>2019-05-26T06:56:57.000Z</time>
      </trkpt>
      <trkpt lat="47.2639" lon="-2.31671">
        <ele>-0.20000000298023</ele>
        <time>2019-05-26T06:56:59.000Z</time>
      </trkpt>
      <trkpt lat="47.26368" lon="-2.31685">
        <ele>-0.20000000298023</ele>
        <time>2019-05-26T06:57:04.000Z</time>
      </trkpt>
      <trkpt lat="47.26364" lon="-2.31688">
        <ele>-0.20000000298023</ele>
        <time>2019-05-26T06:57:05.000Z</time>
      </trkpt>
      <trkpt lat="47.26359" lon="-2.31691">
        <ele>-0.60000002384186</ele>
        <time>2019-05-26T06:57:06.000Z</time>
      </trkpt>
      <trkpt lat="47.26355" lon="-2.31695">
        <ele>-1.2000000476837</ele>
        <time>2019-05-26T06:57:07.000Z</time>
      </trkpt>
      <trkpt lat="47.2635" lon="-2.31698">
        <ele>-1.6000000238419</ele>
        <time>2019-05-26T06:57:08.000Z</time>
      </trkpt>
      <trkpt lat="47.26345" lon="-2.317">
        <ele>-2.2000000476837</ele>
        <time>2019-05-26T06:57:09.000Z</time>
      </trkpt>
      <trkpt lat="47.2634" lon="-2.31702">
        <ele>-2.5999999046326</ele>
        <time>2019-05-26T06:57:10.000Z</time>
      </trkpt>
      <trkpt lat="47.26328" lon="-2.31708">
        <ele>-2.5999999046326</ele>
        <time>2019-05-26T06:57:13.000Z</time>
      </trkpt>
      <trkpt lat="47.26319" lon="-2.31711">
        <ele>-2.5999999046326</ele>
        <time>2019-05-26T06:57:15.000Z</time>
      </trkpt>
      <trkpt lat="47.26307" lon="-2.31718">
        <ele>-2.5999999046326</ele>
        <time>2019-05-26T06:57:18.000Z</time>
      </trkpt>
      <trkpt lat="47.26305" lon="-2.31721">
        <ele>-3</ele>
        <time>2019-05-26T06:57:19.000Z</time>
      </trkpt>
      <trkpt lat="47.26304" lon="-2.31725">
        <ele>-3.4000000953674</ele>
        <time>2019-05-26T06:57:20.000Z</time>
      </trkpt>
      <trkpt lat="47.26304" lon="-2.31729">
        <ele>-3.7999999523163</ele>
        <time>2019-05-26T06:57:21.000Z</time>
      </trkpt>
      <trkpt lat="47.26304" lon="-2.31733">
        <ele>-4.1999998092651</ele>
        <time>2019-05-26T06:57:22.000Z</time>
      </trkpt>
      <trkpt lat="47.26305" lon="-2.31737">
        <ele>-4.5999999046326</ele>
        <time>2019-05-26T06:57:23.000Z</time>
      </trkpt>
      <trkpt lat="47.26308" lon="-2.31754">
        <ele>-4.5999999046326</ele>
        <time>2019-05-26T06:57:27.000Z</time>
      </trkpt>
      <trkpt lat="47.26308" lon="-2.31785">
        <ele>-4.5999999046326</ele>
        <time>2019-05-26T06:57:33.000Z</time>
      </trkpt>
      <trkpt lat="47.26306" lon="-2.31819">
        <ele>-4.5999999046326</ele>
        <time>2019-05-26T06:57:39.000Z</time>
      </trkpt>
      <trkpt lat="47.26304" lon="-2.31849">
        <ele>-4.5999999046326</ele>
        <time>2019-05-26T06:57:44.000Z</time>
      </trkpt>
      <trkpt lat="47.26301" lon="-2.31881">
        <ele>-4.5999999046326</ele>
        <time>2019-05-26T06:57:50.000Z</time>
      </trkpt>
      <trkpt lat="47.26286" lon="-2.31895">
        <ele>-4.5999999046326</ele>
        <time>2019-05-26T06:57:55.000Z</time>
      </trkpt>
      <trkpt lat="47.26271" lon="-2.3191">
        <ele>-4.5999999046326</ele>
        <time>2019-05-26T06:58:00.000Z</time>
      </trkpt>
      <trkpt lat="47.26262" lon="-2.31925">
        <ele>-4.5999999046326</ele>
        <time>2019-05-26T06:58:03.000Z</time>
      </trkpt>
      <trkpt lat="47.26253" lon="-2.3194">
        <ele>-4.5999999046326</ele>
        <time>2019-05-26T06:58:06.000Z</time>
      </trkpt>
      <trkpt lat="47.26248" lon="-2.3195">
        <ele>-4.5999999046326</ele>
        <time>2019-05-26T06:58:08.000Z</time>
      </trkpt>
      <trkpt lat="47.26244" lon="-2.3196">
        <ele>-4.5999999046326</ele>
        <time>2019-05-26T06:58:10.000Z</time>
      </trkpt>
      <trkpt lat="47.26239" lon="-2.31966">
        <ele>-4.5999999046326</ele>
        <time>2019-05-26T06:58:12.000Z</time>
      </trkpt>
      <trkpt lat="47.26237" lon="-2.31968">
        <ele>-4.5999999046326</ele>
        <time>2019-05-26T06:58:13.000Z</time>
      </trkpt>
      <trkpt lat="47.26227" lon="-2.3198">
        <ele>-4.5999999046326</ele>
        <time>2019-05-26T06:58:18.000Z</time>
      </trkpt>
      <trkpt lat="47.26224" lon="-2.31983">
        <ele>-4.5999999046326</ele>
        <time>2019-05-26T06:58:19.000Z</time>
      </trkpt>
      <trkpt lat="47.26211" lon="-2.31993">
        <ele>-4.5999999046326</ele>
        <time>2019-05-26T06:58:23.000Z</time>
      </trkpt>
      <trkpt lat="47.26207" lon="-2.32001">
        <ele>-4.5999999046326</ele>
        <time>2019-05-26T06:58:26.000Z</time>
      </trkpt>
      <trkpt lat="47.26206" lon="-2.32005">
        <ele>-4.5999999046326</ele>
        <time>2019-05-26T06:58:27.000Z</time>
      </trkpt>
      <trkpt lat="47.26204" lon="-2.32011">
        <ele>-4.5999999046326</ele>
        <time>2019-05-26T06:58:29.000Z</time>
      </trkpt>
      <trkpt lat="47.262" lon="-2.32014">
        <ele>-4.5999999046326</ele>
        <time>2019-05-26T06:58:31.000Z</time>
      </trkpt>
      <trkpt lat="47.26192" lon="-2.32013">
        <ele>-4.5999999046326</ele>
        <time>2019-05-26T06:58:34.000Z</time>
      </trkpt>
      <trkpt lat="47.26184" lon="-2.32015">
        <ele>-4.5999999046326</ele>
        <time>2019-05-26T06:58:36.000Z</time>
      </trkpt>
      <trkpt lat="47.26175" lon="-2.3202">
        <ele>-4.5999999046326</ele>
        <time>2019-05-26T06:58:40.000Z</time>
      </trkpt>
      <trkpt lat="47.26174" lon="-2.3202">
        <ele>-4.5999999046326</ele>
        <time>2019-05-26T06:58:42.000Z</time>
      </trkpt>
      <trkpt lat="47.26172" lon="-2.32022">
        <ele>-4.5999999046326</ele>
        <time>2019-05-26T06:58:46.000Z</time>
      </trkpt>
      <trkpt lat="47.26171" lon="-2.32023">
        <ele>-4.5999999046326</ele>
        <time>2019-05-26T06:58:47.000Z</time>
      </trkpt>
      <trkpt lat="47.26161" lon="-2.32032">
        <ele>-4.5999999046326</ele>
        <time>2019-05-26T06:58:51.000Z</time>
      </trkpt>
      <trkpt lat="47.2615" lon="-2.32061">
        <ele>-4.5999999046326</ele>
        <time>2019-05-26T06:58:57.000Z</time>
      </trkpt>
      <trkpt lat="47.26137" lon="-2.321">
        <ele>-4.5999999046326</ele>
        <time>2019-05-26T06:59:04.000Z</time>
      </trkpt>
      <trkpt lat="47.26128" lon="-2.32133">
        <ele>-4.5999999046326</ele>
        <time>2019-05-26T06:59:10.000Z</time>
      </trkpt>
      <trkpt lat="47.26113" lon="-2.32169">
        <ele>-4.5999999046326</ele>
        <time>2019-05-26T06:59:17.000Z</time>
      </trkpt>
      <trkpt lat="47.26095" lon="-2.32207">
        <ele>-4.5999999046326</ele>
        <time>2019-05-26T06:59:25.000Z</time>
      </trkpt>
      <trkpt lat="47.26078" lon="-2.32232">
        <ele>-4.5999999046326</ele>
        <time>2019-05-26T06:59:31.000Z</time>
      </trkpt>
      <trkpt lat="47.26064" lon="-2.32249">
        <ele>-4.5999999046326</ele>
        <time>2019-05-26T06:59:35.000Z</time>
      </trkpt>
      <trkpt lat="47.26057" lon="-2.32257">
        <ele>-4.5999999046326</ele>
        <time>2019-05-26T06:59:37.000Z</time>
      </trkpt>
      <trkpt lat="47.26053" lon="-2.32261">
        <ele>-4.5999999046326</ele>
        <time>2019-05-26T06:59:38.000Z</time>
      </trkpt>
      <trkpt lat="47.26042" lon="-2.32275">
        <ele>-4.5999999046326</ele>
        <time>2019-05-26T06:59:41.000Z</time>
      </trkpt>
      <trkpt lat="47.26034" lon="-2.32282">
        <ele>-4.5999999046326</ele>
        <time>2019-05-26T06:59:43.000Z</time>
      </trkpt>
      <trkpt lat="47.26012" lon="-2.32308">
        <ele>-4.5999999046326</ele>
        <time>2019-05-26T06:59:49.000Z</time>
      </trkpt>
      <trkpt lat="47.25994" lon="-2.32333">
        <ele>-4.5999999046326</ele>
        <time>2019-05-26T06:59:54.000Z</time>
      </trkpt>
      <trkpt lat="47.25987" lon="-2.32343">
        <ele>-4.5999999046326</ele>
        <time>2019-05-26T06:59:56.000Z</time>
      </trkpt>
      <trkpt lat="47.25952" lon="-2.3239">
        <ele>-4.5999999046326</ele>
        <time>2019-05-26T07:00:06.000Z</time>
      </trkpt>
      <trkpt lat="47.25923" lon="-2.32427">
        <ele>-4.5999999046326</ele>
        <time>2019-05-26T07:00:14.000Z</time>
      </trkpt>
      <trkpt lat="47.25913" lon="-2.32439">
        <ele>-4.5999999046326</ele>
        <time>2019-05-26T07:00:17.000Z</time>
      </trkpt>
      <trkpt lat="47.25904" lon="-2.32453">
        <ele>-4.5999999046326</ele>
        <time>2019-05-26T07:00:20.000Z</time>
      </trkpt>
      <trkpt lat="47.25894" lon="-2.32465">
        <ele>-4.5999999046326</ele>
        <time>2019-05-26T07:00:23.000Z</time>
      </trkpt>
      <trkpt lat="47.25886" lon="-2.32469">
        <ele>-4.5999999046326</ele>
        <time>2019-05-26T07:00:25.000Z</time>
      </trkpt>
      <trkpt lat="47.25863" lon="-2.32475">
        <ele>-4.5999999046326</ele>
        <time>2019-05-26T07:00:30.000Z</time>
      </trkpt>
      <trkpt lat="47.25843" lon="-2.32474">
        <ele>-4.5999999046326</ele>
        <time>2019-05-26T07:00:34.000Z</time>
      </trkpt>
      <trkpt lat="47.25833" lon="-2.32471">
        <ele>-4.5999999046326</ele>
        <time>2019-05-26T07:00:36.000Z</time>
      </trkpt>
      <trkpt lat="47.25801" lon="-2.32455">
        <ele>-4.5999999046326</ele>
        <time>2019-05-26T07:00:43.000Z</time>
      </trkpt>
      <trkpt lat="47.25781" lon="-2.32456">
        <ele>-4.5999999046326</ele>
        <time>2019-05-26T07:00:48.000Z</time>
      </trkpt>
      <trkpt lat="47.25769" lon="-2.32439">
        <ele>-4.5999999046326</ele>
        <time>2019-05-26T07:00:52.000Z</time>
      </trkpt>
      <trkpt lat="47.25753" lon="-2.32425">
        <ele>-4.5999999046326</ele>
        <time>2019-05-26T07:00:56.000Z</time>
      </trkpt>
      <trkpt lat="47.25743" lon="-2.32425">
        <ele>-4.5999999046326</ele>
        <time>2019-05-26T07:00:58.000Z</time>
      </trkpt>
      <trkpt lat="47.25718" lon="-2.32424">
        <ele>-4.5999999046326</ele>
        <time>2019-05-26T07:01:03.000Z</time>
      </trkpt>
      <trkpt lat="47.25683" lon="-2.32423">
        <ele>-4.5999999046326</ele>
        <time>2019-05-26T07:01:10.000Z</time>
      </trkpt>
      <trkpt lat="47.25664" lon="-2.32421">
        <ele>-4.5999999046326</ele>
        <time>2019-05-26T07:01:14.000Z</time>
      </trkpt>
      <trkpt lat="47.25661" lon="-2.32425">
        <ele>-4.5999999046326</ele>
        <time>2019-05-26T07:01:15.000Z</time>
      </trkpt>
      <trkpt lat="47.2566" lon="-2.32444">
        <ele>-4.1999998092651</ele>
        <time>2019-05-26T07:01:18.000Z</time>
      </trkpt>
      <trkpt lat="47.25662" lon="-2.32451">
        <ele>-3.7999999523163</ele>
        <time>2019-05-26T07:01:19.000Z</time>
      </trkpt>
      <trkpt lat="47.25663" lon="-2.32457">
        <ele>-3.4000000953674</ele>
        <time>2019-05-26T07:01:20.000Z</time>
      </trkpt>
      <trkpt lat="47.25665" lon="-2.32464">
        <ele>-3</ele>
        <time>2019-05-26T07:01:21.000Z</time>
      </trkpt>
      <trkpt lat="47.25667" lon="-2.3247">
        <ele>-2.5999999046326</ele>
        <time>2019-05-26T07:01:22.000Z</time>
      </trkpt>
      <trkpt lat="47.2567" lon="-2.32481">
        <ele>-2.5999999046326</ele>
        <time>2019-05-26T07:01:24.000Z</time>
      </trkpt>
      <trkpt lat="47.25677" lon="-2.32497">
        <ele>-2.2000000476837</ele>
        <time>2019-05-26T07:01:27.000Z</time>
      </trkpt>
      <trkpt lat="47.25679" lon="-2.32502">
        <ele>-1.6000000238419</ele>
        <time>2019-05-26T07:01:28.000Z</time>
      </trkpt>
      <trkpt lat="47.25681" lon="-2.32507">
        <ele>-1.2000000476837</ele>
        <time>2019-05-26T07:01:29.000Z</time>
      </trkpt>
      <trkpt lat="47.25682" lon="-2.32512">
        <ele>-0.80000001192093</ele>
        <time>2019-05-26T07:01:30.000Z</time>
      </trkpt>
      <trkpt lat="47.25684" lon="-2.32517">
        <ele>-0.40000000596046</ele>
        <time>2019-05-26T07:01:31.000Z</time>
      </trkpt>
      <trkpt lat="47.25697" lon="-2.32553">
        <ele>-0.40000000596046</ele>
        <time>2019-05-26T07:01:38.000Z</time>
      </trkpt>
      <trkpt lat="47.25708" lon="-2.32596">
        <ele>-0.40000000596046</ele>
        <time>2019-05-26T07:01:46.000Z</time>
      </trkpt>
      <trkpt lat="47.25709" lon="-2.32607">
        <ele>-0.40000000596046</ele>
        <time>2019-05-26T07:01:48.000Z</time>
      </trkpt>
      <trkpt lat="47.25706" lon="-2.32619">
        <ele>-0.40000000596046</ele>
        <time>2019-05-26T07:01:50.000Z</time>
      </trkpt>
      <trkpt lat="47.25692" lon="-2.3263">
        <ele>-0.40000000596046</ele>
        <time>2019-05-26T07:01:54.000Z</time>
      </trkpt>
      <trkpt lat="47.25685" lon="-2.32633">
        <ele>-0.40000000596046</ele>
        <time>2019-05-26T07:01:56.000Z</time>
      </trkpt>
      <trkpt lat="47.25681" lon="-2.32635">
        <ele>0.20000000298023</ele>
        <time>2019-05-26T07:01:57.000Z</time>
      </trkpt>
      <trkpt lat="47.25677" lon="-2.32637">
        <ele>0.60000002384186</ele>
        <time>2019-05-26T07:01:58.000Z</time>
      </trkpt>
      <trkpt lat="47.25673" lon="-2.32638">
        <ele>1</ele>
        <time>2019-05-26T07:01:59.000Z</time>
      </trkpt>
      <trkpt lat="47.25669" lon="-2.3264">
        <ele>1.3999999761581</ele>
        <time>2019-05-26T07:02:00.000Z</time>
      </trkpt>
      <trkpt lat="47.25666" lon="-2.32642">
        <ele>2</ele>
        <time>2019-05-26T07:02:01.000Z</time>
      </trkpt>
      <trkpt lat="47.25639" lon="-2.32654">
        <ele>2</ele>
        <time>2019-05-26T07:02:08.000Z</time>
      </trkpt>
      <trkpt lat="47.25631" lon="-2.32657">
        <ele>2.4000000953674</ele>
        <time>2019-05-26T07:02:10.000Z</time>
      </trkpt>
      <trkpt lat="47.25628" lon="-2.32658">
        <ele>2.7999999523163</ele>
        <time>2019-05-26T07:02:11.000Z</time>
      </trkpt>
      <trkpt lat="47.25624" lon="-2.3266">
        <ele>3.2000000476837</ele>
        <time>2019-05-26T07:02:12.000Z</time>
      </trkpt>
      <trkpt lat="47.2562" lon="-2.32662">
        <ele>3.5999999046326</ele>
        <time>2019-05-26T07:02:13.000Z</time>
      </trkpt>
      <trkpt lat="47.25616" lon="-2.32664">
        <ele>4</ele>
        <time>2019-05-26T07:02:14.000Z</time>
      </trkpt>
      <trkpt lat="47.25609" lon="-2.32667">
        <ele>4</ele>
        <time>2019-05-26T07:02:16.000Z</time>
      </trkpt>
      <trkpt lat="47.25579" lon="-2.32678">
        <ele>4</ele>
        <time>2019-05-26T07:02:23.000Z</time>
      </trkpt>
      <trkpt lat="47.2554" lon="-2.32694">
        <ele>4</ele>
        <time>2019-05-26T07:02:32.000Z</time>
      </trkpt>
      <trkpt lat="47.25517" lon="-2.32701">
        <ele>4</ele>
        <time>2019-05-26T07:02:37.000Z</time>
      </trkpt>
      <trkpt lat="47.25488" lon="-2.32704">
        <ele>4</ele>
        <time>2019-05-26T07:02:43.000Z</time>
      </trkpt>
      <trkpt lat="47.25484" lon="-2.32706">
        <ele>4</ele>
        <time>2019-05-26T07:02:44.000Z</time>
      </trkpt>
      <trkpt lat="47.25472" lon="-2.32719">
        <ele>4</ele>
        <time>2019-05-26T07:02:47.000Z</time>
      </trkpt>
      <trkpt lat="47.25465" lon="-2.32727">
        <ele>4</ele>
        <time>2019-05-26T07:02:49.000Z</time>
      </trkpt>
      <trkpt lat="47.25454" lon="-2.32741">
        <ele>4</ele>
        <time>2019-05-26T07:02:52.000Z</time>
      </trkpt>
      <trkpt lat="47.25444" lon="-2.32755">
        <ele>4</ele>
        <time>2019-05-26T07:02:55.000Z</time>
      </trkpt>
      <trkpt lat="47.25437" lon="-2.32771">
        <ele>4</ele>
        <time>2019-05-26T07:02:58.000Z</time>
      </trkpt>
      <trkpt lat="47.25433" lon="-2.32782">
        <ele>4</ele>
        <time>2019-05-26T07:03:00.000Z</time>
      </trkpt>
      <trkpt lat="47.25419" lon="-2.32801">
        <ele>4</ele>
        <time>2019-05-26T07:03:04.000Z</time>
      </trkpt>
      <trkpt lat="47.25387" lon="-2.32843">
        <ele>4</ele>
        <time>2019-05-26T07:03:12.000Z</time>
      </trkpt>
      <trkpt lat="47.25356" lon="-2.32877">
        <ele>4</ele>
        <time>2019-05-26T07:03:20.000Z</time>
      </trkpt>
      <trkpt lat="47.25324" lon="-2.32905">
        <ele>4</ele>
        <time>2019-05-26T07:03:28.000Z</time>
      </trkpt>
      <trkpt lat="47.25316" lon="-2.32913">
        <ele>4</ele>
        <time>2019-05-26T07:03:30.000Z</time>
      </trkpt>
      <trkpt lat="47.25308" lon="-2.3293">
        <ele>4</ele>
        <time>2019-05-26T07:03:33.000Z</time>
      </trkpt>
      <trkpt lat="47.2531" lon="-2.32957">
        <ele>4</ele>
        <time>2019-05-26T07:03:37.000Z</time>
      </trkpt>
      <trkpt lat="47.25312" lon="-2.32964">
        <ele>4</ele>
        <time>2019-05-26T07:03:38.000Z</time>
      </trkpt>
      <trkpt lat="47.25316" lon="-2.32976">
        <ele>3.5999999046326</ele>
        <time>2019-05-26T07:03:40.000Z</time>
      </trkpt>
      <trkpt lat="47.25318" lon="-2.32982">
        <ele>3.2000000476837</ele>
        <time>2019-05-26T07:03:41.000Z</time>
      </trkpt>
      <trkpt lat="47.25321" lon="-2.32988">
        <ele>2.7999999523163</ele>
        <time>2019-05-26T07:03:42.000Z</time>
      </trkpt>
      <trkpt lat="47.25323" lon="-2.32994">
        <ele>2.4000000953674</ele>
        <time>2019-05-26T07:03:43.000Z</time>
      </trkpt>
      <trkpt lat="47.25325" lon="-2.33">
        <ele>2</ele>
        <time>2019-05-26T07:03:44.000Z</time>
      </trkpt>
      <trkpt lat="47.25332" lon="-2.33017">
        <ele>2</ele>
        <time>2019-05-26T07:03:47.000Z</time>
      </trkpt>
      <trkpt lat="47.25336" lon="-2.3303">
        <ele>2</ele>
        <time>2019-05-26T07:03:49.000Z</time>
      </trkpt>
      <trkpt lat="47.25341" lon="-2.33041">
        <ele>2</ele>
        <time>2019-05-26T07:03:51.000Z</time>
      </trkpt>
      <trkpt lat="47.25343" lon="-2.33046">
        <ele>2</ele>
        <time>2019-05-26T07:03:52.000Z</time>
      </trkpt>
      <trkpt lat="47.25345" lon="-2.33052">
        <ele>2</ele>
        <time>2019-05-26T07:03:53.000Z</time>
      </trkpt>
      <trkpt lat="47.25357" lon="-2.33079">
        <ele>2</ele>
        <time>2019-05-26T07:03:59.000Z</time>
      </trkpt>
      <trkpt lat="47.25362" lon="-2.33092">
        <ele>2</ele>
        <time>2019-05-26T07:04:03.000Z</time>
      </trkpt>
      <trkpt lat="47.25362" lon="-2.33094">
        <ele>2</ele>
        <time>2019-05-26T07:04:05.000Z</time>
      </trkpt>
      <trkpt lat="47.25368" lon="-2.331">
        <ele>2</ele>
        <time>2019-05-26T07:08:01.000Z</time>
      </trkpt>
      <trkpt lat="47.25372" lon="-2.33113">
        <ele>2</ele>
        <time>2019-05-26T07:08:05.000Z</time>
      </trkpt>
      <trkpt lat="47.25384" lon="-2.33134">
        <ele>2</ele>
        <time>2019-05-26T07:08:12.000Z</time>
      </trkpt>
      <trkpt lat="47.25385" lon="-2.33136">
        <ele>2</ele>
        <time>2019-05-26T07:08:14.000Z</time>
      </trkpt>
      <trkpt lat="47.25387" lon="-2.33136">
        <ele>2</ele>
        <time>2019-05-26T07:08:29.000Z</time>
      </trkpt>
      <trkpt lat="47.2539" lon="-2.33136">
        <ele>2</ele>
        <time>2019-05-26T07:08:31.000Z</time>
      </trkpt>
      <trkpt lat="47.25396" lon="-2.33131">
        <ele>2</ele>
        <time>2019-05-26T07:08:33.000Z</time>
      </trkpt>
      <trkpt lat="47.25407" lon="-2.33125">
        <ele>2</ele>
        <time>2019-05-26T07:08:36.000Z</time>
      </trkpt>
      <trkpt lat="47.25412" lon="-2.33123">
        <ele>2</ele>
        <time>2019-05-26T07:08:37.000Z</time>
      </trkpt>
      <trkpt lat="47.25447" lon="-2.33108">
        <ele>2</ele>
        <time>2019-05-26T07:08:44.000Z</time>
      </trkpt>
      <trkpt lat="47.2548" lon="-2.33091">
        <ele>2</ele>
        <time>2019-05-26T07:08:50.000Z</time>
      </trkpt>
      <trkpt lat="47.25485" lon="-2.33087">
        <ele>2</ele>
        <time>2019-05-26T07:08:51.000Z</time>
      </trkpt>
      <trkpt lat="47.25496" lon="-2.33083">
        <ele>2</ele>
        <time>2019-05-26T07:08:54.000Z</time>
      </trkpt>
      <trkpt lat="47.25498" lon="-2.33094">
        <ele>2</ele>
        <time>2019-05-26T07:08:56.000Z</time>
      </trkpt>
      <trkpt lat="47.255" lon="-2.33113">
        <ele>2</ele>
        <time>2019-05-26T07:08:59.000Z</time>
      </trkpt>
      <trkpt lat="47.25501" lon="-2.33127">
        <ele>2</ele>
        <time>2019-05-26T07:09:01.000Z</time>
      </trkpt>
      <trkpt lat="47.25507" lon="-2.33171">
        <ele>2</ele>
        <time>2019-05-26T07:09:07.000Z</time>
      </trkpt>
      <trkpt lat="47.25515" lon="-2.33226">
        <ele>2</ele>
        <time>2019-05-26T07:09:14.000Z</time>
      </trkpt>
      <trkpt lat="47.25522" lon="-2.33279">
        <ele>2</ele>
        <time>2019-05-26T07:09:21.000Z</time>
      </trkpt>
      <trkpt lat="47.25532" lon="-2.33356">
        <ele>2</ele>
        <time>2019-05-26T07:09:31.000Z</time>
      </trkpt>
      <trkpt lat="47.2554" lon="-2.33409">
        <ele>2</ele>
        <time>2019-05-26T07:09:38.000Z</time>
      </trkpt>
      <trkpt lat="47.25547" lon="-2.33431">
        <ele>2</ele>
        <time>2019-05-26T07:09:41.000Z</time>
      </trkpt>
      <trkpt lat="47.25552" lon="-2.33445">
        <ele>2</ele>
        <time>2019-05-26T07:09:43.000Z</time>
      </trkpt>
      <trkpt lat="47.25573" lon="-2.33493">
        <ele>2</ele>
        <time>2019-05-26T07:09:50.000Z</time>
      </trkpt>
      <trkpt lat="47.25581" lon="-2.33506">
        <ele>2</ele>
        <time>2019-05-26T07:09:52.000Z</time>
      </trkpt>
      <trkpt lat="47.25599" lon="-2.33528">
        <ele>2</ele>
        <time>2019-05-26T07:09:56.000Z</time>
      </trkpt>
      <trkpt lat="47.25614" lon="-2.33544">
        <ele>2</ele>
        <time>2019-05-26T07:09:59.000Z</time>
      </trkpt>
      <trkpt lat="47.25636" lon="-2.33559">
        <ele>2</ele>
        <time>2019-05-26T07:10:03.000Z</time>
      </trkpt>
      <trkpt lat="47.25684" lon="-2.33578">
        <ele>2</ele>
        <time>2019-05-26T07:10:11.000Z</time>
      </trkpt>
      <trkpt lat="47.25722" lon="-2.33579">
        <ele>2</ele>
        <time>2019-05-26T07:10:17.000Z</time>
      </trkpt>
      <trkpt lat="47.25766" lon="-2.33576">
        <ele>2</ele>
        <time>2019-05-26T07:10:24.000Z</time>
      </trkpt>
      <trkpt lat="47.25816" lon="-2.33573">
        <ele>2</ele>
        <time>2019-05-26T07:10:32.000Z</time>
      </trkpt>
      <trkpt lat="47.25853" lon="-2.33572">
        <ele>2</ele>
        <time>2019-05-26T07:10:38.000Z</time>
      </trkpt>
      <trkpt lat="47.25869" lon="-2.3357">
        <ele>2</ele>
        <time>2019-05-26T07:10:41.000Z</time>
      </trkpt>
      <trkpt lat="47.25879" lon="-2.33565">
        <ele>2</ele>
        <time>2019-05-26T07:10:43.000Z</time>
      </trkpt>
      <trkpt lat="47.259" lon="-2.33555">
        <ele>2</ele>
        <time>2019-05-26T07:10:47.000Z</time>
      </trkpt>
      <trkpt lat="47.2591" lon="-2.33546">
        <ele>2</ele>
        <time>2019-05-26T07:10:49.000Z</time>
      </trkpt>
      <trkpt lat="47.25914" lon="-2.33541">
        <ele>1.6000000238419</ele>
        <time>2019-05-26T07:10:50.000Z</time>
      </trkpt>
      <trkpt lat="47.25919" lon="-2.33537">
        <ele>1</ele>
        <time>2019-05-26T07:10:51.000Z</time>
      </trkpt>
      <trkpt lat="47.25924" lon="-2.33533">
        <ele>0.60000002384186</ele>
        <time>2019-05-26T07:10:52.000Z</time>
      </trkpt>
      <trkpt lat="47.25929" lon="-2.33528">
        <ele>0.20000000298023</ele>
        <time>2019-05-26T07:10:53.000Z</time>
      </trkpt>
      <trkpt lat="47.25934" lon="-2.33524">
        <ele>-0.20000000298023</ele>
        <time>2019-05-26T07:10:54.000Z</time>
      </trkpt>
      <trkpt lat="47.25965" lon="-2.33497">
        <ele>-0.20000000298023</ele>
        <time>2019-05-26T07:11:00.000Z</time>
      </trkpt>
      <trkpt lat="47.25971" lon="-2.33495">
        <ele>-0.20000000298023</ele>
        <time>2019-05-26T07:11:01.000Z</time>
      </trkpt>
      <trkpt lat="47.26" lon="-2.33492">
        <ele>-0.60000002384186</ele>
        <time>2019-05-26T07:11:06.000Z</time>
      </trkpt>
      <trkpt lat="47.26005" lon="-2.33491">
        <ele>-1</ele>
        <time>2019-05-26T07:11:07.000Z</time>
      </trkpt>
      <trkpt lat="47.26011" lon="-2.3349">
        <ele>-1.3999999761581</ele>
        <time>2019-05-26T07:11:08.000Z</time>
      </trkpt>
      <trkpt lat="47.26016" lon="-2.33488">
        <ele>-1.7999999523163</ele>
        <time>2019-05-26T07:11:09.000Z</time>
      </trkpt>
      <trkpt lat="47.26022" lon="-2.33487">
        <ele>-2.2000000476837</ele>
        <time>2019-05-26T07:11:10.000Z</time>
      </trkpt>
      <trkpt lat="47.26027" lon="-2.33485">
        <ele>-2.2000000476837</ele>
        <time>2019-05-26T07:11:11.000Z</time>
      </trkpt>
      <trkpt lat="47.26032" lon="-2.33481">
        <ele>-2.2000000476837</ele>
        <time>2019-05-26T07:11:12.000Z</time>
      </trkpt>
      <trkpt lat="47.26043" lon="-2.33464">
        <ele>-2.2000000476837</ele>
        <time>2019-05-26T07:11:15.000Z</time>
      </trkpt>
      <trkpt lat="47.26045" lon="-2.33458">
        <ele>-2.2000000476837</ele>
        <time>2019-05-26T07:11:16.000Z</time>
      </trkpt>
      <trkpt lat="47.26048" lon="-2.33453">
        <ele>-2.2000000476837</ele>
        <time>2019-05-26T07:11:17.000Z</time>
      </trkpt>
      <trkpt lat="47.26058" lon="-2.33443">
        <ele>-2.2000000476837</ele>
        <time>2019-05-26T07:11:20.000Z</time>
      </trkpt>
      <trkpt lat="47.26067" lon="-2.33426">
        <ele>-2.2000000476837</ele>
        <time>2019-05-26T07:11:24.000Z</time>
      </trkpt>
      <trkpt lat="47.26081" lon="-2.33403">
        <ele>-2.2000000476837</ele>
        <time>2019-05-26T07:11:29.000Z</time>
      </trkpt>
      <trkpt lat="47.26097" lon="-2.33402">
        <ele>-2.2000000476837</ele>
        <time>2019-05-26T07:11:33.000Z</time>
      </trkpt>
      <trkpt lat="47.26112" lon="-2.33416">
        <ele>-2.2000000476837</ele>
        <time>2019-05-26T07:11:37.000Z</time>
      </trkpt>
      <trkpt lat="47.26115" lon="-2.33421">
        <ele>-2.2000000476837</ele>
        <time>2019-05-26T07:11:38.000Z</time>
      </trkpt>
      <trkpt lat="47.26122" lon="-2.3343">
        <ele>-2.2000000476837</ele>
        <time>2019-05-26T07:11:40.000Z</time>
      </trkpt>
      <trkpt lat="47.26134" lon="-2.33437">
        <ele>-2.2000000476837</ele>
        <time>2019-05-26T07:11:43.000Z</time>
      </trkpt>
      <trkpt lat="47.26139" lon="-2.33438">
        <ele>-2.2000000476837</ele>
        <time>2019-05-26T07:11:44.000Z</time>
      </trkpt>
      <trkpt lat="47.26143" lon="-2.33439">
        <ele>-2.2000000476837</ele>
        <time>2019-05-26T07:11:45.000Z</time>
      </trkpt>
      <trkpt lat="47.26159" lon="-2.3344">
        <ele>-2.2000000476837</ele>
        <time>2019-05-26T07:11:48.000Z</time>
      </trkpt>
      <trkpt lat="47.26199" lon="-2.33443">
        <ele>-2.2000000476837</ele>
        <time>2019-05-26T07:11:55.000Z</time>
      </trkpt>
      <trkpt lat="47.26248" lon="-2.33434">
        <ele>-2.2000000476837</ele>
        <time>2019-05-26T07:12:03.000Z</time>
      </trkpt>
      <trkpt lat="47.26289" lon="-2.33425">
        <ele>-2.2000000476837</ele>
        <time>2019-05-26T07:12:10.000Z</time>
      </trkpt>
      <trkpt lat="47.26321" lon="-2.33418">
        <ele>-2.2000000476837</ele>
        <time>2019-05-26T07:12:16.000Z</time>
      </trkpt>
      <trkpt lat="47.26365" lon="-2.33407">
        <ele>-2.2000000476837</ele>
        <time>2019-05-26T07:12:24.000Z</time>
      </trkpt>
      <trkpt lat="47.26404" lon="-2.33392">
        <ele>-2.2000000476837</ele>
        <time>2019-05-26T07:12:31.000Z</time>
      </trkpt>
      <trkpt lat="47.26443" lon="-2.33369">
        <ele>-2.2000000476837</ele>
        <time>2019-05-26T07:12:39.000Z</time>
      </trkpt>
      <trkpt lat="47.26479" lon="-2.33341">
        <ele>-2.2000000476837</ele>
        <time>2019-05-26T07:12:47.000Z</time>
      </trkpt>
      <trkpt lat="47.26487" lon="-2.3333">
        <ele>-2.2000000476837</ele>
        <time>2019-05-26T07:12:49.000Z</time>
      </trkpt>
      <trkpt lat="47.26492" lon="-2.33316">
        <ele>-2.2000000476837</ele>
        <time>2019-05-26T07:12:51.000Z</time>
      </trkpt>
      <trkpt lat="47.26494" lon="-2.33282">
        <ele>-2.2000000476837</ele>
        <time>2019-05-26T07:12:55.000Z</time>
      </trkpt>
      <trkpt lat="47.26494" lon="-2.33274">
        <ele>-2.2000000476837</ele>
        <time>2019-05-26T07:12:56.000Z</time>
      </trkpt>
      <trkpt lat="47.26508" lon="-2.33234">
        <ele>-2.2000000476837</ele>
        <time>2019-05-26T07:13:01.000Z</time>
      </trkpt>
      <trkpt lat="47.26523" lon="-2.33222">
        <ele>-2.2000000476837</ele>
        <time>2019-05-26T07:13:04.000Z</time>
      </trkpt>
      <trkpt lat="47.26529" lon="-2.33219">
        <ele>-2.2000000476837</ele>
        <time>2019-05-26T07:13:05.000Z</time>
      </trkpt>
      <trkpt lat="47.26577" lon="-2.33191">
        <ele>-2.2000000476837</ele>
        <time>2019-05-26T07:13:14.000Z</time>
      </trkpt>
      <trkpt lat="47.26589" lon="-2.33165">
        <ele>-2.2000000476837</ele>
        <time>2019-05-26T07:13:18.000Z</time>
      </trkpt>
      <trkpt lat="47.26591" lon="-2.33158">
        <ele>-2.2000000476837</ele>
        <time>2019-05-26T07:13:19.000Z</time>
      </trkpt>
      <trkpt lat="47.26593" lon="-2.33152">
        <ele>-2.2000000476837</ele>
        <time>2019-05-26T07:13:20.000Z</time>
      </trkpt>
      <trkpt lat="47.26601" lon="-2.33145">
        <ele>-2.2000000476837</ele>
        <time>2019-05-26T07:13:22.000Z</time>
      </trkpt>
      <trkpt lat="47.2662" lon="-2.33147">
        <ele>-2.2000000476837</ele>
        <time>2019-05-26T07:13:26.000Z</time>
      </trkpt>
      <trkpt lat="47.26631" lon="-2.33148">
        <ele>-2.2000000476837</ele>
        <time>2019-05-26T07:13:28.000Z</time>
      </trkpt>
      <trkpt lat="47.26647" lon="-2.3314">
        <ele>-2.2000000476837</ele>
        <time>2019-05-26T07:13:31.000Z</time>
      </trkpt>
      <trkpt lat="47.26666" lon="-2.33122">
        <ele>-2.2000000476837</ele>
        <time>2019-05-26T07:13:35.000Z</time>
      </trkpt>
      <trkpt lat="47.26671" lon="-2.33118">
        <ele>-2.2000000476837</ele>
        <time>2019-05-26T07:13:36.000Z</time>
      </trkpt>
      <trkpt lat="47.2671" lon="-2.33081">
        <ele>-2.2000000476837</ele>
        <time>2019-05-26T07:13:44.000Z</time>
      </trkpt>
      <trkpt lat="47.26723" lon="-2.33063">
        <ele>-2.2000000476837</ele>
        <time>2019-05-26T07:13:47.000Z</time>
      </trkpt>
      <trkpt lat="47.2673" lon="-2.33049">
        <ele>-2.2000000476837</ele>
        <time>2019-05-26T07:13:49.000Z</time>
      </trkpt>
      <trkpt lat="47.26734" lon="-2.33022">
        <ele>-2.2000000476837</ele>
        <time>2019-05-26T07:13:53.000Z</time>
      </trkpt>
      <trkpt lat="47.26733" lon="-2.33003">
        <ele>-2.2000000476837</ele>
        <time>2019-05-26T07:13:56.000Z</time>
      </trkpt>
      <trkpt lat="47.26742" lon="-2.32977">
        <ele>-2.2000000476837</ele>
        <time>2019-05-26T07:14:00.000Z</time>
      </trkpt>
      <trkpt lat="47.26759" lon="-2.32957">
        <ele>-2.2000000476837</ele>
        <time>2019-05-26T07:14:04.000Z</time>
      </trkpt>
      <trkpt lat="47.26764" lon="-2.32952">
        <ele>-2.2000000476837</ele>
        <time>2019-05-26T07:14:05.000Z</time>
      </trkpt>
      <trkpt lat="47.26772" lon="-2.32943">
        <ele>-2.2000000476837</ele>
        <time>2019-05-26T07:14:07.000Z</time>
      </trkpt>
      <trkpt lat="47.26791" lon="-2.32924">
        <ele>-2.2000000476837</ele>
        <time>2019-05-26T07:14:11.000Z</time>
      </trkpt>
      <trkpt lat="47.26815" lon="-2.32909">
        <ele>-2.2000000476837</ele>
        <time>2019-05-26T07:14:16.000Z</time>
      </trkpt>
      <trkpt lat="47.26837" lon="-2.32888">
        <ele>-2.2000000476837</ele>
        <time>2019-05-26T07:14:21.000Z</time>
      </trkpt>
      <trkpt lat="47.26842" lon="-2.32886">
        <ele>-2.2000000476837</ele>
        <time>2019-05-26T07:14:22.000Z</time>
      </trkpt>
      <trkpt lat="47.26862" lon="-2.32874">
        <ele>-2.2000000476837</ele>
        <time>2019-05-26T07:14:26.000Z</time>
      </trkpt>
      <trkpt lat="47.26861" lon="-2.32858">
        <ele>-2.2000000476837</ele>
        <time>2019-05-26T07:14:29.000Z</time>
      </trkpt>
      <trkpt lat="47.26859" lon="-2.32853">
        <ele>-2.2000000476837</ele>
        <time>2019-05-26T07:14:30.000Z</time>
      </trkpt>
      <trkpt lat="47.26854" lon="-2.32839">
        <ele>-1.7999999523163</ele>
        <time>2019-05-26T07:14:33.000Z</time>
      </trkpt>
      <trkpt lat="47.26852" lon="-2.32834">
        <ele>-1.3999999761581</ele>
        <time>2019-05-26T07:14:34.000Z</time>
      </trkpt>
      <trkpt lat="47.2685" lon="-2.3283">
        <ele>-0.80000001192093</ele>
        <time>2019-05-26T07:14:35.000Z</time>
      </trkpt>
      <trkpt lat="47.26848" lon="-2.32825">
        <ele>-0.40000000596046</ele>
        <time>2019-05-26T07:14:36.000Z</time>
      </trkpt>
      <trkpt lat="47.26847" lon="-2.3282">
        <ele>0.20000000298023</ele>
        <time>2019-05-26T07:14:37.000Z</time>
      </trkpt>
      <trkpt lat="47.26845" lon="-2.32815">
        <ele>0.60000002384186</ele>
        <time>2019-05-26T07:14:38.000Z</time>
      </trkpt>
      <trkpt lat="47.26844" lon="-2.3281">
        <ele>1</ele>
        <time>2019-05-26T07:14:39.000Z</time>
      </trkpt>
      <trkpt lat="47.26842" lon="-2.32805">
        <ele>1.3999999761581</ele>
        <time>2019-05-26T07:14:40.000Z</time>
      </trkpt>
      <trkpt lat="47.26841" lon="-2.32799">
        <ele>2</ele>
        <time>2019-05-26T07:14:41.000Z</time>
      </trkpt>
      <trkpt lat="47.2684" lon="-2.32794">
        <ele>2.4000000953674</ele>
        <time>2019-05-26T07:14:42.000Z</time>
      </trkpt>
      <trkpt lat="47.26839" lon="-2.32784">
        <ele>2.7999999523163</ele>
        <time>2019-05-26T07:14:44.000Z</time>
      </trkpt>
      <trkpt lat="47.26837" lon="-2.3278">
        <ele>3.4000000953674</ele>
        <time>2019-05-26T07:14:45.000Z</time>
      </trkpt>
      <trkpt lat="47.26836" lon="-2.32775">
        <ele>3.7999999523163</ele>
        <time>2019-05-26T07:14:46.000Z</time>
      </trkpt>
      <trkpt lat="47.26834" lon="-2.3277">
        <ele>4.1999998092651</ele>
        <time>2019-05-26T07:14:47.000Z</time>
      </trkpt>
      <trkpt lat="47.26833" lon="-2.32766">
        <ele>4.8000001907349</ele>
        <time>2019-05-26T07:14:48.000Z</time>
      </trkpt>
      <trkpt lat="47.26831" lon="-2.32761">
        <ele>5.1999998092651</ele>
        <time>2019-05-26T07:14:49.000Z</time>
      </trkpt>
      <trkpt lat="47.2683" lon="-2.32756">
        <ele>5.5999999046326</ele>
        <time>2019-05-26T07:14:50.000Z</time>
      </trkpt>
      <trkpt lat="47.26827" lon="-2.32752">
        <ele>6</ele>
        <time>2019-05-26T07:14:51.000Z</time>
      </trkpt>
      <trkpt lat="47.26825" lon="-2.32748">
        <ele>6.4000000953674</ele>
        <time>2019-05-26T07:14:52.000Z</time>
      </trkpt>
      <trkpt lat="47.26823" lon="-2.32744">
        <ele>6.8000001907349</ele>
        <time>2019-05-26T07:14:53.000Z</time>
      </trkpt>
      <trkpt lat="47.26821" lon="-2.3274">
        <ele>7.1999998092651</ele>
        <time>2019-05-26T07:14:54.000Z</time>
      </trkpt>
      <trkpt lat="47.26819" lon="-2.32735">
        <ele>7.5999999046326</ele>
        <time>2019-05-26T07:14:55.000Z</time>
      </trkpt>
      <trkpt lat="47.26817" lon="-2.32731">
        <ele>8</ele>
        <time>2019-05-26T07:14:56.000Z</time>
      </trkpt>
      <trkpt lat="47.26815" lon="-2.32726">
        <ele>8.3999996185303</ele>
        <time>2019-05-26T07:14:57.000Z</time>
      </trkpt>
      <trkpt lat="47.26813" lon="-2.32721">
        <ele>8.8000001907349</ele>
        <time>2019-05-26T07:14:58.000Z</time>
      </trkpt>
      <trkpt lat="47.26807" lon="-2.32706">
        <ele>8.8000001907349</ele>
        <time>2019-05-26T07:15:01.000Z</time>
      </trkpt>
      <trkpt lat="47.26803" lon="-2.32696">
        <ele>9.3999996185303</ele>
        <time>2019-05-26T07:15:03.000Z</time>
      </trkpt>
      <trkpt lat="47.26801" lon="-2.32691">
        <ele>9.8000001907349</ele>
        <time>2019-05-26T07:15:04.000Z</time>
      </trkpt>
      <trkpt lat="47.268" lon="-2.32685">
        <ele>10.199999809265</ele>
        <time>2019-05-26T07:15:05.000Z</time>
      </trkpt>
      <trkpt lat="47.26801" lon="-2.32679">
        <ele>10.60000038147</ele>
        <time>2019-05-26T07:15:06.000Z</time>
      </trkpt>
      <trkpt lat="47.26803" lon="-2.32674">
        <ele>11</ele>
        <time>2019-05-26T07:15:07.000Z</time>
      </trkpt>
      <trkpt lat="47.26809" lon="-2.32657">
        <ele>11</ele>
        <time>2019-05-26T07:15:10.000Z</time>
      </trkpt>
      <trkpt lat="47.26809" lon="-2.32651">
        <ele>11</ele>
        <time>2019-05-26T07:15:11.000Z</time>
      </trkpt>
      <trkpt lat="47.26806" lon="-2.32622">
        <ele>11</ele>
        <time>2019-05-26T07:15:15.000Z</time>
      </trkpt>
      <trkpt lat="47.26805" lon="-2.32615">
        <ele>11</ele>
        <time>2019-05-26T07:15:16.000Z</time>
      </trkpt>
      <trkpt lat="47.26797" lon="-2.32559">
        <ele>11</ele>
        <time>2019-05-26T07:15:23.000Z</time>
      </trkpt>
      <trkpt lat="47.26795" lon="-2.32513">
        <ele>11</ele>
        <time>2019-05-26T07:15:29.000Z</time>
      </trkpt>
      <trkpt lat="47.2679" lon="-2.3247">
        <ele>11</ele>
        <time>2019-05-26T07:15:35.000Z</time>
      </trkpt>
      <trkpt lat="47.26785" lon="-2.32422">
        <ele>11</ele>
        <time>2019-05-26T07:15:42.000Z</time>
      </trkpt>
      <trkpt lat="47.26781" lon="-2.32403">
        <ele>11.39999961853</ele>
        <time>2019-05-26T07:15:45.000Z</time>
      </trkpt>
      <trkpt lat="47.2678" lon="-2.32397">
        <ele>11.800000190735</ele>
        <time>2019-05-26T07:15:46.000Z</time>
      </trkpt>
      <trkpt lat="47.26779" lon="-2.32391">
        <ele>12.199999809265</ele>
        <time>2019-05-26T07:15:47.000Z</time>
      </trkpt>
      <trkpt lat="47.26778" lon="-2.32385">
        <ele>12.60000038147</ele>
        <time>2019-05-26T07:15:48.000Z</time>
      </trkpt>
      <trkpt lat="47.26777" lon="-2.32379">
        <ele>13</ele>
        <time>2019-05-26T07:15:49.000Z</time>
      </trkpt>
      <trkpt lat="47.26778" lon="-2.32373">
        <ele>13</ele>
        <time>2019-05-26T07:15:50.000Z</time>
      </trkpt>
      <trkpt lat="47.26783" lon="-2.32364">
        <ele>13</ele>
        <time>2019-05-26T07:15:52.000Z</time>
      </trkpt>
      <trkpt lat="47.26798" lon="-2.32358">
        <ele>13</ele>
        <time>2019-05-26T07:15:55.000Z</time>
      </trkpt>
      <trkpt lat="47.26831" lon="-2.32349">
        <ele>12.39999961853</ele>
        <time>2019-05-26T07:16:00.000Z</time>
      </trkpt>
      <trkpt lat="47.26839" lon="-2.32348">
        <ele>12</ele>
        <time>2019-05-26T07:16:01.000Z</time>
      </trkpt>
      <trkpt lat="47.26847" lon="-2.32346">
        <ele>11.60000038147</ele>
        <time>2019-05-26T07:16:02.000Z</time>
      </trkpt>
      <trkpt lat="47.26855" lon="-2.32344">
        <ele>11</ele>
        <time>2019-05-26T07:16:03.000Z</time>
      </trkpt>
      <trkpt lat="47.26862" lon="-2.32342">
        <ele>10.60000038147</ele>
        <time>2019-05-26T07:16:04.000Z</time>
      </trkpt>
      <trkpt lat="47.26869" lon="-2.32341">
        <ele>10</ele>
        <time>2019-05-26T07:16:05.000Z</time>
      </trkpt>
      <trkpt lat="47.26876" lon="-2.32339">
        <ele>9.6000003814697</ele>
        <time>2019-05-26T07:16:06.000Z</time>
      </trkpt>
      <trkpt lat="47.26883" lon="-2.32338">
        <ele>8.3999996185303</ele>
        <time>2019-05-26T07:16:07.000Z</time>
      </trkpt>
      <trkpt lat="47.26896" lon="-2.32337">
        <ele>8</ele>
        <time>2019-05-26T07:16:09.000Z</time>
      </trkpt>
      <trkpt lat="47.26902" lon="-2.32335">
        <ele>7.4000000953674</ele>
        <time>2019-05-26T07:16:10.000Z</time>
      </trkpt>
      <trkpt lat="47.26908" lon="-2.32334">
        <ele>7</ele>
        <time>2019-05-26T07:16:11.000Z</time>
      </trkpt>
      <trkpt lat="47.26913" lon="-2.32335">
        <ele>6.4000000953674</ele>
        <time>2019-05-26T07:16:12.000Z</time>
      </trkpt>
      <trkpt lat="47.26918" lon="-2.32336">
        <ele>5.8000001907349</ele>
        <time>2019-05-26T07:16:13.000Z</time>
      </trkpt>
      <trkpt lat="47.26923" lon="-2.3234">
        <ele>5.1999998092651</ele>
        <time>2019-05-26T07:16:14.000Z</time>
      </trkpt>
      <trkpt lat="47.26926" lon="-2.32345">
        <ele>4.5999999046326</ele>
        <time>2019-05-26T07:16:15.000Z</time>
      </trkpt>
      <trkpt lat="47.26929" lon="-2.32351">
        <ele>4.1999998092651</ele>
        <time>2019-05-26T07:16:16.000Z</time>
      </trkpt>
      <trkpt lat="47.26932" lon="-2.32358">
        <ele>3.5999999046326</ele>
        <time>2019-05-26T07:16:17.000Z</time>
      </trkpt>
      <trkpt lat="47.26935" lon="-2.32367">
        <ele>3.5999999046326</ele>
        <time>2019-05-26T07:16:18.000Z</time>
      </trkpt>
      <trkpt lat="47.26945" lon="-2.324">
        <ele>3.5999999046326</ele>
        <time>2019-05-26T07:16:22.000Z</time>
      </trkpt>
      <trkpt lat="47.26951" lon="-2.32416">
        <ele>3.5999999046326</ele>
        <time>2019-05-26T07:16:24.000Z</time>
      </trkpt>
      <trkpt lat="47.26958" lon="-2.3243">
        <ele>3.5999999046326</ele>
        <time>2019-05-26T07:16:26.000Z</time>
      </trkpt>
      <trkpt lat="47.26963" lon="-2.32436">
        <ele>3.5999999046326</ele>
        <time>2019-05-26T07:16:27.000Z</time>
      </trkpt>
      <trkpt lat="47.26981" lon="-2.32459">
        <ele>3.5999999046326</ele>
        <time>2019-05-26T07:16:31.000Z</time>
      </trkpt>
      <trkpt lat="47.26984" lon="-2.32467">
        <ele>2.7999999523163</ele>
        <time>2019-05-26T07:16:32.000Z</time>
      </trkpt>
      <trkpt lat="47.26987" lon="-2.32474">
        <ele>2.4000000953674</ele>
        <time>2019-05-26T07:16:33.000Z</time>
      </trkpt>
      <trkpt lat="47.26991" lon="-2.32482">
        <ele>2</ele>
        <time>2019-05-26T07:16:34.000Z</time>
      </trkpt>
      <trkpt lat="47.26994" lon="-2.32489">
        <ele>1.6000000238419</ele>
        <time>2019-05-26T07:16:35.000Z</time>
      </trkpt>
      <trkpt lat="47.27002" lon="-2.32502">
        <ele>1.6000000238419</ele>
        <time>2019-05-26T07:16:37.000Z</time>
      </trkpt>
      <trkpt lat="47.2702" lon="-2.32503">
        <ele>1.6000000238419</ele>
        <time>2019-05-26T07:16:40.000Z</time>
      </trkpt>
      <trkpt lat="47.27032" lon="-2.32491">
        <ele>1</ele>
        <time>2019-05-26T07:16:43.000Z</time>
      </trkpt>
      <trkpt lat="47.27032" lon="-2.32484">
        <ele>0.60000002384186</ele>
        <time>2019-05-26T07:16:44.000Z</time>
      </trkpt>
      <trkpt lat="47.27032" lon="-2.32479">
        <ele>0.20000000298023</ele>
        <time>2019-05-26T07:16:45.000Z</time>
      </trkpt>
      <trkpt lat="47.27031" lon="-2.32473">
        <ele>-0.20000000298023</ele>
        <time>2019-05-26T07:16:46.000Z</time>
      </trkpt>
      <trkpt lat="47.27031" lon="-2.32468">
        <ele>-0.60000002384186</ele>
        <time>2019-05-26T07:16:47.000Z</time>
      </trkpt>
      <trkpt lat="47.2703" lon="-2.32434">
        <ele>-0.60000002384186</ele>
        <time>2019-05-26T07:16:53.000Z</time>
      </trkpt>
      <trkpt lat="47.27029" lon="-2.32427">
        <ele>-0.60000002384186</ele>
        <time>2019-05-26T07:16:54.000Z</time>
      </trkpt>
      <trkpt lat="47.27027" lon="-2.32393">
        <ele>-0.60000002384186</ele>
        <time>2019-05-26T07:16:59.000Z</time>
      </trkpt>
      <trkpt lat="47.27023" lon="-2.32362">
        <ele>-0.60000002384186</ele>
        <time>2019-05-26T07:17:03.000Z</time>
      </trkpt>
      <trkpt lat="47.2702" lon="-2.32346">
        <ele>-0.60000002384186</ele>
        <time>2019-05-26T07:17:05.000Z</time>
      </trkpt>
      <trkpt lat="47.27018" lon="-2.32307">
        <ele>-0.60000002384186</ele>
        <time>2019-05-26T07:17:10.000Z</time>
      </trkpt>
      <trkpt lat="47.27016" lon="-2.32266">
        <ele>-0.60000002384186</ele>
        <time>2019-05-26T07:17:15.000Z</time>
      </trkpt>
      <trkpt lat="47.27015" lon="-2.32259">
        <ele>-0.60000002384186</ele>
        <time>2019-05-26T07:17:16.000Z</time>
      </trkpt>
      <trkpt lat="47.27015" lon="-2.32242">
        <ele>-0.60000002384186</ele>
        <time>2019-05-26T07:17:18.000Z</time>
      </trkpt>
      <trkpt lat="47.27013" lon="-2.32221">
        <ele>-0.60000002384186</ele>
        <time>2019-05-26T07:17:21.000Z</time>
      </trkpt>
      <trkpt lat="47.27012" lon="-2.32214">
        <ele>-0.60000002384186</ele>
        <time>2019-05-26T07:17:22.000Z</time>
      </trkpt>
      <trkpt lat="47.2701" lon="-2.32207">
        <ele>-0.60000002384186</ele>
        <time>2019-05-26T07:17:23.000Z</time>
      </trkpt>
      <trkpt lat="47.27001" lon="-2.32187">
        <ele>-0.60000002384186</ele>
        <time>2019-05-26T07:17:26.000Z</time>
      </trkpt>
      <trkpt lat="47.26994" lon="-2.32175">
        <ele>-0.60000002384186</ele>
        <time>2019-05-26T07:17:28.000Z</time>
      </trkpt>
      <trkpt lat="47.26988" lon="-2.32161">
        <ele>-0.60000002384186</ele>
        <time>2019-05-26T07:17:30.000Z</time>
      </trkpt>
      <trkpt lat="47.26987" lon="-2.32154">
        <ele>-0.60000002384186</ele>
        <time>2019-05-26T07:17:31.000Z</time>
      </trkpt>
      <trkpt lat="47.26992" lon="-2.32139">
        <ele>-0.60000002384186</ele>
        <time>2019-05-26T07:17:33.000Z</time>
      </trkpt>
      <trkpt lat="47.27005" lon="-2.32127">
        <ele>-0.60000002384186</ele>
        <time>2019-05-26T07:17:36.000Z</time>
      </trkpt>
      <trkpt lat="47.27008" lon="-2.32122">
        <ele>-0.60000002384186</ele>
        <time>2019-05-26T07:17:37.000Z</time>
      </trkpt>
      <trkpt lat="47.27014" lon="-2.32106">
        <ele>-0.60000002384186</ele>
        <time>2019-05-26T07:17:40.000Z</time>
      </trkpt>
      <trkpt lat="47.27017" lon="-2.3208">
        <ele>-0.60000002384186</ele>
        <time>2019-05-26T07:17:44.000Z</time>
      </trkpt>
      <trkpt lat="47.27017" lon="-2.32073">
        <ele>-0.60000002384186</ele>
        <time>2019-05-26T07:17:45.000Z</time>
      </trkpt>
      <trkpt lat="47.27018" lon="-2.32067">
        <ele>-0.60000002384186</ele>
        <time>2019-05-26T07:17:46.000Z</time>
      </trkpt>
      <trkpt lat="47.27014" lon="-2.32036">
        <ele>-0.20000000298023</ele>
        <time>2019-05-26T07:17:50.000Z</time>
      </trkpt>
      <trkpt lat="47.27013" lon="-2.32028">
        <ele>0.20000000298023</ele>
        <time>2019-05-26T07:17:51.000Z</time>
      </trkpt>
      <trkpt lat="47.27011" lon="-2.3202">
        <ele>0.60000002384186</ele>
        <time>2019-05-26T07:17:52.000Z</time>
      </trkpt>
      <trkpt lat="47.27009" lon="-2.32013">
        <ele>1.2000000476837</ele>
        <time>2019-05-26T07:17:53.000Z</time>
      </trkpt>
      <trkpt lat="47.27008" lon="-2.32007">
        <ele>1.6000000238419</ele>
        <time>2019-05-26T07:17:54.000Z</time>
      </trkpt>
      <trkpt lat="47.27006" lon="-2.31995">
        <ele>1.6000000238419</ele>
        <time>2019-05-26T07:17:56.000Z</time>
      </trkpt>
      <trkpt lat="47.27008" lon="-2.3199">
        <ele>1.6000000238419</ele>
        <time>2019-05-26T07:17:57.000Z</time>
      </trkpt>
      <trkpt lat="47.27011" lon="-2.31986">
        <ele>1.6000000238419</ele>
        <time>2019-05-26T07:17:58.000Z</time>
      </trkpt>
      <trkpt lat="47.27028" lon="-2.31976">
        <ele>1.6000000238419</ele>
        <time>2019-05-26T07:18:02.000Z</time>
      </trkpt>
      <trkpt lat="47.2704" lon="-2.31969">
        <ele>2</ele>
        <time>2019-05-26T07:18:05.000Z</time>
      </trkpt>
      <trkpt lat="47.27043" lon="-2.31967">
        <ele>2.4000000953674</ele>
        <time>2019-05-26T07:18:06.000Z</time>
      </trkpt>
      <trkpt lat="47.27046" lon="-2.31966">
        <ele>2.7999999523163</ele>
        <time>2019-05-26T07:18:07.000Z</time>
      </trkpt>
      <trkpt lat="47.2705" lon="-2.31964">
        <ele>3.2000000476837</ele>
        <time>2019-05-26T07:18:08.000Z</time>
      </trkpt>
      <trkpt lat="47.27054" lon="-2.31963">
        <ele>3.5999999046326</ele>
        <time>2019-05-26T07:18:09.000Z</time>
      </trkpt>
      <trkpt lat="47.27064" lon="-2.31961">
        <ele>3.5999999046326</ele>
        <time>2019-05-26T07:18:11.000Z</time>
      </trkpt>
      <trkpt lat="47.27092" lon="-2.31955">
        <ele>3.5999999046326</ele>
        <time>2019-05-26T07:18:16.000Z</time>
      </trkpt>
      <trkpt lat="47.27098" lon="-2.31956">
        <ele>3.5999999046326</ele>
        <time>2019-05-26T07:18:17.000Z</time>
      </trkpt>
      <trkpt lat="47.27111" lon="-2.31962">
        <ele>3.2000000476837</ele>
        <time>2019-05-26T07:18:19.000Z</time>
      </trkpt>
      <trkpt lat="47.27117" lon="-2.31965">
        <ele>2.7999999523163</ele>
        <time>2019-05-26T07:18:20.000Z</time>
      </trkpt>
      <trkpt lat="47.27123" lon="-2.31968">
        <ele>2.4000000953674</ele>
        <time>2019-05-26T07:18:21.000Z</time>
      </trkpt>
      <trkpt lat="47.27129" lon="-2.31971">
        <ele>2</ele>
        <time>2019-05-26T07:18:22.000Z</time>
      </trkpt>
      <trkpt lat="47.27135" lon="-2.31976">
        <ele>1.3999999761581</ele>
        <time>2019-05-26T07:18:23.000Z</time>
      </trkpt>
      <trkpt lat="47.27139" lon="-2.3198">
        <ele>1.3999999761581</ele>
        <time>2019-05-26T07:18:24.000Z</time>
      </trkpt>
      <trkpt lat="47.2715" lon="-2.31989">
        <ele>1.3999999761581</ele>
        <time>2019-05-26T07:18:27.000Z</time>
      </trkpt>
      <trkpt lat="47.27155" lon="-2.31989">
        <ele>1.3999999761581</ele>
        <time>2019-05-26T07:18:28.000Z</time>
      </trkpt>
      <trkpt lat="47.27164" lon="-2.31987">
        <ele>1.3999999761581</ele>
        <time>2019-05-26T07:18:30.000Z</time>
      </trkpt>
      <trkpt lat="47.27174" lon="-2.31972">
        <ele>1.3999999761581</ele>
        <time>2019-05-26T07:18:33.000Z</time>
      </trkpt>
      <trkpt lat="47.2719" lon="-2.31955">
        <ele>1.3999999761581</ele>
        <time>2019-05-26T07:18:37.000Z</time>
      </trkpt>
      <trkpt lat="47.27194" lon="-2.31952">
        <ele>1.3999999761581</ele>
        <time>2019-05-26T07:18:38.000Z</time>
      </trkpt>
      <trkpt lat="47.27198" lon="-2.31947">
        <ele>1.3999999761581</ele>
        <time>2019-05-26T07:18:40.000Z</time>
      </trkpt>
      <trkpt lat="47.272" lon="-2.31943">
        <ele>1.3999999761581</ele>
        <time>2019-05-26T07:18:41.000Z</time>
      </trkpt>
      <trkpt lat="47.27211" lon="-2.31919">
        <ele>1.3999999761581</ele>
        <time>2019-05-26T07:18:47.000Z</time>
      </trkpt>
      <trkpt lat="47.27219" lon="-2.31912">
        <ele>1.3999999761581</ele>
        <time>2019-05-26T07:18:51.000Z</time>
      </trkpt>
      <trkpt lat="47.2722" lon="-2.31913">
        <ele>1.3999999761581</ele>
        <time>2019-05-26T07:18:52.000Z</time>
      </trkpt>
      <trkpt lat="47.27221" lon="-2.31913">
        <ele>1.3999999761581</ele>
        <time>2019-05-26T07:18:54.000Z</time>
      </trkpt>
      <trkpt lat="47.27223" lon="-2.31915">
        <ele>1.3999999761581</ele>
        <time>2019-05-26T07:19:00.000Z</time>
      </trkpt>
      <trkpt lat="47.27226" lon="-2.31917">
        <ele>1.3999999761581</ele>
        <time>2019-05-26T07:19:01.000Z</time>
      </trkpt>
      <trkpt lat="47.27238" lon="-2.31922">
        <ele>1.3999999761581</ele>
        <time>2019-05-26T07:19:06.000Z</time>
      </trkpt>
      <trkpt lat="47.27261" lon="-2.31927">
        <ele>1.3999999761581</ele>
        <time>2019-05-26T07:19:11.000Z</time>
      </trkpt>
      <trkpt lat="47.27292" lon="-2.31938">
        <ele>1.3999999761581</ele>
        <time>2019-05-26T07:19:17.000Z</time>
      </trkpt>
      <trkpt lat="47.27301" lon="-2.31946">
        <ele>1.3999999761581</ele>
        <time>2019-05-26T07:19:19.000Z</time>
      </trkpt>
      <trkpt lat="47.2731" lon="-2.31954">
        <ele>1.3999999761581</ele>
        <time>2019-05-26T07:19:21.000Z</time>
      </trkpt>
      <trkpt lat="47.27315" lon="-2.31959">
        <ele>1.3999999761581</ele>
        <time>2019-05-26T07:19:22.000Z</time>
      </trkpt>
      <trkpt lat="47.27348" lon="-2.31996">
        <ele>1.3999999761581</ele>
        <time>2019-05-26T07:19:28.000Z</time>
      </trkpt>
      <trkpt lat="47.27385" lon="-2.32036">
        <ele>1.3999999761581</ele>
        <time>2019-05-26T07:19:36.000Z</time>
      </trkpt>
      <trkpt lat="47.27409" lon="-2.3206">
        <ele>1.3999999761581</ele>
        <time>2019-05-26T07:19:42.000Z</time>
      </trkpt>
      <trkpt lat="47.27413" lon="-2.32064">
        <ele>1.3999999761581</ele>
        <time>2019-05-26T07:19:43.000Z</time>
      </trkpt>
      <trkpt lat="47.2742" lon="-2.32071">
        <ele>2</ele>
        <time>2019-05-26T07:19:45.000Z</time>
      </trkpt>
      <trkpt lat="47.27424" lon="-2.32076">
        <ele>2.4000000953674</ele>
        <time>2019-05-26T07:19:46.000Z</time>
      </trkpt>
      <trkpt lat="47.27428" lon="-2.3208">
        <ele>3.4000000953674</ele>
        <time>2019-05-26T07:19:47.000Z</time>
      </trkpt>
      <trkpt lat="47.27432" lon="-2.32085">
        <ele>3.7999999523163</ele>
        <time>2019-05-26T07:19:48.000Z</time>
      </trkpt>
      <trkpt lat="47.27439" lon="-2.32095">
        <ele>3.7999999523163</ele>
        <time>2019-05-26T07:19:50.000Z</time>
      </trkpt>
      <trkpt lat="47.2747" lon="-2.32136">
        <ele>3.7999999523163</ele>
        <time>2019-05-26T07:19:58.000Z</time>
      </trkpt>
      <trkpt lat="47.27501" lon="-2.32178">
        <ele>4.1999998092651</ele>
        <time>2019-05-26T07:20:06.000Z</time>
      </trkpt>
      <trkpt lat="47.27505" lon="-2.32182">
        <ele>4.5999999046326</ele>
        <time>2019-05-26T07:20:07.000Z</time>
      </trkpt>
      <trkpt lat="47.27509" lon="-2.32187">
        <ele>5.1999998092651</ele>
        <time>2019-05-26T07:20:08.000Z</time>
      </trkpt>
      <trkpt lat="47.27512" lon="-2.32191">
        <ele>5.5999999046326</ele>
        <time>2019-05-26T07:20:09.000Z</time>
      </trkpt>
      <trkpt lat="47.27516" lon="-2.32196">
        <ele>6</ele>
        <time>2019-05-26T07:20:10.000Z</time>
      </trkpt>
      <trkpt lat="47.2753" lon="-2.32213">
        <ele>6</ele>
        <time>2019-05-26T07:20:14.000Z</time>
      </trkpt>
      <trkpt lat="47.27538" lon="-2.32219">
        <ele>6.4000000953674</ele>
        <time>2019-05-26T07:20:16.000Z</time>
      </trkpt>
      <trkpt lat="47.27542" lon="-2.32223">
        <ele>6.8000001907349</ele>
        <time>2019-05-26T07:20:17.000Z</time>
      </trkpt>
      <trkpt lat="47.27546" lon="-2.32226">
        <ele>7.1999998092651</ele>
        <time>2019-05-26T07:20:18.000Z</time>
      </trkpt>
      <trkpt lat="47.27549" lon="-2.3223">
        <ele>7.5999999046326</ele>
        <time>2019-05-26T07:20:19.000Z</time>
      </trkpt>
      <trkpt lat="47.27554" lon="-2.32233">
        <ele>8</ele>
        <time>2019-05-26T07:20:20.000Z</time>
      </trkpt>
      <trkpt lat="47.27557" lon="-2.32236">
        <ele>8</ele>
        <time>2019-05-26T07:20:21.000Z</time>
      </trkpt>
      <trkpt lat="47.27572" lon="-2.3225">
        <ele>8.6000003814697</ele>
        <time>2019-05-26T07:20:25.000Z</time>
      </trkpt>
      <trkpt lat="47.27576" lon="-2.32253">
        <ele>9</ele>
        <time>2019-05-26T07:20:26.000Z</time>
      </trkpt>
      <trkpt lat="47.2758" lon="-2.32256">
        <ele>9.3999996185303</ele>
        <time>2019-05-26T07:20:27.000Z</time>
      </trkpt>
      <trkpt lat="47.27584" lon="-2.32259">
        <ele>9.8000001907349</ele>
        <time>2019-05-26T07:20:28.000Z</time>
      </trkpt>
      <trkpt lat="47.27588" lon="-2.32263">
        <ele>10.39999961853</ele>
        <time>2019-05-26T07:20:29.000Z</time>
      </trkpt>
      <trkpt lat="47.27604" lon="-2.32274">
        <ele>10.39999961853</ele>
        <time>2019-05-26T07:20:33.000Z</time>
      </trkpt>
      <trkpt lat="47.27608" lon="-2.32275">
        <ele>10.39999961853</ele>
        <time>2019-05-26T07:20:34.000Z</time>
      </trkpt>
      <trkpt lat="47.27613" lon="-2.32274">
        <ele>10.800000190735</ele>
        <time>2019-05-26T07:20:35.000Z</time>
      </trkpt>
      <trkpt lat="47.27616" lon="-2.32271">
        <ele>11.199999809265</ele>
        <time>2019-05-26T07:20:36.000Z</time>
      </trkpt>
      <trkpt lat="47.2762" lon="-2.32268">
        <ele>12</ele>
        <time>2019-05-26T07:20:37.000Z</time>
      </trkpt>
      <trkpt lat="47.27623" lon="-2.32264">
        <ele>12.60000038147</ele>
        <time>2019-05-26T07:20:38.000Z</time>
      </trkpt>
      <trkpt lat="47.2763" lon="-2.32248">
        <ele>12.60000038147</ele>
        <time>2019-05-26T07:20:41.000Z</time>
      </trkpt>
      <trkpt lat="47.27632" lon="-2.32243">
        <ele>12.60000038147</ele>
        <time>2019-05-26T07:20:42.000Z</time>
      </trkpt>
      <trkpt lat="47.27634" lon="-2.32236">
        <ele>12.60000038147</ele>
        <time>2019-05-26T07:20:43.000Z</time>
      </trkpt>
      <trkpt lat="47.27642" lon="-2.32209">
        <ele>12.60000038147</ele>
        <time>2019-05-26T07:20:47.000Z</time>
      </trkpt>
      <trkpt lat="47.27656" lon="-2.32162">
        <ele>12.60000038147</ele>
        <time>2019-05-26T07:20:53.000Z</time>
      </trkpt>
      <trkpt lat="47.27673" lon="-2.32105">
        <ele>12.60000038147</ele>
        <time>2019-05-26T07:20:59.000Z</time>
      </trkpt>
      <trkpt lat="47.27681" lon="-2.32087">
        <ele>12.60000038147</ele>
        <time>2019-05-26T07:21:01.000Z</time>
      </trkpt>
      <trkpt lat="47.27687" lon="-2.32068">
        <ele>12.60000038147</ele>
        <time>2019-05-26T07:21:03.000Z</time>
      </trkpt>
      <trkpt lat="47.2769" lon="-2.32029">
        <ele>12.60000038147</ele>
        <time>2019-05-26T07:21:07.000Z</time>
      </trkpt>
      <trkpt lat="47.27692" lon="-2.32012">
        <ele>12</ele>
        <time>2019-05-26T07:21:09.000Z</time>
      </trkpt>
      <trkpt lat="47.27694" lon="-2.32004">
        <ele>11.60000038147</ele>
        <time>2019-05-26T07:21:10.000Z</time>
      </trkpt>
      <trkpt lat="47.27697" lon="-2.31996">
        <ele>11.199999809265</ele>
        <time>2019-05-26T07:21:11.000Z</time>
      </trkpt>
      <trkpt lat="47.27701" lon="-2.31989">
        <ele>10.800000190735</ele>
        <time>2019-05-26T07:21:12.000Z</time>
      </trkpt>
      <trkpt lat="47.27704" lon="-2.31982">
        <ele>10.39999961853</ele>
        <time>2019-05-26T07:21:13.000Z</time>
      </trkpt>
      <trkpt lat="47.27721" lon="-2.31943">
        <ele>10.800000190735</ele>
        <time>2019-05-26T07:21:19.000Z</time>
      </trkpt>
      <trkpt lat="47.27724" lon="-2.31936">
        <ele>11.199999809265</ele>
        <time>2019-05-26T07:21:20.000Z</time>
      </trkpt>
      <trkpt lat="47.27726" lon="-2.31931">
        <ele>11.60000038147</ele>
        <time>2019-05-26T07:21:21.000Z</time>
      </trkpt>
      <trkpt lat="47.27728" lon="-2.31925">
        <ele>12</ele>
        <time>2019-05-26T07:21:22.000Z</time>
      </trkpt>
      <trkpt lat="47.2773" lon="-2.31919">
        <ele>12.39999961853</ele>
        <time>2019-05-26T07:21:23.000Z</time>
      </trkpt>
      <trkpt lat="47.27737" lon="-2.31904">
        <ele>12.39999961853</ele>
        <time>2019-05-26T07:21:26.000Z</time>
      </trkpt>
      <trkpt lat="47.2774" lon="-2.31877">
        <ele>12.39999961853</ele>
        <time>2019-05-26T07:21:31.000Z</time>
      </trkpt>
      <trkpt lat="47.27736" lon="-2.31843">
        <ele>12.39999961853</ele>
        <time>2019-05-26T07:21:36.000Z</time>
      </trkpt>
      <trkpt lat="47.27732" lon="-2.31815">
        <ele>12.39999961853</ele>
        <time>2019-05-26T07:21:41.000Z</time>
      </trkpt>
      <trkpt lat="47.27728" lon="-2.3179">
        <ele>12.39999961853</ele>
        <time>2019-05-26T07:21:46.000Z</time>
      </trkpt>
      <trkpt lat="47.27727" lon="-2.31764">
        <ele>12.39999961853</ele>
        <time>2019-05-26T07:21:52.000Z</time>
      </trkpt>
      <trkpt lat="47.27732" lon="-2.31739">
        <ele>12.39999961853</ele>
        <time>2019-05-26T07:21:58.000Z</time>
      </trkpt>
      <trkpt lat="47.2774" lon="-2.31719">
        <ele>12.39999961853</ele>
        <time>2019-05-26T07:22:04.000Z</time>
      </trkpt>
      <trkpt lat="47.27754" lon="-2.31713">
        <ele>12.39999961853</ele>
        <time>2019-05-26T07:22:09.000Z</time>
      </trkpt>
      <trkpt lat="47.27766" lon="-2.31711">
        <ele>12.39999961853</ele>
        <time>2019-05-26T07:22:13.000Z</time>
      </trkpt>
      <trkpt lat="47.27773" lon="-2.31715">
        <ele>12.39999961853</ele>
        <time>2019-05-26T07:22:17.000Z</time>
      </trkpt>
      <trkpt lat="47.27786" lon="-2.31726">
        <ele>12.39999961853</ele>
        <time>2019-05-26T07:22:23.000Z</time>
      </trkpt>
      <trkpt lat="47.27801" lon="-2.31745">
        <ele>12.39999961853</ele>
        <time>2019-05-26T07:22:28.000Z</time>
      </trkpt>
      <trkpt lat="47.27819" lon="-2.31754">
        <ele>12.39999961853</ele>
        <time>2019-05-26T07:22:32.000Z</time>
      </trkpt>
      <trkpt lat="47.27823" lon="-2.31753">
        <ele>12.39999961853</ele>
        <time>2019-05-26T07:22:33.000Z</time>
      </trkpt>
      <trkpt lat="47.27833" lon="-2.31751">
        <ele>12.800000190735</ele>
        <time>2019-05-26T07:22:35.000Z</time>
      </trkpt>
      <trkpt lat="47.27838" lon="-2.3175">
        <ele>13.199999809265</ele>
        <time>2019-05-26T07:22:36.000Z</time>
      </trkpt>
      <trkpt lat="47.27842" lon="-2.3175">
        <ele>13.60000038147</ele>
        <time>2019-05-26T07:22:37.000Z</time>
      </trkpt>
      <trkpt lat="47.27846" lon="-2.31749">
        <ele>14</ele>
        <time>2019-05-26T07:22:38.000Z</time>
      </trkpt>
      <trkpt lat="47.2785" lon="-2.31748">
        <ele>14.39999961853</ele>
        <time>2019-05-26T07:22:39.000Z</time>
      </trkpt>
      <trkpt lat="47.27858" lon="-2.31747">
        <ele>14.39999961853</ele>
        <time>2019-05-26T07:22:41.000Z</time>
      </trkpt>
      <trkpt lat="47.27872" lon="-2.31742">
        <ele>14.39999961853</ele>
        <time>2019-05-26T07:22:46.000Z</time>
      </trkpt>
      <trkpt lat="47.27876" lon="-2.31742">
        <ele>14.39999961853</ele>
        <time>2019-05-26T07:22:51.000Z</time>
      </trkpt>
      <trkpt lat="47.27876" lon="-2.31742">
        <ele>14.39999961853</ele>
        <time>2019-05-26T07:22:52.000Z</time>
      </trkpt>
      <trkpt lat="47.27878" lon="-2.31739">
        <ele>14.39999961853</ele>
        <time>2019-05-26T07:23:04.000Z</time>
      </trkpt>
      <trkpt lat="47.27883" lon="-2.31735">
        <ele>14.39999961853</ele>
        <time>2019-05-26T07:23:06.000Z</time>
      </trkpt>
      <trkpt lat="47.27896" lon="-2.31725">
        <ele>14.39999961853</ele>
        <time>2019-05-26T07:23:10.000Z</time>
      </trkpt>
      <trkpt lat="47.27899" lon="-2.31722">
        <ele>14.39999961853</ele>
        <time>2019-05-26T07:23:11.000Z</time>
      </trkpt>
      <trkpt lat="47.27921" lon="-2.31707">
        <ele>14.39999961853</ele>
        <time>2019-05-26T07:23:16.000Z</time>
      </trkpt>
      <trkpt lat="47.27928" lon="-2.31701">
        <ele>14.39999961853</ele>
        <time>2019-05-26T07:23:18.000Z</time>
      </trkpt>
      <trkpt lat="47.27952" lon="-2.31679">
        <ele>14.39999961853</ele>
        <time>2019-05-26T07:23:24.000Z</time>
      </trkpt>
      <trkpt lat="47.27995" lon="-2.31653">
        <ele>14.39999961853</ele>
        <time>2019-05-26T07:23:32.000Z</time>
      </trkpt>
      <trkpt lat="47.2804" lon="-2.31632">
        <ele>14.39999961853</ele>
        <time>2019-05-26T07:23:40.000Z</time>
      </trkpt>
      <trkpt lat="47.28045" lon="-2.31631">
        <ele>14.39999961853</ele>
        <time>2019-05-26T07:23:41.000Z</time>
      </trkpt>
      <trkpt lat="47.28068" lon="-2.31626">
        <ele>14.39999961853</ele>
        <time>2019-05-26T07:23:45.000Z</time>
      </trkpt>
      <trkpt lat="47.281" lon="-2.31627">
        <ele>14.39999961853</ele>
        <time>2019-05-26T07:23:51.000Z</time>
      </trkpt>
      <trkpt lat="47.2814" lon="-2.31624">
        <ele>14.39999961853</ele>
        <time>2019-05-26T07:23:58.000Z</time>
      </trkpt>
      <trkpt lat="47.28187" lon="-2.31619">
        <ele>14.39999961853</ele>
        <time>2019-05-26T07:24:06.000Z</time>
      </trkpt>
      <trkpt lat="47.28239" lon="-2.3161">
        <ele>14.39999961853</ele>
        <time>2019-05-26T07:24:15.000Z</time>
      </trkpt>
      <trkpt lat="47.28271" lon="-2.316">
        <ele>14.800000190735</ele>
        <time>2019-05-26T07:24:21.000Z</time>
      </trkpt>
      <trkpt lat="47.28276" lon="-2.31598">
        <ele>15.199999809265</ele>
        <time>2019-05-26T07:24:22.000Z</time>
      </trkpt>
      <trkpt lat="47.28281" lon="-2.31596">
        <ele>15.60000038147</ele>
        <time>2019-05-26T07:24:23.000Z</time>
      </trkpt>
      <trkpt lat="47.28287" lon="-2.31594">
        <ele>16</ele>
        <time>2019-05-26T07:24:24.000Z</time>
      </trkpt>
      <trkpt lat="47.28292" lon="-2.31593">
        <ele>16.60000038147</ele>
        <time>2019-05-26T07:24:25.000Z</time>
      </trkpt>
      <trkpt lat="47.2831" lon="-2.31592">
        <ele>16.60000038147</ele>
        <time>2019-05-26T07:24:29.000Z</time>
      </trkpt>
      <trkpt lat="47.28332" lon="-2.31588">
        <ele>16.60000038147</ele>
        <time>2019-05-26T07:24:34.000Z</time>
      </trkpt>
      <trkpt lat="47.28337" lon="-2.31586">
        <ele>16.60000038147</ele>
        <time>2019-05-26T07:24:35.000Z</time>
      </trkpt>
      <trkpt lat="47.28363" lon="-2.31578">
        <ele>16.60000038147</ele>
        <time>2019-05-26T07:24:40.000Z</time>
      </trkpt>
      <trkpt lat="47.28411" lon="-2.31559">
        <ele>16.60000038147</ele>
        <time>2019-05-26T07:24:49.000Z</time>
      </trkpt>
      <trkpt lat="47.28422" lon="-2.31553">
        <ele>16.60000038147</ele>
        <time>2019-05-26T07:24:51.000Z</time>
      </trkpt>
      <trkpt lat="47.28436" lon="-2.31539">
        <ele>16.60000038147</ele>
        <time>2019-05-26T07:24:54.000Z</time>
      </trkpt>
      <trkpt lat="47.2844" lon="-2.31534">
        <ele>16.60000038147</ele>
        <time>2019-05-26T07:24:55.000Z</time>
      </trkpt>
      <trkpt lat="47.28465" lon="-2.31516">
        <ele>16.60000038147</ele>
        <time>2019-05-26T07:25:00.000Z</time>
      </trkpt>
      <trkpt lat="47.28471" lon="-2.31514">
        <ele>16.60000038147</ele>
        <time>2019-05-26T07:25:01.000Z</time>
      </trkpt>
      <trkpt lat="47.28488" lon="-2.3151">
        <ele>16.60000038147</ele>
        <time>2019-05-26T07:25:04.000Z</time>
      </trkpt>
      <trkpt lat="47.28505" lon="-2.31507">
        <ele>16.60000038147</ele>
        <time>2019-05-26T07:25:07.000Z</time>
      </trkpt>
      <trkpt lat="47.28559" lon="-2.31495">
        <ele>17</ele>
        <time>2019-05-26T07:25:17.000Z</time>
      </trkpt>
      <trkpt lat="47.28565" lon="-2.31494">
        <ele>17.39999961853</ele>
        <time>2019-05-26T07:25:18.000Z</time>
      </trkpt>
      <trkpt lat="47.2857" lon="-2.31491">
        <ele>17.799999237061</ele>
        <time>2019-05-26T07:25:19.000Z</time>
      </trkpt>
      <trkpt lat="47.28575" lon="-2.31489">
        <ele>18.39999961853</ele>
        <time>2019-05-26T07:25:20.000Z</time>
      </trkpt>
      <trkpt lat="47.28581" lon="-2.31486">
        <ele>18.799999237061</ele>
        <time>2019-05-26T07:25:21.000Z</time>
      </trkpt>
      <trkpt lat="47.28596" lon="-2.31481">
        <ele>18.799999237061</ele>
        <time>2019-05-26T07:25:24.000Z</time>
      </trkpt>
      <trkpt lat="47.28615" lon="-2.31472">
        <ele>19.200000762939</ele>
        <time>2019-05-26T07:25:28.000Z</time>
      </trkpt>
      <trkpt lat="47.2862" lon="-2.3147">
        <ele>19.60000038147</ele>
        <time>2019-05-26T07:25:29.000Z</time>
      </trkpt>
      <trkpt lat="47.28625" lon="-2.31468">
        <ele>20</ele>
        <time>2019-05-26T07:25:30.000Z</time>
      </trkpt>
      <trkpt lat="47.28629" lon="-2.31466">
        <ele>20.39999961853</ele>
        <time>2019-05-26T07:25:31.000Z</time>
      </trkpt>
      <trkpt lat="47.28634" lon="-2.31464">
        <ele>20.799999237061</ele>
        <time>2019-05-26T07:25:32.000Z</time>
      </trkpt>
      <trkpt lat="47.28666" lon="-2.3145">
        <ele>20.799999237061</ele>
        <time>2019-05-26T07:25:39.000Z</time>
      </trkpt>
      <trkpt lat="47.28669" lon="-2.31455">
        <ele>20.799999237061</ele>
        <time>2019-05-26T07:25:40.000Z</time>
      </trkpt>
      <trkpt lat="47.28671" lon="-2.3146">
        <ele>20.799999237061</ele>
        <time>2019-05-26T07:25:41.000Z</time>
      </trkpt>
      <trkpt lat="47.28682" lon="-2.31488">
        <ele>20.799999237061</ele>
        <time>2019-05-26T07:25:45.000Z</time>
      </trkpt>
      <trkpt lat="47.287" lon="-2.31494">
        <ele>20.799999237061</ele>
        <time>2019-05-26T07:25:48.000Z</time>
      </trkpt>
      <trkpt lat="47.28718" lon="-2.31488">
        <ele>20.799999237061</ele>
        <time>2019-05-26T07:25:51.000Z</time>
      </trkpt>
      <trkpt lat="47.28723" lon="-2.31485">
        <ele>20.799999237061</ele>
        <time>2019-05-26T07:25:52.000Z</time>
      </trkpt>
      <trkpt lat="47.28764" lon="-2.31463">
        <ele>20.799999237061</ele>
        <time>2019-05-26T07:25:59.000Z</time>
      </trkpt>
      <trkpt lat="47.28799" lon="-2.3144">
        <ele>20.799999237061</ele>
        <time>2019-05-26T07:26:05.000Z</time>
      </trkpt>
      <trkpt lat="47.2884" lon="-2.31413">
        <ele>20.799999237061</ele>
        <time>2019-05-26T07:26:12.000Z</time>
      </trkpt>
      <trkpt lat="47.28882" lon="-2.31394">
        <ele>20.799999237061</ele>
        <time>2019-05-26T07:26:19.000Z</time>
      </trkpt>
      <trkpt lat="47.28888" lon="-2.31393">
        <ele>20.39999961853</ele>
        <time>2019-05-26T07:26:20.000Z</time>
      </trkpt>
      <trkpt lat="47.28895" lon="-2.31392">
        <ele>20</ele>
        <time>2019-05-26T07:26:21.000Z</time>
      </trkpt>
      <trkpt lat="47.28901" lon="-2.31392">
        <ele>19.60000038147</ele>
        <time>2019-05-26T07:26:22.000Z</time>
      </trkpt>
      <trkpt lat="47.28907" lon="-2.31392">
        <ele>18.799999237061</ele>
        <time>2019-05-26T07:26:23.000Z</time>
      </trkpt>
      <trkpt lat="47.2892" lon="-2.31391">
        <ele>18.799999237061</ele>
        <time>2019-05-26T07:26:25.000Z</time>
      </trkpt>
      <trkpt lat="47.2895" lon="-2.31385">
        <ele>18.799999237061</ele>
        <time>2019-05-26T07:26:30.000Z</time>
      </trkpt>
      <trkpt lat="47.28956" lon="-2.31381">
        <ele>18.799999237061</ele>
        <time>2019-05-26T07:26:31.000Z</time>
      </trkpt>
      <trkpt lat="47.28972" lon="-2.31367">
        <ele>18.799999237061</ele>
        <time>2019-05-26T07:26:34.000Z</time>
      </trkpt>
      <trkpt lat="47.28981" lon="-2.31355">
        <ele>18.799999237061</ele>
        <time>2019-05-26T07:26:36.000Z</time>
      </trkpt>
      <trkpt lat="47.2899" lon="-2.31341">
        <ele>18.799999237061</ele>
        <time>2019-05-26T07:26:38.000Z</time>
      </trkpt>
      <trkpt lat="47.29002" lon="-2.31318">
        <ele>18.799999237061</ele>
        <time>2019-05-26T07:26:41.000Z</time>
      </trkpt>
      <trkpt lat="47.29013" lon="-2.31291">
        <ele>18.39999961853</ele>
        <time>2019-05-26T07:26:44.000Z</time>
      </trkpt>
      <trkpt lat="47.29017" lon="-2.31282">
        <ele>17.799999237061</ele>
        <time>2019-05-26T07:26:45.000Z</time>
      </trkpt>
      <trkpt lat="47.29021" lon="-2.31273">
        <ele>17.39999961853</ele>
        <time>2019-05-26T07:26:46.000Z</time>
      </trkpt>
      <trkpt lat="47.29024" lon="-2.31265">
        <ele>16.799999237061</ele>
        <time>2019-05-26T07:26:47.000Z</time>
      </trkpt>
      <trkpt lat="47.29028" lon="-2.31256">
        <ele>16.39999961853</ele>
        <time>2019-05-26T07:26:48.000Z</time>
      </trkpt>
      <trkpt lat="47.29039" lon="-2.3123">
        <ele>16.39999961853</ele>
        <time>2019-05-26T07:26:51.000Z</time>
      </trkpt>
      <trkpt lat="47.29042" lon="-2.31209">
        <ele>16.39999961853</ele>
        <time>2019-05-26T07:26:53.000Z</time>
      </trkpt>
      <trkpt lat="47.29039" lon="-2.31167">
        <ele>16.39999961853</ele>
        <time>2019-05-26T07:26:57.000Z</time>
      </trkpt>
      <trkpt lat="47.29032" lon="-2.31081">
        <ele>16.39999961853</ele>
        <time>2019-05-26T07:27:05.000Z</time>
      </trkpt>
      <trkpt lat="47.29032" lon="-2.31069">
        <ele>15.800000190735</ele>
        <time>2019-05-26T07:27:06.000Z</time>
      </trkpt>
      <trkpt lat="47.29031" lon="-2.31057">
        <ele>15.39999961853</ele>
        <time>2019-05-26T07:27:07.000Z</time>
      </trkpt>
      <trkpt lat="47.29031" lon="-2.31045">
        <ele>15</ele>
        <time>2019-05-26T07:27:08.000Z</time>
      </trkpt>
      <trkpt lat="47.29031" lon="-2.31033">
        <ele>14.60000038147</ele>
        <time>2019-05-26T07:27:09.000Z</time>
      </trkpt>
      <trkpt lat="47.29032" lon="-2.3102">
        <ele>14.199999809265</ele>
        <time>2019-05-26T07:27:10.000Z</time>
      </trkpt>
      <trkpt lat="47.29032" lon="-2.30994">
        <ele>14.199999809265</ele>
        <time>2019-05-26T07:27:12.000Z</time>
      </trkpt>
      <trkpt lat="47.29032" lon="-2.30981">
        <ele>13.199999809265</ele>
        <time>2019-05-26T07:27:13.000Z</time>
      </trkpt>
      <trkpt lat="47.29032" lon="-2.30968">
        <ele>12.800000190735</ele>
        <time>2019-05-26T07:27:14.000Z</time>
      </trkpt>
      <trkpt lat="47.29032" lon="-2.30955">
        <ele>12.39999961853</ele>
        <time>2019-05-26T07:27:15.000Z</time>
      </trkpt>
      <trkpt lat="47.29031" lon="-2.30943">
        <ele>12</ele>
        <time>2019-05-26T07:27:16.000Z</time>
      </trkpt>
      <trkpt lat="47.29031" lon="-2.3093">
        <ele>11.60000038147</ele>
        <time>2019-05-26T07:27:17.000Z</time>
      </trkpt>
      <trkpt lat="47.2903" lon="-2.30916">
        <ele>11</ele>
        <time>2019-05-26T07:27:18.000Z</time>
      </trkpt>
      <trkpt lat="47.2903" lon="-2.30903">
        <ele>10.60000038147</ele>
        <time>2019-05-26T07:27:19.000Z</time>
      </trkpt>
      <trkpt lat="47.29029" lon="-2.30889">
        <ele>10.199999809265</ele>
        <time>2019-05-26T07:27:20.000Z</time>
      </trkpt>
      <trkpt lat="47.29028" lon="-2.30875">
        <ele>9.8000001907349</ele>
        <time>2019-05-26T07:27:21.000Z</time>
      </trkpt>
      <trkpt lat="47.29026" lon="-2.30862">
        <ele>9.3999996185303</ele>
        <time>2019-05-26T07:27:22.000Z</time>
      </trkpt>
      <trkpt lat="47.29024" lon="-2.30848">
        <ele>8.8000001907349</ele>
        <time>2019-05-26T07:27:23.000Z</time>
      </trkpt>
      <trkpt lat="47.29023" lon="-2.30835">
        <ele>8.1999998092651</ele>
        <time>2019-05-26T07:27:24.000Z</time>
      </trkpt>
      <trkpt lat="47.29021" lon="-2.30823">
        <ele>7.8000001907349</ele>
        <time>2019-05-26T07:27:25.000Z</time>
      </trkpt>
      <trkpt lat="47.29019" lon="-2.30811">
        <ele>7.1999998092651</ele>
        <time>2019-05-26T07:27:26.000Z</time>
      </trkpt>
      <trkpt lat="47.29009" lon="-2.30765">
        <ele>6.8000001907349</ele>
        <time>2019-05-26T07:27:30.000Z</time>
      </trkpt>
      <trkpt lat="47.29007" lon="-2.30754">
        <ele>6.4000000953674</ele>
        <time>2019-05-26T07:27:31.000Z</time>
      </trkpt>
      <trkpt lat="47.29006" lon="-2.30742">
        <ele>6</ele>
        <time>2019-05-26T07:27:32.000Z</time>
      </trkpt>
      <trkpt lat="47.29005" lon="-2.30729">
        <ele>5.5999999046326</ele>
        <time>2019-05-26T07:27:33.000Z</time>
      </trkpt>
      <trkpt lat="47.29005" lon="-2.30717">
        <ele>5.1999998092651</ele>
        <time>2019-05-26T07:27:34.000Z</time>
      </trkpt>
      <trkpt lat="47.29003" lon="-2.30651">
        <ele>5.1999998092651</ele>
        <time>2019-05-26T07:27:40.000Z</time>
      </trkpt>
      <trkpt lat="47.29002" lon="-2.30608">
        <ele>5.1999998092651</ele>
        <time>2019-05-26T07:27:45.000Z</time>
      </trkpt>
      <trkpt lat="47.29001" lon="-2.30599">
        <ele>5.1999998092651</ele>
        <time>2019-05-26T07:27:46.000Z</time>
      </trkpt>
      <trkpt lat="47.28997" lon="-2.30564">
        <ele>5.1999998092651</ele>
        <time>2019-05-26T07:27:50.000Z</time>
      </trkpt>
      <trkpt lat="47.28988" lon="-2.30506">
        <ele>5.1999998092651</ele>
        <time>2019-05-26T07:27:57.000Z</time>
      </trkpt>
      <trkpt lat="47.2898" lon="-2.30457">
        <ele>5.1999998092651</ele>
        <time>2019-05-26T07:28:03.000Z</time>
      </trkpt>
      <trkpt lat="47.28976" lon="-2.30432">
        <ele>5.1999998092651</ele>
        <time>2019-05-26T07:28:07.000Z</time>
      </trkpt>
      <trkpt lat="47.28977" lon="-2.30426">
        <ele>5.1999998092651</ele>
        <time>2019-05-26T07:28:08.000Z</time>
      </trkpt>
      <trkpt lat="47.28974" lon="-2.30397">
        <ele>5.1999998092651</ele>
        <time>2019-05-26T07:28:13.000Z</time>
      </trkpt>
      <trkpt lat="47.28975" lon="-2.3039">
        <ele>5.1999998092651</ele>
        <time>2019-05-26T07:28:14.000Z</time>
      </trkpt>
      <trkpt lat="47.28974" lon="-2.30356">
        <ele>5.1999998092651</ele>
        <time>2019-05-26T07:28:18.000Z</time>
      </trkpt>
      <trkpt lat="47.2897" lon="-2.303">
        <ele>5.1999998092651</ele>
        <time>2019-05-26T07:28:24.000Z</time>
      </trkpt>
      <trkpt lat="47.28969" lon="-2.30291">
        <ele>5.1999998092651</ele>
        <time>2019-05-26T07:28:25.000Z</time>
      </trkpt>
      <trkpt lat="47.28969" lon="-2.30271">
        <ele>5.1999998092651</ele>
        <time>2019-05-26T07:28:27.000Z</time>
      </trkpt>
      <trkpt lat="47.28974" lon="-2.30257">
        <ele>5.1999998092651</ele>
        <time>2019-05-26T07:28:29.000Z</time>
      </trkpt>
      <trkpt lat="47.28985" lon="-2.30254">
        <ele>5.1999998092651</ele>
        <time>2019-05-26T07:28:31.000Z</time>
      </trkpt>
      <trkpt lat="47.28997" lon="-2.30254">
        <ele>5.1999998092651</ele>
        <time>2019-05-26T07:28:33.000Z</time>
      </trkpt>
      <trkpt lat="47.29004" lon="-2.30252">
        <ele>5.1999998092651</ele>
        <time>2019-05-26T07:28:34.000Z</time>
      </trkpt>
      <trkpt lat="47.2901" lon="-2.3025">
        <ele>5.1999998092651</ele>
        <time>2019-05-26T07:28:35.000Z</time>
      </trkpt>
      <trkpt lat="47.2903" lon="-2.30245">
        <ele>5.1999998092651</ele>
        <time>2019-05-26T07:28:38.000Z</time>
      </trkpt>
      <trkpt lat="47.29042" lon="-2.30241">
        <ele>5.1999998092651</ele>
        <time>2019-05-26T07:28:40.000Z</time>
      </trkpt>
      <trkpt lat="47.29089" lon="-2.30221">
        <ele>5.1999998092651</ele>
        <time>2019-05-26T07:28:47.000Z</time>
      </trkpt>
      <trkpt lat="47.29136" lon="-2.30197">
        <ele>5.1999998092651</ele>
        <time>2019-05-26T07:28:54.000Z</time>
      </trkpt>
      <trkpt lat="47.29155" lon="-2.30187">
        <ele>4.8000001907349</ele>
        <time>2019-05-26T07:28:57.000Z</time>
      </trkpt>
      <trkpt lat="47.29161" lon="-2.30184">
        <ele>4.4000000953674</ele>
        <time>2019-05-26T07:28:58.000Z</time>
      </trkpt>
      <trkpt lat="47.29167" lon="-2.3018">
        <ele>3.7999999523163</ele>
        <time>2019-05-26T07:28:59.000Z</time>
      </trkpt>
      <trkpt lat="47.29173" lon="-2.30177">
        <ele>3.4000000953674</ele>
        <time>2019-05-26T07:29:00.000Z</time>
      </trkpt>
      <trkpt lat="47.2918" lon="-2.30174">
        <ele>3</ele>
        <time>2019-05-26T07:29:01.000Z</time>
      </trkpt>
      <trkpt lat="47.29186" lon="-2.3017">
        <ele>3</ele>
        <time>2019-05-26T07:29:02.000Z</time>
      </trkpt>
      <trkpt lat="47.29224" lon="-2.30151">
        <ele>3</ele>
        <time>2019-05-26T07:29:08.000Z</time>
      </trkpt>
      <trkpt lat="47.2926" lon="-2.30135">
        <ele>3</ele>
        <time>2019-05-26T07:29:14.000Z</time>
      </trkpt>
      <trkpt lat="47.29263" lon="-2.30134">
        <ele>3</ele>
        <time>2019-05-26T07:29:15.000Z</time>
      </trkpt>
      <trkpt lat="47.29268" lon="-2.30135">
        <ele>2.5999999046326</ele>
        <time>2019-05-26T07:29:16.000Z</time>
      </trkpt>
      <trkpt lat="47.29273" lon="-2.30136">
        <ele>2.2000000476837</ele>
        <time>2019-05-26T07:29:17.000Z</time>
      </trkpt>
      <trkpt lat="47.29277" lon="-2.30138">
        <ele>1.7999999523163</ele>
        <time>2019-05-26T07:29:18.000Z</time>
      </trkpt>
      <trkpt lat="47.29282" lon="-2.3014">
        <ele>1.3999999761581</ele>
        <time>2019-05-26T07:29:19.000Z</time>
      </trkpt>
      <trkpt lat="47.29288" lon="-2.3014">
        <ele>1</ele>
        <time>2019-05-26T07:29:20.000Z</time>
      </trkpt>
      <trkpt lat="47.29307" lon="-2.3014">
        <ele>1</ele>
        <time>2019-05-26T07:29:23.000Z</time>
      </trkpt>
      <trkpt lat="47.29327" lon="-2.30136">
        <ele>1</ele>
        <time>2019-05-26T07:29:27.000Z</time>
      </trkpt>
      <trkpt lat="47.2933" lon="-2.30132">
        <ele>1</ele>
        <time>2019-05-26T07:29:28.000Z</time>
      </trkpt>
      <trkpt lat="47.29331" lon="-2.30126">
        <ele>1</ele>
        <time>2019-05-26T07:29:29.000Z</time>
      </trkpt>
      <trkpt lat="47.29336" lon="-2.30114">
        <ele>1</ele>
        <time>2019-05-26T07:29:31.000Z</time>
      </trkpt>
      <trkpt lat="47.29342" lon="-2.30077">
        <ele>1</ele>
        <time>2019-05-26T07:29:36.000Z</time>
      </trkpt>
      <trkpt lat="47.29345" lon="-2.30031">
        <ele>1</ele>
        <time>2019-05-26T07:29:42.000Z</time>
      </trkpt>
      <trkpt lat="47.2935" lon="-2.30002">
        <ele>1</ele>
        <time>2019-05-26T07:29:48.000Z</time>
      </trkpt>
      <trkpt lat="47.29361" lon="-2.30006">
        <ele>1</ele>
        <time>2019-05-26T07:29:51.000Z</time>
      </trkpt>
      <trkpt lat="47.29366" lon="-2.30008">
        <ele>1</ele>
        <time>2019-05-26T07:29:52.000Z</time>
      </trkpt>
      <trkpt lat="47.29387" lon="-2.30019">
        <ele>1</ele>
        <time>2019-05-26T07:29:56.000Z</time>
      </trkpt>
      <trkpt lat="47.29416" lon="-2.30027">
        <ele>1</ele>
        <time>2019-05-26T07:30:01.000Z</time>
      </trkpt>
      <trkpt lat="47.29453" lon="-2.30028">
        <ele>1</ele>
        <time>2019-05-26T07:30:07.000Z</time>
      </trkpt>
      <trkpt lat="47.29485" lon="-2.30026">
        <ele>1</ele>
        <time>2019-05-26T07:30:12.000Z</time>
      </trkpt>
      <trkpt lat="47.29502" lon="-2.30022">
        <ele>1</ele>
        <time>2019-05-26T07:30:15.000Z</time>
      </trkpt>
      <trkpt lat="47.29507" lon="-2.30023">
        <ele>1</ele>
        <time>2019-05-26T07:30:16.000Z</time>
      </trkpt>
      <trkpt lat="47.29525" lon="-2.30028">
        <ele>1</ele>
        <time>2019-05-26T07:30:19.000Z</time>
      </trkpt>
      <trkpt lat="47.29532" lon="-2.30028">
        <ele>1</ele>
        <time>2019-05-26T07:30:20.000Z</time>
      </trkpt>
      <trkpt lat="47.29547" lon="-2.30023">
        <ele>0.60000002384186</ele>
        <time>2019-05-26T07:30:23.000Z</time>
      </trkpt>
      <trkpt lat="47.29551" lon="-2.3002">
        <ele>5.8</ele>
        <time>2019-05-26T07:30:24.000Z</time>
      </trkpt>
      <trkpt lat="47.29557" lon="-2.30018">
        <ele>-0.40000000596046</ele>
        <time>2019-05-26T07:30:25.000Z</time>
      </trkpt>
      <trkpt lat="47.29562" lon="-2.30016">
        <ele>-0.80000001192093</ele>
        <time>2019-05-26T07:30:26.000Z</time>
      </trkpt>
      <trkpt lat="47.29567" lon="-2.30014">
        <ele>-1.3999999761581</ele>
        <time>2019-05-26T07:30:27.000Z</time>
      </trkpt>
      <trkpt lat="47.29574" lon="-2.30013">
        <ele>-1.3999999761581</ele>
        <time>2019-05-26T07:30:28.000Z</time>
      </trkpt>
      <trkpt lat="47.29579" lon="-2.30011">
        <ele>-1.3999999761581</ele>
        <time>2019-05-26T07:30:29.000Z</time>
      </trkpt>
      <trkpt lat="47.29622" lon="-2.29999">
        <ele>-1.3999999761581</ele>
        <time>2019-05-26T07:30:37.000Z</time>
      </trkpt>
      <trkpt lat="47.29644" lon="-2.29986">
        <ele>-1.3999999761581</ele>
        <time>2019-05-26T07:30:42.000Z</time>
      </trkpt>
      <trkpt lat="47.29648" lon="-2.29987">
        <ele>-1.3999999761581</ele>
        <time>2019-05-26T07:30:43.000Z</time>
      </trkpt>
      <trkpt lat="47.29661" lon="-2.29996">
        <ele>-1.3999999761581</ele>
        <time>2019-05-26T07:30:46.000Z</time>
      </trkpt>
      <trkpt lat="47.29679" lon="-2.30002">
        <ele>-1.3999999761581</ele>
        <time>2019-05-26T07:30:49.000Z</time>
      </trkpt>
      <trkpt lat="47.29691" lon="-2.30003">
        <ele>-1.3999999761581</ele>
        <time>2019-05-26T07:30:51.000Z</time>
      </trkpt>
      <trkpt lat="47.29726" lon="-2.29996">
        <ele>-1.3999999761581</ele>
        <time>2019-05-26T07:30:57.000Z</time>
      </trkpt>
      <trkpt lat="47.29763" lon="-2.29976">
        <ele>-1.3999999761581</ele>
        <time>2019-05-26T07:31:04.000Z</time>
      </trkpt>
      <trkpt lat="47.29767" lon="-2.29972">
        <ele>-1.3999999761581</ele>
        <time>2019-05-26T07:31:05.000Z</time>
      </trkpt>
      <trkpt lat="47.29781" lon="-2.29961">
        <ele>-1.3999999761581</ele>
        <time>2019-05-26T07:31:08.000Z</time>
      </trkpt>
      <trkpt lat="47.29786" lon="-2.29958">
        <ele>-1.3999999761581</ele>
        <time>2019-05-26T07:31:09.000Z</time>
      </trkpt>
      <trkpt lat="47.29802" lon="-2.29954">
        <ele>-1.3999999761581</ele>
        <time>2019-05-26T07:31:12.000Z</time>
      </trkpt>
      <trkpt lat="47.29815" lon="-2.29956">
        <ele>-1.3999999761581</ele>
        <time>2019-05-26T07:31:14.000Z</time>
      </trkpt>
      <trkpt lat="47.29857" lon="-2.29951">
        <ele>-1.3999999761581</ele>
        <time>2019-05-26T07:31:21.000Z</time>
      </trkpt>
      <trkpt lat="47.29893" lon="-2.29942">
        <ele>-1.3999999761581</ele>
        <time>2019-05-26T07:31:27.000Z</time>
      </trkpt>
      <trkpt lat="47.29904" lon="-2.29933">
        <ele>-1.3999999761581</ele>
        <time>2019-05-26T07:31:29.000Z</time>
      </trkpt>
      <trkpt lat="47.29907" lon="-2.29926">
        <ele>-1.3999999761581</ele>
        <time>2019-05-26T07:31:30.000Z</time>
      </trkpt>
      <trkpt lat="47.29906" lon="-2.29903">
        <ele>-1.3999999761581</ele>
        <time>2019-05-26T07:31:33.000Z</time>
      </trkpt>
      <trkpt lat="47.29905" lon="-2.29896">
        <ele>-1.3999999761581</ele>
        <time>2019-05-26T07:31:34.000Z</time>
      </trkpt>
      <trkpt lat="47.29903" lon="-2.29867">
        <ele>-1.3999999761581</ele>
        <time>2019-05-26T07:31:38.000Z</time>
      </trkpt>
      <trkpt lat="47.29903" lon="-2.29854">
        <ele>-1.3999999761581</ele>
        <time>2019-05-26T07:31:40.000Z</time>
      </trkpt>
      <trkpt lat="47.29909" lon="-2.29831">
        <ele>-1.3999999761581</ele>
        <time>2019-05-26T07:31:44.000Z</time>
      </trkpt>
      <trkpt lat="47.29915" lon="-2.29824">
        <ele>-1.3999999761581</ele>
        <time>2019-05-26T07:31:46.000Z</time>
      </trkpt>
      <trkpt lat="47.29923" lon="-2.29815">
        <ele>-1.3999999761581</ele>
        <time>2019-05-26T07:31:49.000Z</time>
      </trkpt>
      <trkpt lat="47.29926" lon="-2.29813">
        <ele>-1.3999999761581</ele>
        <time>2019-05-26T07:31:51.000Z</time>
      </trkpt>
      <trkpt lat="47.29929" lon="-2.29814">
        <ele>-1.3999999761581</ele>
        <time>2019-05-26T07:31:53.000Z</time>
      </trkpt>
      <trkpt lat="47.29935" lon="-2.29808">
        <ele>-1.3999999761581</ele>
        <time>2019-05-26T07:31:56.000Z</time>
      </trkpt>
      <trkpt lat="47.29934" lon="-2.29788">
        <ele>-1.3999999761581</ele>
        <time>2019-05-26T07:32:01.000Z</time>
      </trkpt>
      <trkpt lat="47.29932" lon="-2.29783">
        <ele>-1.3999999761581</ele>
        <time>2019-05-26T07:32:02.000Z</time>
      </trkpt>
      <trkpt lat="47.29925" lon="-2.29757">
        <ele>-1.3999999761581</ele>
        <time>2019-05-26T07:32:07.000Z</time>
      </trkpt>
      <trkpt lat="47.29913" lon="-2.29726">
        <ele>-1.3999999761581</ele>
        <time>2019-05-26T07:32:12.000Z</time>
      </trkpt>
      <trkpt lat="47.29905" lon="-2.29707">
        <ele>-1.3999999761581</ele>
        <time>2019-05-26T07:32:15.000Z</time>
      </trkpt>
      <trkpt lat="47.29901" lon="-2.29695">
        <ele>-1.3999999761581</ele>
        <time>2019-05-26T07:32:17.000Z</time>
      </trkpt>
      <trkpt lat="47.29901" lon="-2.29688">
        <ele>-1.3999999761581</ele>
        <time>2019-05-26T07:32:18.000Z</time>
      </trkpt>
      <trkpt lat="47.29913" lon="-2.29665">
        <ele>-1.3999999761581</ele>
        <time>2019-05-26T07:32:22.000Z</time>
      </trkpt>
      <trkpt lat="47.29917" lon="-2.2966">
        <ele>-1.3999999761581</ele>
        <time>2019-05-26T07:32:23.000Z</time>
      </trkpt>
      <trkpt lat="47.29937" lon="-2.29643">
        <ele>-1.3999999761581</ele>
        <time>2019-05-26T07:32:27.000Z</time>
      </trkpt>
      <trkpt lat="47.29943" lon="-2.2964">
        <ele>-1.3999999761581</ele>
        <time>2019-05-26T07:32:28.000Z</time>
      </trkpt>
      <trkpt lat="47.29963" lon="-2.29632">
        <ele>-1.3999999761581</ele>
        <time>2019-05-26T07:32:32.000Z</time>
      </trkpt>
      <trkpt lat="47.29997" lon="-2.29629">
        <ele>-1.3999999761581</ele>
        <time>2019-05-26T07:32:39.000Z</time>
      </trkpt>
      <trkpt lat="47.30034" lon="-2.29628">
        <ele>-1.3999999761581</ele>
        <time>2019-05-26T07:32:47.000Z</time>
      </trkpt>
      <trkpt lat="47.30048" lon="-2.2963">
        <ele>-1.3999999761581</ele>
        <time>2019-05-26T07:32:50.000Z</time>
      </trkpt>
      <trkpt lat="47.30057" lon="-2.29632">
        <ele>-1.3999999761581</ele>
        <time>2019-05-26T07:32:52.000Z</time>
      </trkpt>
      <trkpt lat="47.30061" lon="-2.29632">
        <ele>-1.3999999761581</ele>
        <time>2019-05-26T07:32:53.000Z</time>
      </trkpt>
      <trkpt lat="47.30075" lon="-2.29635">
        <ele>-1.3999999761581</ele>
        <time>2019-05-26T07:32:58.000Z</time>
      </trkpt>
      <trkpt lat="47.30079" lon="-2.29634">
        <ele>-1.3999999761581</ele>
        <time>2019-05-26T07:33:39.000Z</time>
      </trkpt>
      <trkpt lat="47.30081" lon="-2.29634">
        <ele>-1.3999999761581</ele>
        <time>2019-05-26T07:33:42.000Z</time>
      </trkpt>
      <trkpt lat="47.30093" lon="-2.29637">
        <ele>-1.3999999761581</ele>
        <time>2019-05-26T07:33:46.000Z</time>
      </trkpt>
      <trkpt lat="47.30105" lon="-2.29641">
        <ele>-1.3999999761581</ele>
        <time>2019-05-26T07:33:49.000Z</time>
      </trkpt>
      <trkpt lat="47.30116" lon="-2.29646">
        <ele>-1.3999999761581</ele>
        <time>2019-05-26T07:33:52.000Z</time>
      </trkpt>
      <trkpt lat="47.30139" lon="-2.29653">
        <ele>-1.3999999761581</ele>
        <time>2019-05-26T07:33:57.000Z</time>
      </trkpt>
      <trkpt lat="47.30144" lon="-2.29655">
        <ele>-1.3999999761581</ele>
        <time>2019-05-26T07:33:58.000Z</time>
      </trkpt>
      <trkpt lat="47.30176" lon="-2.29675">
        <ele>-1.3999999761581</ele>
        <time>2019-05-26T07:34:05.000Z</time>
      </trkpt>
      <trkpt lat="47.30181" lon="-2.29678">
        <ele>-1.7999999523163</ele>
        <time>2019-05-26T07:34:06.000Z</time>
      </trkpt>
      <trkpt lat="47.30185" lon="-2.2968">
        <ele>-2.2000000476837</ele>
        <time>2019-05-26T07:34:07.000Z</time>
      </trkpt>
      <trkpt lat="47.3019" lon="-2.29683">
        <ele>-2.5999999046326</ele>
        <time>2019-05-26T07:34:08.000Z</time>
      </trkpt>
      <trkpt lat="47.30195" lon="-2.29685">
        <ele>-3</ele>
        <time>2019-05-26T07:34:09.000Z</time>
      </trkpt>
      <trkpt lat="47.302" lon="-2.29688">
        <ele>-3.4000000953674</ele>
        <time>2019-05-26T07:34:10.000Z</time>
      </trkpt>
      <trkpt lat="47.30221" lon="-2.29699">
        <ele>-3.4000000953674</ele>
        <time>2019-05-26T07:34:14.000Z</time>
      </trkpt>
      <trkpt lat="47.30231" lon="-2.29705">
        <ele>-3.4000000953674</ele>
        <time>2019-05-26T07:34:16.000Z</time>
      </trkpt>
      <trkpt lat="47.30251" lon="-2.29712">
        <ele>-3.4000000953674</ele>
        <time>2019-05-26T07:34:20.000Z</time>
      </trkpt>
      <trkpt lat="47.30261" lon="-2.29715">
        <ele>-3.4000000953674</ele>
        <time>2019-05-26T07:34:22.000Z</time>
      </trkpt>
      <trkpt lat="47.30278" lon="-2.29712">
        <ele>-3.4000000953674</ele>
        <time>2019-05-26T07:34:25.000Z</time>
      </trkpt>
      <trkpt lat="47.30288" lon="-2.29708">
        <ele>-3.4000000953674</ele>
        <time>2019-05-26T07:34:27.000Z</time>
      </trkpt>
      <trkpt lat="47.30317" lon="-2.29699">
        <ele>-3.4000000953674</ele>
        <time>2019-05-26T07:34:32.000Z</time>
      </trkpt>
      <trkpt lat="47.3036" lon="-2.29684">
        <ele>-3.4000000953674</ele>
        <time>2019-05-26T07:34:39.000Z</time>
      </trkpt>
      <trkpt lat="47.30404" lon="-2.29671">
        <ele>-3.4000000953674</ele>
        <time>2019-05-26T07:34:46.000Z</time>
      </trkpt>
      <trkpt lat="47.30451" lon="-2.29657">
        <ele>-3.4000000953674</ele>
        <time>2019-05-26T07:34:54.000Z</time>
      </trkpt>
      <trkpt lat="47.30489" lon="-2.29646">
        <ele>-3.4000000953674</ele>
        <time>2019-05-26T07:35:01.000Z</time>
      </trkpt>
      <trkpt lat="47.30527" lon="-2.29634">
        <ele>-3.4000000953674</ele>
        <time>2019-05-26T07:35:08.000Z</time>
      </trkpt>
      <trkpt lat="47.30569" lon="-2.2962">
        <ele>-3.4000000953674</ele>
        <time>2019-05-26T07:35:15.000Z</time>
      </trkpt>
      <trkpt lat="47.30605" lon="-2.2961">
        <ele>-3.4000000953674</ele>
        <time>2019-05-26T07:35:21.000Z</time>
      </trkpt>
      <trkpt lat="47.3063" lon="-2.29603">
        <ele>-3.4000000953674</ele>
        <time>2019-05-26T07:35:25.000Z</time>
      </trkpt>
      <trkpt lat="47.30637" lon="-2.296">
        <ele>-3.4000000953674</ele>
        <time>2019-05-26T07:35:26.000Z</time>
      </trkpt>
      <trkpt lat="47.30662" lon="-2.29591">
        <ele>-3.4000000953674</ele>
        <time>2019-05-26T07:35:30.000Z</time>
      </trkpt>
      <trkpt lat="47.30696" lon="-2.29583">
        <ele>-3.4000000953674</ele>
        <time>2019-05-26T07:35:36.000Z</time>
      </trkpt>
      <trkpt lat="47.30726" lon="-2.29572">
        <ele>-3.4000000953674</ele>
        <time>2019-05-26T07:35:42.000Z</time>
      </trkpt>
      <trkpt lat="47.30753" lon="-2.29562">
        <ele>-3</ele>
        <time>2019-05-26T07:35:47.000Z</time>
      </trkpt>
      <trkpt lat="47.30759" lon="-2.2956">
        <ele>-2.5999999046326</ele>
        <time>2019-05-26T07:35:48.000Z</time>
      </trkpt>
      <trkpt lat="47.30764" lon="-2.29558">
        <ele>-2.2000000476837</ele>
        <time>2019-05-26T07:35:49.000Z</time>
      </trkpt>
      <trkpt lat="47.30769" lon="-2.29556">
        <ele>-1.7999999523163</ele>
        <time>2019-05-26T07:35:50.000Z</time>
      </trkpt>
      <trkpt lat="47.30774" lon="-2.29555">
        <ele>-1.3999999761581</ele>
        <time>2019-05-26T07:35:51.000Z</time>
      </trkpt>
      <trkpt lat="47.308" lon="-2.29547">
        <ele>-1.3999999761581</ele>
        <time>2019-05-26T07:35:56.000Z</time>
      </trkpt>
      <trkpt lat="47.30824" lon="-2.29542">
        <ele>-1.3999999761581</ele>
        <time>2019-05-26T07:36:00.000Z</time>
      </trkpt>
      <trkpt lat="47.30835" lon="-2.29543">
        <ele>-1.3999999761581</ele>
        <time>2019-05-26T07:36:02.000Z</time>
      </trkpt>
      <trkpt lat="47.30841" lon="-2.29544">
        <ele>-1.3999999761581</ele>
        <time>2019-05-26T07:36:03.000Z</time>
      </trkpt>
      <trkpt lat="47.30859" lon="-2.29549">
        <ele>-1</ele>
        <time>2019-05-26T07:36:06.000Z</time>
      </trkpt>
      <trkpt lat="47.30865" lon="-2.2955">
        <ele>-0.60000002384186</ele>
        <time>2019-05-26T07:36:07.000Z</time>
      </trkpt>
      <trkpt lat="47.30871" lon="-2.29551">
        <ele>5.9</ele>
        <time>2019-05-26T07:36:08.000Z</time>
      </trkpt>
      <trkpt lat="47.30877" lon="-2.29552">
        <ele>0.40000000596046</ele>
        <time>2019-05-26T07:36:09.000Z</time>
      </trkpt>
      <trkpt lat="47.30883" lon="-2.29555">
        <ele>0.80000001192093</ele>
        <time>2019-05-26T07:36:10.000Z</time>
      </trkpt>
      <trkpt lat="47.30902" lon="-2.29562">
        <ele>0.80000001192093</ele>
        <time>2019-05-26T07:36:13.000Z</time>
      </trkpt>
      <trkpt lat="47.30949" lon="-2.29575">
        <ele>0.80000001192093</ele>
        <time>2019-05-26T07:36:20.000Z</time>
      </trkpt>
      <trkpt lat="47.30984" lon="-2.29587">
        <ele>0.80000001192093</ele>
        <time>2019-05-26T07:36:25.000Z</time>
      </trkpt>
      <trkpt lat="47.31001" lon="-2.29607">
        <ele>0.80000001192093</ele>
        <time>2019-05-26T07:36:28.000Z</time>
      </trkpt>
      <trkpt lat="47.31006" lon="-2.29616">
        <ele>0.80000001192093</ele>
        <time>2019-05-26T07:36:29.000Z</time>
      </trkpt>
      <trkpt lat="47.3101" lon="-2.29625">
        <ele>0.80000001192093</ele>
        <time>2019-05-26T07:36:30.000Z</time>
      </trkpt>
      <trkpt lat="47.3102" lon="-2.29653">
        <ele>0.80000001192093</ele>
        <time>2019-05-26T07:36:33.000Z</time>
      </trkpt>
      <trkpt lat="47.31034" lon="-2.29693">
        <ele>0.80000001192093</ele>
        <time>2019-05-26T07:36:38.000Z</time>
      </trkpt>
      <trkpt lat="47.31038" lon="-2.29698">
        <ele>0.80000001192093</ele>
        <time>2019-05-26T07:36:39.000Z</time>
      </trkpt>
      <trkpt lat="47.31054" lon="-2.29697">
        <ele>0.80000001192093</ele>
        <time>2019-05-26T07:36:42.000Z</time>
      </trkpt>
      <trkpt lat="47.31064" lon="-2.29689">
        <ele>0.80000001192093</ele>
        <time>2019-05-26T07:36:44.000Z</time>
      </trkpt>
      <trkpt lat="47.31074" lon="-2.29679">
        <ele>0.80000001192093</ele>
        <time>2019-05-26T07:36:46.000Z</time>
      </trkpt>
      <trkpt lat="47.31106" lon="-2.29644">
        <ele>0.80000001192093</ele>
        <time>2019-05-26T07:36:52.000Z</time>
      </trkpt>
      <trkpt lat="47.31132" lon="-2.29614">
        <ele>0.80000001192093</ele>
        <time>2019-05-26T07:36:57.000Z</time>
      </trkpt>
      <trkpt lat="47.31144" lon="-2.29605">
        <ele>0.80000001192093</ele>
        <time>2019-05-26T07:36:59.000Z</time>
      </trkpt>
      <trkpt lat="47.31162" lon="-2.29592">
        <ele>0.80000001192093</ele>
        <time>2019-05-26T07:37:02.000Z</time>
      </trkpt>
      <trkpt lat="47.31169" lon="-2.29574">
        <ele>0.80000001192093</ele>
        <time>2019-05-26T07:37:04.000Z</time>
      </trkpt>
      <trkpt lat="47.31166" lon="-2.29546">
        <ele>0.80000001192093</ele>
        <time>2019-05-26T07:37:07.000Z</time>
      </trkpt>
      <trkpt lat="47.31149" lon="-2.29504">
        <ele>0.80000001192093</ele>
        <time>2019-05-26T07:37:12.000Z</time>
      </trkpt>
      <trkpt lat="47.31144" lon="-2.29488">
        <ele>0.80000001192093</ele>
        <time>2019-05-26T07:37:14.000Z</time>
      </trkpt>
      <trkpt lat="47.31145" lon="-2.2947">
        <ele>0.80000001192093</ele>
        <time>2019-05-26T07:37:16.000Z</time>
      </trkpt>
      <trkpt lat="47.31157" lon="-2.29451">
        <ele>0.80000001192093</ele>
        <time>2019-05-26T07:37:19.000Z</time>
      </trkpt>
      <trkpt lat="47.31162" lon="-2.29446">
        <ele>0.80000001192093</ele>
        <time>2019-05-26T07:37:20.000Z</time>
      </trkpt>
      <trkpt lat="47.31193" lon="-2.29424">
        <ele>0.80000001192093</ele>
        <time>2019-05-26T07:37:25.000Z</time>
      </trkpt>
      <trkpt lat="47.31232" lon="-2.29397">
        <ele>0.80000001192093</ele>
        <time>2019-05-26T07:37:32.000Z</time>
      </trkpt>
      <trkpt lat="47.31237" lon="-2.29393">
        <ele>1.2000000476837</ele>
        <time>2019-05-26T07:37:33.000Z</time>
      </trkpt>
      <trkpt lat="47.31242" lon="-2.29389">
        <ele>1.6000000238419</ele>
        <time>2019-05-26T07:37:34.000Z</time>
      </trkpt>
      <trkpt lat="47.31247" lon="-2.29385">
        <ele>2</ele>
        <time>2019-05-26T07:37:35.000Z</time>
      </trkpt>
      <trkpt lat="47.31251" lon="-2.2938">
        <ele>2.4000000953674</ele>
        <time>2019-05-26T07:37:36.000Z</time>
      </trkpt>
      <trkpt lat="47.31255" lon="-2.29375">
        <ele>2.7999999523163</ele>
        <time>2019-05-26T07:37:37.000Z</time>
      </trkpt>
      <trkpt lat="47.31261" lon="-2.29362">
        <ele>2.7999999523163</ele>
        <time>2019-05-26T07:37:39.000Z</time>
      </trkpt>
      <trkpt lat="47.31266" lon="-2.29349">
        <ele>2.7999999523163</ele>
        <time>2019-05-26T07:37:41.000Z</time>
      </trkpt>
      <trkpt lat="47.31282" lon="-2.29317">
        <ele>2.7999999523163</ele>
        <time>2019-05-26T07:37:46.000Z</time>
      </trkpt>
      <trkpt lat="47.31286" lon="-2.29311">
        <ele>2.7999999523163</ele>
        <time>2019-05-26T07:37:47.000Z</time>
      </trkpt>
      <trkpt lat="47.313" lon="-2.29297">
        <ele>2.7999999523163</ele>
        <time>2019-05-26T07:37:50.000Z</time>
      </trkpt>
      <trkpt lat="47.31305" lon="-2.29294">
        <ele>2.7999999523163</ele>
        <time>2019-05-26T07:37:51.000Z</time>
      </trkpt>
      <trkpt lat="47.31309" lon="-2.29292">
        <ele>2.7999999523163</ele>
        <time>2019-05-26T07:37:52.000Z</time>
      </trkpt>
      <trkpt lat="47.3133" lon="-2.29293">
        <ele>2.7999999523163</ele>
        <time>2019-05-26T07:37:56.000Z</time>
      </trkpt>
      <trkpt lat="47.31337" lon="-2.29296">
        <ele>2.7999999523163</ele>
        <time>2019-05-26T07:37:57.000Z</time>
      </trkpt>
      <trkpt lat="47.3137" lon="-2.29312">
        <ele>2.7999999523163</ele>
        <time>2019-05-26T07:38:02.000Z</time>
      </trkpt>
      <trkpt lat="47.31398" lon="-2.29328">
        <ele>2.7999999523163</ele>
        <time>2019-05-26T07:38:07.000Z</time>
      </trkpt>
      <trkpt lat="47.31403" lon="-2.29333">
        <ele>2.7999999523163</ele>
        <time>2019-05-26T07:38:08.000Z</time>
      </trkpt>
      <trkpt lat="47.31412" lon="-2.29344">
        <ele>2.7999999523163</ele>
        <time>2019-05-26T07:38:10.000Z</time>
      </trkpt>
      <trkpt lat="47.31424" lon="-2.29361">
        <ele>2.7999999523163</ele>
        <time>2019-05-26T07:38:13.000Z</time>
      </trkpt>
      <trkpt lat="47.31431" lon="-2.29374">
        <ele>2.7999999523163</ele>
        <time>2019-05-26T07:38:15.000Z</time>
      </trkpt>
      <trkpt lat="47.31434" lon="-2.2938">
        <ele>3.2000000476837</ele>
        <time>2019-05-26T07:38:16.000Z</time>
      </trkpt>
      <trkpt lat="47.31438" lon="-2.29386">
        <ele>3.5999999046326</ele>
        <time>2019-05-26T07:38:17.000Z</time>
      </trkpt>
      <trkpt lat="47.31441" lon="-2.29392">
        <ele>4</ele>
        <time>2019-05-26T07:38:18.000Z</time>
      </trkpt>
      <trkpt lat="47.31445" lon="-2.29398">
        <ele>4.4000000953674</ele>
        <time>2019-05-26T07:38:19.000Z</time>
      </trkpt>
      <trkpt lat="47.3145" lon="-2.29403">
        <ele>4.8000001907349</ele>
        <time>2019-05-26T07:38:20.000Z</time>
      </trkpt>
      <trkpt lat="47.31461" lon="-2.29404">
        <ele>4.8000001907349</ele>
        <time>2019-05-26T07:38:22.000Z</time>
      </trkpt>
      <trkpt lat="47.31487" lon="-2.29395">
        <ele>4.8000001907349</ele>
        <time>2019-05-26T07:38:27.000Z</time>
      </trkpt>
      <trkpt lat="47.31497" lon="-2.29398">
        <ele>4.8000001907349</ele>
        <time>2019-05-26T07:38:30.000Z</time>
      </trkpt>
      <trkpt lat="47.315" lon="-2.29404">
        <ele>5.1999998092651</ele>
        <time>2019-05-26T07:38:31.000Z</time>
      </trkpt>
      <trkpt lat="47.31504" lon="-2.2941">
        <ele>5.5999999046326</ele>
        <time>2019-05-26T07:38:32.000Z</time>
      </trkpt>
      <trkpt lat="47.31508" lon="-2.29417">
        <ele>6</ele>
        <time>2019-05-26T07:38:33.000Z</time>
      </trkpt>
      <trkpt lat="47.31511" lon="-2.29424">
        <ele>6.4000000953674</ele>
        <time>2019-05-26T07:38:34.000Z</time>
      </trkpt>
      <trkpt lat="47.31515" lon="-2.29431">
        <ele>6.8000001907349</ele>
        <time>2019-05-26T07:38:35.000Z</time>
      </trkpt>
      <trkpt lat="47.31522" lon="-2.29446">
        <ele>6.8000001907349</ele>
        <time>2019-05-26T07:38:37.000Z</time>
      </trkpt>
      <trkpt lat="47.31528" lon="-2.2946">
        <ele>6.8000001907349</ele>
        <time>2019-05-26T07:38:39.000Z</time>
      </trkpt>
      <trkpt lat="47.31534" lon="-2.29484">
        <ele>7.1999998092651</ele>
        <time>2019-05-26T07:38:42.000Z</time>
      </trkpt>
      <trkpt lat="47.31537" lon="-2.29492">
        <ele>7.5999999046326</ele>
        <time>2019-05-26T07:38:43.000Z</time>
      </trkpt>
      <trkpt lat="47.31539" lon="-2.29499">
        <ele>8</ele>
        <time>2019-05-26T07:38:44.000Z</time>
      </trkpt>
      <trkpt lat="47.31541" lon="-2.29507">
        <ele>8.8000001907349</ele>
        <time>2019-05-26T07:38:45.000Z</time>
      </trkpt>
      <trkpt lat="47.31545" lon="-2.29523">
        <ele>8.8000001907349</ele>
        <time>2019-05-26T07:38:47.000Z</time>
      </trkpt>
      <trkpt lat="47.31554" lon="-2.29545">
        <ele>8.8000001907349</ele>
        <time>2019-05-26T07:38:50.000Z</time>
      </trkpt>
      <trkpt lat="47.31574" lon="-2.29578">
        <ele>8.8000001907349</ele>
        <time>2019-05-26T07:38:55.000Z</time>
      </trkpt>
      <trkpt lat="47.31582" lon="-2.29588">
        <ele>8.8000001907349</ele>
        <time>2019-05-26T07:38:57.000Z</time>
      </trkpt>
      <trkpt lat="47.3159" lon="-2.29596">
        <ele>8.8000001907349</ele>
        <time>2019-05-26T07:38:59.000Z</time>
      </trkpt>
      <trkpt lat="47.31594" lon="-2.296">
        <ele>8.8000001907349</ele>
        <time>2019-05-26T07:39:00.000Z</time>
      </trkpt>
      <trkpt lat="47.31606" lon="-2.29614">
        <ele>8.8000001907349</ele>
        <time>2019-05-26T07:39:03.000Z</time>
      </trkpt>
      <trkpt lat="47.31611" lon="-2.29621">
        <ele>8.8000001907349</ele>
        <time>2019-05-26T07:39:04.000Z</time>
      </trkpt>
      <trkpt lat="47.31624" lon="-2.29639">
        <ele>8.8000001907349</ele>
        <time>2019-05-26T07:39:07.000Z</time>
      </trkpt>
      <trkpt lat="47.31627" lon="-2.29645">
        <ele>8.8000001907349</ele>
        <time>2019-05-26T07:39:08.000Z</time>
      </trkpt>
      <trkpt lat="47.31636" lon="-2.29667">
        <ele>9.1999998092651</ele>
        <time>2019-05-26T07:39:11.000Z</time>
      </trkpt>
      <trkpt lat="47.31638" lon="-2.29673">
        <ele>9.6000003814697</ele>
        <time>2019-05-26T07:39:12.000Z</time>
      </trkpt>
      <trkpt lat="47.31641" lon="-2.2968">
        <ele>10</ele>
        <time>2019-05-26T07:39:13.000Z</time>
      </trkpt>
      <trkpt lat="47.31643" lon="-2.29687">
        <ele>10.39999961853</ele>
        <time>2019-05-26T07:39:14.000Z</time>
      </trkpt>
      <trkpt lat="47.31646" lon="-2.29694">
        <ele>10.800000190735</ele>
        <time>2019-05-26T07:39:15.000Z</time>
      </trkpt>
      <trkpt lat="47.3165" lon="-2.29709">
        <ele>10.800000190735</ele>
        <time>2019-05-26T07:39:17.000Z</time>
      </trkpt>
      <trkpt lat="47.31653" lon="-2.29717">
        <ele>10.800000190735</ele>
        <time>2019-05-26T07:39:18.000Z</time>
      </trkpt>
      <trkpt lat="47.31665" lon="-2.29735">
        <ele>10.800000190735</ele>
        <time>2019-05-26T07:39:21.000Z</time>
      </trkpt>
      <trkpt lat="47.31683" lon="-2.29736">
        <ele>10.800000190735</ele>
        <time>2019-05-26T07:39:24.000Z</time>
      </trkpt>
      <trkpt lat="47.31688" lon="-2.29734">
        <ele>10.800000190735</ele>
        <time>2019-05-26T07:39:25.000Z</time>
      </trkpt>
      <trkpt lat="47.3171" lon="-2.29723">
        <ele>10.800000190735</ele>
        <time>2019-05-26T07:39:29.000Z</time>
      </trkpt>
      <trkpt lat="47.31755" lon="-2.29689">
        <ele>10.800000190735</ele>
        <time>2019-05-26T07:39:37.000Z</time>
      </trkpt>
      <trkpt lat="47.31791" lon="-2.29662">
        <ele>10.800000190735</ele>
        <time>2019-05-26T07:39:44.000Z</time>
      </trkpt>
      <trkpt lat="47.31826" lon="-2.29639">
        <ele>10.800000190735</ele>
        <time>2019-05-26T07:39:51.000Z</time>
      </trkpt>
      <trkpt lat="47.31854" lon="-2.29623">
        <ele>10.800000190735</ele>
        <time>2019-05-26T07:39:56.000Z</time>
      </trkpt>
      <trkpt lat="47.31859" lon="-2.29618">
        <ele>10.800000190735</ele>
        <time>2019-05-26T07:39:57.000Z</time>
      </trkpt>
      <trkpt lat="47.31869" lon="-2.29604">
        <ele>10.800000190735</ele>
        <time>2019-05-26T07:40:00.000Z</time>
      </trkpt>
      <trkpt lat="47.31872" lon="-2.29599">
        <ele>10.800000190735</ele>
        <time>2019-05-26T07:40:01.000Z</time>
      </trkpt>
      <trkpt lat="47.31873" lon="-2.29593">
        <ele>10.39999961853</ele>
        <time>2019-05-26T07:40:02.000Z</time>
      </trkpt>
      <trkpt lat="47.31873" lon="-2.29589">
        <ele>10</ele>
        <time>2019-05-26T07:40:03.000Z</time>
      </trkpt>
      <trkpt lat="47.31872" lon="-2.29584">
        <ele>9.6000003814697</ele>
        <time>2019-05-26T07:40:04.000Z</time>
      </trkpt>
      <trkpt lat="47.31872" lon="-2.29579">
        <ele>9.1999998092651</ele>
        <time>2019-05-26T07:40:05.000Z</time>
      </trkpt>
      <trkpt lat="47.3187" lon="-2.29575">
        <ele>8.8000001907349</ele>
        <time>2019-05-26T07:40:06.000Z</time>
      </trkpt>
      <trkpt lat="47.31867" lon="-2.29563">
        <ele>8.8000001907349</ele>
        <time>2019-05-26T07:40:09.000Z</time>
      </trkpt>
      <trkpt lat="47.31861" lon="-2.2954">
        <ele>8.8000001907349</ele>
        <time>2019-05-26T07:40:16.000Z</time>
      </trkpt>
      <trkpt lat="47.31855" lon="-2.2952">
        <ele>8.8000001907349</ele>
        <time>2019-05-26T07:40:21.000Z</time>
      </trkpt>
      <trkpt lat="47.31847" lon="-2.29494">
        <ele>8.8000001907349</ele>
        <time>2019-05-26T07:40:27.000Z</time>
      </trkpt>
      <trkpt lat="47.31846" lon="-2.29473">
        <ele>8.8000001907349</ele>
        <time>2019-05-26T07:40:31.000Z</time>
      </trkpt>
      <trkpt lat="47.31847" lon="-2.29467">
        <ele>8.8000001907349</ele>
        <time>2019-05-26T07:40:32.000Z</time>
      </trkpt>
      <trkpt lat="47.3185" lon="-2.29448">
        <ele>8.8000001907349</ele>
        <time>2019-05-26T07:40:35.000Z</time>
      </trkpt>
      <trkpt lat="47.31853" lon="-2.29429">
        <ele>8.8000001907349</ele>
        <time>2019-05-26T07:40:38.000Z</time>
      </trkpt>
      <trkpt lat="47.31853" lon="-2.29421">
        <ele>8.8000001907349</ele>
        <time>2019-05-26T07:40:39.000Z</time>
      </trkpt>
      <trkpt lat="47.3185" lon="-2.29394">
        <ele>8.8000001907349</ele>
        <time>2019-05-26T07:40:43.000Z</time>
      </trkpt>
      <trkpt lat="47.31848" lon="-2.29387">
        <ele>8.8000001907349</ele>
        <time>2019-05-26T07:40:44.000Z</time>
      </trkpt>
      <trkpt lat="47.31841" lon="-2.29357">
        <ele>8.8000001907349</ele>
        <time>2019-05-26T07:40:48.000Z</time>
      </trkpt>
      <trkpt lat="47.31839" lon="-2.29349">
        <ele>8.8000001907349</ele>
        <time>2019-05-26T07:40:49.000Z</time>
      </trkpt>
      <trkpt lat="47.31833" lon="-2.29301">
        <ele>8.8000001907349</ele>
        <time>2019-05-26T07:40:55.000Z</time>
      </trkpt>
      <trkpt lat="47.31827" lon="-2.29244">
        <ele>8.8000001907349</ele>
        <time>2019-05-26T07:41:01.000Z</time>
      </trkpt>
      <trkpt lat="47.31824" lon="-2.29224">
        <ele>8.1999998092651</ele>
        <time>2019-05-26T07:41:03.000Z</time>
      </trkpt>
      <trkpt lat="47.31824" lon="-2.29215">
        <ele>7.8000001907349</ele>
        <time>2019-05-26T07:41:04.000Z</time>
      </trkpt>
      <trkpt lat="47.31824" lon="-2.29205">
        <ele>7.4000000953674</ele>
        <time>2019-05-26T07:41:05.000Z</time>
      </trkpt>
      <trkpt lat="47.31824" lon="-2.29194">
        <ele>7</ele>
        <time>2019-05-26T07:41:06.000Z</time>
      </trkpt>
      <trkpt lat="47.31824" lon="-2.29184">
        <ele>6.5999999046326</ele>
        <time>2019-05-26T07:41:07.000Z</time>
      </trkpt>
      <trkpt lat="47.31831" lon="-2.29134">
        <ele>6.5999999046326</ele>
        <time>2019-05-26T07:41:12.000Z</time>
      </trkpt>
      <trkpt lat="47.31833" lon="-2.29124">
        <ele>6.1999998092651</ele>
        <time>2019-05-26T07:41:13.000Z</time>
      </trkpt>
      <trkpt lat="47.31834" lon="-2.29114">
        <ele>5.8000001907349</ele>
        <time>2019-05-26T07:41:14.000Z</time>
      </trkpt>
      <trkpt lat="47.31836" lon="-2.29104">
        <ele>5.4000000953674</ele>
        <time>2019-05-26T07:41:15.000Z</time>
      </trkpt>
      <trkpt lat="47.31837" lon="-2.29093">
        <ele>5</ele>
        <time>2019-05-26T07:41:16.000Z</time>
      </trkpt>
      <trkpt lat="47.31839" lon="-2.29083">
        <ele>4.5999999046326</ele>
        <time>2019-05-26T07:41:17.000Z</time>
      </trkpt>
      <trkpt lat="47.3184" lon="-2.29072">
        <ele>4.5999999046326</ele>
        <time>2019-05-26T07:41:18.000Z</time>
      </trkpt>
      <trkpt lat="47.3185" lon="-2.29021">
        <ele>4.1999998092651</ele>
        <time>2019-05-26T07:41:23.000Z</time>
      </trkpt>
      <trkpt lat="47.31852" lon="-2.29012">
        <ele>3.5999999046326</ele>
        <time>2019-05-26T07:41:24.000Z</time>
      </trkpt>
      <trkpt lat="47.31854" lon="-2.29002">
        <ele>3.2000000476837</ele>
        <time>2019-05-26T07:41:25.000Z</time>
      </trkpt>
      <trkpt lat="47.31856" lon="-2.28993">
        <ele>2.7999999523163</ele>
        <time>2019-05-26T07:41:26.000Z</time>
      </trkpt>
      <trkpt lat="47.31857" lon="-2.28983">
        <ele>2.4000000953674</ele>
        <time>2019-05-26T07:41:27.000Z</time>
      </trkpt>
      <trkpt lat="47.31859" lon="-2.28964">
        <ele>2.4000000953674</ele>
        <time>2019-05-26T07:41:29.000Z</time>
      </trkpt>
      <trkpt lat="47.3186" lon="-2.28942">
        <ele>2</ele>
        <time>2019-05-26T07:41:32.000Z</time>
      </trkpt>
      <trkpt lat="47.31862" lon="-2.28937">
        <ele>1.3999999761581</ele>
        <time>2019-05-26T07:41:33.000Z</time>
      </trkpt>
      <trkpt lat="47.31865" lon="-2.28934">
        <ele>1</ele>
        <time>2019-05-26T07:41:34.000Z</time>
      </trkpt>
      <trkpt lat="47.31868" lon="-2.28931">
        <ele>0.60000002384186</ele>
        <time>2019-05-26T07:41:35.000Z</time>
      </trkpt>
      <trkpt lat="47.31871" lon="-2.28928">
        <ele>0.20000000298023</ele>
        <time>2019-05-26T07:41:36.000Z</time>
      </trkpt>
      <trkpt lat="47.31875" lon="-2.28926">
        <ele>0.20000000298023</ele>
        <time>2019-05-26T07:41:37.000Z</time>
      </trkpt>
      <trkpt lat="47.31896" lon="-2.28919">
        <ele>0.20000000298023</ele>
        <time>2019-05-26T07:41:41.000Z</time>
      </trkpt>
      <trkpt lat="47.31924" lon="-2.28903">
        <ele>0.20000000298023</ele>
        <time>2019-05-26T07:41:46.000Z</time>
      </trkpt>
      <trkpt lat="47.31929" lon="-2.28899">
        <ele>0.20000000298023</ele>
        <time>2019-05-26T07:41:47.000Z</time>
      </trkpt>
      <trkpt lat="47.31939" lon="-2.28893">
        <ele>0.20000000298023</ele>
        <time>2019-05-26T07:41:49.000Z</time>
      </trkpt>
      <trkpt lat="47.31946" lon="-2.28891">
        <ele>0.20000000298023</ele>
        <time>2019-05-26T07:41:51.000Z</time>
      </trkpt>
      <trkpt lat="47.31952" lon="-2.28889">
        <ele>-0.20000000298023</ele>
        <time>2019-05-26T07:41:53.000Z</time>
      </trkpt>
      <trkpt lat="47.31957" lon="-2.28889">
        <ele>-0.60000002384186</ele>
        <time>2019-05-26T07:41:54.000Z</time>
      </trkpt>
      <trkpt lat="47.31962" lon="-2.28887">
        <ele>-1.2000000476837</ele>
        <time>2019-05-26T07:41:55.000Z</time>
      </trkpt>
      <trkpt lat="47.31967" lon="-2.28886">
        <ele>-1.6000000238419</ele>
        <time>2019-05-26T07:41:56.000Z</time>
      </trkpt>
      <trkpt lat="47.31973" lon="-2.28884">
        <ele>-2</ele>
        <time>2019-05-26T07:41:57.000Z</time>
      </trkpt>
      <trkpt lat="47.31984" lon="-2.28882">
        <ele>-2</ele>
        <time>2019-05-26T07:41:59.000Z</time>
      </trkpt>
      <trkpt lat="47.32023" lon="-2.28869">
        <ele>-2</ele>
        <time>2019-05-26T07:42:06.000Z</time>
      </trkpt>
      <trkpt lat="47.32033" lon="-2.28868">
        <ele>-2</ele>
        <time>2019-05-26T07:42:08.000Z</time>
      </trkpt>
      <trkpt lat="47.32036" lon="-2.28872">
        <ele>-2</ele>
        <time>2019-05-26T07:42:09.000Z</time>
      </trkpt>
      <trkpt lat="47.3204" lon="-2.28892">
        <ele>-2</ele>
        <time>2019-05-26T07:42:12.000Z</time>
      </trkpt>
      <trkpt lat="47.32046" lon="-2.28931">
        <ele>-2</ele>
        <time>2019-05-26T07:42:17.000Z</time>
      </trkpt>
      <trkpt lat="47.32048" lon="-2.28936">
        <ele>-2</ele>
        <time>2019-05-26T07:42:18.000Z</time>
      </trkpt>
      <trkpt lat="47.3206" lon="-2.28948">
        <ele>-2</ele>
        <time>2019-05-26T07:42:21.000Z</time>
      </trkpt>
      <trkpt lat="47.32064" lon="-2.28952">
        <ele>-2</ele>
        <time>2019-05-26T07:42:22.000Z</time>
      </trkpt>
      <trkpt lat="47.32087" lon="-2.28964">
        <ele>-2</ele>
        <time>2019-05-26T07:42:27.000Z</time>
      </trkpt>
      <trkpt lat="47.32092" lon="-2.28968">
        <ele>-2</ele>
        <time>2019-05-26T07:42:28.000Z</time>
      </trkpt>
      <trkpt lat="47.32096" lon="-2.28972">
        <ele>-2</ele>
        <time>2019-05-26T07:42:29.000Z</time>
      </trkpt>
      <trkpt lat="47.32104" lon="-2.28985">
        <ele>-2</ele>
        <time>2019-05-26T07:42:31.000Z</time>
      </trkpt>
      <trkpt lat="47.32107" lon="-2.28991">
        <ele>-1.6000000238419</ele>
        <time>2019-05-26T07:42:32.000Z</time>
      </trkpt>
      <trkpt lat="47.3211" lon="-2.28996">
        <ele>-1</ele>
        <time>2019-05-26T07:42:33.000Z</time>
      </trkpt>
      <trkpt lat="47.32113" lon="-2.29002">
        <ele>-0.60000002384186</ele>
        <time>2019-05-26T07:42:34.000Z</time>
      </trkpt>
      <trkpt lat="47.32116" lon="-2.29007">
        <ele>-0.20000000298023</ele>
        <time>2019-05-26T07:42:35.000Z</time>
      </trkpt>
      <trkpt lat="47.32118" lon="-2.29012">
        <ele>0.20000000298023</ele>
        <time>2019-05-26T07:42:36.000Z</time>
      </trkpt>
      <trkpt lat="47.32128" lon="-2.29039">
        <ele>0.20000000298023</ele>
        <time>2019-05-26T07:42:40.000Z</time>
      </trkpt>
      <trkpt lat="47.32139" lon="-2.29075">
        <ele>0.20000000298023</ele>
        <time>2019-05-26T07:42:45.000Z</time>
      </trkpt>
      <trkpt lat="47.32143" lon="-2.29081">
        <ele>0.20000000298023</ele>
        <time>2019-05-26T07:42:46.000Z</time>
      </trkpt>
      <trkpt lat="47.32149" lon="-2.29092">
        <ele>0.60000002384186</ele>
        <time>2019-05-26T07:42:48.000Z</time>
      </trkpt>
      <trkpt lat="47.32153" lon="-2.29097">
        <ele>1</ele>
        <time>2019-05-26T07:42:49.000Z</time>
      </trkpt>
      <trkpt lat="47.32156" lon="-2.29101">
        <ele>1.3999999761581</ele>
        <time>2019-05-26T07:42:50.000Z</time>
      </trkpt>
      <trkpt lat="47.3216" lon="-2.29105">
        <ele>2.2000000476837</ele>
        <time>2019-05-26T07:42:51.000Z</time>
      </trkpt>
      <trkpt lat="47.32168" lon="-2.29114">
        <ele>2.2000000476837</ele>
        <time>2019-05-26T07:42:53.000Z</time>
      </trkpt>
      <trkpt lat="47.32187" lon="-2.29134">
        <ele>2.2000000476837</ele>
        <time>2019-05-26T07:42:57.000Z</time>
      </trkpt>
      <trkpt lat="47.32198" lon="-2.29145">
        <ele>2.2000000476837</ele>
        <time>2019-05-26T07:42:59.000Z</time>
      </trkpt>
      <trkpt lat="47.32223" lon="-2.29177">
        <ele>2.2000000476837</ele>
        <time>2019-05-26T07:43:04.000Z</time>
      </trkpt>
      <trkpt lat="47.32247" lon="-2.29217">
        <ele>2.2000000476837</ele>
        <time>2019-05-26T07:43:10.000Z</time>
      </trkpt>
      <trkpt lat="47.3226" lon="-2.29219">
        <ele>1.7999999523163</ele>
        <time>2019-05-26T07:43:13.000Z</time>
      </trkpt>
      <trkpt lat="47.32265" lon="-2.29217">
        <ele>1.3999999761581</ele>
        <time>2019-05-26T07:43:14.000Z</time>
      </trkpt>
      <trkpt lat="47.3227" lon="-2.29216">
        <ele>0.60000002384186</ele>
        <time>2019-05-26T07:43:15.000Z</time>
      </trkpt>
      <trkpt lat="47.32275" lon="-2.29215">
        <ele>0.20000000298023</ele>
        <time>2019-05-26T07:43:16.000Z</time>
      </trkpt>
      <trkpt lat="47.32295" lon="-2.29212">
        <ele>0.20000000298023</ele>
        <time>2019-05-26T07:43:20.000Z</time>
      </trkpt>
      <trkpt lat="47.32307" lon="-2.29213">
        <ele>0.20000000298023</ele>
        <time>2019-05-26T07:43:22.000Z</time>
      </trkpt>
      <trkpt lat="47.32316" lon="-2.29217">
        <ele>0.20000000298023</ele>
        <time>2019-05-26T07:43:24.000Z</time>
      </trkpt>
      <trkpt lat="47.32326" lon="-2.29222">
        <ele>0.20000000298023</ele>
        <time>2019-05-26T07:43:26.000Z</time>
      </trkpt>
      <trkpt lat="47.32352" lon="-2.29236">
        <ele>0.20000000298023</ele>
        <time>2019-05-26T07:43:31.000Z</time>
      </trkpt>
      <trkpt lat="47.32381" lon="-2.29251">
        <ele>0.20000000298023</ele>
        <time>2019-05-26T07:43:37.000Z</time>
      </trkpt>
      <trkpt lat="47.32394" lon="-2.29258">
        <ele>0.20000000298023</ele>
        <time>2019-05-26T07:43:40.000Z</time>
      </trkpt>
      <trkpt lat="47.32401" lon="-2.29264">
        <ele>0.20000000298023</ele>
        <time>2019-05-26T07:43:42.000Z</time>
      </trkpt>
      <trkpt lat="47.32408" lon="-2.2927">
        <ele>0.20000000298023</ele>
        <time>2019-05-26T07:43:45.000Z</time>
      </trkpt>
      <trkpt lat="47.32408" lon="-2.29272">
        <ele>0.20000000298023</ele>
        <time>2019-05-26T07:43:46.000Z</time>
      </trkpt>
      <trkpt lat="47.32408" lon="-2.29272">
        <ele>0.20000000298023</ele>
        <time>2019-05-26T07:43:47.000Z</time>
      </trkpt>
      <trkpt lat="47.32408" lon="-2.29273">
        <ele>0.20000000298023</ele>
        <time>2019-05-26T07:43:57.000Z</time>
      </trkpt>
      <trkpt lat="47.32409" lon="-2.29275">
        <ele>0.20000000298023</ele>
        <time>2019-05-26T07:43:58.000Z</time>
      </trkpt>
      <trkpt lat="47.32413" lon="-2.29297">
        <ele>0.20000000298023</ele>
        <time>2019-05-26T07:44:03.000Z</time>
      </trkpt>
      <trkpt lat="47.3242" lon="-2.29334">
        <ele>0.20000000298023</ele>
        <time>2019-05-26T07:44:09.000Z</time>
      </trkpt>
      <trkpt lat="47.32421" lon="-2.29347">
        <ele>0.20000000298023</ele>
        <time>2019-05-26T07:44:11.000Z</time>
      </trkpt>
      <trkpt lat="47.32422" lon="-2.29368">
        <ele>0.20000000298023</ele>
        <time>2019-05-26T07:44:14.000Z</time>
      </trkpt>
      <trkpt lat="47.32425" lon="-2.2939">
        <ele>0.20000000298023</ele>
        <time>2019-05-26T07:44:17.000Z</time>
      </trkpt>
      <trkpt lat="47.3243" lon="-2.29411">
        <ele>0.20000000298023</ele>
        <time>2019-05-26T07:44:20.000Z</time>
      </trkpt>
      <trkpt lat="47.32437" lon="-2.29444">
        <ele>0.60000002384186</ele>
        <time>2019-05-26T07:44:25.000Z</time>
      </trkpt>
      <trkpt lat="47.32437" lon="-2.29451">
        <ele>1</ele>
        <time>2019-05-26T07:44:26.000Z</time>
      </trkpt>
      <trkpt lat="47.32438" lon="-2.29457">
        <ele>1.3999999761581</ele>
        <time>2019-05-26T07:44:27.000Z</time>
      </trkpt>
      <trkpt lat="47.32439" lon="-2.29464">
        <ele>1.7999999523163</ele>
        <time>2019-05-26T07:44:28.000Z</time>
      </trkpt>
      <trkpt lat="47.3244" lon="-2.2947">
        <ele>2.4000000953674</ele>
        <time>2019-05-26T07:44:29.000Z</time>
      </trkpt>
      <trkpt lat="47.32444" lon="-2.29484">
        <ele>2.4000000953674</ele>
        <time>2019-05-26T07:44:31.000Z</time>
      </trkpt>
      <trkpt lat="47.32447" lon="-2.2949">
        <ele>2.4000000953674</ele>
        <time>2019-05-26T07:44:32.000Z</time>
      </trkpt>
      <trkpt lat="47.32454" lon="-2.29516">
        <ele>2.4000000953674</ele>
        <time>2019-05-26T07:44:36.000Z</time>
      </trkpt>
      <trkpt lat="47.32458" lon="-2.29529">
        <ele>2.7999999523163</ele>
        <time>2019-05-26T07:44:38.000Z</time>
      </trkpt>
      <trkpt lat="47.32461" lon="-2.29536">
        <ele>3.2000000476837</ele>
        <time>2019-05-26T07:44:39.000Z</time>
      </trkpt>
      <trkpt lat="47.32462" lon="-2.29541">
        <ele>3.5999999046326</ele>
        <time>2019-05-26T07:44:40.000Z</time>
      </trkpt>
      <trkpt lat="47.32464" lon="-2.29547">
        <ele>4</ele>
        <time>2019-05-26T07:44:41.000Z</time>
      </trkpt>
      <trkpt lat="47.32466" lon="-2.29553">
        <ele>4.4000000953674</ele>
        <time>2019-05-26T07:44:42.000Z</time>
      </trkpt>
      <trkpt lat="47.32467" lon="-2.29559">
        <ele>4.4000000953674</ele>
        <time>2019-05-26T07:44:43.000Z</time>
      </trkpt>
      <trkpt lat="47.32471" lon="-2.29571">
        <ele>4.8000001907349</ele>
        <time>2019-05-26T07:44:45.000Z</time>
      </trkpt>
      <trkpt lat="47.32472" lon="-2.29577">
        <ele>5.1999998092651</ele>
        <time>2019-05-26T07:44:46.000Z</time>
      </trkpt>
      <trkpt lat="47.32474" lon="-2.29582">
        <ele>5.5999999046326</ele>
        <time>2019-05-26T07:44:47.000Z</time>
      </trkpt>
      <trkpt lat="47.32477" lon="-2.29588">
        <ele>6</ele>
        <time>2019-05-26T07:44:48.000Z</time>
      </trkpt>
      <trkpt lat="47.32478" lon="-2.29594">
        <ele>6.4000000953674</ele>
        <time>2019-05-26T07:44:49.000Z</time>
      </trkpt>
      <trkpt lat="47.3248" lon="-2.29606">
        <ele>6.4000000953674</ele>
        <time>2019-05-26T07:44:51.000Z</time>
      </trkpt>
      <trkpt lat="47.32483" lon="-2.29617">
        <ele>6.4000000953674</ele>
        <time>2019-05-26T07:44:53.000Z</time>
      </trkpt>
      <trkpt lat="47.32484" lon="-2.29624">
        <ele>6.8000001907349</ele>
        <time>2019-05-26T07:44:54.000Z</time>
      </trkpt>
      <trkpt lat="47.32486" lon="-2.2963">
        <ele>7.1999998092651</ele>
        <time>2019-05-26T07:44:55.000Z</time>
      </trkpt>
      <trkpt lat="47.32488" lon="-2.29636">
        <ele>7.5999999046326</ele>
        <time>2019-05-26T07:44:56.000Z</time>
      </trkpt>
      <trkpt lat="47.32489" lon="-2.29642">
        <ele>8</ele>
        <time>2019-05-26T07:44:57.000Z</time>
      </trkpt>
      <trkpt lat="47.32491" lon="-2.29647">
        <ele>8.3999996185303</ele>
        <time>2019-05-26T07:44:58.000Z</time>
      </trkpt>
      <trkpt lat="47.32501" lon="-2.29684">
        <ele>9</ele>
        <time>2019-05-26T07:45:04.000Z</time>
      </trkpt>
      <trkpt lat="47.32503" lon="-2.29691">
        <ele>9.3999996185303</ele>
        <time>2019-05-26T07:45:05.000Z</time>
      </trkpt>
      <trkpt lat="47.32504" lon="-2.29697">
        <ele>9.8000001907349</ele>
        <time>2019-05-26T07:45:06.000Z</time>
      </trkpt>
      <trkpt lat="47.32505" lon="-2.29703">
        <ele>10.199999809265</ele>
        <time>2019-05-26T07:45:07.000Z</time>
      </trkpt>
      <trkpt lat="47.32507" lon="-2.2971">
        <ele>10.60000038147</ele>
        <time>2019-05-26T07:45:08.000Z</time>
      </trkpt>
      <trkpt lat="47.32511" lon="-2.29723">
        <ele>10.60000038147</ele>
        <time>2019-05-26T07:45:10.000Z</time>
      </trkpt>
      <trkpt lat="47.32517" lon="-2.29748">
        <ele>11</ele>
        <time>2019-05-26T07:45:14.000Z</time>
      </trkpt>
      <trkpt lat="47.32518" lon="-2.29753">
        <ele>11.39999961853</ele>
        <time>2019-05-26T07:45:15.000Z</time>
      </trkpt>
      <trkpt lat="47.3252" lon="-2.29759">
        <ele>11.800000190735</ele>
        <time>2019-05-26T07:45:16.000Z</time>
      </trkpt>
      <trkpt lat="47.32522" lon="-2.29763">
        <ele>12.199999809265</ele>
        <time>2019-05-26T07:45:17.000Z</time>
      </trkpt>
      <trkpt lat="47.32524" lon="-2.29768">
        <ele>12.800000190735</ele>
        <time>2019-05-26T07:45:18.000Z</time>
      </trkpt>
      <trkpt lat="47.32525" lon="-2.29787">
        <ele>12.800000190735</ele>
        <time>2019-05-26T07:45:22.000Z</time>
      </trkpt>
      <trkpt lat="47.32523" lon="-2.29791">
        <ele>12.800000190735</ele>
        <time>2019-05-26T07:45:23.000Z</time>
      </trkpt>
      <trkpt lat="47.32517" lon="-2.29799">
        <ele>12.800000190735</ele>
        <time>2019-05-26T07:45:25.000Z</time>
      </trkpt>
      <trkpt lat="47.32495" lon="-2.29819">
        <ele>12.800000190735</ele>
        <time>2019-05-26T07:45:30.000Z</time>
      </trkpt>
      <trkpt lat="47.32461" lon="-2.29848">
        <ele>12.800000190735</ele>
        <time>2019-05-26T07:45:37.000Z</time>
      </trkpt>
      <trkpt lat="47.32447" lon="-2.29862">
        <ele>12.800000190735</ele>
        <time>2019-05-26T07:45:40.000Z</time>
      </trkpt>
      <trkpt lat="47.32442" lon="-2.29877">
        <ele>12.800000190735</ele>
        <time>2019-05-26T07:45:42.000Z</time>
      </trkpt>
      <trkpt lat="47.32444" lon="-2.29893">
        <ele>12.800000190735</ele>
        <time>2019-05-26T07:45:44.000Z</time>
      </trkpt>
      <trkpt lat="47.32445" lon="-2.29902">
        <ele>12.800000190735</ele>
        <time>2019-05-26T07:45:45.000Z</time>
      </trkpt>
      <trkpt lat="47.32448" lon="-2.29926">
        <ele>12.800000190735</ele>
        <time>2019-05-26T07:45:48.000Z</time>
      </trkpt>
      <trkpt lat="47.32447" lon="-2.29938">
        <ele>12.800000190735</ele>
        <time>2019-05-26T07:45:50.000Z</time>
      </trkpt>
      <trkpt lat="47.32446" lon="-2.29959">
        <ele>12.800000190735</ele>
        <time>2019-05-26T07:45:54.000Z</time>
      </trkpt>
      <trkpt lat="47.3246" lon="-2.29984">
        <ele>12.800000190735</ele>
        <time>2019-05-26T07:45:59.000Z</time>
      </trkpt>
      <trkpt lat="47.32474" lon="-2.30012">
        <ele>12.800000190735</ele>
        <time>2019-05-26T07:46:04.000Z</time>
      </trkpt>
      <trkpt lat="47.32478" lon="-2.30025">
        <ele>12.800000190735</ele>
        <time>2019-05-26T07:46:06.000Z</time>
      </trkpt>
      <trkpt lat="47.32492" lon="-2.30071">
        <ele>12.800000190735</ele>
        <time>2019-05-26T07:46:13.000Z</time>
      </trkpt>
      <trkpt lat="47.32493" lon="-2.30079">
        <ele>12.800000190735</ele>
        <time>2019-05-26T07:46:14.000Z</time>
      </trkpt>
      <trkpt lat="47.32499" lon="-2.30128">
        <ele>12.800000190735</ele>
        <time>2019-05-26T07:46:20.000Z</time>
      </trkpt>
      <trkpt lat="47.32506" lon="-2.30177">
        <ele>12.800000190735</ele>
        <time>2019-05-26T07:46:26.000Z</time>
      </trkpt>
      <trkpt lat="47.32507" lon="-2.30185">
        <ele>12.800000190735</ele>
        <time>2019-05-26T07:46:27.000Z</time>
      </trkpt>
      <trkpt lat="47.32508" lon="-2.30194">
        <ele>12.800000190735</ele>
        <time>2019-05-26T07:46:28.000Z</time>
      </trkpt>
      <trkpt lat="47.32514" lon="-2.30236">
        <ele>12.800000190735</ele>
        <time>2019-05-26T07:46:33.000Z</time>
      </trkpt>
      <trkpt lat="47.32523" lon="-2.30297">
        <ele>12.800000190735</ele>
        <time>2019-05-26T07:46:40.000Z</time>
      </trkpt>
      <trkpt lat="47.32529" lon="-2.30323">
        <ele>12.800000190735</ele>
        <time>2019-05-26T07:46:43.000Z</time>
      </trkpt>
      <trkpt lat="47.32532" lon="-2.3034">
        <ele>12.800000190735</ele>
        <time>2019-05-26T07:46:45.000Z</time>
      </trkpt>
      <trkpt lat="47.32535" lon="-2.30357">
        <ele>12.800000190735</ele>
        <time>2019-05-26T07:46:47.000Z</time>
      </trkpt>
      <trkpt lat="47.32538" lon="-2.30374">
        <ele>12.39999961853</ele>
        <time>2019-05-26T07:46:49.000Z</time>
      </trkpt>
      <trkpt lat="47.3254" lon="-2.30381">
        <ele>12</ele>
        <time>2019-05-26T07:46:50.000Z</time>
      </trkpt>
      <trkpt lat="47.32541" lon="-2.30388">
        <ele>11.60000038147</ele>
        <time>2019-05-26T07:46:51.000Z</time>
      </trkpt>
      <trkpt lat="47.32541" lon="-2.30396">
        <ele>11.199999809265</ele>
        <time>2019-05-26T07:46:52.000Z</time>
      </trkpt>
      <trkpt lat="47.32539" lon="-2.30402">
        <ele>10.800000190735</ele>
        <time>2019-05-26T07:46:53.000Z</time>
      </trkpt>
      <trkpt lat="47.32535" lon="-2.30405">
        <ele>10.800000190735</ele>
        <time>2019-05-26T07:46:54.000Z</time>
      </trkpt>
      <trkpt lat="47.32526" lon="-2.30408">
        <ele>10.800000190735</ele>
        <time>2019-05-26T07:46:56.000Z</time>
      </trkpt>
      <trkpt lat="47.32516" lon="-2.30412">
        <ele>10.800000190735</ele>
        <time>2019-05-26T07:46:58.000Z</time>
      </trkpt>
      <trkpt lat="47.32498" lon="-2.30423">
        <ele>10.800000190735</ele>
        <time>2019-05-26T07:47:02.000Z</time>
      </trkpt>
      <trkpt lat="47.32497" lon="-2.30429">
        <ele>10.800000190735</ele>
        <time>2019-05-26T07:47:03.000Z</time>
      </trkpt>
      <trkpt lat="47.32503" lon="-2.3045">
        <ele>10.800000190735</ele>
        <time>2019-05-26T07:47:06.000Z</time>
      </trkpt>
      <trkpt lat="47.32513" lon="-2.30498">
        <ele>10.800000190735</ele>
        <time>2019-05-26T07:47:12.000Z</time>
      </trkpt>
      <trkpt lat="47.3252" lon="-2.3053">
        <ele>10.800000190735</ele>
        <time>2019-05-26T07:47:16.000Z</time>
      </trkpt>
      <trkpt lat="47.32521" lon="-2.30538">
        <ele>10.800000190735</ele>
        <time>2019-05-26T07:47:17.000Z</time>
      </trkpt>
      <trkpt lat="47.32529" lon="-2.30593">
        <ele>10.800000190735</ele>
        <time>2019-05-26T07:47:24.000Z</time>
      </trkpt>
      <trkpt lat="47.32533" lon="-2.30617">
        <ele>10.800000190735</ele>
        <time>2019-05-26T07:47:27.000Z</time>
      </trkpt>
      <trkpt lat="47.32535" lon="-2.30626">
        <ele>10.199999809265</ele>
        <time>2019-05-26T07:47:28.000Z</time>
      </trkpt>
      <trkpt lat="47.32536" lon="-2.30634">
        <ele>9.8000001907349</ele>
        <time>2019-05-26T07:47:29.000Z</time>
      </trkpt>
      <trkpt lat="47.32538" lon="-2.30642">
        <ele>9.3999996185303</ele>
        <time>2019-05-26T07:47:30.000Z</time>
      </trkpt>
      <trkpt lat="47.3254" lon="-2.30649">
        <ele>9</ele>
        <time>2019-05-26T07:47:31.000Z</time>
      </trkpt>
      <trkpt lat="47.32542" lon="-2.30656">
        <ele>8.6000003814697</ele>
        <time>2019-05-26T07:47:32.000Z</time>
      </trkpt>
      <trkpt lat="47.32543" lon="-2.30664">
        <ele>8.6000003814697</ele>
        <time>2019-05-26T07:47:33.000Z</time>
      </trkpt>
      <trkpt lat="47.32545" lon="-2.3068">
        <ele>8.6000003814697</ele>
        <time>2019-05-26T07:47:35.000Z</time>
      </trkpt>
      <trkpt lat="47.32547" lon="-2.30706">
        <ele>8.6000003814697</ele>
        <time>2019-05-26T07:47:38.000Z</time>
      </trkpt>
      <trkpt lat="47.32549" lon="-2.30714">
        <ele>8.6000003814697</ele>
        <time>2019-05-26T07:47:39.000Z</time>
      </trkpt>
      <trkpt lat="47.32561" lon="-2.30769">
        <ele>8.6000003814697</ele>
        <time>2019-05-26T07:47:45.000Z</time>
      </trkpt>
      <trkpt lat="47.32562" lon="-2.30778">
        <ele>8.6000003814697</ele>
        <time>2019-05-26T07:47:46.000Z</time>
      </trkpt>
      <trkpt lat="47.32565" lon="-2.30797">
        <ele>8.6000003814697</ele>
        <time>2019-05-26T07:47:48.000Z</time>
      </trkpt>
      <trkpt lat="47.32565" lon="-2.30806">
        <ele>8.6000003814697</ele>
        <time>2019-05-26T07:47:49.000Z</time>
      </trkpt>
      <trkpt lat="47.32567" lon="-2.30873">
        <ele>8.6000003814697</ele>
        <time>2019-05-26T07:47:56.000Z</time>
      </trkpt>
      <trkpt lat="47.32567" lon="-2.30901">
        <ele>8.6000003814697</ele>
        <time>2019-05-26T07:47:59.000Z</time>
      </trkpt>
      <trkpt lat="47.32566" lon="-2.3092">
        <ele>8.6000003814697</ele>
        <time>2019-05-26T07:48:01.000Z</time>
      </trkpt>
      <trkpt lat="47.32566" lon="-2.30928">
        <ele>8.6000003814697</ele>
        <time>2019-05-26T07:48:02.000Z</time>
      </trkpt>
      <trkpt lat="47.32565" lon="-2.30972">
        <ele>8.6000003814697</ele>
        <time>2019-05-26T07:48:07.000Z</time>
      </trkpt>
      <trkpt lat="47.32568" lon="-2.31026">
        <ele>8.6000003814697</ele>
        <time>2019-05-26T07:48:13.000Z</time>
      </trkpt>
      <trkpt lat="47.32571" lon="-2.31033">
        <ele>8.6000003814697</ele>
        <time>2019-05-26T07:48:14.000Z</time>
      </trkpt>
      <trkpt lat="47.32573" lon="-2.31051">
        <ele>8.6000003814697</ele>
        <time>2019-05-26T07:48:16.000Z</time>
      </trkpt>
      <trkpt lat="47.32575" lon="-2.3108">
        <ele>8.6000003814697</ele>
        <time>2019-05-26T07:48:19.000Z</time>
      </trkpt>
      <trkpt lat="47.32574" lon="-2.31099">
        <ele>8.6000003814697</ele>
        <time>2019-05-26T07:48:21.000Z</time>
      </trkpt>
      <trkpt lat="47.32569" lon="-2.31151">
        <ele>8.6000003814697</ele>
        <time>2019-05-26T07:48:26.000Z</time>
      </trkpt>
      <trkpt lat="47.32566" lon="-2.31183">
        <ele>8.6000003814697</ele>
        <time>2019-05-26T07:48:29.000Z</time>
      </trkpt>
      <trkpt lat="47.32567" lon="-2.31193">
        <ele>8.6000003814697</ele>
        <time>2019-05-26T07:48:30.000Z</time>
      </trkpt>
      <trkpt lat="47.32573" lon="-2.31211">
        <ele>8.6000003814697</ele>
        <time>2019-05-26T07:48:32.000Z</time>
      </trkpt>
      <trkpt lat="47.32574" lon="-2.31222">
        <ele>8.1999998092651</ele>
        <time>2019-05-26T07:48:33.000Z</time>
      </trkpt>
      <trkpt lat="47.32574" lon="-2.31234">
        <ele>7.8000001907349</ele>
        <time>2019-05-26T07:48:34.000Z</time>
      </trkpt>
      <trkpt lat="47.32574" lon="-2.31244">
        <ele>7.1999998092651</ele>
        <time>2019-05-26T07:48:35.000Z</time>
      </trkpt>
      <trkpt lat="47.32573" lon="-2.31254">
        <ele>6.8000001907349</ele>
        <time>2019-05-26T07:48:36.000Z</time>
      </trkpt>
      <trkpt lat="47.32572" lon="-2.31264">
        <ele>6.4000000953674</ele>
        <time>2019-05-26T07:48:37.000Z</time>
      </trkpt>
      <trkpt lat="47.32571" lon="-2.31303">
        <ele>6.4000000953674</ele>
        <time>2019-05-26T07:48:41.000Z</time>
      </trkpt>
      <trkpt lat="47.3257" lon="-2.31312">
        <ele>6.4000000953674</ele>
        <time>2019-05-26T07:48:42.000Z</time>
      </trkpt>
      <trkpt lat="47.32564" lon="-2.31329">
        <ele>6.4000000953674</ele>
        <time>2019-05-26T07:48:44.000Z</time>
      </trkpt>
      <trkpt lat="47.32559" lon="-2.31345">
        <ele>6.4000000953674</ele>
        <time>2019-05-26T07:48:46.000Z</time>
      </trkpt>
      <trkpt lat="47.32557" lon="-2.31371">
        <ele>6.4000000953674</ele>
        <time>2019-05-26T07:48:49.000Z</time>
      </trkpt>
      <trkpt lat="47.32555" lon="-2.31401">
        <ele>6.4000000953674</ele>
        <time>2019-05-26T07:48:54.000Z</time>
      </trkpt>
      <trkpt lat="47.32556" lon="-2.31427">
        <ele>6.4000000953674</ele>
        <time>2019-05-26T07:48:59.000Z</time>
      </trkpt>
      <trkpt lat="47.32559" lon="-2.3144">
        <ele>6.4000000953674</ele>
        <time>2019-05-26T07:49:01.000Z</time>
      </trkpt>
      <trkpt lat="47.3256" lon="-2.31453">
        <ele>6.4000000953674</ele>
        <time>2019-05-26T07:49:03.000Z</time>
      </trkpt>
      <trkpt lat="47.32561" lon="-2.3146">
        <ele>6.4000000953674</ele>
        <time>2019-05-26T07:49:04.000Z</time>
      </trkpt>
      <trkpt lat="47.32564" lon="-2.31491">
        <ele>6.4000000953674</ele>
        <time>2019-05-26T07:49:08.000Z</time>
      </trkpt>
      <trkpt lat="47.32563" lon="-2.31508">
        <ele>6.4000000953674</ele>
        <time>2019-05-26T07:49:10.000Z</time>
      </trkpt>
      <trkpt lat="47.32561" lon="-2.31564">
        <ele>6.4000000953674</ele>
        <time>2019-05-26T07:49:16.000Z</time>
      </trkpt>
      <trkpt lat="47.32562" lon="-2.31589">
        <ele>6.4000000953674</ele>
        <time>2019-05-26T07:49:19.000Z</time>
      </trkpt>
      <trkpt lat="47.32559" lon="-2.31594">
        <ele>6.4000000953674</ele>
        <time>2019-05-26T07:49:20.000Z</time>
      </trkpt>
      <trkpt lat="47.32546" lon="-2.31611">
        <ele>6.4000000953674</ele>
        <time>2019-05-26T07:49:23.000Z</time>
      </trkpt>
      <trkpt lat="47.32542" lon="-2.31617">
        <ele>6.4000000953674</ele>
        <time>2019-05-26T07:49:24.000Z</time>
      </trkpt>
      <trkpt lat="47.32514" lon="-2.31654">
        <ele>6.4000000953674</ele>
        <time>2019-05-26T07:49:30.000Z</time>
      </trkpt>
      <trkpt lat="47.32511" lon="-2.31661">
        <ele>6.4000000953674</ele>
        <time>2019-05-26T07:49:31.000Z</time>
      </trkpt>
      <trkpt lat="47.32509" lon="-2.31687">
        <ele>6.4000000953674</ele>
        <time>2019-05-26T07:49:34.000Z</time>
      </trkpt>
      <trkpt lat="47.3251" lon="-2.31696">
        <ele>6.4000000953674</ele>
        <time>2019-05-26T07:49:35.000Z</time>
      </trkpt>
      <trkpt lat="47.32514" lon="-2.31752">
        <ele>6.4000000953674</ele>
        <time>2019-05-26T07:49:41.000Z</time>
      </trkpt>
      <trkpt lat="47.32517" lon="-2.31782">
        <ele>6.8000001907349</ele>
        <time>2019-05-26T07:49:44.000Z</time>
      </trkpt>
      <trkpt lat="47.32517" lon="-2.31791">
        <ele>7.1999998092651</ele>
        <time>2019-05-26T07:49:45.000Z</time>
      </trkpt>
      <trkpt lat="47.32518" lon="-2.318">
        <ele>7.5999999046326</ele>
        <time>2019-05-26T07:49:46.000Z</time>
      </trkpt>
      <trkpt lat="47.32519" lon="-2.3181">
        <ele>8</ele>
        <time>2019-05-26T07:49:47.000Z</time>
      </trkpt>
      <trkpt lat="47.3252" lon="-2.31819">
        <ele>8.3999996185303</ele>
        <time>2019-05-26T07:49:48.000Z</time>
      </trkpt>
      <trkpt lat="47.32519" lon="-2.31878">
        <ele>8.3999996185303</ele>
        <time>2019-05-26T07:49:54.000Z</time>
      </trkpt>
      <trkpt lat="47.32514" lon="-2.31926">
        <ele>8</ele>
        <time>2019-05-26T07:49:59.000Z</time>
      </trkpt>
      <trkpt lat="47.32513" lon="-2.31935">
        <ele>7.5999999046326</ele>
        <time>2019-05-26T07:50:00.000Z</time>
      </trkpt>
      <trkpt lat="47.32512" lon="-2.31944">
        <ele>7.1999998092651</ele>
        <time>2019-05-26T07:50:01.000Z</time>
      </trkpt>
      <trkpt lat="47.3251" lon="-2.31953">
        <ele>6.8000001907349</ele>
        <time>2019-05-26T07:50:02.000Z</time>
      </trkpt>
      <trkpt lat="47.32509" lon="-2.31962">
        <ele>6.4000000953674</ele>
        <time>2019-05-26T07:50:03.000Z</time>
      </trkpt>
      <trkpt lat="47.32506" lon="-2.32005">
        <ele>6.4000000953674</ele>
        <time>2019-05-26T07:50:08.000Z</time>
      </trkpt>
      <trkpt lat="47.32505" lon="-2.32055">
        <ele>6.4000000953674</ele>
        <time>2019-05-26T07:50:14.000Z</time>
      </trkpt>
      <trkpt lat="47.32504" lon="-2.32094">
        <ele>6.4000000953674</ele>
        <time>2019-05-26T07:50:20.000Z</time>
      </trkpt>
      <trkpt lat="47.32514" lon="-2.32096">
        <ele>6.4000000953674</ele>
        <time>2019-05-26T07:50:23.000Z</time>
      </trkpt>
      <trkpt lat="47.32527" lon="-2.32096">
        <ele>6.4000000953674</ele>
        <time>2019-05-26T07:50:26.000Z</time>
      </trkpt>
      <trkpt lat="47.32536" lon="-2.32095">
        <ele>6.4000000953674</ele>
        <time>2019-05-26T07:50:28.000Z</time>
      </trkpt>
      <trkpt lat="47.32558" lon="-2.32095">
        <ele>6.4000000953674</ele>
        <time>2019-05-26T07:50:34.000Z</time>
      </trkpt>
      <trkpt lat="47.32579" lon="-2.32093">
        <ele>6.4000000953674</ele>
        <time>2019-05-26T07:50:40.000Z</time>
      </trkpt>
      <trkpt lat="47.32588" lon="-2.32105">
        <ele>6.4000000953674</ele>
        <time>2019-05-26T07:50:43.000Z</time>
      </trkpt>
      <trkpt lat="47.3259" lon="-2.32112">
        <ele>6.4000000953674</ele>
        <time>2019-05-26T07:50:44.000Z</time>
      </trkpt>
      <trkpt lat="47.3259" lon="-2.32122">
        <ele>6</ele>
        <time>2019-05-26T07:50:45.000Z</time>
      </trkpt>
      <trkpt lat="47.32589" lon="-2.32131">
        <ele>5.4000000953674</ele>
        <time>2019-05-26T07:50:46.000Z</time>
      </trkpt>
      <trkpt lat="47.32586" lon="-2.32141">
        <ele>5</ele>
        <time>2019-05-26T07:50:47.000Z</time>
      </trkpt>
      <trkpt lat="47.32584" lon="-2.32149">
        <ele>4.5999999046326</ele>
        <time>2019-05-26T07:50:48.000Z</time>
      </trkpt>
      <trkpt lat="47.32581" lon="-2.32158">
        <ele>4.1999998092651</ele>
        <time>2019-05-26T07:50:49.000Z</time>
      </trkpt>
      <trkpt lat="47.32569" lon="-2.32196">
        <ele>4.1999998092651</ele>
        <time>2019-05-26T07:50:53.000Z</time>
      </trkpt>
      <trkpt lat="47.32566" lon="-2.32205">
        <ele>3.7999999523163</ele>
        <time>2019-05-26T07:50:54.000Z</time>
      </trkpt>
      <trkpt lat="47.32564" lon="-2.32215">
        <ele>3.2000000476837</ele>
        <time>2019-05-26T07:50:55.000Z</time>
      </trkpt>
      <trkpt lat="47.32561" lon="-2.32223">
        <ele>2.7999999523163</ele>
        <time>2019-05-26T07:50:56.000Z</time>
      </trkpt>
      <trkpt lat="47.32559" lon="-2.32231">
        <ele>2.4000000953674</ele>
        <time>2019-05-26T07:50:57.000Z</time>
      </trkpt>
      <trkpt lat="47.32556" lon="-2.32239">
        <ele>1.7999999523163</ele>
        <time>2019-05-26T07:50:58.000Z</time>
      </trkpt>
      <trkpt lat="47.32553" lon="-2.32246">
        <ele>1.7999999523163</ele>
        <time>2019-05-26T07:50:59.000Z</time>
      </trkpt>
      <trkpt lat="47.32546" lon="-2.32267">
        <ele>1.7999999523163</ele>
        <time>2019-05-26T07:51:02.000Z</time>
      </trkpt>
      <trkpt lat="47.32542" lon="-2.3228">
        <ele>1.7999999523163</ele>
        <time>2019-05-26T07:51:04.000Z</time>
      </trkpt>
      <trkpt lat="47.3254" lon="-2.32286">
        <ele>1.7999999523163</ele>
        <time>2019-05-26T07:51:05.000Z</time>
      </trkpt>
      <trkpt lat="47.32538" lon="-2.32304">
        <ele>2.2000000476837</ele>
        <time>2019-05-26T07:51:08.000Z</time>
      </trkpt>
      <trkpt lat="47.32538" lon="-2.32309">
        <ele>2.7999999523163</ele>
        <time>2019-05-26T07:51:09.000Z</time>
      </trkpt>
      <trkpt lat="47.32539" lon="-2.32312">
        <ele>3.2000000476837</ele>
        <time>2019-05-26T07:51:10.000Z</time>
      </trkpt>
      <trkpt lat="47.32542" lon="-2.32315">
        <ele>3.5999999046326</ele>
        <time>2019-05-26T07:51:11.000Z</time>
      </trkpt>
      <trkpt lat="47.32545" lon="-2.32316">
        <ele>4</ele>
        <time>2019-05-26T07:51:12.000Z</time>
      </trkpt>
      <trkpt lat="47.32549" lon="-2.32316">
        <ele>4</ele>
        <time>2019-05-26T07:51:13.000Z</time>
      </trkpt>
      <trkpt lat="47.32558" lon="-2.32316">
        <ele>4</ele>
        <time>2019-05-26T07:51:15.000Z</time>
      </trkpt>
      <trkpt lat="47.32575" lon="-2.32312">
        <ele>4</ele>
        <time>2019-05-26T07:51:18.000Z</time>
      </trkpt>
      <trkpt lat="47.32581" lon="-2.32311">
        <ele>4.4000000953674</ele>
        <time>2019-05-26T07:51:19.000Z</time>
      </trkpt>
      <trkpt lat="47.32587" lon="-2.32309">
        <ele>4.8000001907349</ele>
        <time>2019-05-26T07:51:20.000Z</time>
      </trkpt>
      <trkpt lat="47.32594" lon="-2.32308">
        <ele>5.1999998092651</ele>
        <time>2019-05-26T07:51:21.000Z</time>
      </trkpt>
      <trkpt lat="47.326" lon="-2.32308">
        <ele>5.5999999046326</ele>
        <time>2019-05-26T07:51:22.000Z</time>
      </trkpt>
      <trkpt lat="47.32607" lon="-2.32308">
        <ele>6</ele>
        <time>2019-05-26T07:51:23.000Z</time>
      </trkpt>
      <trkpt lat="47.32613" lon="-2.32309">
        <ele>6</ele>
        <time>2019-05-26T07:51:24.000Z</time>
      </trkpt>
      <trkpt lat="47.32657" lon="-2.32311">
        <ele>6</ele>
        <time>2019-05-26T07:51:31.000Z</time>
      </trkpt>
      <trkpt lat="47.32692" lon="-2.32321">
        <ele>6</ele>
        <time>2019-05-26T07:51:36.000Z</time>
      </trkpt>
      <trkpt lat="47.3274" lon="-2.32344">
        <ele>6</ele>
        <time>2019-05-26T07:51:43.000Z</time>
      </trkpt>
      <trkpt lat="47.32747" lon="-2.32347">
        <ele>5.5999999046326</ele>
        <time>2019-05-26T07:51:44.000Z</time>
      </trkpt>
      <trkpt lat="47.32753" lon="-2.32351">
        <ele>5.1999998092651</ele>
        <time>2019-05-26T07:51:45.000Z</time>
      </trkpt>
      <trkpt lat="47.32759" lon="-2.32354">
        <ele>4.8000001907349</ele>
        <time>2019-05-26T07:51:46.000Z</time>
      </trkpt>
      <trkpt lat="47.32766" lon="-2.32358">
        <ele>4.4000000953674</ele>
        <time>2019-05-26T07:51:47.000Z</time>
      </trkpt>
      <trkpt lat="47.32772" lon="-2.32362">
        <ele>4</ele>
        <time>2019-05-26T07:51:48.000Z</time>
      </trkpt>
      <trkpt lat="47.32778" lon="-2.32366">
        <ele>3.5999999046326</ele>
        <time>2019-05-26T07:51:49.000Z</time>
      </trkpt>
      <trkpt lat="47.32784" lon="-2.3237">
        <ele>3.2000000476837</ele>
        <time>2019-05-26T07:51:50.000Z</time>
      </trkpt>
      <trkpt lat="47.3279" lon="-2.32374">
        <ele>2.5999999046326</ele>
        <time>2019-05-26T07:51:51.000Z</time>
      </trkpt>
      <trkpt lat="47.32796" lon="-2.32379">
        <ele>2.2000000476837</ele>
        <time>2019-05-26T07:51:52.000Z</time>
      </trkpt>
      <trkpt lat="47.32802" lon="-2.32384">
        <ele>1.7999999523163</ele>
        <time>2019-05-26T07:51:53.000Z</time>
      </trkpt>
      <trkpt lat="47.32807" lon="-2.3239">
        <ele>1.7999999523163</ele>
        <time>2019-05-26T07:51:54.000Z</time>
      </trkpt>
      <trkpt lat="47.32818" lon="-2.32403">
        <ele>1.7999999523163</ele>
        <time>2019-05-26T07:51:56.000Z</time>
      </trkpt>
      <trkpt lat="47.32829" lon="-2.32414">
        <ele>1.7999999523163</ele>
        <time>2019-05-26T07:51:58.000Z</time>
      </trkpt>
      <trkpt lat="47.32848" lon="-2.32428">
        <ele>1.7999999523163</ele>
        <time>2019-05-26T07:52:01.000Z</time>
      </trkpt>
      <trkpt lat="47.3289" lon="-2.32455">
        <ele>1.7999999523163</ele>
        <time>2019-05-26T07:52:08.000Z</time>
      </trkpt>
      <trkpt lat="47.329" lon="-2.32478">
        <ele>1.7999999523163</ele>
        <time>2019-05-26T07:52:11.000Z</time>
      </trkpt>
      <trkpt lat="47.32905" lon="-2.32496">
        <ele>1.7999999523163</ele>
        <time>2019-05-26T07:52:13.000Z</time>
      </trkpt>
      <trkpt lat="47.32914" lon="-2.32529">
        <ele>1.7999999523163</ele>
        <time>2019-05-26T07:52:17.000Z</time>
      </trkpt>
      <trkpt lat="47.32919" lon="-2.32573">
        <ele>1.7999999523163</ele>
        <time>2019-05-26T07:52:22.000Z</time>
      </trkpt>
      <trkpt lat="47.32921" lon="-2.32622">
        <ele>1.7999999523163</ele>
        <time>2019-05-26T07:52:27.000Z</time>
      </trkpt>
      <trkpt lat="47.32925" lon="-2.3263">
        <ele>1.7999999523163</ele>
        <time>2019-05-26T07:52:28.000Z</time>
      </trkpt>
      <trkpt lat="47.32943" lon="-2.3264">
        <ele>1.7999999523163</ele>
        <time>2019-05-26T07:52:31.000Z</time>
      </trkpt>
      <trkpt lat="47.32963" lon="-2.32639">
        <ele>1.7999999523163</ele>
        <time>2019-05-26T07:52:34.000Z</time>
      </trkpt>
      <trkpt lat="47.32969" lon="-2.32637">
        <ele>1.7999999523163</ele>
        <time>2019-05-26T07:52:35.000Z</time>
      </trkpt>
      <trkpt lat="47.32976" lon="-2.32634">
        <ele>1.7999999523163</ele>
        <time>2019-05-26T07:52:36.000Z</time>
      </trkpt>
      <trkpt lat="47.32993" lon="-2.32622">
        <ele>1.7999999523163</ele>
        <time>2019-05-26T07:52:39.000Z</time>
      </trkpt>
      <trkpt lat="47.33006" lon="-2.32624">
        <ele>0.80000001192093</ele>
        <time>2019-05-26T07:52:42.000Z</time>
      </trkpt>
      <trkpt lat="47.33008" lon="-2.32626">
        <ele>0.40000000596046</ele>
        <time>2019-05-26T07:52:43.000Z</time>
      </trkpt>
      <trkpt lat="47.3301" lon="-2.32628">
        <ele>-0.20000000298023</ele>
        <time>2019-05-26T07:52:44.000Z</time>
      </trkpt>
      <trkpt lat="47.33011" lon="-2.32629">
        <ele>-0.60000002384186</ele>
        <time>2019-05-26T07:52:45.000Z</time>
      </trkpt>
      <trkpt lat="47.33014" lon="-2.32632">
        <ele>-0.60000002384186</ele>
        <time>2019-05-26T07:52:47.000Z</time>
      </trkpt>
      <trkpt lat="47.33029" lon="-2.32633">
        <ele>-0.60000002384186</ele>
        <time>2019-05-26T07:52:51.000Z</time>
      </trkpt>
      <trkpt lat="47.33047" lon="-2.32619">
        <ele>-0.60000002384186</ele>
        <time>2019-05-26T07:52:55.000Z</time>
      </trkpt>
      <trkpt lat="47.33078" lon="-2.32597">
        <ele>-0.60000002384186</ele>
        <time>2019-05-26T07:53:02.000Z</time>
      </trkpt>
      <trkpt lat="47.33099" lon="-2.32577">
        <ele>-0.20000000298023</ele>
        <time>2019-05-26T07:53:07.000Z</time>
      </trkpt>
      <trkpt lat="47.33104" lon="-2.32573">
        <ele>0.20000000298023</ele>
        <time>2019-05-26T07:53:08.000Z</time>
      </trkpt>
      <trkpt lat="47.33109" lon="-2.32568">
        <ele>0.80000001192093</ele>
        <time>2019-05-26T07:53:09.000Z</time>
      </trkpt>
      <trkpt lat="47.33114" lon="-2.32564">
        <ele>1.2000000476837</ele>
        <time>2019-05-26T07:53:10.000Z</time>
      </trkpt>
      <trkpt lat="47.33119" lon="-2.3256">
        <ele>1.6000000238419</ele>
        <time>2019-05-26T07:53:11.000Z</time>
      </trkpt>
      <trkpt lat="47.33138" lon="-2.32543">
        <ele>1.6000000238419</ele>
        <time>2019-05-26T07:53:15.000Z</time>
      </trkpt>
      <trkpt lat="47.33157" lon="-2.32529">
        <ele>1.6000000238419</ele>
        <time>2019-05-26T07:53:19.000Z</time>
      </trkpt>
      <trkpt lat="47.33166" lon="-2.32523">
        <ele>1.6000000238419</ele>
        <time>2019-05-26T07:53:21.000Z</time>
      </trkpt>
      <trkpt lat="47.33182" lon="-2.32516">
        <ele>2</ele>
        <time>2019-05-26T07:53:24.000Z</time>
      </trkpt>
      <trkpt lat="47.33188" lon="-2.32513">
        <ele>2.4000000953674</ele>
        <time>2019-05-26T07:53:25.000Z</time>
      </trkpt>
      <trkpt lat="47.33194" lon="-2.32511">
        <ele>2.7999999523163</ele>
        <time>2019-05-26T07:53:26.000Z</time>
      </trkpt>
      <trkpt lat="47.33201" lon="-2.32509">
        <ele>3.2000000476837</ele>
        <time>2019-05-26T07:53:27.000Z</time>
      </trkpt>
      <trkpt lat="47.33208" lon="-2.32507">
        <ele>3.5999999046326</ele>
        <time>2019-05-26T07:53:28.000Z</time>
      </trkpt>
      <trkpt lat="47.33247" lon="-2.3249">
        <ele>3.5999999046326</ele>
        <time>2019-05-26T07:53:34.000Z</time>
      </trkpt>
      <trkpt lat="47.33291" lon="-2.32468">
        <ele>3.5999999046326</ele>
        <time>2019-05-26T07:53:41.000Z</time>
      </trkpt>
      <trkpt lat="47.33323" lon="-2.32453">
        <ele>3.5999999046326</ele>
        <time>2019-05-26T07:53:46.000Z</time>
      </trkpt>
      <trkpt lat="47.33335" lon="-2.32445">
        <ele>3.5999999046326</ele>
        <time>2019-05-26T07:53:48.000Z</time>
      </trkpt>
      <trkpt lat="47.33347" lon="-2.32432">
        <ele>3.5999999046326</ele>
        <time>2019-05-26T07:53:50.000Z</time>
      </trkpt>
      <trkpt lat="47.33364" lon="-2.32412">
        <ele>3.5999999046326</ele>
        <time>2019-05-26T07:53:53.000Z</time>
      </trkpt>
      <trkpt lat="47.33377" lon="-2.32401">
        <ele>3.5999999046326</ele>
        <time>2019-05-26T07:53:55.000Z</time>
      </trkpt>
      <trkpt lat="47.33424" lon="-2.32361">
        <ele>3.5999999046326</ele>
        <time>2019-05-26T07:54:02.000Z</time>
      </trkpt>
      <trkpt lat="47.33465" lon="-2.32331">
        <ele>3.5999999046326</ele>
        <time>2019-05-26T07:54:08.000Z</time>
      </trkpt>
      <trkpt lat="47.33508" lon="-2.32309">
        <ele>3.5999999046326</ele>
        <time>2019-05-26T07:54:14.000Z</time>
      </trkpt>
      <trkpt lat="47.33527" lon="-2.32302">
        <ele>3.5999999046326</ele>
        <time>2019-05-26T07:54:17.000Z</time>
      </trkpt>
      <trkpt lat="47.33541" lon="-2.32301">
        <ele>3.5999999046326</ele>
        <time>2019-05-26T07:54:19.000Z</time>
      </trkpt>
      <trkpt lat="47.33554" lon="-2.323">
        <ele>3.5999999046326</ele>
        <time>2019-05-26T07:54:21.000Z</time>
      </trkpt>
      <trkpt lat="47.33573" lon="-2.32293">
        <ele>3.5999999046326</ele>
        <time>2019-05-26T07:54:24.000Z</time>
      </trkpt>
      <trkpt lat="47.3361" lon="-2.32286">
        <ele>3.5999999046326</ele>
        <time>2019-05-26T07:54:30.000Z</time>
      </trkpt>
      <trkpt lat="47.33649" lon="-2.32278">
        <ele>3.5999999046326</ele>
        <time>2019-05-26T07:54:36.000Z</time>
      </trkpt>
      <trkpt lat="47.33684" lon="-2.32261">
        <ele>3.5999999046326</ele>
        <time>2019-05-26T07:54:41.000Z</time>
      </trkpt>
      <trkpt lat="47.33719" lon="-2.3224">
        <ele>3.5999999046326</ele>
        <time>2019-05-26T07:54:47.000Z</time>
      </trkpt>
      <trkpt lat="47.3374" lon="-2.32227">
        <ele>3.5999999046326</ele>
        <time>2019-05-26T07:54:51.000Z</time>
      </trkpt>
      <trkpt lat="47.33746" lon="-2.32224">
        <ele>3.5999999046326</ele>
        <time>2019-05-26T07:54:52.000Z</time>
      </trkpt>
      <trkpt lat="47.33768" lon="-2.32212">
        <ele>3.5999999046326</ele>
        <time>2019-05-26T07:54:56.000Z</time>
      </trkpt>
      <trkpt lat="47.33772" lon="-2.32209">
        <ele>3.5999999046326</ele>
        <time>2019-05-26T07:54:57.000Z</time>
      </trkpt>
      <trkpt lat="47.33783" lon="-2.32203">
        <ele>3.5999999046326</ele>
        <time>2019-05-26T07:54:59.000Z</time>
      </trkpt>
      <trkpt lat="47.33806" lon="-2.32198">
        <ele>3.5999999046326</ele>
        <time>2019-05-26T07:55:02.000Z</time>
      </trkpt>
      <trkpt lat="47.33814" lon="-2.32197">
        <ele>3.5999999046326</ele>
        <time>2019-05-26T07:55:03.000Z</time>
      </trkpt>
      <trkpt lat="47.33831" lon="-2.32195">
        <ele>3.5999999046326</ele>
        <time>2019-05-26T07:55:05.000Z</time>
      </trkpt>
      <trkpt lat="47.33846" lon="-2.32192">
        <ele>3.5999999046326</ele>
        <time>2019-05-26T07:55:07.000Z</time>
      </trkpt>
      <trkpt lat="47.3389" lon="-2.32192">
        <ele>3.5999999046326</ele>
        <time>2019-05-26T07:55:13.000Z</time>
      </trkpt>
      <trkpt lat="47.33927" lon="-2.3219">
        <ele>3.5999999046326</ele>
        <time>2019-05-26T07:55:18.000Z</time>
      </trkpt>
      <trkpt lat="47.33946" lon="-2.32204">
        <ele>3.5999999046326</ele>
        <time>2019-05-26T07:55:21.000Z</time>
      </trkpt>
      <trkpt lat="47.33966" lon="-2.3221">
        <ele>3.5999999046326</ele>
        <time>2019-05-26T07:55:24.000Z</time>
      </trkpt>
      <trkpt lat="47.33981" lon="-2.32208">
        <ele>3.5999999046326</ele>
        <time>2019-05-26T07:55:26.000Z</time>
      </trkpt>
      <trkpt lat="47.33996" lon="-2.32208">
        <ele>3.5999999046326</ele>
        <time>2019-05-26T07:55:28.000Z</time>
      </trkpt>
      <trkpt lat="47.34003" lon="-2.32208">
        <ele>3.5999999046326</ele>
        <time>2019-05-26T07:55:29.000Z</time>
      </trkpt>
      <trkpt lat="47.34057" lon="-2.32216">
        <ele>3.5999999046326</ele>
        <time>2019-05-26T07:55:36.000Z</time>
      </trkpt>
      <trkpt lat="47.34063" lon="-2.32219">
        <ele>3.5999999046326</ele>
        <time>2019-05-26T07:55:37.000Z</time>
      </trkpt>
      <trkpt lat="47.34075" lon="-2.32231">
        <ele>3.5999999046326</ele>
        <time>2019-05-26T07:55:39.000Z</time>
      </trkpt>
      <trkpt lat="47.34092" lon="-2.32267">
        <ele>3.5999999046326</ele>
        <time>2019-05-26T07:55:43.000Z</time>
      </trkpt>
      <trkpt lat="47.34097" lon="-2.32284">
        <ele>3.5999999046326</ele>
        <time>2019-05-26T07:55:45.000Z</time>
      </trkpt>
      <trkpt lat="47.34105" lon="-2.32318">
        <ele>3.5999999046326</ele>
        <time>2019-05-26T07:55:49.000Z</time>
      </trkpt>
      <trkpt lat="47.34115" lon="-2.32352">
        <ele>4</ele>
        <time>2019-05-26T07:55:53.000Z</time>
      </trkpt>
      <trkpt lat="47.34117" lon="-2.3236">
        <ele>4.4000000953674</ele>
        <time>2019-05-26T07:55:54.000Z</time>
      </trkpt>
      <trkpt lat="47.3412" lon="-2.32369">
        <ele>5</ele>
        <time>2019-05-26T07:55:55.000Z</time>
      </trkpt>
      <trkpt lat="47.34122" lon="-2.32377">
        <ele>5.4000000953674</ele>
        <time>2019-05-26T07:55:56.000Z</time>
      </trkpt>
      <trkpt lat="47.34125" lon="-2.32386">
        <ele>5.8000001907349</ele>
        <time>2019-05-26T07:55:57.000Z</time>
      </trkpt>
      <trkpt lat="47.34129" lon="-2.32403">
        <ele>5.8000001907349</ele>
        <time>2019-05-26T07:55:59.000Z</time>
      </trkpt>
      <trkpt lat="47.34145" lon="-2.32457">
        <ele>5.8000001907349</ele>
        <time>2019-05-26T07:56:05.000Z</time>
      </trkpt>
      <trkpt lat="47.34155" lon="-2.32512">
        <ele>5.8000001907349</ele>
        <time>2019-05-26T07:56:11.000Z</time>
      </trkpt>
      <trkpt lat="47.34157" lon="-2.32553">
        <ele>5.8000001907349</ele>
        <time>2019-05-26T07:56:16.000Z</time>
      </trkpt>
      <trkpt lat="47.34162" lon="-2.32578">
        <ele>5.8000001907349</ele>
        <time>2019-05-26T07:56:21.000Z</time>
      </trkpt>
      <trkpt lat="47.34171" lon="-2.3258">
        <ele>5.8000001907349</ele>
        <time>2019-05-26T07:56:25.000Z</time>
      </trkpt>
      <trkpt lat="47.34192" lon="-2.32576">
        <ele>5.8000001907349</ele>
        <time>2019-05-26T07:56:31.000Z</time>
      </trkpt>
      <trkpt lat="47.34215" lon="-2.32569">
        <ele>5.8000001907349</ele>
        <time>2019-05-26T07:56:37.000Z</time>
      </trkpt>
      <trkpt lat="47.3424" lon="-2.32564">
        <ele>5.8000001907349</ele>
        <time>2019-05-26T07:56:44.000Z</time>
      </trkpt>
      <trkpt lat="47.34265" lon="-2.32558">
        <ele>5.8000001907349</ele>
        <time>2019-05-26T07:56:51.000Z</time>
      </trkpt>
      <trkpt lat="47.34291" lon="-2.32552">
        <ele>5.8000001907349</ele>
        <time>2019-05-26T07:56:58.000Z</time>
      </trkpt>
      <trkpt lat="47.34299" lon="-2.32553">
        <ele>5.8000001907349</ele>
        <time>2019-05-26T07:57:01.000Z</time>
      </trkpt>
      <trkpt lat="47.34299" lon="-2.32555">
        <ele>5.8000001907349</ele>
        <time>2019-05-26T07:57:02.000Z</time>
      </trkpt>
      <trkpt lat="47.343" lon="-2.32574">
        <ele>5.8000001907349</ele>
        <time>2019-05-26T07:57:07.000Z</time>
      </trkpt>
      <trkpt lat="47.34303" lon="-2.32604">
        <ele>5.8000001907349</ele>
        <time>2019-05-26T07:57:13.000Z</time>
      </trkpt>
      <trkpt lat="47.34308" lon="-2.32649">
        <ele>5.8000001907349</ele>
        <time>2019-05-26T07:57:19.000Z</time>
      </trkpt>
      <trkpt lat="47.34312" lon="-2.32692">
        <ele>5.8000001907349</ele>
        <time>2019-05-26T07:57:24.000Z</time>
      </trkpt>
      <trkpt lat="47.34318" lon="-2.32744">
        <ele>5.8000001907349</ele>
        <time>2019-05-26T07:57:30.000Z</time>
      </trkpt>
      <trkpt lat="47.34326" lon="-2.32801">
        <ele>5.8000001907349</ele>
        <time>2019-05-26T07:57:36.000Z</time>
      </trkpt>
      <trkpt lat="47.34334" lon="-2.32843">
        <ele>5.4000000953674</ele>
        <time>2019-05-26T07:57:40.000Z</time>
      </trkpt>
      <trkpt lat="47.34336" lon="-2.32854">
        <ele>5</ele>
        <time>2019-05-26T07:57:41.000Z</time>
      </trkpt>
      <trkpt lat="47.34338" lon="-2.32866">
        <ele>4.5999999046326</ele>
        <time>2019-05-26T07:57:42.000Z</time>
      </trkpt>
      <trkpt lat="47.3434" lon="-2.32876">
        <ele>4.1999998092651</ele>
        <time>2019-05-26T07:57:43.000Z</time>
      </trkpt>
      <trkpt lat="47.34342" lon="-2.32885">
        <ele>3.7999999523163</ele>
        <time>2019-05-26T07:57:44.000Z</time>
      </trkpt>
      <trkpt lat="47.34345" lon="-2.32899">
        <ele>3.2000000476837</ele>
        <time>2019-05-26T07:57:46.000Z</time>
      </trkpt>
      <trkpt lat="47.34347" lon="-2.329">
        <ele>2.7999999523163</ele>
        <time>2019-05-26T07:57:47.000Z</time>
      </trkpt>
      <trkpt lat="47.34348" lon="-2.32903">
        <ele>2.2000000476837</ele>
        <time>2019-05-26T07:57:48.000Z</time>
      </trkpt>
      <trkpt lat="47.3435" lon="-2.32904">
        <ele>1.6000000238419</ele>
        <time>2019-05-26T07:57:49.000Z</time>
      </trkpt>
      <trkpt lat="47.3435" lon="-2.32905">
        <ele>1.2000000476837</ele>
        <time>2019-05-26T07:57:50.000Z</time>
      </trkpt>
      <trkpt lat="47.34352" lon="-2.32905">
        <ele>1.2000000476837</ele>
        <time>2019-05-26T07:57:52.000Z</time>
      </trkpt>
      <trkpt lat="47.34353" lon="-2.32904">
        <ele>1.2000000476837</ele>
        <time>2019-05-26T07:57:54.000Z</time>
      </trkpt>
      <trkpt lat="47.34356" lon="-2.32902">
        <ele>1.2000000476837</ele>
        <time>2019-05-26T07:57:57.000Z</time>
      </trkpt>
      <trkpt lat="47.34357" lon="-2.32901">
        <ele>1.2000000476837</ele>
        <time>2019-05-26T07:57:58.000Z</time>
      </trkpt>
      <trkpt lat="47.34369" lon="-2.32887">
        <ele>1.2000000476837</ele>
        <time>2019-05-26T07:58:03.000Z</time>
      </trkpt>
      <trkpt lat="47.34388" lon="-2.32867">
        <ele>1.2000000476837</ele>
        <time>2019-05-26T07:58:08.000Z</time>
      </trkpt>
      <trkpt lat="47.34409" lon="-2.32848">
        <ele>1.2000000476837</ele>
        <time>2019-05-26T07:58:13.000Z</time>
      </trkpt>
      <trkpt lat="47.34438" lon="-2.32828">
        <ele>1.2000000476837</ele>
        <time>2019-05-26T07:58:19.000Z</time>
      </trkpt>
      <trkpt lat="47.34444" lon="-2.32808">
        <ele>1.2000000476837</ele>
        <time>2019-05-26T07:58:22.000Z</time>
      </trkpt>
      <trkpt lat="47.34443" lon="-2.32795">
        <ele>1.2000000476837</ele>
        <time>2019-05-26T07:58:24.000Z</time>
      </trkpt>
      <trkpt lat="47.34441" lon="-2.32782">
        <ele>1.2000000476837</ele>
        <time>2019-05-26T07:58:26.000Z</time>
      </trkpt>
      <trkpt lat="47.34441" lon="-2.32763">
        <ele>1.6000000238419</ele>
        <time>2019-05-26T07:58:29.000Z</time>
      </trkpt>
      <trkpt lat="47.34443" lon="-2.32759">
        <ele>2</ele>
        <time>2019-05-26T07:58:30.000Z</time>
      </trkpt>
      <trkpt lat="47.34445" lon="-2.32754">
        <ele>2.5999999046326</ele>
        <time>2019-05-26T07:58:31.000Z</time>
      </trkpt>
      <trkpt lat="47.34449" lon="-2.32751">
        <ele>3</ele>
        <time>2019-05-26T07:58:32.000Z</time>
      </trkpt>
      <trkpt lat="47.34453" lon="-2.32747">
        <ele>3.4000000953674</ele>
        <time>2019-05-26T07:58:33.000Z</time>
      </trkpt>
      <trkpt lat="47.34457" lon="-2.32744">
        <ele>3.4000000953674</ele>
        <time>2019-05-26T07:58:34.000Z</time>
      </trkpt>
      <trkpt lat="47.34476" lon="-2.32733">
        <ele>3.4000000953674</ele>
        <time>2019-05-26T07:58:38.000Z</time>
      </trkpt>
      <trkpt lat="47.34485" lon="-2.32728">
        <ele>3.4000000953674</ele>
        <time>2019-05-26T07:58:40.000Z</time>
      </trkpt>
      <trkpt lat="47.34516" lon="-2.32709">
        <ele>3.4000000953674</ele>
        <time>2019-05-26T07:58:47.000Z</time>
      </trkpt>
      <trkpt lat="47.34544" lon="-2.3269">
        <ele>3.4000000953674</ele>
        <time>2019-05-26T07:58:53.000Z</time>
      </trkpt>
      <trkpt lat="47.34578" lon="-2.3266">
        <ele>3.4000000953674</ele>
        <time>2019-05-26T07:59:00.000Z</time>
      </trkpt>
      <trkpt lat="47.346" lon="-2.32638">
        <ele>3</ele>
        <time>2019-05-26T07:59:04.000Z</time>
      </trkpt>
      <trkpt lat="47.34605" lon="-2.32634">
        <ele>2.5999999046326</ele>
        <time>2019-05-26T07:59:05.000Z</time>
      </trkpt>
      <trkpt lat="47.3461" lon="-2.32632">
        <ele>2.2000000476837</ele>
        <time>2019-05-26T07:59:06.000Z</time>
      </trkpt>
      <trkpt lat="47.34613" lon="-2.32632">
        <ele>1.7999999523163</ele>
        <time>2019-05-26T07:59:07.000Z</time>
      </trkpt>
      <trkpt lat="47.34618" lon="-2.32634">
        <ele>1.3999999761581</ele>
        <time>2019-05-26T07:59:08.000Z</time>
      </trkpt>
      <trkpt lat="47.34622" lon="-2.32635">
        <ele>1.3999999761581</ele>
        <time>2019-05-26T07:59:09.000Z</time>
      </trkpt>
      <trkpt lat="47.34626" lon="-2.32637">
        <ele>1.3999999761581</ele>
        <time>2019-05-26T07:59:10.000Z</time>
      </trkpt>
      <trkpt lat="47.34641" lon="-2.32647">
        <ele>1</ele>
        <time>2019-05-26T07:59:14.000Z</time>
      </trkpt>
      <trkpt lat="47.34644" lon="-2.3265">
        <ele>0.60000002384186</ele>
        <time>2019-05-26T07:59:15.000Z</time>
      </trkpt>
      <trkpt lat="47.34647" lon="-2.32654">
        <ele>0.20000000298023</ele>
        <time>2019-05-26T07:59:16.000Z</time>
      </trkpt>
      <trkpt lat="47.34654" lon="-2.32663">
        <ele>-0.40000000596046</ele>
        <time>2019-05-26T07:59:17.000Z</time>
      </trkpt>
      <trkpt lat="47.34659" lon="-2.32672">
        <ele>-0.80000001192093</ele>
        <time>2019-05-26T07:59:18.000Z</time>
      </trkpt>
      <trkpt lat="47.34664" lon="-2.3268">
        <ele>-0.80000001192093</ele>
        <time>2019-05-26T07:59:19.000Z</time>
      </trkpt>
      <trkpt lat="47.34676" lon="-2.32698">
        <ele>-0.80000001192093</ele>
        <time>2019-05-26T07:59:22.000Z</time>
      </trkpt>
      <trkpt lat="47.34683" lon="-2.32709">
        <ele>-1.2000000476837</ele>
        <time>2019-05-26T07:59:24.000Z</time>
      </trkpt>
      <trkpt lat="47.34687" lon="-2.32712">
        <ele>-1.6000000238419</ele>
        <time>2019-05-26T07:59:25.000Z</time>
      </trkpt>
      <trkpt lat="47.34689" lon="-2.32716">
        <ele>-2</ele>
        <time>2019-05-26T07:59:26.000Z</time>
      </trkpt>
      <trkpt lat="47.34692" lon="-2.32721">
        <ele>-2.4000000953674</ele>
        <time>2019-05-26T07:59:27.000Z</time>
      </trkpt>
      <trkpt lat="47.34695" lon="-2.32724">
        <ele>-2.7999999523163</ele>
        <time>2019-05-26T07:59:28.000Z</time>
      </trkpt>
      <trkpt lat="47.34705" lon="-2.3274">
        <ele>-2.7999999523163</ele>
        <time>2019-05-26T07:59:32.000Z</time>
      </trkpt>
      <trkpt lat="47.34712" lon="-2.32743">
        <ele>-2.7999999523163</ele>
        <time>2019-05-26T07:59:33.000Z</time>
      </trkpt>
      <trkpt lat="47.34721" lon="-2.3274">
        <ele>-2.7999999523163</ele>
        <time>2019-05-26T07:59:35.000Z</time>
      </trkpt>
      <trkpt lat="47.3473" lon="-2.32732">
        <ele>-2.7999999523163</ele>
        <time>2019-05-26T07:59:37.000Z</time>
      </trkpt>
      <trkpt lat="47.34738" lon="-2.32724">
        <ele>-2.7999999523163</ele>
        <time>2019-05-26T07:59:39.000Z</time>
      </trkpt>
      <trkpt lat="47.34746" lon="-2.32718">
        <ele>-2.7999999523163</ele>
        <time>2019-05-26T07:59:41.000Z</time>
      </trkpt>
      <trkpt lat="47.34752" lon="-2.32714">
        <ele>-2.7999999523163</ele>
        <time>2019-05-26T07:59:43.000Z</time>
      </trkpt>
      <trkpt lat="47.34761" lon="-2.32703">
        <ele>-2.7999999523163</ele>
        <time>2019-05-26T07:59:48.000Z</time>
      </trkpt>
      <trkpt lat="47.34775" lon="-2.32689">
        <ele>-2.7999999523163</ele>
        <time>2019-05-26T07:59:53.000Z</time>
      </trkpt>
      <trkpt lat="47.34796" lon="-2.32675">
        <ele>-2.7999999523163</ele>
        <time>2019-05-26T07:59:59.000Z</time>
      </trkpt>
      <trkpt lat="47.34816" lon="-2.32664">
        <ele>-2.7999999523163</ele>
        <time>2019-05-26T08:00:04.000Z</time>
      </trkpt>
      <trkpt lat="47.34843" lon="-2.3265">
        <ele>-2.7999999523163</ele>
        <time>2019-05-26T08:00:11.000Z</time>
      </trkpt>
      <trkpt lat="47.34854" lon="-2.32645">
        <ele>-2.7999999523163</ele>
        <time>2019-05-26T08:00:15.000Z</time>
      </trkpt>
      <trkpt lat="47.34872" lon="-2.32636">
        <ele>-2.7999999523163</ele>
        <time>2019-05-26T08:00:20.000Z</time>
      </trkpt>
      <trkpt lat="47.34895" lon="-2.32621">
        <ele>-2.7999999523163</ele>
        <time>2019-05-26T08:00:26.000Z</time>
      </trkpt>
      <trkpt lat="47.34911" lon="-2.32608">
        <ele>-2.7999999523163</ele>
        <time>2019-05-26T08:00:30.000Z</time>
      </trkpt>
      <trkpt lat="47.3492" lon="-2.32603">
        <ele>-2.7999999523163</ele>
        <time>2019-05-26T08:00:32.000Z</time>
      </trkpt>
      <trkpt lat="47.34941" lon="-2.32598">
        <ele>-2.7999999523163</ele>
        <time>2019-05-26T08:00:37.000Z</time>
      </trkpt>
      <trkpt lat="47.34971" lon="-2.32598">
        <ele>-2.7999999523163</ele>
        <time>2019-05-26T08:00:44.000Z</time>
      </trkpt>
      <trkpt lat="47.34992" lon="-2.32589">
        <ele>-2.7999999523163</ele>
        <time>2019-05-26T08:00:50.000Z</time>
      </trkpt>
      <trkpt lat="47.35015" lon="-2.32579">
        <ele>-2.7999999523163</ele>
        <time>2019-05-26T08:00:57.000Z</time>
      </trkpt>
      <trkpt lat="47.35027" lon="-2.32569">
        <ele>-2.7999999523163</ele>
        <time>2019-05-26T08:01:01.000Z</time>
      </trkpt>
      <trkpt lat="47.35044" lon="-2.32554">
        <ele>-2.7999999523163</ele>
        <time>2019-05-26T08:01:07.000Z</time>
      </trkpt>
      <trkpt lat="47.35055" lon="-2.32545">
        <ele>-2.7999999523163</ele>
        <time>2019-05-26T08:01:12.000Z</time>
      </trkpt>
      <trkpt lat="47.35057" lon="-2.32543">
        <ele>-2.7999999523163</ele>
        <time>2019-05-26T08:01:13.000Z</time>
      </trkpt>
      <trkpt lat="47.35074" lon="-2.32529">
        <ele>-2.7999999523163</ele>
        <time>2019-05-26T08:01:18.000Z</time>
      </trkpt>
      <trkpt lat="47.35077" lon="-2.32525">
        <ele>-2.7999999523163</ele>
        <time>2019-05-26T08:01:19.000Z</time>
      </trkpt>
      <trkpt lat="47.35091" lon="-2.32513">
        <ele>-2.7999999523163</ele>
        <time>2019-05-26T08:01:23.000Z</time>
      </trkpt>
      <trkpt lat="47.35105" lon="-2.325">
        <ele>-2.7999999523163</ele>
        <time>2019-05-26T08:01:27.000Z</time>
      </trkpt>
      <trkpt lat="47.35116" lon="-2.32488">
        <ele>-2.7999999523163</ele>
        <time>2019-05-26T08:01:30.000Z</time>
      </trkpt>
      <trkpt lat="47.3512" lon="-2.32485">
        <ele>-2.7999999523163</ele>
        <time>2019-05-26T08:01:31.000Z</time>
      </trkpt>
      <trkpt lat="47.35123" lon="-2.3248">
        <ele>-2.7999999523163</ele>
        <time>2019-05-26T08:01:32.000Z</time>
      </trkpt>
      <trkpt lat="47.3513" lon="-2.32472">
        <ele>-2.7999999523163</ele>
        <time>2019-05-26T08:01:34.000Z</time>
      </trkpt>
      <trkpt lat="47.35139" lon="-2.32465">
        <ele>-2.7999999523163</ele>
        <time>2019-05-26T08:01:36.000Z</time>
      </trkpt>
      <trkpt lat="47.35163" lon="-2.32441">
        <ele>-2.7999999523163</ele>
        <time>2019-05-26T08:01:43.000Z</time>
      </trkpt>
      <trkpt lat="47.35178" lon="-2.32431">
        <ele>-2.7999999523163</ele>
        <time>2019-05-26T08:01:49.000Z</time>
      </trkpt>
      <trkpt lat="47.35191" lon="-2.32417">
        <ele>-2.7999999523163</ele>
        <time>2019-05-26T08:01:54.000Z</time>
      </trkpt>
      <trkpt lat="47.35202" lon="-2.32404">
        <ele>-2.7999999523163</ele>
        <time>2019-05-26T08:01:57.000Z</time>
      </trkpt>
      <trkpt lat="47.35211" lon="-2.32398">
        <ele>-2.7999999523163</ele>
        <time>2019-05-26T08:01:59.000Z</time>
      </trkpt>
      <trkpt lat="47.3522" lon="-2.32394">
        <ele>-2.7999999523163</ele>
        <time>2019-05-26T08:02:01.000Z</time>
      </trkpt>
      <trkpt lat="47.3524" lon="-2.32389">
        <ele>-2.7999999523163</ele>
        <time>2019-05-26T08:02:05.000Z</time>
      </trkpt>
      <trkpt lat="47.35257" lon="-2.32382">
        <ele>-2.7999999523163</ele>
        <time>2019-05-26T08:02:10.000Z</time>
      </trkpt>
      <trkpt lat="47.35275" lon="-2.3237">
        <ele>-2.7999999523163</ele>
        <time>2019-05-26T08:02:16.000Z</time>
      </trkpt>
      <trkpt lat="47.35293" lon="-2.32361">
        <ele>-2.7999999523163</ele>
        <time>2019-05-26T08:02:21.000Z</time>
      </trkpt>
      <trkpt lat="47.35306" lon="-2.32353">
        <ele>-2.7999999523163</ele>
        <time>2019-05-26T08:02:26.000Z</time>
      </trkpt>
      <trkpt lat="47.35321" lon="-2.3234">
        <ele>-2.7999999523163</ele>
        <time>2019-05-26T08:02:32.000Z</time>
      </trkpt>
      <trkpt lat="47.35328" lon="-2.32336">
        <ele>-2.7999999523163</ele>
        <time>2019-05-26T08:02:36.000Z</time>
      </trkpt>
      <trkpt lat="47.35342" lon="-2.32328">
        <ele>-2.7999999523163</ele>
        <time>2019-05-26T08:02:41.000Z</time>
      </trkpt>
      <trkpt lat="47.35358" lon="-2.3232">
        <ele>-2.7999999523163</ele>
        <time>2019-05-26T08:02:46.000Z</time>
      </trkpt>
      <trkpt lat="47.35383" lon="-2.32314">
        <ele>-2.7999999523163</ele>
        <time>2019-05-26T08:02:52.000Z</time>
      </trkpt>
      <trkpt lat="47.354" lon="-2.32308">
        <ele>-2.7999999523163</ele>
        <time>2019-05-26T08:02:57.000Z</time>
      </trkpt>
      <trkpt lat="47.35413" lon="-2.32302">
        <ele>-2.7999999523163</ele>
        <time>2019-05-26T08:03:02.000Z</time>
      </trkpt>
      <trkpt lat="47.35427" lon="-2.32291">
        <ele>-2.7999999523163</ele>
        <time>2019-05-26T08:03:06.000Z</time>
      </trkpt>
      <trkpt lat="47.3543" lon="-2.3229">
        <ele>-2.7999999523163</ele>
        <time>2019-05-26T08:03:07.000Z</time>
      </trkpt>
      <trkpt lat="47.35447" lon="-2.32279">
        <ele>-2.7999999523163</ele>
        <time>2019-05-26T08:03:12.000Z</time>
      </trkpt>
      <trkpt lat="47.35462" lon="-2.32269">
        <ele>-2.7999999523163</ele>
        <time>2019-05-26T08:03:17.000Z</time>
      </trkpt>
      <trkpt lat="47.35489" lon="-2.32254">
        <ele>-2.7999999523163</ele>
        <time>2019-05-26T08:03:23.000Z</time>
      </trkpt>
      <trkpt lat="47.35497" lon="-2.32236">
        <ele>-2.7999999523163</ele>
        <time>2019-05-26T08:03:28.000Z</time>
      </trkpt>
      <trkpt lat="47.355" lon="-2.3221">
        <ele>-2.7999999523163</ele>
        <time>2019-05-26T08:03:33.000Z</time>
      </trkpt>
      <trkpt lat="47.35503" lon="-2.32184">
        <ele>-2.7999999523163</ele>
        <time>2019-05-26T08:03:38.000Z</time>
      </trkpt>
      <trkpt lat="47.35505" lon="-2.32156">
        <ele>-2.7999999523163</ele>
        <time>2019-05-26T08:03:43.000Z</time>
      </trkpt>
      <trkpt lat="47.35509" lon="-2.3213">
        <ele>-2.7999999523163</ele>
        <time>2019-05-26T08:03:48.000Z</time>
      </trkpt>
      <trkpt lat="47.35515" lon="-2.32087">
        <ele>-2.7999999523163</ele>
        <time>2019-05-26T08:03:55.000Z</time>
      </trkpt>
      <trkpt lat="47.35515" lon="-2.32061">
        <ele>-2.7999999523163</ele>
        <time>2019-05-26T08:03:59.000Z</time>
      </trkpt>
      <trkpt lat="47.35515" lon="-2.32055">
        <ele>-2.7999999523163</ele>
        <time>2019-05-26T08:04:00.000Z</time>
      </trkpt>
      <trkpt lat="47.3551" lon="-2.3202">
        <ele>-2.7999999523163</ele>
        <time>2019-05-26T08:04:06.000Z</time>
      </trkpt>
      <trkpt lat="47.35507" lon="-2.31987">
        <ele>-2.7999999523163</ele>
        <time>2019-05-26T08:04:12.000Z</time>
      </trkpt>
      <trkpt lat="47.35503" lon="-2.31963">
        <ele>-2.7999999523163</ele>
        <time>2019-05-26T08:04:17.000Z</time>
      </trkpt>
      <trkpt lat="47.35499" lon="-2.31953">
        <ele>-2.7999999523163</ele>
        <time>2019-05-26T08:04:22.000Z</time>
      </trkpt>
      <trkpt lat="47.35507" lon="-2.31919">
        <ele>-2.7999999523163</ele>
        <time>2019-05-26T08:05:12.000Z</time>
      </trkpt>
      <trkpt lat="47.35507" lon="-2.31919">
        <ele>-2.7999999523163</ele>
        <time>2019-05-26T08:05:13.000Z</time>
      </trkpt>
      <trkpt lat="47.35509" lon="-2.31913">
        <ele>-2.7999999523163</ele>
        <time>2019-05-26T08:05:15.000Z</time>
      </trkpt>
      <trkpt lat="47.35513" lon="-2.31891">
        <ele>-2.7999999523163</ele>
        <time>2019-05-26T08:05:19.000Z</time>
      </trkpt>
      <trkpt lat="47.35519" lon="-2.31881">
        <ele>-2.7999999523163</ele>
        <time>2019-05-26T08:05:21.000Z</time>
      </trkpt>
      <trkpt lat="47.35525" lon="-2.31871">
        <ele>-2.7999999523163</ele>
        <time>2019-05-26T08:05:23.000Z</time>
      </trkpt>
      <trkpt lat="47.35534" lon="-2.31847">
        <ele>-2.7999999523163</ele>
        <time>2019-05-26T08:05:27.000Z</time>
      </trkpt>
      <trkpt lat="47.35536" lon="-2.31841">
        <ele>-2.7999999523163</ele>
        <time>2019-05-26T08:05:28.000Z</time>
      </trkpt>
      <trkpt lat="47.35546" lon="-2.3182">
        <ele>-2.7999999523163</ele>
        <time>2019-05-26T08:05:32.000Z</time>
      </trkpt>
      <trkpt lat="47.35552" lon="-2.31813">
        <ele>-2.7999999523163</ele>
        <time>2019-05-26T08:05:34.000Z</time>
      </trkpt>
      <trkpt lat="47.35554" lon="-2.3179">
        <ele>-2.7999999523163</ele>
        <time>2019-05-26T08:05:38.000Z</time>
      </trkpt>
      <trkpt lat="47.35555" lon="-2.31784">
        <ele>-2.7999999523163</ele>
        <time>2019-05-26T08:05:39.000Z</time>
      </trkpt>
      <trkpt lat="47.35557" lon="-2.31779">
        <ele>-2.7999999523163</ele>
        <time>2019-05-26T08:05:40.000Z</time>
      </trkpt>
      <trkpt lat="47.35566" lon="-2.31763">
        <ele>-2.7999999523163</ele>
        <time>2019-05-26T08:05:43.000Z</time>
      </trkpt>
      <trkpt lat="47.35573" lon="-2.31745">
        <ele>-2.7999999523163</ele>
        <time>2019-05-26T08:05:47.000Z</time>
      </trkpt>
      <trkpt lat="47.35575" lon="-2.31739">
        <ele>-2.7999999523163</ele>
        <time>2019-05-26T08:05:48.000Z</time>
      </trkpt>
      <trkpt lat="47.35585" lon="-2.31715">
        <ele>-2.7999999523163</ele>
        <time>2019-05-26T08:05:52.000Z</time>
      </trkpt>
      <trkpt lat="47.3559" lon="-2.31701">
        <ele>-2.7999999523163</ele>
        <time>2019-05-26T08:05:54.000Z</time>
      </trkpt>
      <trkpt lat="47.356" lon="-2.31677">
        <ele>-2.7999999523163</ele>
        <time>2019-05-26T08:05:58.000Z</time>
      </trkpt>
      <trkpt lat="47.3562" lon="-2.31624">
        <ele>-2.7999999523163</ele>
        <time>2019-05-26T08:06:07.000Z</time>
      </trkpt>
      <trkpt lat="47.35622" lon="-2.31618">
        <ele>-2.7999999523163</ele>
        <time>2019-05-26T08:06:08.000Z</time>
      </trkpt>
      <trkpt lat="47.35633" lon="-2.31597">
        <ele>-2.7999999523163</ele>
        <time>2019-05-26T08:06:12.000Z</time>
      </trkpt>
      <trkpt lat="47.35651" lon="-2.31554">
        <ele>-2.7999999523163</ele>
        <time>2019-05-26T08:06:19.000Z</time>
      </trkpt>
      <trkpt lat="47.35672" lon="-2.31495">
        <ele>-2.7999999523163</ele>
        <time>2019-05-26T08:06:28.000Z</time>
      </trkpt>
      <trkpt lat="47.35692" lon="-2.31456">
        <ele>-2.7999999523163</ele>
        <time>2019-05-26T08:06:34.000Z</time>
      </trkpt>
      <trkpt lat="47.35708" lon="-2.31436">
        <ele>-2.7999999523163</ele>
        <time>2019-05-26T08:06:38.000Z</time>
      </trkpt>
      <trkpt lat="47.3572" lon="-2.31429">
        <ele>-2.7999999523163</ele>
        <time>2019-05-26T08:06:40.000Z</time>
      </trkpt>
      <trkpt lat="47.35733" lon="-2.31424">
        <ele>-2.7999999523163</ele>
        <time>2019-05-26T08:06:42.000Z</time>
      </trkpt>
      <trkpt lat="47.35751" lon="-2.31415">
        <ele>-2.7999999523163</ele>
        <time>2019-05-26T08:06:45.000Z</time>
      </trkpt>
      <trkpt lat="47.35757" lon="-2.31411">
        <ele>-2.7999999523163</ele>
        <time>2019-05-26T08:06:46.000Z</time>
      </trkpt>
      <trkpt lat="47.35796" lon="-2.31383">
        <ele>-2.7999999523163</ele>
        <time>2019-05-26T08:06:53.000Z</time>
      </trkpt>
      <trkpt lat="47.35841" lon="-2.31353">
        <ele>-2.7999999523163</ele>
        <time>2019-05-26T08:07:01.000Z</time>
      </trkpt>
      <trkpt lat="47.3586" lon="-2.31342">
        <ele>-2.7999999523163</ele>
        <time>2019-05-26T08:07:05.000Z</time>
      </trkpt>
      <trkpt lat="47.35864" lon="-2.31339">
        <ele>-2.7999999523163</ele>
        <time>2019-05-26T08:07:06.000Z</time>
      </trkpt>
      <trkpt lat="47.35891" lon="-2.3132">
        <ele>-2.7999999523163</ele>
        <time>2019-05-26T08:07:12.000Z</time>
      </trkpt>
      <trkpt lat="47.35906" lon="-2.3131">
        <ele>-2.7999999523163</ele>
        <time>2019-05-26T08:07:17.000Z</time>
      </trkpt>
      <trkpt lat="47.35906" lon="-2.31311">
        <ele>-2.7999999523163</ele>
        <time>2019-05-26T08:07:19.000Z</time>
      </trkpt>
      <trkpt lat="47.35919" lon="-2.31333">
        <ele>-3</ele>
        <time>2019-05-26T08:08:34.000Z</time>
      </trkpt>
      <trkpt lat="47.35921" lon="-2.31334">
        <ele>-3</ele>
        <time>2019-05-26T08:08:35.000Z</time>
      </trkpt>
      <trkpt lat="47.35925" lon="-2.31339">
        <ele>-3</ele>
        <time>2019-05-26T08:08:38.000Z</time>
      </trkpt>
      <trkpt lat="47.35932" lon="-2.31347">
        <ele>-3</ele>
        <time>2019-05-26T08:08:41.000Z</time>
      </trkpt>
      <trkpt lat="47.35949" lon="-2.31366">
        <ele>-3</ele>
        <time>2019-05-26T08:08:48.000Z</time>
      </trkpt>
      <trkpt lat="47.35967" lon="-2.31375">
        <ele>-3</ele>
        <time>2019-05-26T08:08:54.000Z</time>
      </trkpt>
      <trkpt lat="47.35972" lon="-2.31374">
        <ele>-3</ele>
        <time>2019-05-26T08:08:56.000Z</time>
      </trkpt>
      <trkpt lat="47.35979" lon="-2.3137">
        <ele>-3</ele>
        <time>2019-05-26T08:08:58.000Z</time>
      </trkpt>
      <trkpt lat="47.35987" lon="-2.31364">
        <ele>-2.5999999046326</ele>
        <time>2019-05-26T08:09:00.000Z</time>
      </trkpt>
      <trkpt lat="47.35992" lon="-2.31362">
        <ele>-2.2000000476837</ele>
        <time>2019-05-26T08:09:01.000Z</time>
      </trkpt>
      <trkpt lat="47.35996" lon="-2.3136">
        <ele>-1.7999999523163</ele>
        <time>2019-05-26T08:09:02.000Z</time>
      </trkpt>
      <trkpt lat="47.36001" lon="-2.31359">
        <ele>-1.3999999761581</ele>
        <time>2019-05-26T08:09:03.000Z</time>
      </trkpt>
      <trkpt lat="47.36006" lon="-2.31357">
        <ele>-1</ele>
        <time>2019-05-26T08:09:04.000Z</time>
      </trkpt>
      <trkpt lat="47.36028" lon="-2.3135">
        <ele>-1</ele>
        <time>2019-05-26T08:09:09.000Z</time>
      </trkpt>
      <trkpt lat="47.36033" lon="-2.31349">
        <ele>-1</ele>
        <time>2019-05-26T08:09:10.000Z</time>
      </trkpt>
      <trkpt lat="47.36059" lon="-2.31346">
        <ele>-1</ele>
        <time>2019-05-26T08:09:15.000Z</time>
      </trkpt>
      <trkpt lat="47.36078" lon="-2.31344">
        <ele>-1</ele>
        <time>2019-05-26T08:09:19.000Z</time>
      </trkpt>
      <trkpt lat="47.36087" lon="-2.31348">
        <ele>-1</ele>
        <time>2019-05-26T08:09:21.000Z</time>
      </trkpt>
      <trkpt lat="47.36109" lon="-2.31365">
        <ele>-1</ele>
        <time>2019-05-26T08:09:27.000Z</time>
      </trkpt>
      <trkpt lat="47.36122" lon="-2.3138">
        <ele>-1</ele>
        <time>2019-05-26T08:09:31.000Z</time>
      </trkpt>
      <trkpt lat="47.36125" lon="-2.31384">
        <ele>-1</ele>
        <time>2019-05-26T08:09:32.000Z</time>
      </trkpt>
      <trkpt lat="47.36146" lon="-2.31415">
        <ele>-1</ele>
        <time>2019-05-26T08:09:40.000Z</time>
      </trkpt>
      <trkpt lat="47.36161" lon="-2.31442">
        <ele>-1</ele>
        <time>2019-05-26T08:09:47.000Z</time>
      </trkpt>
      <trkpt lat="47.36164" lon="-2.31446">
        <ele>-1</ele>
        <time>2019-05-26T08:09:48.000Z</time>
      </trkpt>
      <trkpt lat="47.36172" lon="-2.31462">
        <ele>-1</ele>
        <time>2019-05-26T08:09:51.000Z</time>
      </trkpt>
      <trkpt lat="47.36173" lon="-2.31467">
        <ele>-1</ele>
        <time>2019-05-26T08:09:52.000Z</time>
      </trkpt>
      <trkpt lat="47.36178" lon="-2.31491">
        <ele>-1</ele>
        <time>2019-05-26T08:09:56.000Z</time>
      </trkpt>
      <trkpt lat="47.36181" lon="-2.3151">
        <ele>-1</ele>
        <time>2019-05-26T08:09:59.000Z</time>
      </trkpt>
      <trkpt lat="47.36186" lon="-2.31555">
        <ele>-1</ele>
        <time>2019-05-26T08:10:05.000Z</time>
      </trkpt>
      <trkpt lat="47.36187" lon="-2.31563">
        <ele>-1</ele>
        <time>2019-05-26T08:10:06.000Z</time>
      </trkpt>
      <trkpt lat="47.36193" lon="-2.31592">
        <ele>-1</ele>
        <time>2019-05-26T08:10:10.000Z</time>
      </trkpt>
      <trkpt lat="47.36199" lon="-2.31628">
        <ele>-1</ele>
        <time>2019-05-26T08:10:15.000Z</time>
      </trkpt>
      <trkpt lat="47.36199" lon="-2.31636">
        <ele>-1</ele>
        <time>2019-05-26T08:10:16.000Z</time>
      </trkpt>
      <trkpt lat="47.36206" lon="-2.31686">
        <ele>-1</ele>
        <time>2019-05-26T08:10:23.000Z</time>
      </trkpt>
      <trkpt lat="47.36213" lon="-2.31736">
        <ele>-1</ele>
        <time>2019-05-26T08:10:29.000Z</time>
      </trkpt>
      <trkpt lat="47.36216" lon="-2.3177">
        <ele>-1</ele>
        <time>2019-05-26T08:10:33.000Z</time>
      </trkpt>
      <trkpt lat="47.36219" lon="-2.31785">
        <ele>-1</ele>
        <time>2019-05-26T08:10:35.000Z</time>
      </trkpt>
      <trkpt lat="47.36228" lon="-2.31845">
        <ele>-1</ele>
        <time>2019-05-26T08:10:43.000Z</time>
      </trkpt>
      <trkpt lat="47.36233" lon="-2.31875">
        <ele>-1</ele>
        <time>2019-05-26T08:10:47.000Z</time>
      </trkpt>
      <trkpt lat="47.36239" lon="-2.31887">
        <ele>-1</ele>
        <time>2019-05-26T08:10:49.000Z</time>
      </trkpt>
      <trkpt lat="47.36255" lon="-2.31905">
        <ele>-1</ele>
        <time>2019-05-26T08:10:53.000Z</time>
      </trkpt>
      <trkpt lat="47.36287" lon="-2.31934">
        <ele>-1</ele>
        <time>2019-05-26T08:11:00.000Z</time>
      </trkpt>
      <trkpt lat="47.36296" lon="-2.31942">
        <ele>-0.60000002384186</ele>
        <time>2019-05-26T08:11:02.000Z</time>
      </trkpt>
      <trkpt lat="47.36301" lon="-2.31945">
        <ele>-0.20000000298023</ele>
        <time>2019-05-26T08:11:03.000Z</time>
      </trkpt>
      <trkpt lat="47.36304" lon="-2.31948">
        <ele>0.20000000298023</ele>
        <time>2019-05-26T08:11:04.000Z</time>
      </trkpt>
      <trkpt lat="47.36308" lon="-2.31952">
        <ele>0.60000002384186</ele>
        <time>2019-05-26T08:11:05.000Z</time>
      </trkpt>
      <trkpt lat="47.36312" lon="-2.31956">
        <ele>1</ele>
        <time>2019-05-26T08:11:06.000Z</time>
      </trkpt>
      <trkpt lat="47.36338" lon="-2.31979">
        <ele>1</ele>
        <time>2019-05-26T08:11:13.000Z</time>
      </trkpt>
      <trkpt lat="47.36359" lon="-2.32">
        <ele>1</ele>
        <time>2019-05-26T08:11:18.000Z</time>
      </trkpt>
      <trkpt lat="47.36368" lon="-2.32011">
        <ele>1</ele>
        <time>2019-05-26T08:11:20.000Z</time>
      </trkpt>
      <trkpt lat="47.36395" lon="-2.32043">
        <ele>1</ele>
        <time>2019-05-26T08:11:26.000Z</time>
      </trkpt>
      <trkpt lat="47.3642" lon="-2.32076">
        <ele>1.3999999761581</ele>
        <time>2019-05-26T08:11:32.000Z</time>
      </trkpt>
      <trkpt lat="47.36424" lon="-2.32081">
        <ele>1.7999999523163</ele>
        <time>2019-05-26T08:11:33.000Z</time>
      </trkpt>
      <trkpt lat="47.36428" lon="-2.32086">
        <ele>2.2000000476837</ele>
        <time>2019-05-26T08:11:34.000Z</time>
      </trkpt>
      <trkpt lat="47.36433" lon="-2.32091">
        <ele>2.5999999046326</ele>
        <time>2019-05-26T08:11:35.000Z</time>
      </trkpt>
      <trkpt lat="47.36437" lon="-2.32096">
        <ele>3</ele>
        <time>2019-05-26T08:11:36.000Z</time>
      </trkpt>
      <trkpt lat="47.36462" lon="-2.32126">
        <ele>3</ele>
        <time>2019-05-26T08:11:42.000Z</time>
      </trkpt>
      <trkpt lat="47.36475" lon="-2.3214">
        <ele>3</ele>
        <time>2019-05-26T08:11:45.000Z</time>
      </trkpt>
      <trkpt lat="47.36489" lon="-2.32156">
        <ele>3</ele>
        <time>2019-05-26T08:11:48.000Z</time>
      </trkpt>
      <trkpt lat="47.3652" lon="-2.32194">
        <ele>3</ele>
        <time>2019-05-26T08:11:55.000Z</time>
      </trkpt>
      <trkpt lat="47.36524" lon="-2.322">
        <ele>2.5999999046326</ele>
        <time>2019-05-26T08:11:56.000Z</time>
      </trkpt>
      <trkpt lat="47.36529" lon="-2.32205">
        <ele>2.2000000476837</ele>
        <time>2019-05-26T08:11:57.000Z</time>
      </trkpt>
      <trkpt lat="47.36533" lon="-2.3221">
        <ele>1.7999999523163</ele>
        <time>2019-05-26T08:11:58.000Z</time>
      </trkpt>
      <trkpt lat="47.36536" lon="-2.32216">
        <ele>1.3999999761581</ele>
        <time>2019-05-26T08:11:59.000Z</time>
      </trkpt>
      <trkpt lat="47.3654" lon="-2.32221">
        <ele>1</ele>
        <time>2019-05-26T08:12:00.000Z</time>
      </trkpt>
      <trkpt lat="47.36545" lon="-2.32226">
        <ele>1</ele>
        <time>2019-05-26T08:12:01.000Z</time>
      </trkpt>
      <trkpt lat="47.36574" lon="-2.3225">
        <ele>1</ele>
        <time>2019-05-26T08:12:07.000Z</time>
      </trkpt>
      <trkpt lat="47.36597" lon="-2.3226">
        <ele>1</ele>
        <time>2019-05-26T08:12:13.000Z</time>
      </trkpt>
      <trkpt lat="47.36618" lon="-2.32274">
        <ele>1</ele>
        <time>2019-05-26T08:12:18.000Z</time>
      </trkpt>
      <trkpt lat="47.36646" lon="-2.32287">
        <ele>1</ele>
        <time>2019-05-26T08:12:25.000Z</time>
      </trkpt>
      <trkpt lat="47.36672" lon="-2.323">
        <ele>1</ele>
        <time>2019-05-26T08:12:31.000Z</time>
      </trkpt>
      <trkpt lat="47.36705" lon="-2.32317">
        <ele>1</ele>
        <time>2019-05-26T08:12:37.000Z</time>
      </trkpt>
      <trkpt lat="47.36749" lon="-2.32336">
        <ele>1</ele>
        <time>2019-05-26T08:12:45.000Z</time>
      </trkpt>
      <trkpt lat="47.36787" lon="-2.32358">
        <ele>1</ele>
        <time>2019-05-26T08:12:51.000Z</time>
      </trkpt>
      <trkpt lat="47.36826" lon="-2.32383">
        <ele>1</ele>
        <time>2019-05-26T08:12:57.000Z</time>
      </trkpt>
      <trkpt lat="47.36843" lon="-2.32392">
        <ele>1.3999999761581</ele>
        <time>2019-05-26T08:13:00.000Z</time>
      </trkpt>
      <trkpt lat="47.36849" lon="-2.32395">
        <ele>1.7999999523163</ele>
        <time>2019-05-26T08:13:01.000Z</time>
      </trkpt>
      <trkpt lat="47.36854" lon="-2.32399">
        <ele>2.2000000476837</ele>
        <time>2019-05-26T08:13:02.000Z</time>
      </trkpt>
      <trkpt lat="47.3686" lon="-2.32403">
        <ele>2.5999999046326</ele>
        <time>2019-05-26T08:13:03.000Z</time>
      </trkpt>
      <trkpt lat="47.36866" lon="-2.32406">
        <ele>3.2000000476837</ele>
        <time>2019-05-26T08:13:04.000Z</time>
      </trkpt>
      <trkpt lat="47.36878" lon="-2.32414">
        <ele>3.2000000476837</ele>
        <time>2019-05-26T08:13:06.000Z</time>
      </trkpt>
      <trkpt lat="47.36895" lon="-2.32424">
        <ele>3.2000000476837</ele>
        <time>2019-05-26T08:13:09.000Z</time>
      </trkpt>
      <trkpt lat="47.36911" lon="-2.32435">
        <ele>3.2000000476837</ele>
        <time>2019-05-26T08:13:12.000Z</time>
      </trkpt>
      <trkpt lat="47.36923" lon="-2.32437">
        <ele>3.2000000476837</ele>
        <time>2019-05-26T08:13:14.000Z</time>
      </trkpt>
      <trkpt lat="47.36936" lon="-2.32436">
        <ele>3.2000000476837</ele>
        <time>2019-05-26T08:13:16.000Z</time>
      </trkpt>
      <trkpt lat="47.36955" lon="-2.32437">
        <ele>3.2000000476837</ele>
        <time>2019-05-26T08:13:19.000Z</time>
      </trkpt>
      <trkpt lat="47.37009" lon="-2.32438">
        <ele>3.2000000476837</ele>
        <time>2019-05-26T08:13:28.000Z</time>
      </trkpt>
      <trkpt lat="47.37047" lon="-2.32439">
        <ele>3.2000000476837</ele>
        <time>2019-05-26T08:13:34.000Z</time>
      </trkpt>
      <trkpt lat="47.37078" lon="-2.32435">
        <ele>2.5999999046326</ele>
        <time>2019-05-26T08:13:39.000Z</time>
      </trkpt>
      <trkpt lat="47.37085" lon="-2.32435">
        <ele>1.7999999523163</ele>
        <time>2019-05-26T08:13:40.000Z</time>
      </trkpt>
      <trkpt lat="47.37091" lon="-2.32435">
        <ele>1.3999999761581</ele>
        <time>2019-05-26T08:13:41.000Z</time>
      </trkpt>
      <trkpt lat="47.37098" lon="-2.32435">
        <ele>1</ele>
        <time>2019-05-26T08:13:42.000Z</time>
      </trkpt>
      <trkpt lat="47.37121" lon="-2.32435">
        <ele>1</ele>
        <time>2019-05-26T08:13:46.000Z</time>
      </trkpt>
      <trkpt lat="47.37131" lon="-2.32434">
        <ele>1</ele>
        <time>2019-05-26T08:13:48.000Z</time>
      </trkpt>
      <trkpt lat="47.3714" lon="-2.32429">
        <ele>1</ele>
        <time>2019-05-26T08:13:50.000Z</time>
      </trkpt>
      <trkpt lat="47.37143" lon="-2.32425">
        <ele>1</ele>
        <time>2019-05-26T08:13:51.000Z</time>
      </trkpt>
      <trkpt lat="47.37146" lon="-2.32413">
        <ele>1</ele>
        <time>2019-05-26T08:13:53.000Z</time>
      </trkpt>
      <trkpt lat="47.37146" lon="-2.32387">
        <ele>1</ele>
        <time>2019-05-26T08:13:56.000Z</time>
      </trkpt>
      <trkpt lat="47.37145" lon="-2.32377">
        <ele>1</ele>
        <time>2019-05-26T08:13:57.000Z</time>
      </trkpt>
      <trkpt lat="47.37144" lon="-2.32367">
        <ele>1</ele>
        <time>2019-05-26T08:13:58.000Z</time>
      </trkpt>
      <trkpt lat="47.37142" lon="-2.32325">
        <ele>1</ele>
        <time>2019-05-26T08:14:02.000Z</time>
      </trkpt>
      <trkpt lat="47.37139" lon="-2.32266">
        <ele>1</ele>
        <time>2019-05-26T08:14:08.000Z</time>
      </trkpt>
      <trkpt lat="47.37139" lon="-2.32208">
        <ele>1</ele>
        <time>2019-05-26T08:14:14.000Z</time>
      </trkpt>
      <trkpt lat="47.3714" lon="-2.32148">
        <ele>1</ele>
        <time>2019-05-26T08:14:20.000Z</time>
      </trkpt>
      <trkpt lat="47.37139" lon="-2.32091">
        <ele>1</ele>
        <time>2019-05-26T08:14:26.000Z</time>
      </trkpt>
      <trkpt lat="47.3714" lon="-2.3202">
        <ele>1</ele>
        <time>2019-05-26T08:14:33.000Z</time>
      </trkpt>
      <trkpt lat="47.37141" lon="-2.31969">
        <ele>0.60000002384186</ele>
        <time>2019-05-26T08:14:38.000Z</time>
      </trkpt>
      <trkpt lat="47.37142" lon="-2.31959">
        <ele>0.20000000298023</ele>
        <time>2019-05-26T08:14:39.000Z</time>
      </trkpt>
      <trkpt lat="47.37143" lon="-2.31949">
        <ele>-0.20000000298023</ele>
        <time>2019-05-26T08:14:40.000Z</time>
      </trkpt>
      <trkpt lat="47.37144" lon="-2.31939">
        <ele>-0.60000002384186</ele>
        <time>2019-05-26T08:14:41.000Z</time>
      </trkpt>
      <trkpt lat="47.37144" lon="-2.31929">
        <ele>-1</ele>
        <time>2019-05-26T08:14:42.000Z</time>
      </trkpt>
      <trkpt lat="47.37149" lon="-2.31882">
        <ele>-1</ele>
        <time>2019-05-26T08:14:47.000Z</time>
      </trkpt>
      <trkpt lat="47.37153" lon="-2.31836">
        <ele>-1</ele>
        <time>2019-05-26T08:14:53.000Z</time>
      </trkpt>
      <trkpt lat="47.37153" lon="-2.31827">
        <ele>-1</ele>
        <time>2019-05-26T08:14:56.000Z</time>
      </trkpt>
      <trkpt lat="47.37153" lon="-2.31826">
        <ele>-1</ele>
        <time>2019-05-26T08:14:57.000Z</time>
      </trkpt>
      <trkpt lat="47.37155" lon="-2.31823">
        <ele>-1.3999999761581</ele>
        <time>2019-05-26T08:15:28.000Z</time>
      </trkpt>
      <trkpt lat="47.37155" lon="-2.31821">
        <ele>-1.7999999523163</ele>
        <time>2019-05-26T08:15:29.000Z</time>
      </trkpt>
      <trkpt lat="47.37157" lon="-2.31819">
        <ele>-2.2000000476837</ele>
        <time>2019-05-26T08:15:30.000Z</time>
      </trkpt>
      <trkpt lat="47.37158" lon="-2.31816">
        <ele>-2.5999999046326</ele>
        <time>2019-05-26T08:15:31.000Z</time>
      </trkpt>
      <trkpt lat="47.37159" lon="-2.31812">
        <ele>-3</ele>
        <time>2019-05-26T08:15:32.000Z</time>
      </trkpt>
      <trkpt lat="47.37161" lon="-2.31807">
        <ele>-3</ele>
        <time>2019-05-26T08:15:33.000Z</time>
      </trkpt>
      <trkpt lat="47.37165" lon="-2.31783">
        <ele>-3</ele>
        <time>2019-05-26T08:15:38.000Z</time>
      </trkpt>
      <trkpt lat="47.37165" lon="-2.3176">
        <ele>-3</ele>
        <time>2019-05-26T08:15:43.000Z</time>
      </trkpt>
      <trkpt lat="47.37159" lon="-2.31733">
        <ele>-3</ele>
        <time>2019-05-26T08:15:50.000Z</time>
      </trkpt>
      <trkpt lat="47.37154" lon="-2.31713">
        <ele>-3</ele>
        <time>2019-05-26T08:15:55.000Z</time>
      </trkpt>
      <trkpt lat="47.37146" lon="-2.31683">
        <ele>-3</ele>
        <time>2019-05-26T08:16:01.000Z</time>
      </trkpt>
      <trkpt lat="47.37141" lon="-2.31658">
        <ele>-3</ele>
        <time>2019-05-26T08:16:06.000Z</time>
      </trkpt>
      <trkpt lat="47.37134" lon="-2.31631">
        <ele>-3</ele>
        <time>2019-05-26T08:16:12.000Z</time>
      </trkpt>
      <trkpt lat="47.3713" lon="-2.31608">
        <ele>-3</ele>
        <time>2019-05-26T08:16:17.000Z</time>
      </trkpt>
      <trkpt lat="47.37129" lon="-2.3159">
        <ele>-3</ele>
        <time>2019-05-26T08:16:23.000Z</time>
      </trkpt>
      <trkpt lat="47.37129" lon="-2.31585">
        <ele>-3</ele>
        <time>2019-05-26T08:16:26.000Z</time>
      </trkpt>
      <trkpt lat="47.37129" lon="-2.31583">
        <ele>-3</ele>
        <time>2019-05-26T08:16:28.000Z</time>
      </trkpt>
      <trkpt lat="47.37129" lon="-2.31581">
        <ele>-3</ele>
        <time>2019-05-26T08:16:40.000Z</time>
      </trkpt>
      <trkpt lat="47.37129" lon="-2.31573">
        <ele>-3</ele>
        <time>2019-05-26T08:16:43.000Z</time>
      </trkpt>
      <trkpt lat="47.37129" lon="-2.31566">
        <ele>-3</ele>
        <time>2019-05-26T08:16:47.000Z</time>
      </trkpt>
      <trkpt lat="47.37128" lon="-2.31564">
        <ele>-3</ele>
        <time>2019-05-26T08:16:53.000Z</time>
      </trkpt>
      <trkpt lat="47.37127" lon="-2.31549">
        <ele>-3</ele>
        <time>2019-05-26T08:16:59.000Z</time>
      </trkpt>
      <trkpt lat="47.37126" lon="-2.31535">
        <ele>-3</ele>
        <time>2019-05-26T08:17:05.000Z</time>
      </trkpt>
      <trkpt lat="47.37126" lon="-2.31517">
        <ele>-3</ele>
        <time>2019-05-26T08:17:12.000Z</time>
      </trkpt>
      <trkpt lat="47.37126" lon="-2.31502">
        <ele>-3</ele>
        <time>2019-05-26T08:17:18.000Z</time>
      </trkpt>
      <trkpt lat="47.37125" lon="-2.31487">
        <ele>-3</ele>
        <time>2019-05-26T08:17:23.000Z</time>
      </trkpt>
      <trkpt lat="47.37126" lon="-2.31474">
        <ele>-3</ele>
        <time>2019-05-26T08:17:28.000Z</time>
      </trkpt>
      <trkpt lat="47.37126" lon="-2.31449">
        <ele>-3</ele>
        <time>2019-05-26T08:17:35.000Z</time>
      </trkpt>
      <trkpt lat="47.37126" lon="-2.31436">
        <ele>-3</ele>
        <time>2019-05-26T08:17:40.000Z</time>
      </trkpt>
      <trkpt lat="47.37126" lon="-2.31435">
        <ele>-3</ele>
        <time>2019-05-26T08:17:41.000Z</time>
      </trkpt>
      <trkpt lat="47.37125" lon="-2.31434">
        <ele>-3</ele>
        <time>2019-05-26T08:17:42.000Z</time>
      </trkpt>
      <trkpt lat="47.37125" lon="-2.31428">
        <ele>-3</ele>
        <time>2019-05-26T08:17:57.000Z</time>
      </trkpt>
      <trkpt lat="47.37125" lon="-2.31423">
        <ele>-3</ele>
        <time>2019-05-26T08:17:59.000Z</time>
      </trkpt>
      <trkpt lat="47.37125" lon="-2.314">
        <ele>-3</ele>
        <time>2019-05-26T08:18:05.000Z</time>
      </trkpt>
      <trkpt lat="47.37125" lon="-2.31382">
        <ele>-3</ele>
        <time>2019-05-26T08:18:11.000Z</time>
      </trkpt>
      <trkpt lat="47.37125" lon="-2.31374">
        <ele>-3</ele>
        <time>2019-05-26T08:18:16.000Z</time>
      </trkpt>
      <trkpt lat="47.37127" lon="-2.31343">
        <ele>-3</ele>
        <time>2019-05-26T08:19:12.000Z</time>
      </trkpt>
      <trkpt lat="47.37127" lon="-2.31342">
        <ele>-3</ele>
        <time>2019-05-26T08:19:13.000Z</time>
      </trkpt>
      <trkpt lat="47.37126" lon="-2.31338">
        <ele>-3</ele>
        <time>2019-05-26T08:19:15.000Z</time>
      </trkpt>
      <trkpt lat="47.37127" lon="-2.31338">
        <ele>-3</ele>
        <time>2019-05-26T08:19:16.000Z</time>
      </trkpt>
      <trkpt lat="47.37126" lon="-2.31335">
        <ele>-3</ele>
        <time>2019-05-26T08:19:23.000Z</time>
      </trkpt>
      <trkpt lat="47.37126" lon="-2.3133">
        <ele>-3</ele>
        <time>2019-05-26T08:19:25.000Z</time>
      </trkpt>
      <trkpt lat="47.37128" lon="-2.31313">
        <ele>-3</ele>
        <time>2019-05-26T08:19:31.000Z</time>
      </trkpt>
      <trkpt lat="47.37127" lon="-2.31303">
        <ele>-3</ele>
        <time>2019-05-26T08:19:35.000Z</time>
      </trkpt>
      <trkpt lat="47.37127" lon="-2.31301">
        <ele>-3</ele>
        <time>2019-05-26T08:19:36.000Z</time>
      </trkpt>
      <trkpt lat="47.37128" lon="-2.31298">
        <ele>-3</ele>
        <time>2019-05-26T08:19:39.000Z</time>
      </trkpt>
      <trkpt lat="47.37128" lon="-2.31296">
        <ele>-3</ele>
        <time>2019-05-26T08:21:05.000Z</time>
      </trkpt>
      <trkpt lat="47.37127" lon="-2.31285">
        <ele>-3</ele>
        <time>2019-05-26T08:21:11.000Z</time>
      </trkpt>
      <trkpt lat="47.37128" lon="-2.31279">
        <ele>-3</ele>
        <time>2019-05-26T08:21:14.000Z</time>
      </trkpt>
      <trkpt lat="47.37128" lon="-2.3127">
        <ele>-3</ele>
        <time>2019-05-26T08:21:17.000Z</time>
      </trkpt>
      <trkpt lat="47.37128" lon="-2.31252">
        <ele>-3</ele>
        <time>2019-05-26T08:21:25.000Z</time>
      </trkpt>
      <trkpt lat="47.37128" lon="-2.31252">
        <ele>-3</ele>
        <time>2019-05-26T08:21:26.000Z</time>
      </trkpt>
      <trkpt lat="47.37128" lon="-2.31243">
        <ele>-3</ele>
        <time>2019-05-26T08:21:51.000Z</time>
      </trkpt>
      <trkpt lat="47.37128" lon="-2.31239">
        <ele>-3</ele>
        <time>2019-05-26T08:21:53.000Z</time>
      </trkpt>
      <trkpt lat="47.37131" lon="-2.31222">
        <ele>-3</ele>
        <time>2019-05-26T08:21:59.000Z</time>
      </trkpt>
      <trkpt lat="47.37131" lon="-2.31221">
        <ele>-3</ele>
        <time>2019-05-26T08:22:00.000Z</time>
      </trkpt>
      <trkpt lat="47.37131" lon="-2.31223">
        <ele>-3</ele>
        <time>2019-05-26T08:22:52.000Z</time>
      </trkpt>
      <trkpt lat="47.37131" lon="-2.31225">
        <ele>-3</ele>
        <time>2019-05-26T08:22:53.000Z</time>
      </trkpt>
      <trkpt lat="47.37129" lon="-2.31238">
        <ele>-3</ele>
        <time>2019-05-26T08:22:58.000Z</time>
      </trkpt>
      <trkpt lat="47.37129" lon="-2.31252">
        <ele>-3</ele>
        <time>2019-05-26T08:23:03.000Z</time>
      </trkpt>
      <trkpt lat="47.37128" lon="-2.31266">
        <ele>-3</ele>
        <time>2019-05-26T08:23:09.000Z</time>
      </trkpt>
      <trkpt lat="47.37128" lon="-2.31281">
        <ele>-3</ele>
        <time>2019-05-26T08:23:16.000Z</time>
      </trkpt>
      <trkpt lat="47.37127" lon="-2.31291">
        <ele>-3</ele>
        <time>2019-05-26T08:23:21.000Z</time>
      </trkpt>
      <trkpt lat="47.37127" lon="-2.31291">
        <ele>-3</ele>
        <time>2019-05-26T08:23:22.000Z</time>
      </trkpt>
      <trkpt lat="47.37129" lon="-2.31297">
        <ele>-3</ele>
        <time>2019-05-26T08:23:27.000Z</time>
      </trkpt>
      <trkpt lat="47.37129" lon="-2.31303">
        <ele>-3</ele>
        <time>2019-05-26T08:23:30.000Z</time>
      </trkpt>
      <trkpt lat="47.3713" lon="-2.31306">
        <ele>-3</ele>
        <time>2019-05-26T08:23:31.000Z</time>
      </trkpt>
      <trkpt lat="47.37129" lon="-2.3132">
        <ele>-3</ele>
        <time>2019-05-26T08:23:36.000Z</time>
      </trkpt>
      <trkpt lat="47.37129" lon="-2.31337">
        <ele>-3</ele>
        <time>2019-05-26T08:23:42.000Z</time>
      </trkpt>
      <trkpt lat="47.37129" lon="-2.31347">
        <ele>-3</ele>
        <time>2019-05-26T08:23:47.000Z</time>
      </trkpt>
      <trkpt lat="47.37129" lon="-2.31352">
        <ele>-3</ele>
        <time>2019-05-26T08:23:51.000Z</time>
      </trkpt>
      <trkpt lat="47.37129" lon="-2.31355">
        <ele>-3</ele>
        <time>2019-05-26T08:23:53.000Z</time>
      </trkpt>
      <trkpt lat="47.37128" lon="-2.31357">
        <ele>-3</ele>
        <time>2019-05-26T08:23:54.000Z</time>
      </trkpt>
      <trkpt lat="47.37128" lon="-2.31369">
        <ele>-3</ele>
        <time>2019-05-26T08:23:59.000Z</time>
      </trkpt>
      <trkpt lat="47.37127" lon="-2.31385">
        <ele>-3</ele>
        <time>2019-05-26T08:24:05.000Z</time>
      </trkpt>
      <trkpt lat="47.37126" lon="-2.31406">
        <ele>-3</ele>
        <time>2019-05-26T08:24:11.000Z</time>
      </trkpt>
      <trkpt lat="47.37126" lon="-2.31429">
        <ele>-3</ele>
        <time>2019-05-26T08:24:18.000Z</time>
      </trkpt>
      <trkpt lat="47.37127" lon="-2.31443">
        <ele>-3</ele>
        <time>2019-05-26T08:24:23.000Z</time>
      </trkpt>
      <trkpt lat="47.37127" lon="-2.31462">
        <ele>-3</ele>
        <time>2019-05-26T08:24:31.000Z</time>
      </trkpt>
      <trkpt lat="47.37127" lon="-2.31478">
        <ele>-3</ele>
        <time>2019-05-26T08:24:38.000Z</time>
      </trkpt>
      <trkpt lat="47.37127" lon="-2.31492">
        <ele>-3</ele>
        <time>2019-05-26T08:24:44.000Z</time>
      </trkpt>
      <trkpt lat="47.37127" lon="-2.31509">
        <ele>-3</ele>
        <time>2019-05-26T08:24:50.000Z</time>
      </trkpt>
      <trkpt lat="47.37127" lon="-2.31521">
        <ele>-3</ele>
        <time>2019-05-26T08:24:56.000Z</time>
      </trkpt>
      <trkpt lat="47.37127" lon="-2.31523">
        <ele>-3</ele>
        <time>2019-05-26T08:24:57.000Z</time>
      </trkpt>
      <trkpt lat="47.37127" lon="-2.31529">
        <ele>-3</ele>
        <time>2019-05-26T08:25:00.000Z</time>
      </trkpt>
      <trkpt lat="47.37128" lon="-2.31534">
        <ele>-3</ele>
        <time>2019-05-26T08:25:02.000Z</time>
      </trkpt>
      <trkpt lat="47.37128" lon="-2.31539">
        <ele>-3</ele>
        <time>2019-05-26T08:25:05.000Z</time>
      </trkpt>
      <trkpt lat="47.37128" lon="-2.3155">
        <ele>-3</ele>
        <time>2019-05-26T08:25:11.000Z</time>
      </trkpt>
      <trkpt lat="47.37128" lon="-2.31551">
        <ele>-3</ele>
        <time>2019-05-26T08:25:12.000Z</time>
      </trkpt>
      <trkpt lat="47.37128" lon="-2.31553">
        <ele>-3</ele>
        <time>2019-05-26T08:25:14.000Z</time>
      </trkpt>
      <trkpt lat="47.37129" lon="-2.31556">
        <ele>-3</ele>
        <time>2019-05-26T08:25:36.000Z</time>
      </trkpt>
      <trkpt lat="47.37131" lon="-2.31565">
        <ele>-3</ele>
        <time>2019-05-26T08:25:41.000Z</time>
      </trkpt>
      <trkpt lat="47.37131" lon="-2.31571">
        <ele>-3</ele>
        <time>2019-05-26T08:25:43.000Z</time>
      </trkpt>
      <trkpt lat="47.3713" lon="-2.31583">
        <ele>-3</ele>
        <time>2019-05-26T08:25:48.000Z</time>
      </trkpt>
      <trkpt lat="47.3713" lon="-2.31594">
        <ele>-3</ele>
        <time>2019-05-26T08:25:54.000Z</time>
      </trkpt>
      <trkpt lat="47.37131" lon="-2.31599">
        <ele>-3</ele>
        <time>2019-05-26T08:25:58.000Z</time>
      </trkpt>
      <trkpt lat="47.37131" lon="-2.31608">
        <ele>-3</ele>
        <time>2019-05-26T08:26:01.000Z</time>
      </trkpt>
      <trkpt lat="47.37132" lon="-2.31611">
        <ele>-3</ele>
        <time>2019-05-26T08:26:03.000Z</time>
      </trkpt>
      <trkpt lat="47.37134" lon="-2.31619">
        <ele>-3</ele>
        <time>2019-05-26T08:26:06.000Z</time>
      </trkpt>
      <trkpt lat="47.37135" lon="-2.31622">
        <ele>-3</ele>
        <time>2019-05-26T08:26:07.000Z</time>
      </trkpt>
      <trkpt lat="47.37139" lon="-2.31641">
        <ele>-3</ele>
        <time>2019-05-26T08:26:13.000Z</time>
      </trkpt>
      <trkpt lat="47.37144" lon="-2.31656">
        <ele>-3</ele>
        <time>2019-05-26T08:26:18.000Z</time>
      </trkpt>
      <trkpt lat="47.3715" lon="-2.31681">
        <ele>-3</ele>
        <time>2019-05-26T08:26:25.000Z</time>
      </trkpt>
      <trkpt lat="47.37153" lon="-2.31703">
        <ele>-3</ele>
        <time>2019-05-26T08:26:31.000Z</time>
      </trkpt>
      <trkpt lat="47.37159" lon="-2.31725">
        <ele>-3</ele>
        <time>2019-05-26T08:26:37.000Z</time>
      </trkpt>
      <trkpt lat="47.37164" lon="-2.31746">
        <ele>-3</ele>
        <time>2019-05-26T08:26:42.000Z</time>
      </trkpt>
      <trkpt lat="47.3717" lon="-2.31767">
        <ele>-3</ele>
        <time>2019-05-26T08:26:48.000Z</time>
      </trkpt>
      <trkpt lat="47.37168" lon="-2.31782">
        <ele>-3</ele>
        <time>2019-05-26T08:26:52.000Z</time>
      </trkpt>
      <trkpt lat="47.37166" lon="-2.31798">
        <ele>-3</ele>
        <time>2019-05-26T08:26:56.000Z</time>
      </trkpt>
      <trkpt lat="47.37161" lon="-2.31813">
        <ele>-3</ele>
        <time>2019-05-26T08:27:01.000Z</time>
      </trkpt>
      <trkpt lat="47.37156" lon="-2.3182">
        <ele>-3</ele>
        <time>2019-05-26T08:27:05.000Z</time>
      </trkpt>
      <trkpt lat="47.37154" lon="-2.31821">
        <ele>-3</ele>
        <time>2019-05-26T08:27:07.000Z</time>
      </trkpt>
      <trkpt lat="47.37154" lon="-2.31821">
        <ele>-3</ele>
        <time>2019-05-26T08:27:08.000Z</time>
      </trkpt>
      <trkpt lat="47.37152" lon="-2.3183">
        <ele>-3</ele>
        <time>2019-05-26T08:28:26.000Z</time>
      </trkpt>
      <trkpt lat="47.37153" lon="-2.31836">
        <ele>-3</ele>
        <time>2019-05-26T08:28:28.000Z</time>
      </trkpt>
      <trkpt lat="47.37153" lon="-2.31845">
        <ele>-3</ele>
        <time>2019-05-26T08:28:31.000Z</time>
      </trkpt>
      <trkpt lat="47.37152" lon="-2.31855">
        <ele>-3</ele>
        <time>2019-05-26T08:28:33.000Z</time>
      </trkpt>
      <trkpt lat="47.37152" lon="-2.31866">
        <ele>-2.5999999046326</ele>
        <time>2019-05-26T08:28:35.000Z</time>
      </trkpt>
      <trkpt lat="47.37151" lon="-2.31871">
        <ele>-2.2000000476837</ele>
        <time>2019-05-26T08:28:36.000Z</time>
      </trkpt>
      <trkpt lat="47.37151" lon="-2.31875">
        <ele>-1.7999999523163</ele>
        <time>2019-05-26T08:28:37.000Z</time>
      </trkpt>
      <trkpt lat="47.3715" lon="-2.31879">
        <ele>-1.3999999761581</ele>
        <time>2019-05-26T08:28:38.000Z</time>
      </trkpt>
      <trkpt lat="47.3715" lon="-2.31882">
        <ele>-1</ele>
        <time>2019-05-26T08:28:39.000Z</time>
      </trkpt>
      <trkpt lat="47.3715" lon="-2.31885">
        <ele>-1</ele>
        <time>2019-05-26T08:28:40.000Z</time>
      </trkpt>
      <trkpt lat="47.37147" lon="-2.31913">
        <ele>-1</ele>
        <time>2019-05-26T08:28:45.000Z</time>
      </trkpt>
      <trkpt lat="47.37144" lon="-2.3195">
        <ele>-1</ele>
        <time>2019-05-26T08:28:50.000Z</time>
      </trkpt>
      <trkpt lat="47.37143" lon="-2.31996">
        <ele>-1</ele>
        <time>2019-05-26T08:28:56.000Z</time>
      </trkpt>
      <trkpt lat="47.37144" lon="-2.32051">
        <ele>-1</ele>
        <time>2019-05-26T08:29:03.000Z</time>
      </trkpt>
      <trkpt lat="47.37146" lon="-2.32109">
        <ele>-1</ele>
        <time>2019-05-26T08:29:11.000Z</time>
      </trkpt>
      <trkpt lat="47.37145" lon="-2.32155">
        <ele>-1</ele>
        <time>2019-05-26T08:29:17.000Z</time>
      </trkpt>
      <trkpt lat="47.37144" lon="-2.32194">
        <ele>-1</ele>
        <time>2019-05-26T08:29:22.000Z</time>
      </trkpt>
      <trkpt lat="47.37141" lon="-2.32235">
        <ele>-1</ele>
        <time>2019-05-26T08:29:27.000Z</time>
      </trkpt>
      <trkpt lat="47.37141" lon="-2.32252">
        <ele>-1</ele>
        <time>2019-05-26T08:29:29.000Z</time>
      </trkpt>
      <trkpt lat="47.37142" lon="-2.32284">
        <ele>-1</ele>
        <time>2019-05-26T08:29:33.000Z</time>
      </trkpt>
      <trkpt lat="47.37143" lon="-2.323">
        <ele>-1</ele>
        <time>2019-05-26T08:29:35.000Z</time>
      </trkpt>
      <trkpt lat="47.37143" lon="-2.32359">
        <ele>-1</ele>
        <time>2019-05-26T08:29:42.000Z</time>
      </trkpt>
      <trkpt lat="47.37146" lon="-2.32414">
        <ele>-1</ele>
        <time>2019-05-26T08:29:49.000Z</time>
      </trkpt>
      <trkpt lat="47.37149" lon="-2.32461">
        <ele>-1</ele>
        <time>2019-05-26T08:29:55.000Z</time>
      </trkpt>
      <trkpt lat="47.37153" lon="-2.325">
        <ele>-1</ele>
        <time>2019-05-26T08:30:01.000Z</time>
      </trkpt>
      <trkpt lat="47.37154" lon="-2.32508">
        <ele>-1</ele>
        <time>2019-05-26T08:30:02.000Z</time>
      </trkpt>
      <trkpt lat="47.3716" lon="-2.3255">
        <ele>-1</ele>
        <time>2019-05-26T08:30:07.000Z</time>
      </trkpt>
      <trkpt lat="47.37161" lon="-2.32567">
        <ele>-0.60000002384186</ele>
        <time>2019-05-26T08:30:09.000Z</time>
      </trkpt>
      <trkpt lat="47.37161" lon="-2.32574">
        <ele>-0.20000000298023</ele>
        <time>2019-05-26T08:30:10.000Z</time>
      </trkpt>
      <trkpt lat="47.37161" lon="-2.32581">
        <ele>0.20000000298023</ele>
        <time>2019-05-26T08:30:11.000Z</time>
      </trkpt>
      <trkpt lat="47.37161" lon="-2.32588">
        <ele>0.60000002384186</ele>
        <time>2019-05-26T08:30:12.000Z</time>
      </trkpt>
      <trkpt lat="47.37162" lon="-2.32595">
        <ele>1.2000000476837</ele>
        <time>2019-05-26T08:30:13.000Z</time>
      </trkpt>
      <trkpt lat="47.37162" lon="-2.32642">
        <ele>1.2000000476837</ele>
        <time>2019-05-26T08:30:19.000Z</time>
      </trkpt>
      <trkpt lat="47.37162" lon="-2.32692">
        <ele>1.2000000476837</ele>
        <time>2019-05-26T08:30:25.000Z</time>
      </trkpt>
      <trkpt lat="47.37163" lon="-2.32706">
        <ele>1.6000000238419</ele>
        <time>2019-05-26T08:30:27.000Z</time>
      </trkpt>
      <trkpt lat="47.37163" lon="-2.32714">
        <ele>2</ele>
        <time>2019-05-26T08:30:28.000Z</time>
      </trkpt>
      <trkpt lat="47.37162" lon="-2.32721">
        <ele>2.4000000953674</ele>
        <time>2019-05-26T08:30:29.000Z</time>
      </trkpt>
      <trkpt lat="47.37163" lon="-2.32728">
        <ele>2.7999999523163</ele>
        <time>2019-05-26T08:30:30.000Z</time>
      </trkpt>
      <trkpt lat="47.37163" lon="-2.32734">
        <ele>3.2000000476837</ele>
        <time>2019-05-26T08:30:31.000Z</time>
      </trkpt>
      <trkpt lat="47.37163" lon="-2.3274">
        <ele>3.2000000476837</ele>
        <time>2019-05-26T08:30:32.000Z</time>
      </trkpt>
      <trkpt lat="47.37165" lon="-2.32745">
        <ele>3.2000000476837</ele>
        <time>2019-05-26T08:30:33.000Z</time>
      </trkpt>
      <trkpt lat="47.37172" lon="-2.32747">
        <ele>3.2000000476837</ele>
        <time>2019-05-26T08:30:35.000Z</time>
      </trkpt>
      <trkpt lat="47.37179" lon="-2.32743">
        <ele>3.2000000476837</ele>
        <time>2019-05-26T08:30:37.000Z</time>
      </trkpt>
      <trkpt lat="47.37187" lon="-2.32739">
        <ele>3.2000000476837</ele>
        <time>2019-05-26T08:30:39.000Z</time>
      </trkpt>
      <trkpt lat="47.37222" lon="-2.3272">
        <ele>3.2000000476837</ele>
        <time>2019-05-26T08:30:47.000Z</time>
      </trkpt>
      <trkpt lat="47.37265" lon="-2.32691">
        <ele>3.2000000476837</ele>
        <time>2019-05-26T08:30:57.000Z</time>
      </trkpt>
      <trkpt lat="47.37287" lon="-2.32673">
        <ele>3.2000000476837</ele>
        <time>2019-05-26T08:31:03.000Z</time>
      </trkpt>
      <trkpt lat="47.37315" lon="-2.32646">
        <ele>3.5999999046326</ele>
        <time>2019-05-26T08:31:11.000Z</time>
      </trkpt>
      <trkpt lat="47.37319" lon="-2.32643">
        <ele>4</ele>
        <time>2019-05-26T08:31:12.000Z</time>
      </trkpt>
      <trkpt lat="47.37323" lon="-2.32639">
        <ele>4.4000000953674</ele>
        <time>2019-05-26T08:31:13.000Z</time>
      </trkpt>
      <trkpt lat="47.37327" lon="-2.32635">
        <ele>4.8000001907349</ele>
        <time>2019-05-26T08:31:14.000Z</time>
      </trkpt>
      <trkpt lat="47.37331" lon="-2.32631">
        <ele>5.1999998092651</ele>
        <time>2019-05-26T08:31:15.000Z</time>
      </trkpt>
      <trkpt lat="47.37342" lon="-2.32621">
        <ele>5.1999998092651</ele>
        <time>2019-05-26T08:31:18.000Z</time>
      </trkpt>
      <trkpt lat="47.37346" lon="-2.32618">
        <ele>5.1999998092651</ele>
        <time>2019-05-26T08:31:19.000Z</time>
      </trkpt>
      <trkpt lat="47.37361" lon="-2.32604">
        <ele>5.5999999046326</ele>
        <time>2019-05-26T08:31:23.000Z</time>
      </trkpt>
      <trkpt lat="47.37365" lon="-2.32601">
        <ele>6</ele>
        <time>2019-05-26T08:31:24.000Z</time>
      </trkpt>
      <trkpt lat="47.37369" lon="-2.32597">
        <ele>6.4000000953674</ele>
        <time>2019-05-26T08:31:25.000Z</time>
      </trkpt>
      <trkpt lat="47.37373" lon="-2.32593">
        <ele>6.8000001907349</ele>
        <time>2019-05-26T08:31:26.000Z</time>
      </trkpt>
      <trkpt lat="47.37377" lon="-2.3259">
        <ele>7.1999998092651</ele>
        <time>2019-05-26T08:31:27.000Z</time>
      </trkpt>
      <trkpt lat="47.37392" lon="-2.32576">
        <ele>7.1999998092651</ele>
        <time>2019-05-26T08:31:31.000Z</time>
      </trkpt>
      <trkpt lat="47.37422" lon="-2.32549">
        <ele>7.1999998092651</ele>
        <time>2019-05-26T08:31:38.000Z</time>
      </trkpt>
      <trkpt lat="47.3745" lon="-2.32525">
        <ele>7.1999998092651</ele>
        <time>2019-05-26T08:31:44.000Z</time>
      </trkpt>
      <trkpt lat="47.3748" lon="-2.32494">
        <ele>7.1999998092651</ele>
        <time>2019-05-26T08:31:50.000Z</time>
      </trkpt>
      <trkpt lat="47.3752" lon="-2.32444">
        <ele>7.1999998092651</ele>
        <time>2019-05-26T08:31:58.000Z</time>
      </trkpt>
      <trkpt lat="47.37562" lon="-2.3239">
        <ele>7.1999998092651</ele>
        <time>2019-05-26T08:32:06.000Z</time>
      </trkpt>
      <trkpt lat="47.37602" lon="-2.32342">
        <ele>7.1999998092651</ele>
        <time>2019-05-26T08:32:13.000Z</time>
      </trkpt>
      <trkpt lat="47.37628" lon="-2.32305">
        <ele>7.1999998092651</ele>
        <time>2019-05-26T08:32:18.000Z</time>
      </trkpt>
      <trkpt lat="47.37659" lon="-2.32263">
        <ele>7.1999998092651</ele>
        <time>2019-05-26T08:32:24.000Z</time>
      </trkpt>
      <trkpt lat="47.37682" lon="-2.32234">
        <ele>7.1999998092651</ele>
        <time>2019-05-26T08:32:29.000Z</time>
      </trkpt>
      <trkpt lat="47.377" lon="-2.32213">
        <ele>7.1999998092651</ele>
        <time>2019-05-26T08:32:33.000Z</time>
      </trkpt>
      <trkpt lat="47.37709" lon="-2.32205">
        <ele>7.1999998092651</ele>
        <time>2019-05-26T08:32:35.000Z</time>
      </trkpt>
      <trkpt lat="47.37734" lon="-2.3218">
        <ele>7.1999998092651</ele>
        <time>2019-05-26T08:32:41.000Z</time>
      </trkpt>
      <trkpt lat="47.37738" lon="-2.32174">
        <ele>7.1999998092651</ele>
        <time>2019-05-26T08:32:42.000Z</time>
      </trkpt>
      <trkpt lat="47.37747" lon="-2.32165">
        <ele>7.1999998092651</ele>
        <time>2019-05-26T08:32:45.000Z</time>
      </trkpt>
      <trkpt lat="47.37755" lon="-2.32156">
        <ele>7.1999998092651</ele>
        <time>2019-05-26T08:32:50.000Z</time>
      </trkpt>
      <trkpt lat="47.37756" lon="-2.32153">
        <ele>7.1999998092651</ele>
        <time>2019-05-26T08:32:54.000Z</time>
      </trkpt>
      <trkpt lat="47.37757" lon="-2.32153">
        <ele>7.1999998092651</ele>
        <time>2019-05-26T08:33:06.000Z</time>
      </trkpt>
      <trkpt lat="47.37767" lon="-2.32145">
        <ele>7.1999998092651</ele>
        <time>2019-05-26T08:33:11.000Z</time>
      </trkpt>
      <trkpt lat="47.3777" lon="-2.32142">
        <ele>7.1999998092651</ele>
        <time>2019-05-26T08:33:12.000Z</time>
      </trkpt>
      <trkpt lat="47.37792" lon="-2.32121">
        <ele>7.1999998092651</ele>
        <time>2019-05-26T08:33:18.000Z</time>
      </trkpt>
      <trkpt lat="47.37819" lon="-2.32095">
        <ele>7.1999998092651</ele>
        <time>2019-05-26T08:33:24.000Z</time>
      </trkpt>
      <trkpt lat="47.37823" lon="-2.32091">
        <ele>7.5999999046326</ele>
        <time>2019-05-26T08:33:25.000Z</time>
      </trkpt>
      <trkpt lat="47.37827" lon="-2.32086">
        <ele>8.3999996185303</ele>
        <time>2019-05-26T08:33:26.000Z</time>
      </trkpt>
      <trkpt lat="47.37832" lon="-2.32081">
        <ele>8.8000001907349</ele>
        <time>2019-05-26T08:33:27.000Z</time>
      </trkpt>
      <trkpt lat="47.37837" lon="-2.32076">
        <ele>9.1999998092651</ele>
        <time>2019-05-26T08:33:28.000Z</time>
      </trkpt>
      <trkpt lat="47.37846" lon="-2.32067">
        <ele>9.1999998092651</ele>
        <time>2019-05-26T08:33:30.000Z</time>
      </trkpt>
      <trkpt lat="47.37885" lon="-2.32028">
        <ele>9.6000003814697</ele>
        <time>2019-05-26T08:33:38.000Z</time>
      </trkpt>
      <trkpt lat="47.3789" lon="-2.32023">
        <ele>10.199999809265</ele>
        <time>2019-05-26T08:33:39.000Z</time>
      </trkpt>
      <trkpt lat="47.37894" lon="-2.32019">
        <ele>10.60000038147</ele>
        <time>2019-05-26T08:33:40.000Z</time>
      </trkpt>
      <trkpt lat="47.37898" lon="-2.32014">
        <ele>11</ele>
        <time>2019-05-26T08:33:41.000Z</time>
      </trkpt>
      <trkpt lat="47.37902" lon="-2.32009">
        <ele>11.39999961853</ele>
        <time>2019-05-26T08:33:42.000Z</time>
      </trkpt>
      <trkpt lat="47.37906" lon="-2.32003">
        <ele>11.39999961853</ele>
        <time>2019-05-26T08:33:43.000Z</time>
      </trkpt>
      <trkpt lat="47.37909" lon="-2.31999">
        <ele>11.39999961853</ele>
        <time>2019-05-26T08:33:44.000Z</time>
      </trkpt>
      <trkpt lat="47.37923" lon="-2.31981">
        <ele>11.39999961853</ele>
        <time>2019-05-26T08:33:48.000Z</time>
      </trkpt>
      <trkpt lat="47.3793" lon="-2.31974">
        <ele>11.39999961853</ele>
        <time>2019-05-26T08:33:50.000Z</time>
      </trkpt>
      <trkpt lat="47.37953" lon="-2.31945">
        <ele>11.39999961853</ele>
        <time>2019-05-26T08:33:57.000Z</time>
      </trkpt>
      <trkpt lat="47.37961" lon="-2.31935">
        <ele>11.800000190735</ele>
        <time>2019-05-26T08:33:59.000Z</time>
      </trkpt>
      <trkpt lat="47.37965" lon="-2.31931">
        <ele>12.199999809265</ele>
        <time>2019-05-26T08:34:00.000Z</time>
      </trkpt>
      <trkpt lat="47.3797" lon="-2.31926">
        <ele>12.60000038147</ele>
        <time>2019-05-26T08:34:01.000Z</time>
      </trkpt>
      <trkpt lat="47.37974" lon="-2.31921">
        <ele>13</ele>
        <time>2019-05-26T08:34:02.000Z</time>
      </trkpt>
      <trkpt lat="47.37979" lon="-2.31916">
        <ele>13.39999961853</ele>
        <time>2019-05-26T08:34:03.000Z</time>
      </trkpt>
      <trkpt lat="47.38002" lon="-2.31888">
        <ele>13.39999961853</ele>
        <time>2019-05-26T08:34:08.000Z</time>
      </trkpt>
      <trkpt lat="47.38034" lon="-2.31847">
        <ele>13.39999961853</ele>
        <time>2019-05-26T08:34:15.000Z</time>
      </trkpt>
      <trkpt lat="47.38062" lon="-2.31811">
        <ele>13.39999961853</ele>
        <time>2019-05-26T08:34:21.000Z</time>
      </trkpt>
      <trkpt lat="47.38095" lon="-2.31772">
        <ele>13.39999961853</ele>
        <time>2019-05-26T08:34:28.000Z</time>
      </trkpt>
      <trkpt lat="47.3813" lon="-2.31735">
        <ele>13.39999961853</ele>
        <time>2019-05-26T08:34:35.000Z</time>
      </trkpt>
      <trkpt lat="47.38175" lon="-2.31691">
        <ele>13.39999961853</ele>
        <time>2019-05-26T08:34:43.000Z</time>
      </trkpt>
      <trkpt lat="47.38202" lon="-2.31665">
        <ele>13</ele>
        <time>2019-05-26T08:34:48.000Z</time>
      </trkpt>
      <trkpt lat="47.38207" lon="-2.3166">
        <ele>12.60000038147</ele>
        <time>2019-05-26T08:34:49.000Z</time>
      </trkpt>
      <trkpt lat="47.38213" lon="-2.31655">
        <ele>12.199999809265</ele>
        <time>2019-05-26T08:34:50.000Z</time>
      </trkpt>
      <trkpt lat="47.38218" lon="-2.3165">
        <ele>11.60000038147</ele>
        <time>2019-05-26T08:34:51.000Z</time>
      </trkpt>
      <trkpt lat="47.38223" lon="-2.31645">
        <ele>11.199999809265</ele>
        <time>2019-05-26T08:34:52.000Z</time>
      </trkpt>
      <trkpt lat="47.38249" lon="-2.31619">
        <ele>11.199999809265</ele>
        <time>2019-05-26T08:34:57.000Z</time>
      </trkpt>
      <trkpt lat="47.38291" lon="-2.31582">
        <ele>11.199999809265</ele>
        <time>2019-05-26T08:35:04.000Z</time>
      </trkpt>
      <trkpt lat="47.38331" lon="-2.3155">
        <ele>11.199999809265</ele>
        <time>2019-05-26T08:35:11.000Z</time>
      </trkpt>
      <trkpt lat="47.38343" lon="-2.31542">
        <ele>10.800000190735</ele>
        <time>2019-05-26T08:35:13.000Z</time>
      </trkpt>
      <trkpt lat="47.38349" lon="-2.31538">
        <ele>10.39999961853</ele>
        <time>2019-05-26T08:35:14.000Z</time>
      </trkpt>
      <trkpt lat="47.38355" lon="-2.31534">
        <ele>10</ele>
        <time>2019-05-26T08:35:15.000Z</time>
      </trkpt>
      <trkpt lat="47.3836" lon="-2.31528">
        <ele>9.6000003814697</ele>
        <time>2019-05-26T08:35:16.000Z</time>
      </trkpt>
      <trkpt lat="47.38364" lon="-2.3152">
        <ele>9.1999998092651</ele>
        <time>2019-05-26T08:35:17.000Z</time>
      </trkpt>
      <trkpt lat="47.38372" lon="-2.31494">
        <ele>9.1999998092651</ele>
        <time>2019-05-26T08:35:20.000Z</time>
      </trkpt>
      <trkpt lat="47.38374" lon="-2.31486">
        <ele>9.1999998092651</ele>
        <time>2019-05-26T08:35:21.000Z</time>
      </trkpt>
      <trkpt lat="47.38376" lon="-2.31478">
        <ele>9.1999998092651</ele>
        <time>2019-05-26T08:35:22.000Z</time>
      </trkpt>
      <trkpt lat="47.38384" lon="-2.31442">
        <ele>9.1999998092651</ele>
        <time>2019-05-26T08:35:26.000Z</time>
      </trkpt>
      <trkpt lat="47.38385" lon="-2.31433">
        <ele>9.1999998092651</ele>
        <time>2019-05-26T08:35:27.000Z</time>
      </trkpt>
      <trkpt lat="47.38382" lon="-2.31405">
        <ele>9.1999998092651</ele>
        <time>2019-05-26T08:35:30.000Z</time>
      </trkpt>
      <trkpt lat="47.38381" lon="-2.31396">
        <ele>9.1999998092651</ele>
        <time>2019-05-26T08:35:31.000Z</time>
      </trkpt>
      <trkpt lat="47.38374" lon="-2.31358">
        <ele>9.1999998092651</ele>
        <time>2019-05-26T08:35:35.000Z</time>
      </trkpt>
      <trkpt lat="47.3836" lon="-2.31298">
        <ele>9.1999998092651</ele>
        <time>2019-05-26T08:35:42.000Z</time>
      </trkpt>
      <trkpt lat="47.38348" lon="-2.31234">
        <ele>9.1999998092651</ele>
        <time>2019-05-26T08:35:49.000Z</time>
      </trkpt>
      <trkpt lat="47.38343" lon="-2.3117">
        <ele>9.1999998092651</ele>
        <time>2019-05-26T08:35:56.000Z</time>
      </trkpt>
      <trkpt lat="47.38345" lon="-2.31151">
        <ele>9.1999998092651</ele>
        <time>2019-05-26T08:35:58.000Z</time>
      </trkpt>
      <trkpt lat="47.38349" lon="-2.31122">
        <ele>9.1999998092651</ele>
        <time>2019-05-26T08:36:01.000Z</time>
      </trkpt>
      <trkpt lat="47.38357" lon="-2.31076">
        <ele>9.1999998092651</ele>
        <time>2019-05-26T08:36:06.000Z</time>
      </trkpt>
      <trkpt lat="47.38364" lon="-2.31051">
        <ele>9.1999998092651</ele>
        <time>2019-05-26T08:36:09.000Z</time>
      </trkpt>
      <trkpt lat="47.3837" lon="-2.31033">
        <ele>9.1999998092651</ele>
        <time>2019-05-26T08:36:11.000Z</time>
      </trkpt>
      <trkpt lat="47.38389" lon="-2.30989">
        <ele>9.1999998092651</ele>
        <time>2019-05-26T08:36:17.000Z</time>
      </trkpt>
      <trkpt lat="47.3841" lon="-2.30945">
        <ele>9.1999998092651</ele>
        <time>2019-05-26T08:36:23.000Z</time>
      </trkpt>
      <trkpt lat="47.38434" lon="-2.30888">
        <ele>9.1999998092651</ele>
        <time>2019-05-26T08:36:30.000Z</time>
      </trkpt>
      <trkpt lat="47.38464" lon="-2.30823">
        <ele>9.1999998092651</ele>
        <time>2019-05-26T08:36:38.000Z</time>
      </trkpt>
      <trkpt lat="47.38468" lon="-2.30816">
        <ele>9.1999998092651</ele>
        <time>2019-05-26T08:36:39.000Z</time>
      </trkpt>
      <trkpt lat="47.38487" lon="-2.30791">
        <ele>9.1999998092651</ele>
        <time>2019-05-26T08:36:43.000Z</time>
      </trkpt>
      <trkpt lat="47.38527" lon="-2.30756">
        <ele>9.1999998092651</ele>
        <time>2019-05-26T08:36:50.000Z</time>
      </trkpt>
      <trkpt lat="47.38571" lon="-2.3073">
        <ele>9.1999998092651</ele>
        <time>2019-05-26T08:36:57.000Z</time>
      </trkpt>
      <trkpt lat="47.38618" lon="-2.30701">
        <ele>9.1999998092651</ele>
        <time>2019-05-26T08:37:05.000Z</time>
      </trkpt>
      <trkpt lat="47.38646" lon="-2.3068">
        <ele>9.1999998092651</ele>
        <time>2019-05-26T08:37:10.000Z</time>
      </trkpt>
      <trkpt lat="47.38648" lon="-2.30672">
        <ele>9.1999998092651</ele>
        <time>2019-05-26T08:37:11.000Z</time>
      </trkpt>
      <trkpt lat="47.38648" lon="-2.30644">
        <ele>9.1999998092651</ele>
        <time>2019-05-26T08:37:14.000Z</time>
      </trkpt>
      <trkpt lat="47.38647" lon="-2.30635">
        <ele>8.8000001907349</ele>
        <time>2019-05-26T08:37:15.000Z</time>
      </trkpt>
      <trkpt lat="47.38646" lon="-2.30627">
        <ele>8.3999996185303</ele>
        <time>2019-05-26T08:37:16.000Z</time>
      </trkpt>
      <trkpt lat="47.38644" lon="-2.30617">
        <ele>8</ele>
        <time>2019-05-26T08:37:17.000Z</time>
      </trkpt>
      <trkpt lat="47.38643" lon="-2.30607">
        <ele>7.5999999046326</ele>
        <time>2019-05-26T08:37:18.000Z</time>
      </trkpt>
      <trkpt lat="47.38642" lon="-2.30597">
        <ele>7.1999998092651</ele>
        <time>2019-05-26T08:37:19.000Z</time>
      </trkpt>
      <trkpt lat="47.38634" lon="-2.30549">
        <ele>7.1999998092651</ele>
        <time>2019-05-26T08:37:24.000Z</time>
      </trkpt>
      <trkpt lat="47.38623" lon="-2.30464">
        <ele>7.1999998092651</ele>
        <time>2019-05-26T08:37:33.000Z</time>
      </trkpt>
      <trkpt lat="47.38614" lon="-2.30399">
        <ele>7.1999998092651</ele>
        <time>2019-05-26T08:37:40.000Z</time>
      </trkpt>
      <trkpt lat="47.38604" lon="-2.30323">
        <ele>7.1999998092651</ele>
        <time>2019-05-26T08:37:48.000Z</time>
      </trkpt>
      <trkpt lat="47.38593" lon="-2.30247">
        <ele>7.1999998092651</ele>
        <time>2019-05-26T08:37:56.000Z</time>
      </trkpt>
      <trkpt lat="47.38591" lon="-2.3023">
        <ele>6.8000001907349</ele>
        <time>2019-05-26T08:37:58.000Z</time>
      </trkpt>
      <trkpt lat="47.38589" lon="-2.30221">
        <ele>6.4000000953674</ele>
        <time>2019-05-26T08:37:59.000Z</time>
      </trkpt>
      <trkpt lat="47.38588" lon="-2.30212">
        <ele>6</ele>
        <time>2019-05-26T08:38:00.000Z</time>
      </trkpt>
      <trkpt lat="47.38587" lon="-2.30203">
        <ele>5.5999999046326</ele>
        <time>2019-05-26T08:38:01.000Z</time>
      </trkpt>
      <trkpt lat="47.38585" lon="-2.30195">
        <ele>5.1999998092651</ele>
        <time>2019-05-26T08:38:02.000Z</time>
      </trkpt>
      <trkpt lat="47.38576" lon="-2.30133">
        <ele>5.1999998092651</ele>
        <time>2019-05-26T08:38:10.000Z</time>
      </trkpt>
      <trkpt lat="47.38576" lon="-2.30126">
        <ele>5.1999998092651</ele>
        <time>2019-05-26T08:38:11.000Z</time>
      </trkpt>
      <trkpt lat="47.38572" lon="-2.30104">
        <ele>5.1999998092651</ele>
        <time>2019-05-26T08:38:14.000Z</time>
      </trkpt>
      <trkpt lat="47.38571" lon="-2.30097">
        <ele>5.1999998092651</ele>
        <time>2019-05-26T08:38:15.000Z</time>
      </trkpt>
      <trkpt lat="47.38567" lon="-2.3006">
        <ele>5.1999998092651</ele>
        <time>2019-05-26T08:38:20.000Z</time>
      </trkpt>
      <trkpt lat="47.38561" lon="-2.30016">
        <ele>5.1999998092651</ele>
        <time>2019-05-26T08:38:26.000Z</time>
      </trkpt>
      <trkpt lat="47.38561" lon="-2.29995">
        <ele>5.1999998092651</ele>
        <time>2019-05-26T08:38:29.000Z</time>
      </trkpt>
      <trkpt lat="47.38564" lon="-2.29989">
        <ele>5.1999998092651</ele>
        <time>2019-05-26T08:38:30.000Z</time>
      </trkpt>
      <trkpt lat="47.38578" lon="-2.29981">
        <ele>5.1999998092651</ele>
        <time>2019-05-26T08:38:33.000Z</time>
      </trkpt>
      <trkpt lat="47.38586" lon="-2.29979">
        <ele>5.1999998092651</ele>
        <time>2019-05-26T08:38:35.000Z</time>
      </trkpt>
      <trkpt lat="47.38591" lon="-2.29977">
        <ele>5.1999998092651</ele>
        <time>2019-05-26T08:38:36.000Z</time>
      </trkpt>
      <trkpt lat="47.38596" lon="-2.29976">
        <ele>4.8000001907349</ele>
        <time>2019-05-26T08:38:37.000Z</time>
      </trkpt>
      <trkpt lat="47.386" lon="-2.29974">
        <ele>4.4000000953674</ele>
        <time>2019-05-26T08:38:38.000Z</time>
      </trkpt>
      <trkpt lat="47.38605" lon="-2.29973">
        <ele>4</ele>
        <time>2019-05-26T08:38:39.000Z</time>
      </trkpt>
      <trkpt lat="47.38609" lon="-2.29972">
        <ele>3.5999999046326</ele>
        <time>2019-05-26T08:38:40.000Z</time>
      </trkpt>
      <trkpt lat="47.38614" lon="-2.2997">
        <ele>3.2000000476837</ele>
        <time>2019-05-26T08:38:41.000Z</time>
      </trkpt>
      <trkpt lat="47.38633" lon="-2.29964">
        <ele>3.2000000476837</ele>
        <time>2019-05-26T08:38:45.000Z</time>
      </trkpt>
      <trkpt lat="47.38662" lon="-2.29953">
        <ele>3.2000000476837</ele>
        <time>2019-05-26T08:38:51.000Z</time>
      </trkpt>
      <trkpt lat="47.38703" lon="-2.29942">
        <ele>3.2000000476837</ele>
        <time>2019-05-26T08:38:59.000Z</time>
      </trkpt>
      <trkpt lat="47.38728" lon="-2.29934">
        <ele>3.2000000476837</ele>
        <time>2019-05-26T08:39:04.000Z</time>
      </trkpt>
      <trkpt lat="47.38759" lon="-2.29925">
        <ele>3.2000000476837</ele>
        <time>2019-05-26T08:39:10.000Z</time>
      </trkpt>
      <trkpt lat="47.38779" lon="-2.29918">
        <ele>3.2000000476837</ele>
        <time>2019-05-26T08:39:15.000Z</time>
      </trkpt>
      <trkpt lat="47.38807" lon="-2.2991">
        <ele>3.2000000476837</ele>
        <time>2019-05-26T08:39:21.000Z</time>
      </trkpt>
      <trkpt lat="47.38822" lon="-2.29905">
        <ele>3.2000000476837</ele>
        <time>2019-05-26T08:39:24.000Z</time>
      </trkpt>
      <trkpt lat="47.38832" lon="-2.299">
        <ele>3.2000000476837</ele>
        <time>2019-05-26T08:39:26.000Z</time>
      </trkpt>
      <trkpt lat="47.38864" lon="-2.2989">
        <ele>3.2000000476837</ele>
        <time>2019-05-26T08:39:32.000Z</time>
      </trkpt>
      <trkpt lat="47.38901" lon="-2.29879">
        <ele>3.2000000476837</ele>
        <time>2019-05-26T08:39:39.000Z</time>
      </trkpt>
      <trkpt lat="47.38948" lon="-2.29867">
        <ele>3.2000000476837</ele>
        <time>2019-05-26T08:39:47.000Z</time>
      </trkpt>
      <trkpt lat="47.38964" lon="-2.29862">
        <ele>3.2000000476837</ele>
        <time>2019-05-26T08:39:50.000Z</time>
      </trkpt>
      <trkpt lat="47.38973" lon="-2.29859">
        <ele>3.2000000476837</ele>
        <time>2019-05-26T08:39:52.000Z</time>
      </trkpt>
      <trkpt lat="47.38999" lon="-2.29848">
        <ele>3.2000000476837</ele>
        <time>2019-05-26T08:39:59.000Z</time>
      </trkpt>
      <trkpt lat="47.39003" lon="-2.29846">
        <ele>2.2000000476837</ele>
        <time>2019-05-26T08:40:02.000Z</time>
      </trkpt>
      <trkpt lat="47.39004" lon="-2.29845">
        <ele>1.7999999523163</ele>
        <time>2019-05-26T08:40:03.000Z</time>
      </trkpt>
      <trkpt lat="47.39006" lon="-2.29846">
        <ele>1.3999999761581</ele>
        <time>2019-05-26T08:40:04.000Z</time>
      </trkpt>
      <trkpt lat="47.39007" lon="-2.29847">
        <ele>1</ele>
        <time>2019-05-26T08:40:05.000Z</time>
      </trkpt>
      <trkpt lat="47.39009" lon="-2.29857">
        <ele>1</ele>
        <time>2019-05-26T08:40:08.000Z</time>
      </trkpt>
      <trkpt lat="47.39013" lon="-2.29877">
        <ele>1</ele>
        <time>2019-05-26T08:40:13.000Z</time>
      </trkpt>
      <trkpt lat="47.39022" lon="-2.2992">
        <ele>1</ele>
        <time>2019-05-26T08:40:20.000Z</time>
      </trkpt>
      <trkpt lat="47.39033" lon="-2.29968">
        <ele>1</ele>
        <time>2019-05-26T08:40:27.000Z</time>
      </trkpt>
      <trkpt lat="47.39043" lon="-2.30007">
        <ele>1</ele>
        <time>2019-05-26T08:40:32.000Z</time>
      </trkpt>
      <trkpt lat="47.39053" lon="-2.30052">
        <ele>1</ele>
        <time>2019-05-26T08:40:38.000Z</time>
      </trkpt>
      <trkpt lat="47.39062" lon="-2.30097">
        <ele>1</ele>
        <time>2019-05-26T08:40:44.000Z</time>
      </trkpt>
      <trkpt lat="47.39075" lon="-2.30159">
        <ele>1</ele>
        <time>2019-05-26T08:40:52.000Z</time>
      </trkpt>
      <trkpt lat="47.39084" lon="-2.30211">
        <ele>1</ele>
        <time>2019-05-26T08:40:59.000Z</time>
      </trkpt>
      <trkpt lat="47.3909" lon="-2.30242">
        <ele>1</ele>
        <time>2019-05-26T08:41:03.000Z</time>
      </trkpt>
      <trkpt lat="47.39094" lon="-2.30257">
        <ele>1</ele>
        <time>2019-05-26T08:41:05.000Z</time>
      </trkpt>
      <trkpt lat="47.39105" lon="-2.3031">
        <ele>1</ele>
        <time>2019-05-26T08:41:12.000Z</time>
      </trkpt>
      <trkpt lat="47.39117" lon="-2.30348">
        <ele>1</ele>
        <time>2019-05-26T08:41:17.000Z</time>
      </trkpt>
      <trkpt lat="47.39131" lon="-2.3039">
        <ele>1</ele>
        <time>2019-05-26T08:41:22.000Z</time>
      </trkpt>
      <trkpt lat="47.3915" lon="-2.3044">
        <ele>1</ele>
        <time>2019-05-26T08:41:29.000Z</time>
      </trkpt>
      <trkpt lat="47.3917" lon="-2.30496">
        <ele>1</ele>
        <time>2019-05-26T08:41:37.000Z</time>
      </trkpt>
      <trkpt lat="47.39171" lon="-2.30504">
        <ele>1</ele>
        <time>2019-05-26T08:41:38.000Z</time>
      </trkpt>
      <trkpt lat="47.39179" lon="-2.30542">
        <ele>1</ele>
        <time>2019-05-26T08:41:43.000Z</time>
      </trkpt>
      <trkpt lat="47.39187" lon="-2.306">
        <ele>1</ele>
        <time>2019-05-26T08:41:50.000Z</time>
      </trkpt>
      <trkpt lat="47.39193" lon="-2.30657">
        <ele>1</ele>
        <time>2019-05-26T08:41:57.000Z</time>
      </trkpt>
      <trkpt lat="47.39196" lon="-2.3069">
        <ele>1</ele>
        <time>2019-05-26T08:42:01.000Z</time>
      </trkpt>
      <trkpt lat="47.39199" lon="-2.30704">
        <ele>1</ele>
        <time>2019-05-26T08:42:03.000Z</time>
      </trkpt>
      <trkpt lat="47.39207" lon="-2.30721">
        <ele>1</ele>
        <time>2019-05-26T08:42:06.000Z</time>
      </trkpt>
      <trkpt lat="47.3921" lon="-2.30725">
        <ele>1</ele>
        <time>2019-05-26T08:42:07.000Z</time>
      </trkpt>
      <trkpt lat="47.39211" lon="-2.30731">
        <ele>1</ele>
        <time>2019-05-26T08:42:09.000Z</time>
      </trkpt>
      <trkpt lat="47.3921" lon="-2.30734">
        <ele>1</ele>
        <time>2019-05-26T08:42:10.000Z</time>
      </trkpt>
      <trkpt lat="47.39219" lon="-2.30741">
        <ele>1</ele>
        <time>2019-05-26T08:42:13.000Z</time>
      </trkpt>
      <trkpt lat="47.39237" lon="-2.3075">
        <ele>1</ele>
        <time>2019-05-26T08:42:17.000Z</time>
      </trkpt>
      <trkpt lat="47.39246" lon="-2.30771">
        <ele>1</ele>
        <time>2019-05-26T08:42:20.000Z</time>
      </trkpt>
      <trkpt lat="47.39244" lon="-2.30796">
        <ele>1</ele>
        <time>2019-05-26T08:42:23.000Z</time>
      </trkpt>
      <trkpt lat="47.3923" lon="-2.3081">
        <ele>1</ele>
        <time>2019-05-26T08:42:26.000Z</time>
      </trkpt>
      <trkpt lat="47.39213" lon="-2.30808">
        <ele>1</ele>
        <time>2019-05-26T08:42:29.000Z</time>
      </trkpt>
      <trkpt lat="47.39189" lon="-2.3081">
        <ele>1</ele>
        <time>2019-05-26T08:42:33.000Z</time>
      </trkpt>
      <trkpt lat="47.39178" lon="-2.3083">
        <ele>1</ele>
        <time>2019-05-26T08:42:36.000Z</time>
      </trkpt>
      <trkpt lat="47.39175" lon="-2.30837">
        <ele>1</ele>
        <time>2019-05-26T08:42:37.000Z</time>
      </trkpt>
      <trkpt lat="47.39151" lon="-2.30877">
        <ele>1</ele>
        <time>2019-05-26T08:42:43.000Z</time>
      </trkpt>
      <trkpt lat="47.39126" lon="-2.30917">
        <ele>1</ele>
        <time>2019-05-26T08:42:50.000Z</time>
      </trkpt>
      <trkpt lat="47.39114" lon="-2.30934">
        <ele>1.3999999761581</ele>
        <time>2019-05-26T08:42:53.000Z</time>
      </trkpt>
      <trkpt lat="47.3911" lon="-2.30939">
        <ele>2.2000000476837</ele>
        <time>2019-05-26T08:42:54.000Z</time>
      </trkpt>
      <trkpt lat="47.39105" lon="-2.30945">
        <ele>2.7999999523163</ele>
        <time>2019-05-26T08:42:55.000Z</time>
      </trkpt>
      <trkpt lat="47.39101" lon="-2.3095">
        <ele>3.2000000476837</ele>
        <time>2019-05-26T08:42:56.000Z</time>
      </trkpt>
      <trkpt lat="47.39087" lon="-2.30967">
        <ele>3.2000000476837</ele>
        <time>2019-05-26T08:42:59.000Z</time>
      </trkpt>
      <trkpt lat="47.39057" lon="-2.30998">
        <ele>3.2000000476837</ele>
        <time>2019-05-26T08:43:05.000Z</time>
      </trkpt>
      <trkpt lat="47.39012" lon="-2.31045">
        <ele>3.2000000476837</ele>
        <time>2019-05-26T08:43:14.000Z</time>
      </trkpt>
      <trkpt lat="47.38982" lon="-2.31074">
        <ele>3.2000000476837</ele>
        <time>2019-05-26T08:43:20.000Z</time>
      </trkpt>
      <trkpt lat="47.38966" lon="-2.31092">
        <ele>3.5999999046326</ele>
        <time>2019-05-26T08:43:23.000Z</time>
      </trkpt>
      <trkpt lat="47.3896" lon="-2.31098">
        <ele>4</ele>
        <time>2019-05-26T08:43:24.000Z</time>
      </trkpt>
      <trkpt lat="47.38954" lon="-2.31104">
        <ele>4.4000000953674</ele>
        <time>2019-05-26T08:43:25.000Z</time>
      </trkpt>
      <trkpt lat="47.38948" lon="-2.3111">
        <ele>4.8000001907349</ele>
        <time>2019-05-26T08:43:26.000Z</time>
      </trkpt>
      <trkpt lat="47.38942" lon="-2.31116">
        <ele>5.1999998092651</ele>
        <time>2019-05-26T08:43:27.000Z</time>
      </trkpt>
      <trkpt lat="47.38902" lon="-2.31158">
        <ele>5.1999998092651</ele>
        <time>2019-05-26T08:43:34.000Z</time>
      </trkpt>
      <trkpt lat="47.38856" lon="-2.312">
        <ele>5.1999998092651</ele>
        <time>2019-05-26T08:43:42.000Z</time>
      </trkpt>
      <trkpt lat="47.3882" lon="-2.31228">
        <ele>5.1999998092651</ele>
        <time>2019-05-26T08:43:48.000Z</time>
      </trkpt>
      <trkpt lat="47.38783" lon="-2.31254">
        <ele>5.1999998092651</ele>
        <time>2019-05-26T08:43:54.000Z</time>
      </trkpt>
      <trkpt lat="47.38759" lon="-2.3127">
        <ele>5.1999998092651</ele>
        <time>2019-05-26T08:43:59.000Z</time>
      </trkpt>
      <trkpt lat="47.38751" lon="-2.31278">
        <ele>5.1999998092651</ele>
        <time>2019-05-26T08:44:01.000Z</time>
      </trkpt>
      <trkpt lat="47.38748" lon="-2.31288">
        <ele>5.1999998092651</ele>
        <time>2019-05-26T08:44:03.000Z</time>
      </trkpt>
      <trkpt lat="47.38751" lon="-2.31306">
        <ele>5.1999998092651</ele>
        <time>2019-05-26T08:44:06.000Z</time>
      </trkpt>
      <trkpt lat="47.38755" lon="-2.31317">
        <ele>5.1999998092651</ele>
        <time>2019-05-26T08:44:08.000Z</time>
      </trkpt>
      <trkpt lat="47.38762" lon="-2.31338">
        <ele>5.1999998092651</ele>
        <time>2019-05-26T08:44:11.000Z</time>
      </trkpt>
      <trkpt lat="47.38781" lon="-2.31385">
        <ele>5.1999998092651</ele>
        <time>2019-05-26T08:44:17.000Z</time>
      </trkpt>
      <trkpt lat="47.38801" lon="-2.31444">
        <ele>5.1999998092651</ele>
        <time>2019-05-26T08:44:24.000Z</time>
      </trkpt>
      <trkpt lat="47.38818" lon="-2.3149">
        <ele>5.1999998092651</ele>
        <time>2019-05-26T08:44:30.000Z</time>
      </trkpt>
      <trkpt lat="47.38838" lon="-2.31541">
        <ele>5.1999998092651</ele>
        <time>2019-05-26T08:44:37.000Z</time>
      </trkpt>
      <trkpt lat="47.3884" lon="-2.31549">
        <ele>5.1999998092651</ele>
        <time>2019-05-26T08:44:38.000Z</time>
      </trkpt>
      <trkpt lat="47.38865" lon="-2.3161">
        <ele>5.1999998092651</ele>
        <time>2019-05-26T08:44:46.000Z</time>
      </trkpt>
      <trkpt lat="47.38875" lon="-2.31639">
        <ele>5.5999999046326</ele>
        <time>2019-05-26T08:44:50.000Z</time>
      </trkpt>
      <trkpt lat="47.38878" lon="-2.31646">
        <ele>6</ele>
        <time>2019-05-26T08:44:51.000Z</time>
      </trkpt>
      <trkpt lat="47.3888" lon="-2.31653">
        <ele>6.4000000953674</ele>
        <time>2019-05-26T08:44:52.000Z</time>
      </trkpt>
      <trkpt lat="47.38882" lon="-2.3166">
        <ele>6.8000001907349</ele>
        <time>2019-05-26T08:44:53.000Z</time>
      </trkpt>
      <trkpt lat="47.38885" lon="-2.31667">
        <ele>7.1999998092651</ele>
        <time>2019-05-26T08:44:54.000Z</time>
      </trkpt>
      <trkpt lat="47.38903" lon="-2.31714">
        <ele>7.1999998092651</ele>
        <time>2019-05-26T08:45:01.000Z</time>
      </trkpt>
      <trkpt lat="47.38909" lon="-2.31726">
        <ele>7.1999998092651</ele>
        <time>2019-05-26T08:45:03.000Z</time>
      </trkpt>
      <trkpt lat="47.38912" lon="-2.31732">
        <ele>7.5999999046326</ele>
        <time>2019-05-26T08:45:04.000Z</time>
      </trkpt>
      <trkpt lat="47.38914" lon="-2.31739">
        <ele>8</ele>
        <time>2019-05-26T08:45:05.000Z</time>
      </trkpt>
      <trkpt lat="47.38917" lon="-2.31747">
        <ele>8.3999996185303</ele>
        <time>2019-05-26T08:45:06.000Z</time>
      </trkpt>
      <trkpt lat="47.3892" lon="-2.31753">
        <ele>8.8000001907349</ele>
        <time>2019-05-26T08:45:07.000Z</time>
      </trkpt>
      <trkpt lat="47.38922" lon="-2.3176">
        <ele>9.1999998092651</ele>
        <time>2019-05-26T08:45:08.000Z</time>
      </trkpt>
      <trkpt lat="47.38934" lon="-2.31795">
        <ele>9.1999998092651</ele>
        <time>2019-05-26T08:45:13.000Z</time>
      </trkpt>
      <trkpt lat="47.38948" lon="-2.31834">
        <ele>9.6000003814697</ele>
        <time>2019-05-26T08:45:19.000Z</time>
      </trkpt>
      <trkpt lat="47.3895" lon="-2.3184">
        <ele>10</ele>
        <time>2019-05-26T08:45:20.000Z</time>
      </trkpt>
      <trkpt lat="47.38952" lon="-2.31847">
        <ele>11</ele>
        <time>2019-05-26T08:45:21.000Z</time>
      </trkpt>
      <trkpt lat="47.38954" lon="-2.31853">
        <ele>11.39999961853</ele>
        <time>2019-05-26T08:45:22.000Z</time>
      </trkpt>
      <trkpt lat="47.38972" lon="-2.319">
        <ele>11.39999961853</ele>
        <time>2019-05-26T08:45:29.000Z</time>
      </trkpt>
      <trkpt lat="47.3899" lon="-2.3195">
        <ele>11.39999961853</ele>
        <time>2019-05-26T08:45:36.000Z</time>
      </trkpt>
      <trkpt lat="47.39008" lon="-2.31995">
        <ele>11.39999961853</ele>
        <time>2019-05-26T08:45:43.000Z</time>
      </trkpt>
      <trkpt lat="47.3902" lon="-2.32023">
        <ele>11.39999961853</ele>
        <time>2019-05-26T08:45:49.000Z</time>
      </trkpt>
      <trkpt lat="47.39019" lon="-2.32043">
        <ele>11.39999961853</ele>
        <time>2019-05-26T08:45:54.000Z</time>
      </trkpt>
      <trkpt lat="47.39011" lon="-2.32063">
        <ele>11.39999961853</ele>
        <time>2019-05-26T08:45:58.000Z</time>
      </trkpt>
      <trkpt lat="47.38998" lon="-2.32087">
        <ele>11</ele>
        <time>2019-05-26T08:46:02.000Z</time>
      </trkpt>
      <trkpt lat="47.38994" lon="-2.32093">
        <ele>10.60000038147</ele>
        <time>2019-05-26T08:46:03.000Z</time>
      </trkpt>
      <trkpt lat="47.3899" lon="-2.321">
        <ele>10.199999809265</ele>
        <time>2019-05-26T08:46:04.000Z</time>
      </trkpt>
      <trkpt lat="47.38986" lon="-2.32108">
        <ele>9.8000001907349</ele>
        <time>2019-05-26T08:46:05.000Z</time>
      </trkpt>
      <trkpt lat="47.38982" lon="-2.32115">
        <ele>9.3999996185303</ele>
        <time>2019-05-26T08:46:06.000Z</time>
      </trkpt>
      <trkpt lat="47.38973" lon="-2.32131">
        <ele>9.3999996185303</ele>
        <time>2019-05-26T08:46:08.000Z</time>
      </trkpt>
      <trkpt lat="47.38961" lon="-2.32157">
        <ele>8.8000001907349</ele>
        <time>2019-05-26T08:46:11.000Z</time>
      </trkpt>
      <trkpt lat="47.38956" lon="-2.32166">
        <ele>8.3999996185303</ele>
        <time>2019-05-26T08:46:12.000Z</time>
      </trkpt>
      <trkpt lat="47.38951" lon="-2.32175">
        <ele>8</ele>
        <time>2019-05-26T08:46:13.000Z</time>
      </trkpt>
      <trkpt lat="47.38945" lon="-2.32185">
        <ele>7.5999999046326</ele>
        <time>2019-05-26T08:46:14.000Z</time>
      </trkpt>
      <trkpt lat="47.3894" lon="-2.32195">
        <ele>7.1999998092651</ele>
        <time>2019-05-26T08:46:15.000Z</time>
      </trkpt>
      <trkpt lat="47.38923" lon="-2.32224">
        <ele>6.5999999046326</ele>
        <time>2019-05-26T08:46:18.000Z</time>
      </trkpt>
      <trkpt lat="47.38917" lon="-2.32234">
        <ele>6.1999998092651</ele>
        <time>2019-05-26T08:46:19.000Z</time>
      </trkpt>
      <trkpt lat="47.38911" lon="-2.32243">
        <ele>5.8000001907349</ele>
        <time>2019-05-26T08:46:20.000Z</time>
      </trkpt>
      <trkpt lat="47.38905" lon="-2.32253">
        <ele>5.4000000953674</ele>
        <time>2019-05-26T08:46:21.000Z</time>
      </trkpt>
      <trkpt lat="47.389" lon="-2.32263">
        <ele>5</ele>
        <time>2019-05-26T08:46:22.000Z</time>
      </trkpt>
      <trkpt lat="47.38862" lon="-2.32324">
        <ele>5</ele>
        <time>2019-05-26T08:46:29.000Z</time>
      </trkpt>
      <trkpt lat="47.38851" lon="-2.3234">
        <ele>4.5999999046326</ele>
        <time>2019-05-26T08:46:31.000Z</time>
      </trkpt>
      <trkpt lat="47.38846" lon="-2.32348">
        <ele>4.1999998092651</ele>
        <time>2019-05-26T08:46:32.000Z</time>
      </trkpt>
      <trkpt lat="47.38841" lon="-2.32356">
        <ele>3.7999999523163</ele>
        <time>2019-05-26T08:46:33.000Z</time>
      </trkpt>
      <trkpt lat="47.38835" lon="-2.32364">
        <ele>3.4000000953674</ele>
        <time>2019-05-26T08:46:34.000Z</time>
      </trkpt>
      <trkpt lat="47.3883" lon="-2.32371">
        <ele>3</ele>
        <time>2019-05-26T08:46:35.000Z</time>
      </trkpt>
      <trkpt lat="47.3882" lon="-2.32387">
        <ele>3</ele>
        <time>2019-05-26T08:46:37.000Z</time>
      </trkpt>
      <trkpt lat="47.3879" lon="-2.32433">
        <ele>3</ele>
        <time>2019-05-26T08:46:43.000Z</time>
      </trkpt>
      <trkpt lat="47.38767" lon="-2.32468">
        <ele>3</ele>
        <time>2019-05-26T08:46:48.000Z</time>
      </trkpt>
      <trkpt lat="47.38744" lon="-2.32505">
        <ele>3</ele>
        <time>2019-05-26T08:46:53.000Z</time>
      </trkpt>
      <trkpt lat="47.38742" lon="-2.32524">
        <ele>3</ele>
        <time>2019-05-26T08:46:55.000Z</time>
      </trkpt>
      <trkpt lat="47.38748" lon="-2.3255">
        <ele>3</ele>
        <time>2019-05-26T08:46:58.000Z</time>
      </trkpt>
      <trkpt lat="47.38751" lon="-2.32558">
        <ele>3</ele>
        <time>2019-05-26T08:46:59.000Z</time>
      </trkpt>
      <trkpt lat="47.38763" lon="-2.32594">
        <ele>3</ele>
        <time>2019-05-26T08:47:03.000Z</time>
      </trkpt>
      <trkpt lat="47.38784" lon="-2.32659">
        <ele>3</ele>
        <time>2019-05-26T08:47:10.000Z</time>
      </trkpt>
      <trkpt lat="47.38791" lon="-2.32687">
        <ele>3</ele>
        <time>2019-05-26T08:47:13.000Z</time>
      </trkpt>
      <trkpt lat="47.38792" lon="-2.32707">
        <ele>3</ele>
        <time>2019-05-26T08:47:15.000Z</time>
      </trkpt>
      <trkpt lat="47.38791" lon="-2.32726">
        <ele>3</ele>
        <time>2019-05-26T08:47:17.000Z</time>
      </trkpt>
      <trkpt lat="47.38788" lon="-2.32754">
        <ele>3</ele>
        <time>2019-05-26T08:47:20.000Z</time>
      </trkpt>
      <trkpt lat="47.38785" lon="-2.32787">
        <ele>3</ele>
        <time>2019-05-26T08:47:24.000Z</time>
      </trkpt>
      <trkpt lat="47.3878" lon="-2.32848">
        <ele>3</ele>
        <time>2019-05-26T08:47:31.000Z</time>
      </trkpt>
      <trkpt lat="47.38776" lon="-2.32882">
        <ele>3</ele>
        <time>2019-05-26T08:47:35.000Z</time>
      </trkpt>
      <trkpt lat="47.38776" lon="-2.32889">
        <ele>3</ele>
        <time>2019-05-26T08:47:36.000Z</time>
      </trkpt>
      <trkpt lat="47.38775" lon="-2.32897">
        <ele>3</ele>
        <time>2019-05-26T08:47:37.000Z</time>
      </trkpt>
      <trkpt lat="47.38773" lon="-2.32915">
        <ele>3</ele>
        <time>2019-05-26T08:47:39.000Z</time>
      </trkpt>
      <trkpt lat="47.38772" lon="-2.32924">
        <ele>3</ele>
        <time>2019-05-26T08:47:40.000Z</time>
      </trkpt>
      <trkpt lat="47.38766" lon="-2.32979">
        <ele>3</ele>
        <time>2019-05-26T08:47:46.000Z</time>
      </trkpt>
      <trkpt lat="47.38761" lon="-2.33036">
        <ele>3</ele>
        <time>2019-05-26T08:47:52.000Z</time>
      </trkpt>
      <trkpt lat="47.38752" lon="-2.33119">
        <ele>3</ele>
        <time>2019-05-26T08:48:01.000Z</time>
      </trkpt>
      <trkpt lat="47.38746" lon="-2.33188">
        <ele>3</ele>
        <time>2019-05-26T08:48:08.000Z</time>
      </trkpt>
      <trkpt lat="47.38739" lon="-2.33257">
        <ele>3</ele>
        <time>2019-05-26T08:48:15.000Z</time>
      </trkpt>
      <trkpt lat="47.38731" lon="-2.33325">
        <ele>3</ele>
        <time>2019-05-26T08:48:22.000Z</time>
      </trkpt>
      <trkpt lat="47.38722" lon="-2.33406">
        <ele>3</ele>
        <time>2019-05-26T08:48:30.000Z</time>
      </trkpt>
      <trkpt lat="47.38714" lon="-2.33467">
        <ele>3</ele>
        <time>2019-05-26T08:48:36.000Z</time>
      </trkpt>
      <trkpt lat="47.38709" lon="-2.33517">
        <ele>3</ele>
        <time>2019-05-26T08:48:41.000Z</time>
      </trkpt>
      <trkpt lat="47.38706" lon="-2.33545">
        <ele>3.4000000953674</ele>
        <time>2019-05-26T08:48:44.000Z</time>
      </trkpt>
      <trkpt lat="47.38705" lon="-2.33555">
        <ele>3.7999999523163</ele>
        <time>2019-05-26T08:48:45.000Z</time>
      </trkpt>
      <trkpt lat="47.38704" lon="-2.33564">
        <ele>4.1999998092651</ele>
        <time>2019-05-26T08:48:46.000Z</time>
      </trkpt>
      <trkpt lat="47.38703" lon="-2.33573">
        <ele>4.5999999046326</ele>
        <time>2019-05-26T08:48:47.000Z</time>
      </trkpt>
      <trkpt lat="47.38703" lon="-2.33583">
        <ele>5</ele>
        <time>2019-05-26T08:48:48.000Z</time>
      </trkpt>
      <trkpt lat="47.38696" lon="-2.33651">
        <ele>5</ele>
        <time>2019-05-26T08:48:55.000Z</time>
      </trkpt>
      <trkpt lat="47.3869" lon="-2.33716">
        <ele>5</ele>
        <time>2019-05-26T08:49:02.000Z</time>
      </trkpt>
      <trkpt lat="47.38685" lon="-2.33762">
        <ele>5</ele>
        <time>2019-05-26T08:49:07.000Z</time>
      </trkpt>
      <trkpt lat="47.38685" lon="-2.33771">
        <ele>5.4000000953674</ele>
        <time>2019-05-26T08:49:08.000Z</time>
      </trkpt>
      <trkpt lat="47.38684" lon="-2.33781">
        <ele>5.8000001907349</ele>
        <time>2019-05-26T08:49:09.000Z</time>
      </trkpt>
      <trkpt lat="47.38683" lon="-2.3379">
        <ele>6.1999998092651</ele>
        <time>2019-05-26T08:49:10.000Z</time>
      </trkpt>
      <trkpt lat="47.38682" lon="-2.338">
        <ele>6.5999999046326</ele>
        <time>2019-05-26T08:49:11.000Z</time>
      </trkpt>
      <trkpt lat="47.38681" lon="-2.3381">
        <ele>7</ele>
        <time>2019-05-26T08:49:12.000Z</time>
      </trkpt>
      <trkpt lat="47.38672" lon="-2.33855">
        <ele>7</ele>
        <time>2019-05-26T08:49:17.000Z</time>
      </trkpt>
      <trkpt lat="47.38669" lon="-2.33863">
        <ele>7</ele>
        <time>2019-05-26T08:49:18.000Z</time>
      </trkpt>
      <trkpt lat="47.38647" lon="-2.33921">
        <ele>7</ele>
        <time>2019-05-26T08:49:25.000Z</time>
      </trkpt>
      <trkpt lat="47.38635" lon="-2.33953">
        <ele>7.4000000953674</ele>
        <time>2019-05-26T08:49:29.000Z</time>
      </trkpt>
      <trkpt lat="47.38632" lon="-2.33961">
        <ele>7.8000001907349</ele>
        <time>2019-05-26T08:49:30.000Z</time>
      </trkpt>
      <trkpt lat="47.38629" lon="-2.33969">
        <ele>8.1999998092651</ele>
        <time>2019-05-26T08:49:31.000Z</time>
      </trkpt>
      <trkpt lat="47.38627" lon="-2.33976">
        <ele>8.6000003814697</ele>
        <time>2019-05-26T08:49:32.000Z</time>
      </trkpt>
      <trkpt lat="47.38624" lon="-2.33984">
        <ele>9</ele>
        <time>2019-05-26T08:49:33.000Z</time>
      </trkpt>
      <trkpt lat="47.38609" lon="-2.34024">
        <ele>9</ele>
        <time>2019-05-26T08:49:38.000Z</time>
      </trkpt>
      <trkpt lat="47.38599" lon="-2.34056">
        <ele>9.3999996185303</ele>
        <time>2019-05-26T08:49:42.000Z</time>
      </trkpt>
      <trkpt lat="47.38596" lon="-2.34065">
        <ele>10</ele>
        <time>2019-05-26T08:49:43.000Z</time>
      </trkpt>
      <trkpt lat="47.38593" lon="-2.34073">
        <ele>10.39999961853</ele>
        <time>2019-05-26T08:49:44.000Z</time>
      </trkpt>
      <trkpt lat="47.38591" lon="-2.34082">
        <ele>10.800000190735</ele>
        <time>2019-05-26T08:49:45.000Z</time>
      </trkpt>
      <trkpt lat="47.38589" lon="-2.3409">
        <ele>11.199999809265</ele>
        <time>2019-05-26T08:49:46.000Z</time>
      </trkpt>
      <trkpt lat="47.38582" lon="-2.34125">
        <ele>11.199999809265</ele>
        <time>2019-05-26T08:49:50.000Z</time>
      </trkpt>
      <trkpt lat="47.38572" lon="-2.34178">
        <ele>11.199999809265</ele>
        <time>2019-05-26T08:49:56.000Z</time>
      </trkpt>
      <trkpt lat="47.38566" lon="-2.34244">
        <ele>11.199999809265</ele>
        <time>2019-05-26T08:50:03.000Z</time>
      </trkpt>
      <trkpt lat="47.38565" lon="-2.34254">
        <ele>11.199999809265</ele>
        <time>2019-05-26T08:50:04.000Z</time>
      </trkpt>
      <trkpt lat="47.38566" lon="-2.34286">
        <ele>11.199999809265</ele>
        <time>2019-05-26T08:50:07.000Z</time>
      </trkpt>
      <trkpt lat="47.38568" lon="-2.34296">
        <ele>11.199999809265</ele>
        <time>2019-05-26T08:50:08.000Z</time>
      </trkpt>
      <trkpt lat="47.38573" lon="-2.34336">
        <ele>11.199999809265</ele>
        <time>2019-05-26T08:50:12.000Z</time>
      </trkpt>
      <trkpt lat="47.38574" lon="-2.34346">
        <ele>11.60000038147</ele>
        <time>2019-05-26T08:50:13.000Z</time>
      </trkpt>
      <trkpt lat="47.38575" lon="-2.34357">
        <ele>12</ele>
        <time>2019-05-26T08:50:14.000Z</time>
      </trkpt>
      <trkpt lat="47.38577" lon="-2.34367">
        <ele>12.39999961853</ele>
        <time>2019-05-26T08:50:15.000Z</time>
      </trkpt>
      <trkpt lat="47.38578" lon="-2.34378">
        <ele>12.800000190735</ele>
        <time>2019-05-26T08:50:16.000Z</time>
      </trkpt>
      <trkpt lat="47.3858" lon="-2.34388">
        <ele>13.199999809265</ele>
        <time>2019-05-26T08:50:17.000Z</time>
      </trkpt>
      <trkpt lat="47.38583" lon="-2.34408">
        <ele>13.199999809265</ele>
        <time>2019-05-26T08:50:19.000Z</time>
      </trkpt>
      <trkpt lat="47.38592" lon="-2.34471">
        <ele>13.199999809265</ele>
        <time>2019-05-26T08:50:25.000Z</time>
      </trkpt>
      <trkpt lat="47.38602" lon="-2.34532">
        <ele>13.199999809265</ele>
        <time>2019-05-26T08:50:31.000Z</time>
      </trkpt>
      <trkpt lat="47.38614" lon="-2.34618">
        <ele>13.199999809265</ele>
        <time>2019-05-26T08:50:40.000Z</time>
      </trkpt>
      <trkpt lat="47.38619" lon="-2.34656">
        <ele>13.199999809265</ele>
        <time>2019-05-26T08:50:45.000Z</time>
      </trkpt>
      <trkpt lat="47.38613" lon="-2.34669">
        <ele>13.199999809265</ele>
        <time>2019-05-26T08:50:48.000Z</time>
      </trkpt>
      <trkpt lat="47.38611" lon="-2.34673">
        <ele>13.199999809265</ele>
        <time>2019-05-26T08:50:49.000Z</time>
      </trkpt>
      <trkpt lat="47.38601" lon="-2.34686">
        <ele>13.199999809265</ele>
        <time>2019-05-26T08:50:52.000Z</time>
      </trkpt>
      <trkpt lat="47.38586" lon="-2.34687">
        <ele>13.199999809265</ele>
        <time>2019-05-26T08:50:55.000Z</time>
      </trkpt>
      <trkpt lat="47.38572" lon="-2.34683">
        <ele>13.199999809265</ele>
        <time>2019-05-26T08:50:58.000Z</time>
      </trkpt>
      <trkpt lat="47.38557" lon="-2.34679">
        <ele>13.199999809265</ele>
        <time>2019-05-26T08:51:01.000Z</time>
      </trkpt>
      <trkpt lat="47.3852" lon="-2.34669">
        <ele>13.199999809265</ele>
        <time>2019-05-26T08:51:07.000Z</time>
      </trkpt>
      <trkpt lat="47.38477" lon="-2.3466">
        <ele>13.199999809265</ele>
        <time>2019-05-26T08:51:14.000Z</time>
      </trkpt>
      <trkpt lat="47.38438" lon="-2.3465">
        <ele>13.199999809265</ele>
        <time>2019-05-26T08:51:21.000Z</time>
      </trkpt>
      <trkpt lat="47.38423" lon="-2.34646">
        <ele>13.199999809265</ele>
        <time>2019-05-26T08:51:24.000Z</time>
      </trkpt>
      <trkpt lat="47.38407" lon="-2.34644">
        <ele>13.199999809265</ele>
        <time>2019-05-26T08:51:27.000Z</time>
      </trkpt>
      <trkpt lat="47.38386" lon="-2.34641">
        <ele>13.199999809265</ele>
        <time>2019-05-26T08:51:31.000Z</time>
      </trkpt>
      <trkpt lat="47.38381" lon="-2.34642">
        <ele>13.199999809265</ele>
        <time>2019-05-26T08:51:32.000Z</time>
      </trkpt>
      <trkpt lat="47.38363" lon="-2.34646">
        <ele>12.800000190735</ele>
        <time>2019-05-26T08:51:35.000Z</time>
      </trkpt>
      <trkpt lat="47.38356" lon="-2.34648">
        <ele>12.39999961853</ele>
        <time>2019-05-26T08:51:36.000Z</time>
      </trkpt>
      <trkpt lat="47.3835" lon="-2.3465">
        <ele>12</ele>
        <time>2019-05-26T08:51:37.000Z</time>
      </trkpt>
      <trkpt lat="47.38343" lon="-2.34652">
        <ele>11.60000038147</ele>
        <time>2019-05-26T08:51:38.000Z</time>
      </trkpt>
      <trkpt lat="47.38337" lon="-2.34654">
        <ele>11.199999809265</ele>
        <time>2019-05-26T08:51:39.000Z</time>
      </trkpt>
      <trkpt lat="47.38322" lon="-2.34659">
        <ele>11.199999809265</ele>
        <time>2019-05-26T08:51:42.000Z</time>
      </trkpt>
      <trkpt lat="47.3832" lon="-2.34672">
        <ele>11.199999809265</ele>
        <time>2019-05-26T08:51:45.000Z</time>
      </trkpt>
      <trkpt lat="47.38321" lon="-2.34676">
        <ele>11.199999809265</ele>
        <time>2019-05-26T08:51:46.000Z</time>
      </trkpt>
      <trkpt lat="47.38323" lon="-2.34697">
        <ele>11.199999809265</ele>
        <time>2019-05-26T08:51:51.000Z</time>
      </trkpt>
      <trkpt lat="47.38325" lon="-2.34728">
        <ele>11.199999809265</ele>
        <time>2019-05-26T08:51:57.000Z</time>
      </trkpt>
      <trkpt lat="47.38327" lon="-2.34754">
        <ele>11.199999809265</ele>
        <time>2019-05-26T08:52:01.000Z</time>
      </trkpt>
      <trkpt lat="47.38328" lon="-2.34761">
        <ele>11.199999809265</ele>
        <time>2019-05-26T08:52:02.000Z</time>
      </trkpt>
      <trkpt lat="47.3833" lon="-2.34783">
        <ele>11.199999809265</ele>
        <time>2019-05-26T08:52:05.000Z</time>
      </trkpt>
      <trkpt lat="47.38332" lon="-2.34807">
        <ele>11.199999809265</ele>
        <time>2019-05-26T08:52:08.000Z</time>
      </trkpt>
      <trkpt lat="47.38337" lon="-2.3487">
        <ele>11.199999809265</ele>
        <time>2019-05-26T08:52:16.000Z</time>
      </trkpt>
      <trkpt lat="47.38338" lon="-2.34885">
        <ele>11.199999809265</ele>
        <time>2019-05-26T08:52:18.000Z</time>
      </trkpt>
      <trkpt lat="47.3834" lon="-2.34906">
        <ele>11.199999809265</ele>
        <time>2019-05-26T08:52:21.000Z</time>
      </trkpt>
      <trkpt lat="47.3834" lon="-2.34914">
        <ele>11.60000038147</ele>
        <time>2019-05-26T08:52:22.000Z</time>
      </trkpt>
      <trkpt lat="47.3834" lon="-2.34922">
        <ele>12</ele>
        <time>2019-05-26T08:52:23.000Z</time>
      </trkpt>
      <trkpt lat="47.38341" lon="-2.3493">
        <ele>12.39999961853</ele>
        <time>2019-05-26T08:52:24.000Z</time>
      </trkpt>
      <trkpt lat="47.38341" lon="-2.34938">
        <ele>12.800000190735</ele>
        <time>2019-05-26T08:52:25.000Z</time>
      </trkpt>
      <trkpt lat="47.38342" lon="-2.34946">
        <ele>13.199999809265</ele>
        <time>2019-05-26T08:52:26.000Z</time>
      </trkpt>
      <trkpt lat="47.38346" lon="-2.35011">
        <ele>13.199999809265</ele>
        <time>2019-05-26T08:52:34.000Z</time>
      </trkpt>
      <trkpt lat="47.3835" lon="-2.35069">
        <ele>13.199999809265</ele>
        <time>2019-05-26T08:52:41.000Z</time>
      </trkpt>
      <trkpt lat="47.38355" lon="-2.35138">
        <ele>13.199999809265</ele>
        <time>2019-05-26T08:52:49.000Z</time>
      </trkpt>
      <trkpt lat="47.38361" lon="-2.35218">
        <ele>13.199999809265</ele>
        <time>2019-05-26T08:52:58.000Z</time>
      </trkpt>
      <trkpt lat="47.38365" lon="-2.35269">
        <ele>13.199999809265</ele>
        <time>2019-05-26T08:53:04.000Z</time>
      </trkpt>
      <trkpt lat="47.38368" lon="-2.35324">
        <ele>13.199999809265</ele>
        <time>2019-05-26T08:53:10.000Z</time>
      </trkpt>
      <trkpt lat="47.38369" lon="-2.35332">
        <ele>12.800000190735</ele>
        <time>2019-05-26T08:53:11.000Z</time>
      </trkpt>
      <trkpt lat="47.38369" lon="-2.35341">
        <ele>12.39999961853</ele>
        <time>2019-05-26T08:53:12.000Z</time>
      </trkpt>
      <trkpt lat="47.3837" lon="-2.35349">
        <ele>12</ele>
        <time>2019-05-26T08:53:13.000Z</time>
      </trkpt>
      <trkpt lat="47.3837" lon="-2.35357">
        <ele>11.39999961853</ele>
        <time>2019-05-26T08:53:14.000Z</time>
      </trkpt>
      <trkpt lat="47.38371" lon="-2.35364">
        <ele>11</ele>
        <time>2019-05-26T08:53:15.000Z</time>
      </trkpt>
      <trkpt lat="47.38373" lon="-2.35368">
        <ele>11</ele>
        <time>2019-05-26T08:53:16.000Z</time>
      </trkpt>
      <trkpt lat="47.38382" lon="-2.35374">
        <ele>11</ele>
        <time>2019-05-26T08:53:20.000Z</time>
      </trkpt>
      <trkpt lat="47.38387" lon="-2.35373">
        <ele>11</ele>
        <time>2019-05-26T08:53:22.000Z</time>
      </trkpt>
      <trkpt lat="47.38392" lon="-2.35371">
        <ele>11</ele>
        <time>2019-05-26T08:53:25.000Z</time>
      </trkpt>
      <trkpt lat="47.38403" lon="-2.35368">
        <ele>11</ele>
        <time>2019-05-26T08:53:29.000Z</time>
      </trkpt>
      <trkpt lat="47.38421" lon="-2.35364">
        <ele>11</ele>
        <time>2019-05-26T08:53:34.000Z</time>
      </trkpt>
      <trkpt lat="47.38453" lon="-2.35355">
        <ele>11</ele>
        <time>2019-05-26T08:53:41.000Z</time>
      </trkpt>
      <trkpt lat="47.38457" lon="-2.35354">
        <ele>11.39999961853</ele>
        <time>2019-05-26T08:53:42.000Z</time>
      </trkpt>
      <trkpt lat="47.38462" lon="-2.35354">
        <ele>12</ele>
        <time>2019-05-26T08:53:43.000Z</time>
      </trkpt>
      <trkpt lat="47.38467" lon="-2.35353">
        <ele>12.39999961853</ele>
        <time>2019-05-26T08:53:44.000Z</time>
      </trkpt>
      <trkpt lat="47.38471" lon="-2.35352">
        <ele>12.800000190735</ele>
        <time>2019-05-26T08:53:45.000Z</time>
      </trkpt>
      <trkpt lat="47.38476" lon="-2.35351">
        <ele>13.199999809265</ele>
        <time>2019-05-26T08:53:46.000Z</time>
      </trkpt>
      <trkpt lat="47.38486" lon="-2.3535">
        <ele>13.199999809265</ele>
        <time>2019-05-26T08:53:48.000Z</time>
      </trkpt>
      <trkpt lat="47.38522" lon="-2.35342">
        <ele>13.199999809265</ele>
        <time>2019-05-26T08:53:56.000Z</time>
      </trkpt>
      <trkpt lat="47.38529" lon="-2.35343">
        <ele>13.199999809265</ele>
        <time>2019-05-26T08:53:58.000Z</time>
      </trkpt>
      <trkpt lat="47.38534" lon="-2.3535">
        <ele>13.199999809265</ele>
        <time>2019-05-26T08:54:00.000Z</time>
      </trkpt>
      <trkpt lat="47.38534" lon="-2.35362">
        <ele>13.199999809265</ele>
        <time>2019-05-26T08:54:02.000Z</time>
      </trkpt>
      <trkpt lat="47.38533" lon="-2.35374">
        <ele>13.199999809265</ele>
        <time>2019-05-26T08:54:04.000Z</time>
      </trkpt>
      <trkpt lat="47.38533" lon="-2.35423">
        <ele>13.199999809265</ele>
        <time>2019-05-26T08:54:11.000Z</time>
      </trkpt>
      <trkpt lat="47.38535" lon="-2.35492">
        <ele>13.199999809265</ele>
        <time>2019-05-26T08:54:20.000Z</time>
      </trkpt>
      <trkpt lat="47.3854" lon="-2.35557">
        <ele>13.199999809265</ele>
        <time>2019-05-26T08:54:28.000Z</time>
      </trkpt>
      <trkpt lat="47.38545" lon="-2.35605">
        <ele>13.199999809265</ele>
        <time>2019-05-26T08:54:34.000Z</time>
      </trkpt>
      <trkpt lat="47.3855" lon="-2.35657">
        <ele>13.199999809265</ele>
        <time>2019-05-26T08:54:40.000Z</time>
      </trkpt>
      <trkpt lat="47.38557" lon="-2.35724">
        <ele>13.199999809265</ele>
        <time>2019-05-26T08:54:47.000Z</time>
      </trkpt>
      <trkpt lat="47.38564" lon="-2.35787">
        <ele>13.199999809265</ele>
        <time>2019-05-26T08:54:53.000Z</time>
      </trkpt>
      <trkpt lat="47.38565" lon="-2.35797">
        <ele>13.199999809265</ele>
        <time>2019-05-26T08:54:54.000Z</time>
      </trkpt>
      <trkpt lat="47.38569" lon="-2.35829">
        <ele>12.800000190735</ele>
        <time>2019-05-26T08:54:57.000Z</time>
      </trkpt>
      <trkpt lat="47.38569" lon="-2.35839">
        <ele>12.199999809265</ele>
        <time>2019-05-26T08:54:58.000Z</time>
      </trkpt>
      <trkpt lat="47.3857" lon="-2.3585">
        <ele>11.800000190735</ele>
        <time>2019-05-26T08:54:59.000Z</time>
      </trkpt>
      <trkpt lat="47.38571" lon="-2.3586">
        <ele>11.199999809265</ele>
        <time>2019-05-26T08:55:00.000Z</time>
      </trkpt>
      <trkpt lat="47.38572" lon="-2.35871">
        <ele>10.800000190735</ele>
        <time>2019-05-26T08:55:01.000Z</time>
      </trkpt>
      <trkpt lat="47.38576" lon="-2.35927">
        <ele>10.800000190735</ele>
        <time>2019-05-26T08:55:06.000Z</time>
      </trkpt>
      <trkpt lat="47.38579" lon="-2.3595">
        <ele>10.39999961853</ele>
        <time>2019-05-26T08:55:08.000Z</time>
      </trkpt>
      <trkpt lat="47.3858" lon="-2.35962">
        <ele>9.8000001907349</ele>
        <time>2019-05-26T08:55:09.000Z</time>
      </trkpt>
      <trkpt lat="47.38581" lon="-2.35973">
        <ele>9.3999996185303</ele>
        <time>2019-05-26T08:55:10.000Z</time>
      </trkpt>
      <trkpt lat="47.38582" lon="-2.35984">
        <ele>9</ele>
        <time>2019-05-26T08:55:11.000Z</time>
      </trkpt>
      <trkpt lat="47.38583" lon="-2.35996">
        <ele>8.6000003814697</ele>
        <time>2019-05-26T08:55:12.000Z</time>
      </trkpt>
      <trkpt lat="47.38586" lon="-2.36019">
        <ele>7.8000001907349</ele>
        <time>2019-05-26T08:55:14.000Z</time>
      </trkpt>
      <trkpt lat="47.38587" lon="-2.36029">
        <ele>7.4000000953674</ele>
        <time>2019-05-26T08:55:15.000Z</time>
      </trkpt>
      <trkpt lat="47.38589" lon="-2.36041">
        <ele>7</ele>
        <time>2019-05-26T08:55:16.000Z</time>
      </trkpt>
      <trkpt lat="47.3859" lon="-2.36052">
        <ele>6.5999999046326</ele>
        <time>2019-05-26T08:55:17.000Z</time>
      </trkpt>
      <trkpt lat="47.38593" lon="-2.36085">
        <ele>6.1999998092651</ele>
        <time>2019-05-26T08:55:20.000Z</time>
      </trkpt>
      <trkpt lat="47.38594" lon="-2.36095">
        <ele>5.8000001907349</ele>
        <time>2019-05-26T08:55:21.000Z</time>
      </trkpt>
      <trkpt lat="47.38593" lon="-2.36104">
        <ele>5.1999998092651</ele>
        <time>2019-05-26T08:55:22.000Z</time>
      </trkpt>
      <trkpt lat="47.3859" lon="-2.36111">
        <ele>4.8000001907349</ele>
        <time>2019-05-26T08:55:23.000Z</time>
      </trkpt>
      <trkpt lat="47.38585" lon="-2.36116">
        <ele>4.1999998092651</ele>
        <time>2019-05-26T08:55:24.000Z</time>
      </trkpt>
      <trkpt lat="47.38579" lon="-2.36119">
        <ele>3.5999999046326</ele>
        <time>2019-05-26T08:55:25.000Z</time>
      </trkpt>
      <trkpt lat="47.38572" lon="-2.3612">
        <ele>3</ele>
        <time>2019-05-26T08:55:26.000Z</time>
      </trkpt>
      <trkpt lat="47.38566" lon="-2.3612">
        <ele>2.4000000953674</ele>
        <time>2019-05-26T08:55:27.000Z</time>
      </trkpt>
      <trkpt lat="47.38559" lon="-2.3612">
        <ele>2</ele>
        <time>2019-05-26T08:55:28.000Z</time>
      </trkpt>
      <trkpt lat="47.38552" lon="-2.3612">
        <ele>2</ele>
        <time>2019-05-26T08:55:29.000Z</time>
      </trkpt>
      <trkpt lat="47.38545" lon="-2.36119">
        <ele>2</ele>
        <time>2019-05-26T08:55:30.000Z</time>
      </trkpt>
      <trkpt lat="47.38532" lon="-2.36117">
        <ele>2</ele>
        <time>2019-05-26T08:55:32.000Z</time>
      </trkpt>
      <trkpt lat="47.38506" lon="-2.36105">
        <ele>2</ele>
        <time>2019-05-26T08:55:36.000Z</time>
      </trkpt>
      <trkpt lat="47.385" lon="-2.361">
        <ele>2</ele>
        <time>2019-05-26T08:55:37.000Z</time>
      </trkpt>
      <trkpt lat="47.3848" lon="-2.36079">
        <ele>2</ele>
        <time>2019-05-26T08:55:41.000Z</time>
      </trkpt>
      <trkpt lat="47.38464" lon="-2.36065">
        <ele>2</ele>
        <time>2019-05-26T08:55:45.000Z</time>
      </trkpt>
      <trkpt lat="47.38455" lon="-2.36054">
        <ele>2</ele>
        <time>2019-05-26T08:55:47.000Z</time>
      </trkpt>
      <trkpt lat="47.38443" lon="-2.36035">
        <ele>2</ele>
        <time>2019-05-26T08:55:50.000Z</time>
      </trkpt>
      <trkpt lat="47.38437" lon="-2.36021">
        <ele>2</ele>
        <time>2019-05-26T08:55:52.000Z</time>
      </trkpt>
      <trkpt lat="47.38435" lon="-2.36014">
        <ele>2</ele>
        <time>2019-05-26T08:55:53.000Z</time>
      </trkpt>
      <trkpt lat="47.38427" lon="-2.35992">
        <ele>2</ele>
        <time>2019-05-26T08:55:56.000Z</time>
      </trkpt>
      <trkpt lat="47.38425" lon="-2.35984">
        <ele>2</ele>
        <time>2019-05-26T08:55:57.000Z</time>
      </trkpt>
      <trkpt lat="47.38414" lon="-2.3593">
        <ele>2</ele>
        <time>2019-05-26T08:56:03.000Z</time>
      </trkpt>
      <trkpt lat="47.38397" lon="-2.35871">
        <ele>2</ele>
        <time>2019-05-26T08:56:10.000Z</time>
      </trkpt>
      <trkpt lat="47.38386" lon="-2.35832">
        <ele>2.4000000953674</ele>
        <time>2019-05-26T08:56:15.000Z</time>
      </trkpt>
      <trkpt lat="47.38384" lon="-2.35824">
        <ele>2.7999999523163</ele>
        <time>2019-05-26T08:56:16.000Z</time>
      </trkpt>
      <trkpt lat="47.38381" lon="-2.35815">
        <ele>3.2000000476837</ele>
        <time>2019-05-26T08:56:17.000Z</time>
      </trkpt>
      <trkpt lat="47.38379" lon="-2.35806">
        <ele>3.5999999046326</ele>
        <time>2019-05-26T08:56:18.000Z</time>
      </trkpt>
      <trkpt lat="47.38376" lon="-2.35798">
        <ele>4</ele>
        <time>2019-05-26T08:56:19.000Z</time>
      </trkpt>
      <trkpt lat="47.3837" lon="-2.35778">
        <ele>4</ele>
        <time>2019-05-26T08:56:21.000Z</time>
      </trkpt>
      <trkpt lat="47.38355" lon="-2.35718">
        <ele>4</ele>
        <time>2019-05-26T08:56:27.000Z</time>
      </trkpt>
      <trkpt lat="47.38335" lon="-2.35647">
        <ele>3.4000000953674</ele>
        <time>2019-05-26T08:56:34.000Z</time>
      </trkpt>
      <trkpt lat="47.38332" lon="-2.35637">
        <ele>3</ele>
        <time>2019-05-26T08:56:35.000Z</time>
      </trkpt>
      <trkpt lat="47.38329" lon="-2.35626">
        <ele>2.5999999046326</ele>
        <time>2019-05-26T08:56:36.000Z</time>
      </trkpt>
      <trkpt lat="47.38326" lon="-2.35616">
        <ele>2.2000000476837</ele>
        <time>2019-05-26T08:56:37.000Z</time>
      </trkpt>
      <trkpt lat="47.38323" lon="-2.35606">
        <ele>1.6000000238419</ele>
        <time>2019-05-26T08:56:38.000Z</time>
      </trkpt>
      <trkpt lat="47.38315" lon="-2.35582">
        <ele>1.6000000238419</ele>
        <time>2019-05-26T08:56:41.000Z</time>
      </trkpt>
      <trkpt lat="47.38304" lon="-2.3555">
        <ele>1.6000000238419</ele>
        <time>2019-05-26T08:56:45.000Z</time>
      </trkpt>
      <trkpt lat="47.38301" lon="-2.35542">
        <ele>1.6000000238419</ele>
        <time>2019-05-26T08:56:46.000Z</time>
      </trkpt>
      <trkpt lat="47.38287" lon="-2.35493">
        <ele>1.6000000238419</ele>
        <time>2019-05-26T08:56:52.000Z</time>
      </trkpt>
      <trkpt lat="47.3827" lon="-2.3544">
        <ele>1.6000000238419</ele>
        <time>2019-05-26T08:56:59.000Z</time>
      </trkpt>
      <trkpt lat="47.38259" lon="-2.35411">
        <ele>1.6000000238419</ele>
        <time>2019-05-26T08:57:03.000Z</time>
      </trkpt>
      <trkpt lat="47.38252" lon="-2.354">
        <ele>1.6000000238419</ele>
        <time>2019-05-26T08:57:05.000Z</time>
      </trkpt>
      <trkpt lat="47.38238" lon="-2.35382">
        <ele>1.6000000238419</ele>
        <time>2019-05-26T08:57:08.000Z</time>
      </trkpt>
      <trkpt lat="47.38233" lon="-2.35376">
        <ele>1.6000000238419</ele>
        <time>2019-05-26T08:57:09.000Z</time>
      </trkpt>
      <trkpt lat="47.38198" lon="-2.35335">
        <ele>1.6000000238419</ele>
        <time>2019-05-26T08:57:16.000Z</time>
      </trkpt>
      <trkpt lat="47.3817" lon="-2.353">
        <ele>1.6000000238419</ele>
        <time>2019-05-26T08:57:22.000Z</time>
      </trkpt>
      <trkpt lat="47.38165" lon="-2.35293">
        <ele>1.6000000238419</ele>
        <time>2019-05-26T08:57:23.000Z</time>
      </trkpt>
      <trkpt lat="47.38151" lon="-2.35274">
        <ele>1.6000000238419</ele>
        <time>2019-05-26T08:57:26.000Z</time>
      </trkpt>
      <trkpt lat="47.38127" lon="-2.35247">
        <ele>1.6000000238419</ele>
        <time>2019-05-26T08:57:31.000Z</time>
      </trkpt>
      <trkpt lat="47.38099" lon="-2.35214">
        <ele>1.6000000238419</ele>
        <time>2019-05-26T08:57:37.000Z</time>
      </trkpt>
      <trkpt lat="47.3808" lon="-2.3519">
        <ele>2</ele>
        <time>2019-05-26T08:57:41.000Z</time>
      </trkpt>
      <trkpt lat="47.38075" lon="-2.35184">
        <ele>2.4000000953674</ele>
        <time>2019-05-26T08:57:42.000Z</time>
      </trkpt>
      <trkpt lat="47.3807" lon="-2.35178">
        <ele>2.7999999523163</ele>
        <time>2019-05-26T08:57:43.000Z</time>
      </trkpt>
      <trkpt lat="47.38066" lon="-2.35172">
        <ele>3.2000000476837</ele>
        <time>2019-05-26T08:57:44.000Z</time>
      </trkpt>
      <trkpt lat="47.38062" lon="-2.35167">
        <ele>3.7999999523163</ele>
        <time>2019-05-26T08:57:45.000Z</time>
      </trkpt>
      <trkpt lat="47.38058" lon="-2.3516">
        <ele>3.7999999523163</ele>
        <time>2019-05-26T08:57:46.000Z</time>
      </trkpt>
      <trkpt lat="47.38051" lon="-2.35146">
        <ele>3.7999999523163</ele>
        <time>2019-05-26T08:57:48.000Z</time>
      </trkpt>
      <trkpt lat="47.38049" lon="-2.35138">
        <ele>3.7999999523163</ele>
        <time>2019-05-26T08:57:49.000Z</time>
      </trkpt>
      <trkpt lat="47.38045" lon="-2.35122">
        <ele>4.1999998092651</ele>
        <time>2019-05-26T08:57:51.000Z</time>
      </trkpt>
      <trkpt lat="47.38043" lon="-2.35114">
        <ele>4.5999999046326</ele>
        <time>2019-05-26T08:57:52.000Z</time>
      </trkpt>
      <trkpt lat="47.38041" lon="-2.35106">
        <ele>5</ele>
        <time>2019-05-26T08:57:53.000Z</time>
      </trkpt>
      <trkpt lat="47.38039" lon="-2.35097">
        <ele>5.4000000953674</ele>
        <time>2019-05-26T08:57:54.000Z</time>
      </trkpt>
      <trkpt lat="47.38037" lon="-2.35088">
        <ele>5.8000001907349</ele>
        <time>2019-05-26T08:57:55.000Z</time>
      </trkpt>
      <trkpt lat="47.38033" lon="-2.35069">
        <ele>5.8000001907349</ele>
        <time>2019-05-26T08:57:57.000Z</time>
      </trkpt>
      <trkpt lat="47.38025" lon="-2.3502">
        <ele>5.8000001907349</ele>
        <time>2019-05-26T08:58:02.000Z</time>
      </trkpt>
      <trkpt lat="47.38024" lon="-2.35009">
        <ele>5.8000001907349</ele>
        <time>2019-05-26T08:58:03.000Z</time>
      </trkpt>
      <trkpt lat="47.38026" lon="-2.34968">
        <ele>5.8000001907349</ele>
        <time>2019-05-26T08:58:07.000Z</time>
      </trkpt>
      <trkpt lat="47.38028" lon="-2.34959">
        <ele>5.8000001907349</ele>
        <time>2019-05-26T08:58:08.000Z</time>
      </trkpt>
      <trkpt lat="47.38044" lon="-2.34926">
        <ele>5.8000001907349</ele>
        <time>2019-05-26T08:58:12.000Z</time>
      </trkpt>
      <trkpt lat="47.38046" lon="-2.34919">
        <ele>5.8000001907349</ele>
        <time>2019-05-26T08:58:13.000Z</time>
      </trkpt>
      <trkpt lat="47.38049" lon="-2.34904">
        <ele>5.8000001907349</ele>
        <time>2019-05-26T08:58:15.000Z</time>
      </trkpt>
      <trkpt lat="47.38041" lon="-2.34885">
        <ele>5.8000001907349</ele>
        <time>2019-05-26T08:58:18.000Z</time>
      </trkpt>
      <trkpt lat="47.38036" lon="-2.34879">
        <ele>5.8000001907349</ele>
        <time>2019-05-26T08:58:19.000Z</time>
      </trkpt>
      <trkpt lat="47.38021" lon="-2.34856">
        <ele>5.8000001907349</ele>
        <time>2019-05-26T08:58:23.000Z</time>
      </trkpt>
      <trkpt lat="47.38013" lon="-2.34845">
        <ele>6.1999998092651</ele>
        <time>2019-05-26T08:58:25.000Z</time>
      </trkpt>
      <trkpt lat="47.38008" lon="-2.34839">
        <ele>7</ele>
        <time>2019-05-26T08:58:26.000Z</time>
      </trkpt>
      <trkpt lat="47.38005" lon="-2.34833">
        <ele>7.4000000953674</ele>
        <time>2019-05-26T08:58:27.000Z</time>
      </trkpt>
      <trkpt lat="47.38001" lon="-2.34827">
        <ele>7.8000001907349</ele>
        <time>2019-05-26T08:58:28.000Z</time>
      </trkpt>
      <trkpt lat="47.37997" lon="-2.3482">
        <ele>7.8000001907349</ele>
        <time>2019-05-26T08:58:29.000Z</time>
      </trkpt>
      <trkpt lat="47.37989" lon="-2.34809">
        <ele>8.1999998092651</ele>
        <time>2019-05-26T08:58:31.000Z</time>
      </trkpt>
      <trkpt lat="47.37983" lon="-2.34806">
        <ele>8.6000003814697</ele>
        <time>2019-05-26T08:58:32.000Z</time>
      </trkpt>
      <trkpt lat="47.37978" lon="-2.34805">
        <ele>9</ele>
        <time>2019-05-26T08:58:33.000Z</time>
      </trkpt>
      <trkpt lat="47.37972" lon="-2.34806">
        <ele>9.3999996185303</ele>
        <time>2019-05-26T08:58:34.000Z</time>
      </trkpt>
      <trkpt lat="47.37965" lon="-2.34807">
        <ele>9.8000001907349</ele>
        <time>2019-05-26T08:58:35.000Z</time>
      </trkpt>
      <trkpt lat="47.37952" lon="-2.34809">
        <ele>9.8000001907349</ele>
        <time>2019-05-26T08:58:37.000Z</time>
      </trkpt>
      <trkpt lat="47.3794" lon="-2.3481">
        <ele>9.8000001907349</ele>
        <time>2019-05-26T08:58:39.000Z</time>
      </trkpt>
      <trkpt lat="47.37929" lon="-2.34812">
        <ele>9.8000001907349</ele>
        <time>2019-05-26T08:58:41.000Z</time>
      </trkpt>
      <trkpt lat="47.37892" lon="-2.34817">
        <ele>9.8000001907349</ele>
        <time>2019-05-26T08:58:47.000Z</time>
      </trkpt>
      <trkpt lat="47.37866" lon="-2.34823">
        <ele>9.3999996185303</ele>
        <time>2019-05-26T08:58:51.000Z</time>
      </trkpt>
      <trkpt lat="47.3786" lon="-2.34825">
        <ele>9</ele>
        <time>2019-05-26T08:58:52.000Z</time>
      </trkpt>
      <trkpt lat="47.37853" lon="-2.34827">
        <ele>8.6000003814697</ele>
        <time>2019-05-26T08:58:53.000Z</time>
      </trkpt>
      <trkpt lat="47.37846" lon="-2.3483">
        <ele>8.1999998092651</ele>
        <time>2019-05-26T08:58:54.000Z</time>
      </trkpt>
      <trkpt lat="47.3784" lon="-2.34832">
        <ele>7.8000001907349</ele>
        <time>2019-05-26T08:58:55.000Z</time>
      </trkpt>
      <trkpt lat="47.37826" lon="-2.34836">
        <ele>7.8000001907349</ele>
        <time>2019-05-26T08:58:57.000Z</time>
      </trkpt>
      <trkpt lat="47.37813" lon="-2.3484">
        <ele>7.4000000953674</ele>
        <time>2019-05-26T08:58:59.000Z</time>
      </trkpt>
      <trkpt lat="47.37807" lon="-2.34842">
        <ele>7</ele>
        <time>2019-05-26T08:59:00.000Z</time>
      </trkpt>
      <trkpt lat="47.37802" lon="-2.34844">
        <ele>6.5999999046326</ele>
        <time>2019-05-26T08:59:01.000Z</time>
      </trkpt>
      <trkpt lat="47.37796" lon="-2.34847">
        <ele>6.1999998092651</ele>
        <time>2019-05-26T08:59:02.000Z</time>
      </trkpt>
      <trkpt lat="47.3779" lon="-2.34848">
        <ele>5.5999999046326</ele>
        <time>2019-05-26T08:59:03.000Z</time>
      </trkpt>
      <trkpt lat="47.37776" lon="-2.34853">
        <ele>5.5999999046326</ele>
        <time>2019-05-26T08:59:06.000Z</time>
      </trkpt>
      <trkpt lat="47.37763" lon="-2.34859">
        <ele>5.5999999046326</ele>
        <time>2019-05-26T08:59:10.000Z</time>
      </trkpt>
      <trkpt lat="47.3776" lon="-2.34864">
        <ele>5.5999999046326</ele>
        <time>2019-05-26T08:59:12.000Z</time>
      </trkpt>
      <trkpt lat="47.37756" lon="-2.34868">
        <ele>5.5999999046326</ele>
        <time>2019-05-26T08:59:14.000Z</time>
      </trkpt>
      <trkpt lat="47.37749" lon="-2.34876">
        <ele>5.5999999046326</ele>
        <time>2019-05-26T08:59:18.000Z</time>
      </trkpt>
      <trkpt lat="47.37745" lon="-2.34879">
        <ele>5.5999999046326</ele>
        <time>2019-05-26T08:59:20.000Z</time>
      </trkpt>
      <trkpt lat="47.37733" lon="-2.34891">
        <ele>5.5999999046326</ele>
        <time>2019-05-26T08:59:26.000Z</time>
      </trkpt>
      <trkpt lat="47.37731" lon="-2.34892">
        <ele>6.1999998092651</ele>
        <time>2019-05-26T08:59:27.000Z</time>
      </trkpt>
      <trkpt lat="47.37729" lon="-2.34894">
        <ele>6.5999999046326</ele>
        <time>2019-05-26T08:59:28.000Z</time>
      </trkpt>
      <trkpt lat="47.37727" lon="-2.34895">
        <ele>7</ele>
        <time>2019-05-26T08:59:29.000Z</time>
      </trkpt>
      <trkpt lat="47.37725" lon="-2.34897">
        <ele>7.4000000953674</ele>
        <time>2019-05-26T08:59:30.000Z</time>
      </trkpt>
      <trkpt lat="47.37723" lon="-2.34899">
        <ele>7.8000001907349</ele>
        <time>2019-05-26T08:59:31.000Z</time>
      </trkpt>
      <trkpt lat="47.37719" lon="-2.34903">
        <ele>7.8000001907349</ele>
        <time>2019-05-26T08:59:33.000Z</time>
      </trkpt>
      <trkpt lat="47.37705" lon="-2.34915">
        <ele>7.8000001907349</ele>
        <time>2019-05-26T08:59:40.000Z</time>
      </trkpt>
      <trkpt lat="47.37686" lon="-2.34929">
        <ele>7.8000001907349</ele>
        <time>2019-05-26T08:59:47.000Z</time>
      </trkpt>
      <trkpt lat="47.37664" lon="-2.34942">
        <ele>7.8000001907349</ele>
        <time>2019-05-26T08:59:54.000Z</time>
      </trkpt>
      <trkpt lat="47.37641" lon="-2.34956">
        <ele>7.8000001907349</ele>
        <time>2019-05-26T09:00:00.000Z</time>
      </trkpt>
      <trkpt lat="47.37633" lon="-2.34961">
        <ele>7.8000001907349</ele>
        <time>2019-05-26T09:00:02.000Z</time>
      </trkpt>
      <trkpt lat="47.37615" lon="-2.34971">
        <ele>7.8000001907349</ele>
        <time>2019-05-26T09:00:06.000Z</time>
      </trkpt>
      <trkpt lat="47.37588" lon="-2.3499">
        <ele>7.8000001907349</ele>
        <time>2019-05-26T09:00:13.000Z</time>
      </trkpt>
      <trkpt lat="47.37584" lon="-2.34992">
        <ele>7.8000001907349</ele>
        <time>2019-05-26T09:00:14.000Z</time>
      </trkpt>
      <trkpt lat="47.37565" lon="-2.35004">
        <ele>7.8000001907349</ele>
        <time>2019-05-26T09:00:19.000Z</time>
      </trkpt>
      <trkpt lat="47.3754" lon="-2.3502">
        <ele>7.8000001907349</ele>
        <time>2019-05-26T09:00:26.000Z</time>
      </trkpt>
      <trkpt lat="47.37526" lon="-2.35035">
        <ele>7.8000001907349</ele>
        <time>2019-05-26T09:00:31.000Z</time>
      </trkpt>
      <trkpt lat="47.3751" lon="-2.35055">
        <ele>7.4000000953674</ele>
        <time>2019-05-26T09:00:37.000Z</time>
      </trkpt>
      <trkpt lat="47.37507" lon="-2.35058">
        <ele>7</ele>
        <time>2019-05-26T09:00:38.000Z</time>
      </trkpt>
      <trkpt lat="47.37505" lon="-2.35062">
        <ele>6.5999999046326</ele>
        <time>2019-05-26T09:00:39.000Z</time>
      </trkpt>
      <trkpt lat="47.37502" lon="-2.35066">
        <ele>6.1999998092651</ele>
        <time>2019-05-26T09:00:40.000Z</time>
      </trkpt>
      <trkpt lat="47.37499" lon="-2.3507">
        <ele>5.5999999046326</ele>
        <time>2019-05-26T09:00:41.000Z</time>
      </trkpt>
      <trkpt lat="47.37481" lon="-2.35096">
        <ele>5.5999999046326</ele>
        <time>2019-05-26T09:00:47.000Z</time>
      </trkpt>
      <trkpt lat="47.37446" lon="-2.35146">
        <ele>5.5999999046326</ele>
        <time>2019-05-26T09:00:57.000Z</time>
      </trkpt>
      <trkpt lat="47.37414" lon="-2.3519">
        <ele>5.5999999046326</ele>
        <time>2019-05-26T09:01:05.000Z</time>
      </trkpt>
      <trkpt lat="47.37385" lon="-2.35221">
        <ele>5.5999999046326</ele>
        <time>2019-05-26T09:01:11.000Z</time>
      </trkpt>
      <trkpt lat="47.37375" lon="-2.35228">
        <ele>5.1999998092651</ele>
        <time>2019-05-26T09:01:13.000Z</time>
      </trkpt>
      <trkpt lat="47.3737" lon="-2.35232">
        <ele>4.8000001907349</ele>
        <time>2019-05-26T09:01:14.000Z</time>
      </trkpt>
      <trkpt lat="47.37365" lon="-2.35235">
        <ele>4.4000000953674</ele>
        <time>2019-05-26T09:01:15.000Z</time>
      </trkpt>
      <trkpt lat="47.37361" lon="-2.35239">
        <ele>4</ele>
        <time>2019-05-26T09:01:16.000Z</time>
      </trkpt>
      <trkpt lat="47.37356" lon="-2.35243">
        <ele>3.5999999046326</ele>
        <time>2019-05-26T09:01:17.000Z</time>
      </trkpt>
      <trkpt lat="47.37324" lon="-2.35265">
        <ele>3.5999999046326</ele>
        <time>2019-05-26T09:01:23.000Z</time>
      </trkpt>
      <trkpt lat="47.37297" lon="-2.35285">
        <ele>3.5999999046326</ele>
        <time>2019-05-26T09:01:28.000Z</time>
      </trkpt>
      <trkpt lat="47.37271" lon="-2.35305">
        <ele>3.5999999046326</ele>
        <time>2019-05-26T09:01:34.000Z</time>
      </trkpt>
      <trkpt lat="47.37262" lon="-2.35312">
        <ele>3.5999999046326</ele>
        <time>2019-05-26T09:01:38.000Z</time>
      </trkpt>
      <trkpt lat="47.37255" lon="-2.35322">
        <ele>3.5999999046326</ele>
        <time>2019-05-26T09:01:45.000Z</time>
      </trkpt>
      <trkpt lat="47.37253" lon="-2.35323">
        <ele>3.5999999046326</ele>
        <time>2019-05-26T09:01:47.000Z</time>
      </trkpt>
      <trkpt lat="47.37251" lon="-2.35321">
        <ele>3.5999999046326</ele>
        <time>2019-05-26T09:01:50.000Z</time>
      </trkpt>
      <trkpt lat="47.37253" lon="-2.35322">
        <ele>3.5999999046326</ele>
        <time>2019-05-26T09:02:51.000Z</time>
      </trkpt>
      <trkpt lat="47.37251" lon="-2.35323">
        <ele>3.5999999046326</ele>
        <time>2019-05-26T09:02:53.000Z</time>
      </trkpt>
      <trkpt lat="47.37242" lon="-2.35335">
        <ele>3.5999999046326</ele>
        <time>2019-05-26T09:02:59.000Z</time>
      </trkpt>
      <trkpt lat="47.3723" lon="-2.35354">
        <ele>3.5999999046326</ele>
        <time>2019-05-26T09:03:04.000Z</time>
      </trkpt>
      <trkpt lat="47.37208" lon="-2.3539">
        <ele>3.5999999046326</ele>
        <time>2019-05-26T09:03:12.000Z</time>
      </trkpt>
      <trkpt lat="47.37194" lon="-2.35414">
        <ele>3.5999999046326</ele>
        <time>2019-05-26T09:03:17.000Z</time>
      </trkpt>
      <trkpt lat="47.37187" lon="-2.35423">
        <ele>3.5999999046326</ele>
        <time>2019-05-26T09:03:20.000Z</time>
      </trkpt>
      <trkpt lat="47.37186" lon="-2.35435">
        <ele>3.5999999046326</ele>
        <time>2019-05-26T09:03:24.000Z</time>
      </trkpt>
      <trkpt lat="47.37187" lon="-2.35437">
        <ele>3.5999999046326</ele>
        <time>2019-05-26T09:03:25.000Z</time>
      </trkpt>
      <trkpt lat="47.37193" lon="-2.35445">
        <ele>3.5999999046326</ele>
        <time>2019-05-26T09:03:28.000Z</time>
      </trkpt>
      <trkpt lat="47.37198" lon="-2.35453">
        <ele>3.5999999046326</ele>
        <time>2019-05-26T09:03:30.000Z</time>
      </trkpt>
      <trkpt lat="47.37207" lon="-2.35467">
        <ele>3.5999999046326</ele>
        <time>2019-05-26T09:03:33.000Z</time>
      </trkpt>
      <trkpt lat="47.3721" lon="-2.35471">
        <ele>3.5999999046326</ele>
        <time>2019-05-26T09:03:34.000Z</time>
      </trkpt>
      <trkpt lat="47.37223" lon="-2.35494">
        <ele>3.5999999046326</ele>
        <time>2019-05-26T09:03:38.000Z</time>
      </trkpt>
      <trkpt lat="47.3723" lon="-2.35506">
        <ele>4</ele>
        <time>2019-05-26T09:03:40.000Z</time>
      </trkpt>
      <trkpt lat="47.37234" lon="-2.35512">
        <ele>4.4000000953674</ele>
        <time>2019-05-26T09:03:41.000Z</time>
      </trkpt>
      <trkpt lat="47.37237" lon="-2.35518">
        <ele>4.8000001907349</ele>
        <time>2019-05-26T09:03:42.000Z</time>
      </trkpt>
      <trkpt lat="47.37241" lon="-2.35524">
        <ele>5.1999998092651</ele>
        <time>2019-05-26T09:03:43.000Z</time>
      </trkpt>
      <trkpt lat="47.37245" lon="-2.35531">
        <ele>5.5999999046326</ele>
        <time>2019-05-26T09:03:44.000Z</time>
      </trkpt>
      <trkpt lat="47.37252" lon="-2.35544">
        <ele>5.5999999046326</ele>
        <time>2019-05-26T09:03:46.000Z</time>
      </trkpt>
      <trkpt lat="47.37283" lon="-2.35596">
        <ele>5.5999999046326</ele>
        <time>2019-05-26T09:03:54.000Z</time>
      </trkpt>
      <trkpt lat="47.37288" lon="-2.35601">
        <ele>5.5999999046326</ele>
        <time>2019-05-26T09:03:55.000Z</time>
      </trkpt>
      <trkpt lat="47.37305" lon="-2.3561">
        <ele>5.5999999046326</ele>
        <time>2019-05-26T09:03:58.000Z</time>
      </trkpt>
      <trkpt lat="47.37311" lon="-2.35612">
        <ele>5.5999999046326</ele>
        <time>2019-05-26T09:03:59.000Z</time>
      </trkpt>
      <trkpt lat="47.37353" lon="-2.35626">
        <ele>5.1999998092651</ele>
        <time>2019-05-26T09:04:06.000Z</time>
      </trkpt>
      <trkpt lat="47.37359" lon="-2.35628">
        <ele>4.8000001907349</ele>
        <time>2019-05-26T09:04:07.000Z</time>
      </trkpt>
      <trkpt lat="47.37365" lon="-2.3563">
        <ele>4.4000000953674</ele>
        <time>2019-05-26T09:04:08.000Z</time>
      </trkpt>
      <trkpt lat="47.37371" lon="-2.35632">
        <ele>4</ele>
        <time>2019-05-26T09:04:09.000Z</time>
      </trkpt>
      <trkpt lat="47.37376" lon="-2.35634">
        <ele>3.5999999046326</ele>
        <time>2019-05-26T09:04:10.000Z</time>
      </trkpt>
      <trkpt lat="47.37382" lon="-2.35636">
        <ele>3.5999999046326</ele>
        <time>2019-05-26T09:04:11.000Z</time>
      </trkpt>
      <trkpt lat="47.37417" lon="-2.35654">
        <ele>3.5999999046326</ele>
        <time>2019-05-26T09:04:17.000Z</time>
      </trkpt>
      <trkpt lat="47.3742" lon="-2.35662">
        <ele>3.5999999046326</ele>
        <time>2019-05-26T09:04:18.000Z</time>
      </trkpt>
      <trkpt lat="47.37422" lon="-2.35691">
        <ele>3.5999999046326</ele>
        <time>2019-05-26T09:04:21.000Z</time>
      </trkpt>
      <trkpt lat="47.37422" lon="-2.357">
        <ele>3.5999999046326</ele>
        <time>2019-05-26T09:04:22.000Z</time>
      </trkpt>
      <trkpt lat="47.37423" lon="-2.35735">
        <ele>3.5999999046326</ele>
        <time>2019-05-26T09:04:26.000Z</time>
      </trkpt>
      <trkpt lat="47.37425" lon="-2.35761">
        <ele>3.5999999046326</ele>
        <time>2019-05-26T09:04:29.000Z</time>
      </trkpt>
      <trkpt lat="47.37425" lon="-2.35777">
        <ele>3.5999999046326</ele>
        <time>2019-05-26T09:04:31.000Z</time>
      </trkpt>
      <trkpt lat="47.37423" lon="-2.35792">
        <ele>3.5999999046326</ele>
        <time>2019-05-26T09:04:33.000Z</time>
      </trkpt>
      <trkpt lat="47.37415" lon="-2.35804">
        <ele>3.5999999046326</ele>
        <time>2019-05-26T09:04:35.000Z</time>
      </trkpt>
      <trkpt lat="47.37399" lon="-2.35819">
        <ele>3.5999999046326</ele>
        <time>2019-05-26T09:04:38.000Z</time>
      </trkpt>
      <trkpt lat="47.37394" lon="-2.35822">
        <ele>3.5999999046326</ele>
        <time>2019-05-26T09:04:39.000Z</time>
      </trkpt>
      <trkpt lat="47.37382" lon="-2.35829">
        <ele>3.5999999046326</ele>
        <time>2019-05-26T09:04:41.000Z</time>
      </trkpt>
      <trkpt lat="47.37349" lon="-2.35851">
        <ele>3.5999999046326</ele>
        <time>2019-05-26T09:04:47.000Z</time>
      </trkpt>
      <trkpt lat="47.37314" lon="-2.35878">
        <ele>3.5999999046326</ele>
        <time>2019-05-26T09:04:54.000Z</time>
      </trkpt>
      <trkpt lat="47.3731" lon="-2.35883">
        <ele>3.5999999046326</ele>
        <time>2019-05-26T09:04:55.000Z</time>
      </trkpt>
      <trkpt lat="47.37299" lon="-2.35904">
        <ele>3.5999999046326</ele>
        <time>2019-05-26T09:04:58.000Z</time>
      </trkpt>
      <trkpt lat="47.37295" lon="-2.35912">
        <ele>3.5999999046326</ele>
        <time>2019-05-26T09:04:59.000Z</time>
      </trkpt>
      <trkpt lat="47.37281" lon="-2.35945">
        <ele>3.5999999046326</ele>
        <time>2019-05-26T09:05:03.000Z</time>
      </trkpt>
      <trkpt lat="47.37275" lon="-2.3596">
        <ele>3.5999999046326</ele>
        <time>2019-05-26T09:05:05.000Z</time>
      </trkpt>
      <trkpt lat="47.37263" lon="-2.35983">
        <ele>3.5999999046326</ele>
        <time>2019-05-26T09:05:08.000Z</time>
      </trkpt>
      <trkpt lat="47.37238" lon="-2.36028">
        <ele>3.5999999046326</ele>
        <time>2019-05-26T09:05:14.000Z</time>
      </trkpt>
      <trkpt lat="47.37233" lon="-2.36039">
        <ele>3.5999999046326</ele>
        <time>2019-05-26T09:05:16.000Z</time>
      </trkpt>
      <trkpt lat="47.37229" lon="-2.36051">
        <ele>3.5999999046326</ele>
        <time>2019-05-26T09:05:18.000Z</time>
      </trkpt>
      <trkpt lat="47.37232" lon="-2.36064">
        <ele>3.5999999046326</ele>
        <time>2019-05-26T09:05:21.000Z</time>
      </trkpt>
      <trkpt lat="47.37232" lon="-2.36078">
        <ele>3.5999999046326</ele>
        <time>2019-05-26T09:05:25.000Z</time>
      </trkpt>
      <trkpt lat="47.37231" lon="-2.36078">
        <ele>3.5999999046326</ele>
        <time>2019-05-26T09:05:26.000Z</time>
      </trkpt>
      <trkpt lat="47.37228" lon="-2.36069">
        <ele>1.3999999761581</ele>
        <time>2019-05-26T09:14:54.000Z</time>
      </trkpt>
      <trkpt lat="47.37228" lon="-2.36064">
        <ele>1.3999999761581</ele>
        <time>2019-05-26T09:14:56.000Z</time>
      </trkpt>
      <trkpt lat="47.37227" lon="-2.36058">
        <ele>1.3999999761581</ele>
        <time>2019-05-26T09:14:58.000Z</time>
      </trkpt>
      <trkpt lat="47.37224" lon="-2.36055">
        <ele>1.3999999761581</ele>
        <time>2019-05-26T09:15:00.000Z</time>
      </trkpt>
      <trkpt lat="47.37216" lon="-2.36065">
        <ele>1.3999999761581</ele>
        <time>2019-05-26T09:15:04.000Z</time>
      </trkpt>
      <trkpt lat="47.37208" lon="-2.36082">
        <ele>1.7999999523163</ele>
        <time>2019-05-26T09:15:08.000Z</time>
      </trkpt>
      <trkpt lat="47.37207" lon="-2.36086">
        <ele>2.2000000476837</ele>
        <time>2019-05-26T09:15:09.000Z</time>
      </trkpt>
      <trkpt lat="47.37204" lon="-2.36091">
        <ele>2.7999999523163</ele>
        <time>2019-05-26T09:15:10.000Z</time>
      </trkpt>
      <trkpt lat="47.37202" lon="-2.36096">
        <ele>3.2000000476837</ele>
        <time>2019-05-26T09:15:11.000Z</time>
      </trkpt>
      <trkpt lat="47.372" lon="-2.36101">
        <ele>3.5999999046326</ele>
        <time>2019-05-26T09:15:12.000Z</time>
      </trkpt>
      <trkpt lat="47.37197" lon="-2.36106">
        <ele>3.5999999046326</ele>
        <time>2019-05-26T09:15:13.000Z</time>
      </trkpt>
      <trkpt lat="47.37195" lon="-2.36112">
        <ele>3.5999999046326</ele>
        <time>2019-05-26T09:15:14.000Z</time>
      </trkpt>
      <trkpt lat="47.37177" lon="-2.36147">
        <ele>3.5999999046326</ele>
        <time>2019-05-26T09:15:20.000Z</time>
      </trkpt>
      <trkpt lat="47.37158" lon="-2.36188">
        <ele>3.5999999046326</ele>
        <time>2019-05-26T09:15:27.000Z</time>
      </trkpt>
      <trkpt lat="47.37146" lon="-2.36215">
        <ele>3.5999999046326</ele>
        <time>2019-05-26T09:15:32.000Z</time>
      </trkpt>
      <trkpt lat="47.37144" lon="-2.36221">
        <ele>3.5999999046326</ele>
        <time>2019-05-26T09:15:33.000Z</time>
      </trkpt>
      <trkpt lat="47.37123" lon="-2.36263">
        <ele>3.5999999046326</ele>
        <time>2019-05-26T09:15:40.000Z</time>
      </trkpt>
      <trkpt lat="47.37119" lon="-2.36269">
        <ele>4</ele>
        <time>2019-05-26T09:15:41.000Z</time>
      </trkpt>
      <trkpt lat="47.37116" lon="-2.36275">
        <ele>4.8000001907349</ele>
        <time>2019-05-26T09:15:42.000Z</time>
      </trkpt>
      <trkpt lat="47.37113" lon="-2.36281">
        <ele>5.1999998092651</ele>
        <time>2019-05-26T09:15:43.000Z</time>
      </trkpt>
      <trkpt lat="47.37111" lon="-2.36287">
        <ele>5.5999999046326</ele>
        <time>2019-05-26T09:15:44.000Z</time>
      </trkpt>
      <trkpt lat="47.37099" lon="-2.36312">
        <ele>5.5999999046326</ele>
        <time>2019-05-26T09:15:48.000Z</time>
      </trkpt>
      <trkpt lat="47.37077" lon="-2.36354">
        <ele>5.5999999046326</ele>
        <time>2019-05-26T09:15:55.000Z</time>
      </trkpt>
      <trkpt lat="47.37073" lon="-2.36359">
        <ele>5.5999999046326</ele>
        <time>2019-05-26T09:15:56.000Z</time>
      </trkpt>
      <trkpt lat="47.37054" lon="-2.36368">
        <ele>5.5999999046326</ele>
        <time>2019-05-26T09:16:00.000Z</time>
      </trkpt>
      <trkpt lat="47.37048" lon="-2.36368">
        <ele>5.5999999046326</ele>
        <time>2019-05-26T09:16:01.000Z</time>
      </trkpt>
      <trkpt lat="47.37016" lon="-2.36368">
        <ele>5.5999999046326</ele>
        <time>2019-05-26T09:16:07.000Z</time>
      </trkpt>
      <trkpt lat="47.36978" lon="-2.36369">
        <ele>5.5999999046326</ele>
        <time>2019-05-26T09:16:14.000Z</time>
      </trkpt>
      <trkpt lat="47.36931" lon="-2.3637">
        <ele>5.5999999046326</ele>
        <time>2019-05-26T09:16:23.000Z</time>
      </trkpt>
      <trkpt lat="47.36893" lon="-2.3637">
        <ele>5.5999999046326</ele>
        <time>2019-05-26T09:16:30.000Z</time>
      </trkpt>
      <trkpt lat="47.36859" lon="-2.36371">
        <ele>5.5999999046326</ele>
        <time>2019-05-26T09:16:36.000Z</time>
      </trkpt>
      <trkpt lat="47.36854" lon="-2.36371">
        <ele>5.5999999046326</ele>
        <time>2019-05-26T09:16:37.000Z</time>
      </trkpt>
      <trkpt lat="47.36816" lon="-2.36372">
        <ele>5.5999999046326</ele>
        <time>2019-05-26T09:16:44.000Z</time>
      </trkpt>
      <trkpt lat="47.36766" lon="-2.36375">
        <ele>5.5999999046326</ele>
        <time>2019-05-26T09:16:53.000Z</time>
      </trkpt>
      <trkpt lat="47.36761" lon="-2.36376">
        <ele>5.5999999046326</ele>
        <time>2019-05-26T09:16:54.000Z</time>
      </trkpt>
      <trkpt lat="47.36751" lon="-2.36381">
        <ele>6.4000000953674</ele>
        <time>2019-05-26T09:16:56.000Z</time>
      </trkpt>
      <trkpt lat="47.36746" lon="-2.36384">
        <ele>6.8000001907349</ele>
        <time>2019-05-26T09:16:57.000Z</time>
      </trkpt>
      <trkpt lat="47.36742" lon="-2.36388">
        <ele>7.1999998092651</ele>
        <time>2019-05-26T09:16:58.000Z</time>
      </trkpt>
      <trkpt lat="47.36738" lon="-2.36393">
        <ele>7.5999999046326</ele>
        <time>2019-05-26T09:16:59.000Z</time>
      </trkpt>
      <trkpt lat="47.36715" lon="-2.36424">
        <ele>7.5999999046326</ele>
        <time>2019-05-26T09:17:05.000Z</time>
      </trkpt>
      <trkpt lat="47.36679" lon="-2.36458">
        <ele>7.5999999046326</ele>
        <time>2019-05-26T09:17:13.000Z</time>
      </trkpt>
      <trkpt lat="47.36661" lon="-2.36471">
        <ele>8.1999998092651</ele>
        <time>2019-05-26T09:17:17.000Z</time>
      </trkpt>
      <trkpt lat="47.36656" lon="-2.36474">
        <ele>8.6000003814697</ele>
        <time>2019-05-26T09:17:18.000Z</time>
      </trkpt>
      <trkpt lat="47.36651" lon="-2.36477">
        <ele>9</ele>
        <time>2019-05-26T09:17:19.000Z</time>
      </trkpt>
      <trkpt lat="47.36647" lon="-2.3648">
        <ele>9.3999996185303</ele>
        <time>2019-05-26T09:17:20.000Z</time>
      </trkpt>
      <trkpt lat="47.36643" lon="-2.36483">
        <ele>9.8000001907349</ele>
        <time>2019-05-26T09:17:21.000Z</time>
      </trkpt>
      <trkpt lat="47.36611" lon="-2.36498">
        <ele>9.8000001907349</ele>
        <time>2019-05-26T09:17:28.000Z</time>
      </trkpt>
      <trkpt lat="47.36598" lon="-2.36504">
        <ele>10.199999809265</ele>
        <time>2019-05-26T09:17:31.000Z</time>
      </trkpt>
      <trkpt lat="47.36595" lon="-2.36506">
        <ele>10.60000038147</ele>
        <time>2019-05-26T09:17:32.000Z</time>
      </trkpt>
      <trkpt lat="47.36591" lon="-2.36508">
        <ele>11.199999809265</ele>
        <time>2019-05-26T09:17:33.000Z</time>
      </trkpt>
      <trkpt lat="47.36587" lon="-2.36511">
        <ele>11.60000038147</ele>
        <time>2019-05-26T09:17:34.000Z</time>
      </trkpt>
      <trkpt lat="47.36582" lon="-2.36513">
        <ele>12</ele>
        <time>2019-05-26T09:17:35.000Z</time>
      </trkpt>
      <trkpt lat="47.36571" lon="-2.36509">
        <ele>12</ele>
        <time>2019-05-26T09:17:38.000Z</time>
      </trkpt>
      <trkpt lat="47.3656" lon="-2.36485">
        <ele>12</ele>
        <time>2019-05-26T09:17:42.000Z</time>
      </trkpt>
      <trkpt lat="47.3654" lon="-2.36435">
        <ele>12</ele>
        <time>2019-05-26T09:17:49.000Z</time>
      </trkpt>
      <trkpt lat="47.36524" lon="-2.36386">
        <ele>12</ele>
        <time>2019-05-26T09:17:55.000Z</time>
      </trkpt>
      <trkpt lat="47.36508" lon="-2.36338">
        <ele>12</ele>
        <time>2019-05-26T09:18:01.000Z</time>
      </trkpt>
      <trkpt lat="47.36501" lon="-2.36317">
        <ele>12</ele>
        <time>2019-05-26T09:18:04.000Z</time>
      </trkpt>
      <trkpt lat="47.36497" lon="-2.36303">
        <ele>12</ele>
        <time>2019-05-26T09:18:06.000Z</time>
      </trkpt>
      <trkpt lat="47.36486" lon="-2.36265">
        <ele>12</ele>
        <time>2019-05-26T09:18:12.000Z</time>
      </trkpt>
      <trkpt lat="47.36475" lon="-2.36233">
        <ele>12</ele>
        <time>2019-05-26T09:18:18.000Z</time>
      </trkpt>
      <trkpt lat="47.36471" lon="-2.3622">
        <ele>12</ele>
        <time>2019-05-26T09:18:22.000Z</time>
      </trkpt>
      <trkpt lat="47.36464" lon="-2.36198">
        <ele>12</ele>
        <time>2019-05-26T09:18:27.000Z</time>
      </trkpt>
      <trkpt lat="47.36455" lon="-2.36168">
        <ele>12.39999961853</ele>
        <time>2019-05-26T09:18:32.000Z</time>
      </trkpt>
      <trkpt lat="47.36452" lon="-2.36161">
        <ele>12.800000190735</ele>
        <time>2019-05-26T09:18:33.000Z</time>
      </trkpt>
      <trkpt lat="47.3645" lon="-2.36155">
        <ele>13.199999809265</ele>
        <time>2019-05-26T09:18:34.000Z</time>
      </trkpt>
      <trkpt lat="47.36448" lon="-2.36148">
        <ele>14</ele>
        <time>2019-05-26T09:18:35.000Z</time>
      </trkpt>
      <trkpt lat="47.3644" lon="-2.3612">
        <ele>14</ele>
        <time>2019-05-26T09:18:39.000Z</time>
      </trkpt>
      <trkpt lat="47.3644" lon="-2.36088">
        <ele>14</ele>
        <time>2019-05-26T09:18:43.000Z</time>
      </trkpt>
      <trkpt lat="47.36447" lon="-2.36072">
        <ele>14</ele>
        <time>2019-05-26T09:18:45.000Z</time>
      </trkpt>
      <trkpt lat="47.36455" lon="-2.36056">
        <ele>14</ele>
        <time>2019-05-26T09:18:47.000Z</time>
      </trkpt>
      <trkpt lat="47.36486" lon="-2.36008">
        <ele>14</ele>
        <time>2019-05-26T09:18:53.000Z</time>
      </trkpt>
      <trkpt lat="47.3651" lon="-2.35979">
        <ele>14</ele>
        <time>2019-05-26T09:18:57.000Z</time>
      </trkpt>
      <trkpt lat="47.36517" lon="-2.35972">
        <ele>13.60000038147</ele>
        <time>2019-05-26T09:18:58.000Z</time>
      </trkpt>
      <trkpt lat="47.36523" lon="-2.35965">
        <ele>13.199999809265</ele>
        <time>2019-05-26T09:18:59.000Z</time>
      </trkpt>
      <trkpt lat="47.3653" lon="-2.35957">
        <ele>12.199999809265</ele>
        <time>2019-05-26T09:19:00.000Z</time>
      </trkpt>
      <trkpt lat="47.36536" lon="-2.3595">
        <ele>11.800000190735</ele>
        <time>2019-05-26T09:19:01.000Z</time>
      </trkpt>
      <trkpt lat="47.36553" lon="-2.35927">
        <ele>11.800000190735</ele>
        <time>2019-05-26T09:19:04.000Z</time>
      </trkpt>
      <trkpt lat="47.36564" lon="-2.35912">
        <ele>11.39999961853</ele>
        <time>2019-05-26T09:19:06.000Z</time>
      </trkpt>
      <trkpt lat="47.36569" lon="-2.35905">
        <ele>11</ele>
        <time>2019-05-26T09:19:07.000Z</time>
      </trkpt>
      <trkpt lat="47.36575" lon="-2.35897">
        <ele>10.60000038147</ele>
        <time>2019-05-26T09:19:08.000Z</time>
      </trkpt>
      <trkpt lat="47.3658" lon="-2.3589">
        <ele>10.199999809265</ele>
        <time>2019-05-26T09:19:09.000Z</time>
      </trkpt>
      <trkpt lat="47.36583" lon="-2.35881">
        <ele>9.6000003814697</ele>
        <time>2019-05-26T09:19:10.000Z</time>
      </trkpt>
      <trkpt lat="47.36582" lon="-2.35853">
        <ele>9.6000003814697</ele>
        <time>2019-05-26T09:19:13.000Z</time>
      </trkpt>
      <trkpt lat="47.3658" lon="-2.35844">
        <ele>9.6000003814697</ele>
        <time>2019-05-26T09:19:14.000Z</time>
      </trkpt>
      <trkpt lat="47.36571" lon="-2.35787">
        <ele>9.6000003814697</ele>
        <time>2019-05-26T09:19:20.000Z</time>
      </trkpt>
      <trkpt lat="47.36569" lon="-2.35779">
        <ele>9.6000003814697</ele>
        <time>2019-05-26T09:19:21.000Z</time>
      </trkpt>
      <trkpt lat="47.36561" lon="-2.35752">
        <ele>9.6000003814697</ele>
        <time>2019-05-26T09:19:24.000Z</time>
      </trkpt>
      <trkpt lat="47.36539" lon="-2.35696">
        <ele>9.6000003814697</ele>
        <time>2019-05-26T09:19:30.000Z</time>
      </trkpt>
      <trkpt lat="47.36512" lon="-2.35621">
        <ele>9.6000003814697</ele>
        <time>2019-05-26T09:19:38.000Z</time>
      </trkpt>
      <trkpt lat="47.36491" lon="-2.35557">
        <ele>9.6000003814697</ele>
        <time>2019-05-26T09:19:45.000Z</time>
      </trkpt>
      <trkpt lat="47.3648" lon="-2.35516">
        <ele>9.6000003814697</ele>
        <time>2019-05-26T09:19:50.000Z</time>
      </trkpt>
      <trkpt lat="47.36481" lon="-2.35509">
        <ele>9.6000003814697</ele>
        <time>2019-05-26T09:19:51.000Z</time>
      </trkpt>
      <trkpt lat="47.36491" lon="-2.35488">
        <ele>9.1999998092651</ele>
        <time>2019-05-26T09:19:54.000Z</time>
      </trkpt>
      <trkpt lat="47.36496" lon="-2.35482">
        <ele>8.8000001907349</ele>
        <time>2019-05-26T09:19:55.000Z</time>
      </trkpt>
      <trkpt lat="47.365" lon="-2.35475">
        <ele>8.3999996185303</ele>
        <time>2019-05-26T09:19:56.000Z</time>
      </trkpt>
      <trkpt lat="47.36504" lon="-2.35468">
        <ele>7.8000001907349</ele>
        <time>2019-05-26T09:19:57.000Z</time>
      </trkpt>
      <trkpt lat="47.36508" lon="-2.35461">
        <ele>7.4000000953674</ele>
        <time>2019-05-26T09:19:58.000Z</time>
      </trkpt>
      <trkpt lat="47.36517" lon="-2.35447">
        <ele>7.4000000953674</ele>
        <time>2019-05-26T09:20:00.000Z</time>
      </trkpt>
      <trkpt lat="47.36542" lon="-2.35405">
        <ele>7.4000000953674</ele>
        <time>2019-05-26T09:20:06.000Z</time>
      </trkpt>
      <trkpt lat="47.36577" lon="-2.35346">
        <ele>7.4000000953674</ele>
        <time>2019-05-26T09:20:14.000Z</time>
      </trkpt>
      <trkpt lat="47.36612" lon="-2.35287">
        <ele>7.4000000953674</ele>
        <time>2019-05-26T09:20:22.000Z</time>
      </trkpt>
      <trkpt lat="47.36616" lon="-2.3528">
        <ele>7.4000000953674</ele>
        <time>2019-05-26T09:20:23.000Z</time>
      </trkpt>
      <trkpt lat="47.36632" lon="-2.35253">
        <ele>7</ele>
        <time>2019-05-26T09:20:27.000Z</time>
      </trkpt>
      <trkpt lat="47.36636" lon="-2.35247">
        <ele>6.5999999046326</ele>
        <time>2019-05-26T09:20:28.000Z</time>
      </trkpt>
      <trkpt lat="47.36639" lon="-2.3524">
        <ele>6.1999998092651</ele>
        <time>2019-05-26T09:20:29.000Z</time>
      </trkpt>
      <trkpt lat="47.36641" lon="-2.35233">
        <ele>5.8000001907349</ele>
        <time>2019-05-26T09:20:30.000Z</time>
      </trkpt>
      <trkpt lat="47.3664" lon="-2.35226">
        <ele>5.4000000953674</ele>
        <time>2019-05-26T09:20:31.000Z</time>
      </trkpt>
      <trkpt lat="47.3663" lon="-2.35207">
        <ele>5.4000000953674</ele>
        <time>2019-05-26T09:20:34.000Z</time>
      </trkpt>
      <trkpt lat="47.36613" lon="-2.3518">
        <ele>5.4000000953674</ele>
        <time>2019-05-26T09:20:38.000Z</time>
      </trkpt>
      <trkpt lat="47.36605" lon="-2.35166">
        <ele>5.4000000953674</ele>
        <time>2019-05-26T09:20:40.000Z</time>
      </trkpt>
      <trkpt lat="47.36592" lon="-2.35146">
        <ele>5.4000000953674</ele>
        <time>2019-05-26T09:20:43.000Z</time>
      </trkpt>
      <trkpt lat="47.36581" lon="-2.35125">
        <ele>5.4000000953674</ele>
        <time>2019-05-26T09:20:46.000Z</time>
      </trkpt>
      <trkpt lat="47.36553" lon="-2.35079">
        <ele>5.4000000953674</ele>
        <time>2019-05-26T09:20:53.000Z</time>
      </trkpt>
      <trkpt lat="47.36549" lon="-2.35072">
        <ele>5.8000001907349</ele>
        <time>2019-05-26T09:20:54.000Z</time>
      </trkpt>
      <trkpt lat="47.36545" lon="-2.35066">
        <ele>6.1999998092651</ele>
        <time>2019-05-26T09:20:55.000Z</time>
      </trkpt>
      <trkpt lat="47.36542" lon="-2.3506">
        <ele>6.5999999046326</ele>
        <time>2019-05-26T09:20:56.000Z</time>
      </trkpt>
      <trkpt lat="47.36538" lon="-2.35053">
        <ele>7</ele>
        <time>2019-05-26T09:20:57.000Z</time>
      </trkpt>
      <trkpt lat="47.36535" lon="-2.35047">
        <ele>7.4000000953674</ele>
        <time>2019-05-26T09:20:58.000Z</time>
      </trkpt>
      <trkpt lat="47.36528" lon="-2.35035">
        <ele>7.4000000953674</ele>
        <time>2019-05-26T09:21:00.000Z</time>
      </trkpt>
      <trkpt lat="47.3652" lon="-2.35022">
        <ele>7.4000000953674</ele>
        <time>2019-05-26T09:21:02.000Z</time>
      </trkpt>
      <trkpt lat="47.36507" lon="-2.35002">
        <ele>7.4000000953674</ele>
        <time>2019-05-26T09:21:06.000Z</time>
      </trkpt>
      <trkpt lat="47.36498" lon="-2.34987">
        <ele>7.4000000953674</ele>
        <time>2019-05-26T09:21:10.000Z</time>
      </trkpt>
      <trkpt lat="47.36496" lon="-2.34986">
        <ele>7.4000000953674</ele>
        <time>2019-05-26T09:21:11.000Z</time>
      </trkpt>
      <trkpt lat="47.36493" lon="-2.34991">
        <ele>7.4000000953674</ele>
        <time>2019-05-26T09:21:14.000Z</time>
      </trkpt>
      <trkpt lat="47.36496" lon="-2.34999">
        <ele>7.4000000953674</ele>
        <time>2019-05-26T09:21:18.000Z</time>
      </trkpt>
      <trkpt lat="47.36499" lon="-2.35006">
        <ele>7.4000000953674</ele>
        <time>2019-05-26T09:21:20.000Z</time>
      </trkpt>
      <trkpt lat="47.36505" lon="-2.35014">
        <ele>7.4000000953674</ele>
        <time>2019-05-26T09:21:22.000Z</time>
      </trkpt>
      <trkpt lat="47.36516" lon="-2.35035">
        <ele>7.4000000953674</ele>
        <time>2019-05-26T09:21:27.000Z</time>
      </trkpt>
      <trkpt lat="47.36526" lon="-2.35053">
        <ele>7.4000000953674</ele>
        <time>2019-05-26T09:21:32.000Z</time>
      </trkpt>
      <trkpt lat="47.3654" lon="-2.35073">
        <ele>7.4000000953674</ele>
        <time>2019-05-26T09:21:37.000Z</time>
      </trkpt>
      <trkpt lat="47.36549" lon="-2.35093">
        <ele>7.4000000953674</ele>
        <time>2019-05-26T09:21:42.000Z</time>
      </trkpt>
      <trkpt lat="47.36545" lon="-2.35096">
        <ele>7.4000000953674</ele>
        <time>2019-05-26T09:21:45.000Z</time>
      </trkpt>
      <trkpt lat="47.36525" lon="-2.351">
        <ele>7.4000000953674</ele>
        <time>2019-05-26T09:21:50.000Z</time>
      </trkpt>
      <trkpt lat="47.36499" lon="-2.35104">
        <ele>7.4000000953674</ele>
        <time>2019-05-26T09:21:56.000Z</time>
      </trkpt>
      <trkpt lat="47.36495" lon="-2.35102">
        <ele>7.4000000953674</ele>
        <time>2019-05-26T09:21:57.000Z</time>
      </trkpt>
      <trkpt lat="47.36484" lon="-2.35097">
        <ele>7.4000000953674</ele>
        <time>2019-05-26T09:21:59.000Z</time>
      </trkpt>
      <trkpt lat="47.3645" lon="-2.35079">
        <ele>7.4000000953674</ele>
        <time>2019-05-26T09:22:06.000Z</time>
      </trkpt>
      <trkpt lat="47.36425" lon="-2.35065">
        <ele>7.4000000953674</ele>
        <time>2019-05-26T09:22:13.000Z</time>
      </trkpt>
      <trkpt lat="47.36422" lon="-2.35063">
        <ele>7.4000000953674</ele>
        <time>2019-05-26T09:22:15.000Z</time>
      </trkpt>
      <trkpt lat="47.3642" lon="-2.35062">
        <ele>7.4000000953674</ele>
        <time>2019-05-26T09:22:17.000Z</time>
      </trkpt>
      <trkpt lat="47.36413" lon="-2.35072">
        <ele>7.4000000953674</ele>
        <time>2019-05-26T09:22:39.000Z</time>
      </trkpt>
      <trkpt lat="47.36408" lon="-2.35077">
        <ele>7.4000000953674</ele>
        <time>2019-05-26T09:22:41.000Z</time>
      </trkpt>
      <trkpt lat="47.36402" lon="-2.3508">
        <ele>7.4000000953674</ele>
        <time>2019-05-26T09:22:43.000Z</time>
      </trkpt>
      <trkpt lat="47.36395" lon="-2.35075">
        <ele>7.4000000953674</ele>
        <time>2019-05-26T09:22:45.000Z</time>
      </trkpt>
      <trkpt lat="47.36388" lon="-2.35055">
        <ele>7.4000000953674</ele>
        <time>2019-05-26T09:22:49.000Z</time>
      </trkpt>
      <trkpt lat="47.36383" lon="-2.35044">
        <ele>7.4000000953674</ele>
        <time>2019-05-26T09:22:51.000Z</time>
      </trkpt>
      <trkpt lat="47.36377" lon="-2.35026">
        <ele>7.4000000953674</ele>
        <time>2019-05-26T09:22:54.000Z</time>
      </trkpt>
      <trkpt lat="47.36375" lon="-2.35021">
        <ele>7.4000000953674</ele>
        <time>2019-05-26T09:22:55.000Z</time>
      </trkpt>
      <trkpt lat="47.36361" lon="-2.34994">
        <ele>7.4000000953674</ele>
        <time>2019-05-26T09:23:01.000Z</time>
      </trkpt>
      <trkpt lat="47.36354" lon="-2.34983">
        <ele>7.4000000953674</ele>
        <time>2019-05-26T09:23:04.000Z</time>
      </trkpt>
      <trkpt lat="47.3635" lon="-2.34981">
        <ele>7.4000000953674</ele>
        <time>2019-05-26T09:23:05.000Z</time>
      </trkpt>
      <trkpt lat="47.36342" lon="-2.34986">
        <ele>7.4000000953674</ele>
        <time>2019-05-26T09:23:08.000Z</time>
      </trkpt>
      <trkpt lat="47.36337" lon="-2.34991">
        <ele>7.4000000953674</ele>
        <time>2019-05-26T09:23:10.000Z</time>
      </trkpt>
      <trkpt lat="47.36326" lon="-2.35">
        <ele>7.4000000953674</ele>
        <time>2019-05-26T09:23:13.000Z</time>
      </trkpt>
      <trkpt lat="47.36315" lon="-2.35009">
        <ele>7.8000001907349</ele>
        <time>2019-05-26T09:23:16.000Z</time>
      </trkpt>
      <trkpt lat="47.36311" lon="-2.35009">
        <ele>8.1999998092651</ele>
        <time>2019-05-26T09:23:17.000Z</time>
      </trkpt>
      <trkpt lat="47.36308" lon="-2.35009">
        <ele>8.6000003814697</ele>
        <time>2019-05-26T09:23:18.000Z</time>
      </trkpt>
      <trkpt lat="47.36305" lon="-2.35008">
        <ele>9</ele>
        <time>2019-05-26T09:23:19.000Z</time>
      </trkpt>
      <trkpt lat="47.36303" lon="-2.35008">
        <ele>9.3999996185303</ele>
        <time>2019-05-26T09:23:20.000Z</time>
      </trkpt>
      <trkpt lat="47.36297" lon="-2.35005">
        <ele>9.3999996185303</ele>
        <time>2019-05-26T09:23:22.000Z</time>
      </trkpt>
      <trkpt lat="47.36295" lon="-2.35002">
        <ele>9.3999996185303</ele>
        <time>2019-05-26T09:23:23.000Z</time>
      </trkpt>
      <trkpt lat="47.36291" lon="-2.34989">
        <ele>9.3999996185303</ele>
        <time>2019-05-26T09:23:26.000Z</time>
      </trkpt>
      <trkpt lat="47.3629" lon="-2.34984">
        <ele>9.3999996185303</ele>
        <time>2019-05-26T09:23:27.000Z</time>
      </trkpt>
      <trkpt lat="47.36284" lon="-2.34949">
        <ele>9.3999996185303</ele>
        <time>2019-05-26T09:23:33.000Z</time>
      </trkpt>
      <trkpt lat="47.36281" lon="-2.34938">
        <ele>9.3999996185303</ele>
        <time>2019-05-26T09:23:35.000Z</time>
      </trkpt>
      <trkpt lat="47.36275" lon="-2.34931">
        <ele>9.3999996185303</ele>
        <time>2019-05-26T09:23:37.000Z</time>
      </trkpt>
      <trkpt lat="47.36268" lon="-2.34937">
        <ele>9.3999996185303</ele>
        <time>2019-05-26T09:23:39.000Z</time>
      </trkpt>
      <trkpt lat="47.36263" lon="-2.34948">
        <ele>9.3999996185303</ele>
        <time>2019-05-26T09:23:41.000Z</time>
      </trkpt>
      <trkpt lat="47.36256" lon="-2.34966">
        <ele>9.3999996185303</ele>
        <time>2019-05-26T09:23:44.000Z</time>
      </trkpt>
      <trkpt lat="47.36253" lon="-2.34972">
        <ele>9.3999996185303</ele>
        <time>2019-05-26T09:23:45.000Z</time>
      </trkpt>
      <trkpt lat="47.3625" lon="-2.34977">
        <ele>9.8000001907349</ele>
        <time>2019-05-26T09:23:46.000Z</time>
      </trkpt>
      <trkpt lat="47.36248" lon="-2.34983">
        <ele>10.199999809265</ele>
        <time>2019-05-26T09:23:47.000Z</time>
      </trkpt>
      <trkpt lat="47.36245" lon="-2.34989">
        <ele>10.60000038147</ele>
        <time>2019-05-26T09:23:48.000Z</time>
      </trkpt>
      <trkpt lat="47.36243" lon="-2.34995">
        <ele>11</ele>
        <time>2019-05-26T09:23:49.000Z</time>
      </trkpt>
      <trkpt lat="47.3624" lon="-2.35001">
        <ele>11.39999961853</ele>
        <time>2019-05-26T09:23:50.000Z</time>
      </trkpt>
      <trkpt lat="47.3622" lon="-2.35039">
        <ele>11.39999961853</ele>
        <time>2019-05-26T09:23:57.000Z</time>
      </trkpt>
      <trkpt lat="47.36214" lon="-2.35047">
        <ele>11.39999961853</ele>
        <time>2019-05-26T09:23:59.000Z</time>
      </trkpt>
      <trkpt lat="47.36197" lon="-2.35068">
        <ele>11.39999961853</ele>
        <time>2019-05-26T09:24:05.000Z</time>
      </trkpt>
      <trkpt lat="47.36174" lon="-2.3509">
        <ele>11.39999961853</ele>
        <time>2019-05-26T09:24:12.000Z</time>
      </trkpt>
      <trkpt lat="47.3615" lon="-2.35114">
        <ele>11.39999961853</ele>
        <time>2019-05-26T09:24:18.000Z</time>
      </trkpt>
      <trkpt lat="47.36125" lon="-2.35141">
        <ele>11.39999961853</ele>
        <time>2019-05-26T09:24:24.000Z</time>
      </trkpt>
      <trkpt lat="47.36102" lon="-2.3517">
        <ele>11.39999961853</ele>
        <time>2019-05-26T09:24:30.000Z</time>
      </trkpt>
      <trkpt lat="47.36091" lon="-2.35166">
        <ele>11.39999961853</ele>
        <time>2019-05-26T09:24:33.000Z</time>
      </trkpt>
      <trkpt lat="47.36091" lon="-2.35144">
        <ele>11.39999961853</ele>
        <time>2019-05-26T09:24:36.000Z</time>
      </trkpt>
      <trkpt lat="47.36094" lon="-2.35095">
        <ele>11.39999961853</ele>
        <time>2019-05-26T09:24:42.000Z</time>
      </trkpt>
      <trkpt lat="47.36095" lon="-2.35087">
        <ele>11.39999961853</ele>
        <time>2019-05-26T09:24:43.000Z</time>
      </trkpt>
      <trkpt lat="47.36097" lon="-2.35052">
        <ele>11.39999961853</ele>
        <time>2019-05-26T09:24:47.000Z</time>
      </trkpt>
      <trkpt lat="47.36096" lon="-2.35">
        <ele>11.39999961853</ele>
        <time>2019-05-26T09:24:53.000Z</time>
      </trkpt>
      <trkpt lat="47.36095" lon="-2.34991">
        <ele>11.39999961853</ele>
        <time>2019-05-26T09:24:54.000Z</time>
      </trkpt>
      <trkpt lat="47.36087" lon="-2.34921">
        <ele>11.39999961853</ele>
        <time>2019-05-26T09:25:02.000Z</time>
      </trkpt>
      <trkpt lat="47.36086" lon="-2.34888">
        <ele>11.39999961853</ele>
        <time>2019-05-26T09:25:06.000Z</time>
      </trkpt>
      <trkpt lat="47.36084" lon="-2.34881">
        <ele>11.39999961853</ele>
        <time>2019-05-26T09:25:07.000Z</time>
      </trkpt>
      <trkpt lat="47.36069" lon="-2.34873">
        <ele>11.39999961853</ele>
        <time>2019-05-26T09:25:10.000Z</time>
      </trkpt>
      <trkpt lat="47.36058" lon="-2.34872">
        <ele>11.39999961853</ele>
        <time>2019-05-26T09:25:12.000Z</time>
      </trkpt>
      <trkpt lat="47.36033" lon="-2.34871">
        <ele>11.39999961853</ele>
        <time>2019-05-26T09:25:16.000Z</time>
      </trkpt>
      <trkpt lat="47.35983" lon="-2.34866">
        <ele>11.39999961853</ele>
        <time>2019-05-26T09:25:24.000Z</time>
      </trkpt>
      <trkpt lat="47.35926" lon="-2.34859">
        <ele>11.39999961853</ele>
        <time>2019-05-26T09:25:33.000Z</time>
      </trkpt>
      <trkpt lat="47.35912" lon="-2.34838">
        <ele>11.39999961853</ele>
        <time>2019-05-26T09:25:36.000Z</time>
      </trkpt>
      <trkpt lat="47.35909" lon="-2.3483">
        <ele>11.39999961853</ele>
        <time>2019-05-26T09:25:37.000Z</time>
      </trkpt>
      <trkpt lat="47.35887" lon="-2.34777">
        <ele>11.39999961853</ele>
        <time>2019-05-26T09:25:44.000Z</time>
      </trkpt>
      <trkpt lat="47.35859" lon="-2.34708">
        <ele>11.39999961853</ele>
        <time>2019-05-26T09:25:53.000Z</time>
      </trkpt>
      <trkpt lat="47.35829" lon="-2.34638">
        <ele>11.39999961853</ele>
        <time>2019-05-26T09:26:02.000Z</time>
      </trkpt>
      <trkpt lat="47.35826" lon="-2.3463">
        <ele>11.39999961853</ele>
        <time>2019-05-26T09:26:03.000Z</time>
      </trkpt>
      <trkpt lat="47.35803" lon="-2.34578">
        <ele>11.39999961853</ele>
        <time>2019-05-26T09:26:10.000Z</time>
      </trkpt>
      <trkpt lat="47.35798" lon="-2.34562">
        <ele>11.39999961853</ele>
        <time>2019-05-26T09:26:12.000Z</time>
      </trkpt>
      <trkpt lat="47.35795" lon="-2.34544">
        <ele>11.39999961853</ele>
        <time>2019-05-26T09:26:14.000Z</time>
      </trkpt>
      <trkpt lat="47.35791" lon="-2.34516">
        <ele>11.800000190735</ele>
        <time>2019-05-26T09:26:17.000Z</time>
      </trkpt>
      <trkpt lat="47.3579" lon="-2.34507">
        <ele>12.199999809265</ele>
        <time>2019-05-26T09:26:18.000Z</time>
      </trkpt>
      <trkpt lat="47.35789" lon="-2.34497">
        <ele>12.800000190735</ele>
        <time>2019-05-26T09:26:19.000Z</time>
      </trkpt>
      <trkpt lat="47.35788" lon="-2.34488">
        <ele>13.199999809265</ele>
        <time>2019-05-26T09:26:20.000Z</time>
      </trkpt>
      <trkpt lat="47.35787" lon="-2.34479">
        <ele>13.60000038147</ele>
        <time>2019-05-26T09:26:21.000Z</time>
      </trkpt>
      <trkpt lat="47.35779" lon="-2.34413">
        <ele>13.60000038147</ele>
        <time>2019-05-26T09:26:28.000Z</time>
      </trkpt>
      <trkpt lat="47.35772" lon="-2.34352">
        <ele>13.60000038147</ele>
        <time>2019-05-26T09:26:35.000Z</time>
      </trkpt>
      <trkpt lat="47.35764" lon="-2.34297">
        <ele>13.60000038147</ele>
        <time>2019-05-26T09:26:42.000Z</time>
      </trkpt>
      <trkpt lat="47.35763" lon="-2.34289">
        <ele>13.60000038147</ele>
        <time>2019-05-26T09:26:43.000Z</time>
      </trkpt>
      <trkpt lat="47.35763" lon="-2.34281">
        <ele>13.60000038147</ele>
        <time>2019-05-26T09:26:44.000Z</time>
      </trkpt>
      <trkpt lat="47.35764" lon="-2.34259">
        <ele>14</ele>
        <time>2019-05-26T09:26:47.000Z</time>
      </trkpt>
      <trkpt lat="47.35764" lon="-2.34252">
        <ele>14.39999961853</ele>
        <time>2019-05-26T09:26:48.000Z</time>
      </trkpt>
      <trkpt lat="47.35764" lon="-2.34244">
        <ele>15.199999809265</ele>
        <time>2019-05-26T09:26:49.000Z</time>
      </trkpt>
      <trkpt lat="47.35764" lon="-2.34237">
        <ele>15.60000038147</ele>
        <time>2019-05-26T09:26:50.000Z</time>
      </trkpt>
      <trkpt lat="47.35762" lon="-2.34212">
        <ele>15.60000038147</ele>
        <time>2019-05-26T09:26:54.000Z</time>
      </trkpt>
      <trkpt lat="47.3576" lon="-2.34207">
        <ele>15.60000038147</ele>
        <time>2019-05-26T09:26:55.000Z</time>
      </trkpt>
      <trkpt lat="47.35748" lon="-2.34205">
        <ele>15.60000038147</ele>
        <time>2019-05-26T09:26:58.000Z</time>
      </trkpt>
      <trkpt lat="47.35737" lon="-2.34209">
        <ele>15.60000038147</ele>
        <time>2019-05-26T09:27:00.000Z</time>
      </trkpt>
      <trkpt lat="47.35718" lon="-2.34213">
        <ele>15.60000038147</ele>
        <time>2019-05-26T09:27:03.000Z</time>
      </trkpt>
      <trkpt lat="47.35698" lon="-2.34211">
        <ele>15.60000038147</ele>
        <time>2019-05-26T09:27:06.000Z</time>
      </trkpt>
      <trkpt lat="47.35684" lon="-2.34209">
        <ele>15.60000038147</ele>
        <time>2019-05-26T09:27:08.000Z</time>
      </trkpt>
      <trkpt lat="47.35648" lon="-2.34199">
        <ele>15.60000038147</ele>
        <time>2019-05-26T09:27:13.000Z</time>
      </trkpt>
      <trkpt lat="47.35641" lon="-2.34198">
        <ele>15.60000038147</ele>
        <time>2019-05-26T09:27:14.000Z</time>
      </trkpt>
      <trkpt lat="47.35612" lon="-2.34191">
        <ele>15.199999809265</ele>
        <time>2019-05-26T09:27:18.000Z</time>
      </trkpt>
      <trkpt lat="47.35605" lon="-2.3419">
        <ele>14.800000190735</ele>
        <time>2019-05-26T09:27:19.000Z</time>
      </trkpt>
      <trkpt lat="47.35598" lon="-2.34188">
        <ele>14.39999961853</ele>
        <time>2019-05-26T09:27:20.000Z</time>
      </trkpt>
      <trkpt lat="47.35591" lon="-2.34187">
        <ele>14</ele>
        <time>2019-05-26T09:27:21.000Z</time>
      </trkpt>
      <trkpt lat="47.35584" lon="-2.34185">
        <ele>13.60000038147</ele>
        <time>2019-05-26T09:27:22.000Z</time>
      </trkpt>
      <trkpt lat="47.35578" lon="-2.34185">
        <ele>13.60000038147</ele>
        <time>2019-05-26T09:27:23.000Z</time>
      </trkpt>
      <trkpt lat="47.35569" lon="-2.34191">
        <ele>13.60000038147</ele>
        <time>2019-05-26T09:27:25.000Z</time>
      </trkpt>
      <trkpt lat="47.35565" lon="-2.34206">
        <ele>13.60000038147</ele>
        <time>2019-05-26T09:27:27.000Z</time>
      </trkpt>
      <trkpt lat="47.35565" lon="-2.34215">
        <ele>13.199999809265</ele>
        <time>2019-05-26T09:27:28.000Z</time>
      </trkpt>
      <trkpt lat="47.35565" lon="-2.34224">
        <ele>12.800000190735</ele>
        <time>2019-05-26T09:27:29.000Z</time>
      </trkpt>
      <trkpt lat="47.35564" lon="-2.34233">
        <ele>12.199999809265</ele>
        <time>2019-05-26T09:27:30.000Z</time>
      </trkpt>
      <trkpt lat="47.35564" lon="-2.34242">
        <ele>11.800000190735</ele>
        <time>2019-05-26T09:27:31.000Z</time>
      </trkpt>
      <trkpt lat="47.35563" lon="-2.34251">
        <ele>11.39999961853</ele>
        <time>2019-05-26T09:27:32.000Z</time>
      </trkpt>
      <trkpt lat="47.35563" lon="-2.34261">
        <ele>11.39999961853</ele>
        <time>2019-05-26T09:27:33.000Z</time>
      </trkpt>
      <trkpt lat="47.35557" lon="-2.34327">
        <ele>11.39999961853</ele>
        <time>2019-05-26T09:27:40.000Z</time>
      </trkpt>
      <trkpt lat="47.35544" lon="-2.344">
        <ele>11.39999961853</ele>
        <time>2019-05-26T09:27:48.000Z</time>
      </trkpt>
      <trkpt lat="47.35538" lon="-2.34435">
        <ele>11</ele>
        <time>2019-05-26T09:27:52.000Z</time>
      </trkpt>
      <trkpt lat="47.35536" lon="-2.34443">
        <ele>10.60000038147</ele>
        <time>2019-05-26T09:27:53.000Z</time>
      </trkpt>
      <trkpt lat="47.35535" lon="-2.34453">
        <ele>10.199999809265</ele>
        <time>2019-05-26T09:27:54.000Z</time>
      </trkpt>
      <trkpt lat="47.35533" lon="-2.34462">
        <ele>9.8000001907349</ele>
        <time>2019-05-26T09:27:55.000Z</time>
      </trkpt>
      <trkpt lat="47.35532" lon="-2.34472">
        <ele>9.3999996185303</ele>
        <time>2019-05-26T09:27:56.000Z</time>
      </trkpt>
      <trkpt lat="47.35527" lon="-2.34512">
        <ele>9</ele>
        <time>2019-05-26T09:28:00.000Z</time>
      </trkpt>
      <trkpt lat="47.35525" lon="-2.34521">
        <ele>8.3999996185303</ele>
        <time>2019-05-26T09:28:01.000Z</time>
      </trkpt>
      <trkpt lat="47.35523" lon="-2.34531">
        <ele>8</ele>
        <time>2019-05-26T09:28:02.000Z</time>
      </trkpt>
      <trkpt lat="47.35519" lon="-2.3454">
        <ele>7.1999998092651</ele>
        <time>2019-05-26T09:28:03.000Z</time>
      </trkpt>
      <trkpt lat="47.35505" lon="-2.34572">
        <ele>7.1999998092651</ele>
        <time>2019-05-26T09:28:07.000Z</time>
      </trkpt>
      <trkpt lat="47.3548" lon="-2.34627">
        <ele>7.1999998092651</ele>
        <time>2019-05-26T09:28:15.000Z</time>
      </trkpt>
      <trkpt lat="47.35455" lon="-2.34688">
        <ele>7.1999998092651</ele>
        <time>2019-05-26T09:28:24.000Z</time>
      </trkpt>
      <trkpt lat="47.35447" lon="-2.34706">
        <ele>7.1999998092651</ele>
        <time>2019-05-26T09:28:27.000Z</time>
      </trkpt>
      <trkpt lat="47.35443" lon="-2.34709">
        <ele>8</ele>
        <time>2019-05-26T09:28:28.000Z</time>
      </trkpt>
      <trkpt lat="47.35439" lon="-2.34707">
        <ele>8.3999996185303</ele>
        <time>2019-05-26T09:28:29.000Z</time>
      </trkpt>
      <trkpt lat="47.35436" lon="-2.34704">
        <ele>8.8000001907349</ele>
        <time>2019-05-26T09:28:30.000Z</time>
      </trkpt>
      <trkpt lat="47.35434" lon="-2.34701">
        <ele>9.1999998092651</ele>
        <time>2019-05-26T09:28:31.000Z</time>
      </trkpt>
      <trkpt lat="47.35429" lon="-2.34693">
        <ele>9.1999998092651</ele>
        <time>2019-05-26T09:28:33.000Z</time>
      </trkpt>
      <trkpt lat="47.35427" lon="-2.34688">
        <ele>9.1999998092651</ele>
        <time>2019-05-26T09:28:34.000Z</time>
      </trkpt>
      <trkpt lat="47.35417" lon="-2.34669">
        <ele>9.1999998092651</ele>
        <time>2019-05-26T09:28:38.000Z</time>
      </trkpt>
      <trkpt lat="47.35414" lon="-2.34663">
        <ele>9.1999998092651</ele>
        <time>2019-05-26T09:28:39.000Z</time>
      </trkpt>
      <trkpt lat="47.35396" lon="-2.34606">
        <ele>9.1999998092651</ele>
        <time>2019-05-26T09:28:47.000Z</time>
      </trkpt>
      <trkpt lat="47.35372" lon="-2.34552">
        <ele>9.1999998092651</ele>
        <time>2019-05-26T09:28:55.000Z</time>
      </trkpt>
      <trkpt lat="47.35354" lon="-2.34517">
        <ele>9.1999998092651</ele>
        <time>2019-05-26T09:29:01.000Z</time>
      </trkpt>
      <trkpt lat="47.35346" lon="-2.34507">
        <ele>9.1999998092651</ele>
        <time>2019-05-26T09:29:03.000Z</time>
      </trkpt>
      <trkpt lat="47.35342" lon="-2.34503">
        <ele>9.1999998092651</ele>
        <time>2019-05-26T09:29:04.000Z</time>
      </trkpt>
      <trkpt lat="47.35324" lon="-2.34488">
        <ele>9.1999998092651</ele>
        <time>2019-05-26T09:29:08.000Z</time>
      </trkpt>
      <trkpt lat="47.35297" lon="-2.34474">
        <ele>9.1999998092651</ele>
        <time>2019-05-26T09:29:13.000Z</time>
      </trkpt>
      <trkpt lat="47.35291" lon="-2.34473">
        <ele>9.1999998092651</ele>
        <time>2019-05-26T09:29:14.000Z</time>
      </trkpt>
      <trkpt lat="47.35268" lon="-2.34479">
        <ele>9.1999998092651</ele>
        <time>2019-05-26T09:29:18.000Z</time>
      </trkpt>
      <trkpt lat="47.35262" lon="-2.34482">
        <ele>9.1999998092651</ele>
        <time>2019-05-26T09:29:20.000Z</time>
      </trkpt>
      <trkpt lat="47.35236" lon="-2.34494">
        <ele>9.1999998092651</ele>
        <time>2019-05-26T09:29:25.000Z</time>
      </trkpt>
      <trkpt lat="47.35207" lon="-2.34506">
        <ele>9.1999998092651</ele>
        <time>2019-05-26T09:29:30.000Z</time>
      </trkpt>
      <trkpt lat="47.35195" lon="-2.3451">
        <ele>9.1999998092651</ele>
        <time>2019-05-26T09:29:32.000Z</time>
      </trkpt>
      <trkpt lat="47.35156" lon="-2.34526">
        <ele>9.1999998092651</ele>
        <time>2019-05-26T09:29:39.000Z</time>
      </trkpt>
      <trkpt lat="47.35117" lon="-2.34542">
        <ele>9.1999998092651</ele>
        <time>2019-05-26T09:29:47.000Z</time>
      </trkpt>
      <trkpt lat="47.35092" lon="-2.34547">
        <ele>9.1999998092651</ele>
        <time>2019-05-26T09:29:53.000Z</time>
      </trkpt>
      <trkpt lat="47.35087" lon="-2.34545">
        <ele>9.1999998092651</ele>
        <time>2019-05-26T09:29:56.000Z</time>
      </trkpt>
      <trkpt lat="47.35086" lon="-2.34543">
        <ele>9.1999998092651</ele>
        <time>2019-05-26T09:29:58.000Z</time>
      </trkpt>
      <trkpt lat="47.35085" lon="-2.34541">
        <ele>9.1999998092651</ele>
        <time>2019-05-26T09:30:01.000Z</time>
      </trkpt>
      <trkpt lat="47.35083" lon="-2.34533">
        <ele>9.1999998092651</ele>
        <time>2019-05-26T09:30:06.000Z</time>
      </trkpt>
      <trkpt lat="47.35076" lon="-2.34519">
        <ele>9.1999998092651</ele>
        <time>2019-05-26T09:30:10.000Z</time>
      </trkpt>
      <trkpt lat="47.35073" lon="-2.34513">
        <ele>8.8000001907349</ele>
        <time>2019-05-26T09:30:12.000Z</time>
      </trkpt>
      <trkpt lat="47.35071" lon="-2.3451">
        <ele>8.1999998092651</ele>
        <time>2019-05-26T09:30:13.000Z</time>
      </trkpt>
      <trkpt lat="47.35068" lon="-2.34508">
        <ele>7.8000001907349</ele>
        <time>2019-05-26T09:30:14.000Z</time>
      </trkpt>
      <trkpt lat="47.35067" lon="-2.34506">
        <ele>7.1999998092651</ele>
        <time>2019-05-26T09:30:15.000Z</time>
      </trkpt>
      <trkpt lat="47.35065" lon="-2.34504">
        <ele>6.8000001907349</ele>
        <time>2019-05-26T09:30:16.000Z</time>
      </trkpt>
      <trkpt lat="47.35061" lon="-2.345">
        <ele>6.4000000953674</ele>
        <time>2019-05-26T09:30:20.000Z</time>
      </trkpt>
      <trkpt lat="47.3506" lon="-2.34499">
        <ele>6</ele>
        <time>2019-05-26T09:30:21.000Z</time>
      </trkpt>
      <trkpt lat="47.35057" lon="-2.345">
        <ele>4.8000001907349</ele>
        <time>2019-05-26T09:30:25.000Z</time>
      </trkpt>
      <trkpt lat="47.35053" lon="-2.34501">
        <ele>4.8000001907349</ele>
        <time>2019-05-26T09:30:27.000Z</time>
      </trkpt>
      <trkpt lat="47.35045" lon="-2.34498">
        <ele>4.8000001907349</ele>
        <time>2019-05-26T09:30:31.000Z</time>
      </trkpt>
      <trkpt lat="47.35043" lon="-2.34495">
        <ele>4.8000001907349</ele>
        <time>2019-05-26T09:30:32.000Z</time>
      </trkpt>
      <trkpt lat="47.35035" lon="-2.34481">
        <ele>4.8000001907349</ele>
        <time>2019-05-26T09:30:36.000Z</time>
      </trkpt>
      <trkpt lat="47.35019" lon="-2.34475">
        <ele>4.8000001907349</ele>
        <time>2019-05-26T09:30:40.000Z</time>
      </trkpt>
      <trkpt lat="47.35011" lon="-2.34464">
        <ele>5.1999998092651</ele>
        <time>2019-05-26T09:30:43.000Z</time>
      </trkpt>
      <trkpt lat="47.3501" lon="-2.3446">
        <ele>5.5999999046326</ele>
        <time>2019-05-26T09:30:44.000Z</time>
      </trkpt>
      <trkpt lat="47.35009" lon="-2.34454">
        <ele>6</ele>
        <time>2019-05-26T09:30:45.000Z</time>
      </trkpt>
      <trkpt lat="47.35007" lon="-2.34449">
        <ele>6.4000000953674</ele>
        <time>2019-05-26T09:30:46.000Z</time>
      </trkpt>
      <trkpt lat="47.35005" lon="-2.34443">
        <ele>6.8000001907349</ele>
        <time>2019-05-26T09:30:47.000Z</time>
      </trkpt>
      <trkpt lat="47.35004" lon="-2.34438">
        <ele>6.8000001907349</ele>
        <time>2019-05-26T09:30:48.000Z</time>
      </trkpt>
      <trkpt lat="47.35001" lon="-2.34427">
        <ele>7.1999998092651</ele>
        <time>2019-05-26T09:30:50.000Z</time>
      </trkpt>
      <trkpt lat="47.35" lon="-2.34422">
        <ele>7.5999999046326</ele>
        <time>2019-05-26T09:30:51.000Z</time>
      </trkpt>
      <trkpt lat="47.34999" lon="-2.34416">
        <ele>8</ele>
        <time>2019-05-26T09:30:52.000Z</time>
      </trkpt>
      <trkpt lat="47.34998" lon="-2.34411">
        <ele>8.3999996185303</ele>
        <time>2019-05-26T09:30:53.000Z</time>
      </trkpt>
      <trkpt lat="47.34997" lon="-2.34407">
        <ele>8.8000001907349</ele>
        <time>2019-05-26T09:30:54.000Z</time>
      </trkpt>
      <trkpt lat="47.3499" lon="-2.34381">
        <ele>8.8000001907349</ele>
        <time>2019-05-26T09:31:00.000Z</time>
      </trkpt>
      <trkpt lat="47.34988" lon="-2.34376">
        <ele>9.1999998092651</ele>
        <time>2019-05-26T09:31:01.000Z</time>
      </trkpt>
      <trkpt lat="47.34985" lon="-2.34372">
        <ele>9.6000003814697</ele>
        <time>2019-05-26T09:31:02.000Z</time>
      </trkpt>
      <trkpt lat="47.34982" lon="-2.34368">
        <ele>10</ele>
        <time>2019-05-26T09:31:03.000Z</time>
      </trkpt>
      <trkpt lat="47.34979" lon="-2.34366">
        <ele>10.39999961853</ele>
        <time>2019-05-26T09:31:04.000Z</time>
      </trkpt>
      <trkpt lat="47.34976" lon="-2.34363">
        <ele>10.800000190735</ele>
        <time>2019-05-26T09:31:05.000Z</time>
      </trkpt>
      <trkpt lat="47.34967" lon="-2.34343">
        <ele>10.800000190735</ele>
        <time>2019-05-26T09:31:10.000Z</time>
      </trkpt>
      <trkpt lat="47.3496" lon="-2.34332">
        <ele>11.199999809265</ele>
        <time>2019-05-26T09:31:13.000Z</time>
      </trkpt>
      <trkpt lat="47.34957" lon="-2.34328">
        <ele>11.60000038147</ele>
        <time>2019-05-26T09:31:14.000Z</time>
      </trkpt>
      <trkpt lat="47.34956" lon="-2.34324">
        <ele>12</ele>
        <time>2019-05-26T09:31:15.000Z</time>
      </trkpt>
      <trkpt lat="47.34954" lon="-2.34319">
        <ele>12.39999961853</ele>
        <time>2019-05-26T09:31:16.000Z</time>
      </trkpt>
      <trkpt lat="47.34953" lon="-2.34316">
        <ele>12.800000190735</ele>
        <time>2019-05-26T09:31:17.000Z</time>
      </trkpt>
      <trkpt lat="47.34951" lon="-2.34308">
        <ele>13.199999809265</ele>
        <time>2019-05-26T09:31:19.000Z</time>
      </trkpt>
      <trkpt lat="47.3495" lon="-2.34304">
        <ele>13.800000190735</ele>
        <time>2019-05-26T09:31:20.000Z</time>
      </trkpt>
      <trkpt lat="47.34949" lon="-2.343">
        <ele>14.60000038147</ele>
        <time>2019-05-26T09:31:21.000Z</time>
      </trkpt>
      <trkpt lat="47.34947" lon="-2.34295">
        <ele>15</ele>
        <time>2019-05-26T09:31:22.000Z</time>
      </trkpt>
      <trkpt lat="47.34942" lon="-2.34273">
        <ele>15.39999961853</ele>
        <time>2019-05-26T09:31:27.000Z</time>
      </trkpt>
      <trkpt lat="47.34941" lon="-2.3427">
        <ele>15.800000190735</ele>
        <time>2019-05-26T09:31:28.000Z</time>
      </trkpt>
      <trkpt lat="47.34939" lon="-2.34266">
        <ele>16.39999961853</ele>
        <time>2019-05-26T09:31:29.000Z</time>
      </trkpt>
      <trkpt lat="47.34937" lon="-2.34262">
        <ele>16.799999237061</ele>
        <time>2019-05-26T09:31:30.000Z</time>
      </trkpt>
      <trkpt lat="47.34935" lon="-2.34258">
        <ele>17.200000762939</ele>
        <time>2019-05-26T09:31:31.000Z</time>
      </trkpt>
      <trkpt lat="47.34932" lon="-2.3425">
        <ele>17.200000762939</ele>
        <time>2019-05-26T09:31:33.000Z</time>
      </trkpt>
      <trkpt lat="47.34926" lon="-2.34235">
        <ele>17.60000038147</ele>
        <time>2019-05-26T09:31:37.000Z</time>
      </trkpt>
      <trkpt lat="47.34925" lon="-2.34232">
        <ele>18</ele>
        <time>2019-05-26T09:31:38.000Z</time>
      </trkpt>
      <trkpt lat="47.34923" lon="-2.34229">
        <ele>18.39999961853</ele>
        <time>2019-05-26T09:31:39.000Z</time>
      </trkpt>
      <trkpt lat="47.34922" lon="-2.34226">
        <ele>18.799999237061</ele>
        <time>2019-05-26T09:31:40.000Z</time>
      </trkpt>
      <trkpt lat="47.34921" lon="-2.34223">
        <ele>19.200000762939</ele>
        <time>2019-05-26T09:31:41.000Z</time>
      </trkpt>
      <trkpt lat="47.34917" lon="-2.34216">
        <ele>19.200000762939</ele>
        <time>2019-05-26T09:31:44.000Z</time>
      </trkpt>
      <trkpt lat="47.34915" lon="-2.34214">
        <ele>20</ele>
        <time>2019-05-26T09:31:45.000Z</time>
      </trkpt>
      <trkpt lat="47.34913" lon="-2.34213">
        <ele>20.39999961853</ele>
        <time>2019-05-26T09:31:46.000Z</time>
      </trkpt>
      <trkpt lat="47.34911" lon="-2.34211">
        <ele>20.799999237061</ele>
        <time>2019-05-26T09:31:47.000Z</time>
      </trkpt>
      <trkpt lat="47.34909" lon="-2.34209">
        <ele>21.200000762939</ele>
        <time>2019-05-26T09:31:48.000Z</time>
      </trkpt>
      <trkpt lat="47.34905" lon="-2.34207">
        <ele>21.200000762939</ele>
        <time>2019-05-26T09:31:50.000Z</time>
      </trkpt>
      <trkpt lat="47.34902" lon="-2.34206">
        <ele>21.200000762939</ele>
        <time>2019-05-26T09:31:51.000Z</time>
      </trkpt>
      <trkpt lat="47.34894" lon="-2.34205">
        <ele>21.60000038147</ele>
        <time>2019-05-26T09:31:55.000Z</time>
      </trkpt>
      <trkpt lat="47.34892" lon="-2.34206">
        <ele>22</ele>
        <time>2019-05-26T09:31:56.000Z</time>
      </trkpt>
      <trkpt lat="47.3489" lon="-2.34205">
        <ele>22.60000038147</ele>
        <time>2019-05-26T09:31:57.000Z</time>
      </trkpt>
      <trkpt lat="47.34889" lon="-2.34206">
        <ele>23</ele>
        <time>2019-05-26T09:31:58.000Z</time>
      </trkpt>
      <trkpt lat="47.34887" lon="-2.34207">
        <ele>23.39999961853</ele>
        <time>2019-05-26T09:31:59.000Z</time>
      </trkpt>
      <trkpt lat="47.34885" lon="-2.34209">
        <ele>23.39999961853</ele>
        <time>2019-05-26T09:32:00.000Z</time>
      </trkpt>
      <trkpt lat="47.34876" lon="-2.34215">
        <ele>23.39999961853</ele>
        <time>2019-05-26T09:32:04.000Z</time>
      </trkpt>
      <trkpt lat="47.34874" lon="-2.34219">
        <ele>23.39999961853</ele>
        <time>2019-05-26T09:32:05.000Z</time>
      </trkpt>
      <trkpt lat="47.34865" lon="-2.34234">
        <ele>23.39999961853</ele>
        <time>2019-05-26T09:32:10.000Z</time>
      </trkpt>
      <trkpt lat="47.34864" lon="-2.34238">
        <ele>22.60000038147</ele>
        <time>2019-05-26T09:32:11.000Z</time>
      </trkpt>
      <trkpt lat="47.34863" lon="-2.34241">
        <ele>22</ele>
        <time>2019-05-26T09:32:12.000Z</time>
      </trkpt>
      <trkpt lat="47.34861" lon="-2.34245">
        <ele>21.60000038147</ele>
        <time>2019-05-26T09:32:13.000Z</time>
      </trkpt>
      <trkpt lat="47.3486" lon="-2.34248">
        <ele>21.200000762939</ele>
        <time>2019-05-26T09:32:14.000Z</time>
      </trkpt>
      <trkpt lat="47.34858" lon="-2.34252">
        <ele>21.200000762939</ele>
        <time>2019-05-26T09:32:15.000Z</time>
      </trkpt>
      <trkpt lat="47.34854" lon="-2.34263">
        <ele>20.799999237061</ele>
        <time>2019-05-26T09:32:17.000Z</time>
      </trkpt>
      <trkpt lat="47.34852" lon="-2.34267">
        <ele>20.200000762939</ele>
        <time>2019-05-26T09:32:18.000Z</time>
      </trkpt>
      <trkpt lat="47.34851" lon="-2.34271">
        <ele>19.799999237061</ele>
        <time>2019-05-26T09:32:19.000Z</time>
      </trkpt>
      <trkpt lat="47.34851" lon="-2.34276">
        <ele>19.200000762939</ele>
        <time>2019-05-26T09:32:20.000Z</time>
      </trkpt>
      <trkpt lat="47.34852" lon="-2.3428">
        <ele>18.799999237061</ele>
        <time>2019-05-26T09:32:21.000Z</time>
      </trkpt>
      <trkpt lat="47.34854" lon="-2.34294">
        <ele>18.799999237061</ele>
        <time>2019-05-26T09:32:24.000Z</time>
      </trkpt>
      <trkpt lat="47.34859" lon="-2.34319">
        <ele>18.39999961853</ele>
        <time>2019-05-26T09:32:29.000Z</time>
      </trkpt>
      <trkpt lat="47.3486" lon="-2.34324">
        <ele>18</ele>
        <time>2019-05-26T09:32:30.000Z</time>
      </trkpt>
      <trkpt lat="47.3486" lon="-2.34329">
        <ele>17.60000038147</ele>
        <time>2019-05-26T09:32:31.000Z</time>
      </trkpt>
      <trkpt lat="47.3486" lon="-2.34335">
        <ele>17</ele>
        <time>2019-05-26T09:32:32.000Z</time>
      </trkpt>
      <trkpt lat="47.34861" lon="-2.3434">
        <ele>16.60000038147</ele>
        <time>2019-05-26T09:32:33.000Z</time>
      </trkpt>
      <trkpt lat="47.34862" lon="-2.34359">
        <ele>16.60000038147</ele>
        <time>2019-05-26T09:32:37.000Z</time>
      </trkpt>
      <trkpt lat="47.34858" lon="-2.34369">
        <ele>16.60000038147</ele>
        <time>2019-05-26T09:32:40.000Z</time>
      </trkpt>
      <trkpt lat="47.34855" lon="-2.34371">
        <ele>16.60000038147</ele>
        <time>2019-05-26T09:32:41.000Z</time>
      </trkpt>
      <trkpt lat="47.34841" lon="-2.34377">
        <ele>16.60000038147</ele>
        <time>2019-05-26T09:32:46.000Z</time>
      </trkpt>
      <trkpt lat="47.34819" lon="-2.3438">
        <ele>16.60000038147</ele>
        <time>2019-05-26T09:32:52.000Z</time>
      </trkpt>
      <trkpt lat="47.34798" lon="-2.34383">
        <ele>16.60000038147</ele>
        <time>2019-05-26T09:32:57.000Z</time>
      </trkpt>
      <trkpt lat="47.34783" lon="-2.34388">
        <ele>16.200000762939</ele>
        <time>2019-05-26T09:33:01.000Z</time>
      </trkpt>
      <trkpt lat="47.34781" lon="-2.34392">
        <ele>15.800000190735</ele>
        <time>2019-05-26T09:33:02.000Z</time>
      </trkpt>
      <trkpt lat="47.34779" lon="-2.34396">
        <ele>15.39999961853</ele>
        <time>2019-05-26T09:33:03.000Z</time>
      </trkpt>
      <trkpt lat="47.34778" lon="-2.344">
        <ele>15</ele>
        <time>2019-05-26T09:33:04.000Z</time>
      </trkpt>
      <trkpt lat="47.34775" lon="-2.34404">
        <ele>14.60000038147</ele>
        <time>2019-05-26T09:33:05.000Z</time>
      </trkpt>
      <trkpt lat="47.34773" lon="-2.34408">
        <ele>14.60000038147</ele>
        <time>2019-05-26T09:33:06.000Z</time>
      </trkpt>
      <trkpt lat="47.34769" lon="-2.34416">
        <ele>14.60000038147</ele>
        <time>2019-05-26T09:33:08.000Z</time>
      </trkpt>
      <trkpt lat="47.34757" lon="-2.34444">
        <ele>14.60000038147</ele>
        <time>2019-05-26T09:33:14.000Z</time>
      </trkpt>
      <trkpt lat="47.34754" lon="-2.34451">
        <ele>14.199999809265</ele>
        <time>2019-05-26T09:33:17.000Z</time>
      </trkpt>
      <trkpt lat="47.34753" lon="-2.34453">
        <ele>13.800000190735</ele>
        <time>2019-05-26T09:33:18.000Z</time>
      </trkpt>
      <trkpt lat="47.34753" lon="-2.34455">
        <ele>13.39999961853</ele>
        <time>2019-05-26T09:33:19.000Z</time>
      </trkpt>
      <trkpt lat="47.34752" lon="-2.34457">
        <ele>13</ele>
        <time>2019-05-26T09:33:20.000Z</time>
      </trkpt>
      <trkpt lat="47.34751" lon="-2.34459">
        <ele>12.60000038147</ele>
        <time>2019-05-26T09:33:21.000Z</time>
      </trkpt>
      <trkpt lat="47.3475" lon="-2.34465">
        <ele>12.60000038147</ele>
        <time>2019-05-26T09:33:24.000Z</time>
      </trkpt>
      <trkpt lat="47.34745" lon="-2.34481">
        <ele>12.60000038147</ele>
        <time>2019-05-26T09:33:29.000Z</time>
      </trkpt>
      <trkpt lat="47.34733" lon="-2.34489">
        <ele>12.60000038147</ele>
        <time>2019-05-26T09:33:33.000Z</time>
      </trkpt>
      <trkpt lat="47.34713" lon="-2.34496">
        <ele>12.60000038147</ele>
        <time>2019-05-26T09:33:40.000Z</time>
      </trkpt>
      <trkpt lat="47.347" lon="-2.34502">
        <ele>12.60000038147</ele>
        <time>2019-05-26T09:33:46.000Z</time>
      </trkpt>
      <trkpt lat="47.34684" lon="-2.34509">
        <ele>12.60000038147</ele>
        <time>2019-05-26T09:33:51.000Z</time>
      </trkpt>
      <trkpt lat="47.34668" lon="-2.34514">
        <ele>12.60000038147</ele>
        <time>2019-05-26T09:33:56.000Z</time>
      </trkpt>
      <trkpt lat="47.34655" lon="-2.34517">
        <ele>12.60000038147</ele>
        <time>2019-05-26T09:34:02.000Z</time>
      </trkpt>
      <trkpt lat="47.34643" lon="-2.34522">
        <ele>12.60000038147</ele>
        <time>2019-05-26T09:34:07.000Z</time>
      </trkpt>
      <trkpt lat="47.34624" lon="-2.34525">
        <ele>13</ele>
        <time>2019-05-26T09:34:13.000Z</time>
      </trkpt>
      <trkpt lat="47.34621" lon="-2.34525">
        <ele>13.39999961853</ele>
        <time>2019-05-26T09:34:14.000Z</time>
      </trkpt>
      <trkpt lat="47.34617" lon="-2.34526">
        <ele>14.199999809265</ele>
        <time>2019-05-26T09:34:15.000Z</time>
      </trkpt>
      <trkpt lat="47.34614" lon="-2.34527">
        <ele>14.60000038147</ele>
        <time>2019-05-26T09:34:16.000Z</time>
      </trkpt>
      <trkpt lat="47.34612" lon="-2.3453">
        <ele>14.60000038147</ele>
        <time>2019-05-26T09:34:17.000Z</time>
      </trkpt>
      <trkpt lat="47.3461" lon="-2.34534">
        <ele>14.60000038147</ele>
        <time>2019-05-26T09:34:18.000Z</time>
      </trkpt>
      <trkpt lat="47.34612" lon="-2.3455">
        <ele>14.60000038147</ele>
        <time>2019-05-26T09:34:21.000Z</time>
      </trkpt>
      <trkpt lat="47.34619" lon="-2.34591">
        <ele>14.60000038147</ele>
        <time>2019-05-26T09:34:27.000Z</time>
      </trkpt>
      <trkpt lat="47.34628" lon="-2.34638">
        <ele>14.60000038147</ele>
        <time>2019-05-26T09:34:33.000Z</time>
      </trkpt>
      <trkpt lat="47.34639" lon="-2.34679">
        <ele>14.60000038147</ele>
        <time>2019-05-26T09:34:38.000Z</time>
      </trkpt>
      <trkpt lat="47.34641" lon="-2.34687">
        <ele>14.199999809265</ele>
        <time>2019-05-26T09:34:39.000Z</time>
      </trkpt>
      <trkpt lat="47.34643" lon="-2.34696">
        <ele>13.800000190735</ele>
        <time>2019-05-26T09:34:40.000Z</time>
      </trkpt>
      <trkpt lat="47.34644" lon="-2.34706">
        <ele>13.199999809265</ele>
        <time>2019-05-26T09:34:41.000Z</time>
      </trkpt>
      <trkpt lat="47.34645" lon="-2.34715">
        <ele>12.800000190735</ele>
        <time>2019-05-26T09:34:42.000Z</time>
      </trkpt>
      <trkpt lat="47.34645" lon="-2.34725">
        <ele>12.39999961853</ele>
        <time>2019-05-26T09:34:43.000Z</time>
      </trkpt>
      <trkpt lat="47.34638" lon="-2.34765">
        <ele>12.39999961853</ele>
        <time>2019-05-26T09:34:47.000Z</time>
      </trkpt>
      <trkpt lat="47.34626" lon="-2.3479">
        <ele>12.39999961853</ele>
        <time>2019-05-26T09:34:50.000Z</time>
      </trkpt>
      <trkpt lat="47.34622" lon="-2.34799">
        <ele>12.39999961853</ele>
        <time>2019-05-26T09:34:51.000Z</time>
      </trkpt>
      <trkpt lat="47.34593" lon="-2.34866">
        <ele>12.39999961853</ele>
        <time>2019-05-26T09:35:00.000Z</time>
      </trkpt>
      <trkpt lat="47.34578" lon="-2.349">
        <ele>12.39999961853</ele>
        <time>2019-05-26T09:35:05.000Z</time>
      </trkpt>
      <trkpt lat="47.34576" lon="-2.34905">
        <ele>12.39999961853</ele>
        <time>2019-05-26T09:35:06.000Z</time>
      </trkpt>
      <trkpt lat="47.34575" lon="-2.34915">
        <ele>12.39999961853</ele>
        <time>2019-05-26T09:35:09.000Z</time>
      </trkpt>
      <trkpt lat="47.34575" lon="-2.34916">
        <ele>12</ele>
        <time>2019-05-26T09:35:10.000Z</time>
      </trkpt>
      <trkpt lat="47.34577" lon="-2.34917">
        <ele>11.60000038147</ele>
        <time>2019-05-26T09:35:11.000Z</time>
      </trkpt>
      <trkpt lat="47.34579" lon="-2.34919">
        <ele>11.199999809265</ele>
        <time>2019-05-26T09:35:12.000Z</time>
      </trkpt>
      <trkpt lat="47.34581" lon="-2.34922">
        <ele>10.800000190735</ele>
        <time>2019-05-26T09:35:13.000Z</time>
      </trkpt>
      <trkpt lat="47.34582" lon="-2.34924">
        <ele>10.39999961853</ele>
        <time>2019-05-26T09:35:14.000Z</time>
      </trkpt>
      <trkpt lat="47.34586" lon="-2.34934">
        <ele>10.39999961853</ele>
        <time>2019-05-26T09:35:17.000Z</time>
      </trkpt>
      <trkpt lat="47.34589" lon="-2.34941">
        <ele>10.39999961853</ele>
        <time>2019-05-26T09:35:19.000Z</time>
      </trkpt>
      <trkpt lat="47.34603" lon="-2.3496">
        <ele>10.39999961853</ele>
        <time>2019-05-26T09:35:24.000Z</time>
      </trkpt>
      <trkpt lat="47.34618" lon="-2.34984">
        <ele>10.39999961853</ele>
        <time>2019-05-26T09:35:29.000Z</time>
      </trkpt>
      <trkpt lat="47.34629" lon="-2.35006">
        <ele>10.39999961853</ele>
        <time>2019-05-26T09:35:34.000Z</time>
      </trkpt>
      <trkpt lat="47.34643" lon="-2.35024">
        <ele>10.39999961853</ele>
        <time>2019-05-26T09:35:39.000Z</time>
      </trkpt>
      <trkpt lat="47.34656" lon="-2.35027">
        <ele>10.39999961853</ele>
        <time>2019-05-26T09:35:43.000Z</time>
      </trkpt>
      <trkpt lat="47.34673" lon="-2.3503">
        <ele>10.39999961853</ele>
        <time>2019-05-26T09:35:48.000Z</time>
      </trkpt>
      <trkpt lat="47.34683" lon="-2.35043">
        <ele>10.39999961853</ele>
        <time>2019-05-26T09:35:52.000Z</time>
      </trkpt>
      <trkpt lat="47.34698" lon="-2.35061">
        <ele>10.39999961853</ele>
        <time>2019-05-26T09:35:57.000Z</time>
      </trkpt>
      <trkpt lat="47.34715" lon="-2.35076">
        <ele>10.39999961853</ele>
        <time>2019-05-26T09:36:01.000Z</time>
      </trkpt>
      <trkpt lat="47.34732" lon="-2.35112">
        <ele>10.39999961853</ele>
        <time>2019-05-26T09:36:07.000Z</time>
      </trkpt>
      <trkpt lat="47.34744" lon="-2.35127">
        <ele>10.39999961853</ele>
        <time>2019-05-26T09:36:10.000Z</time>
      </trkpt>
      <trkpt lat="47.34747" lon="-2.35132">
        <ele>10.39999961853</ele>
        <time>2019-05-26T09:36:11.000Z</time>
      </trkpt>
      <trkpt lat="47.34755" lon="-2.35149">
        <ele>10.39999961853</ele>
        <time>2019-05-26T09:36:14.000Z</time>
      </trkpt>
      <trkpt lat="47.34757" lon="-2.35154">
        <ele>10.39999961853</ele>
        <time>2019-05-26T09:36:15.000Z</time>
      </trkpt>
      <trkpt lat="47.34762" lon="-2.35175">
        <ele>10.39999961853</ele>
        <time>2019-05-26T09:36:19.000Z</time>
      </trkpt>
      <trkpt lat="47.34761" lon="-2.35188">
        <ele>10.39999961853</ele>
        <time>2019-05-26T09:36:22.000Z</time>
      </trkpt>
      <trkpt lat="47.34757" lon="-2.35194">
        <ele>10.39999961853</ele>
        <time>2019-05-26T09:36:24.000Z</time>
      </trkpt>
      <trkpt lat="47.34758" lon="-2.35212">
        <ele>10.39999961853</ele>
        <time>2019-05-26T09:36:28.000Z</time>
      </trkpt>
      <trkpt lat="47.34759" lon="-2.35219">
        <ele>10.39999961853</ele>
        <time>2019-05-26T09:36:29.000Z</time>
      </trkpt>
      <trkpt lat="47.34759" lon="-2.35225">
        <ele>10.39999961853</ele>
        <time>2019-05-26T09:36:30.000Z</time>
      </trkpt>
      <trkpt lat="47.34756" lon="-2.35237">
        <ele>10.39999961853</ele>
        <time>2019-05-26T09:36:32.000Z</time>
      </trkpt>
      <trkpt lat="47.34747" lon="-2.35274">
        <ele>10.39999961853</ele>
        <time>2019-05-26T09:36:39.000Z</time>
      </trkpt>
      <trkpt lat="47.34745" lon="-2.35289">
        <ele>10.39999961853</ele>
        <time>2019-05-26T09:36:42.000Z</time>
      </trkpt>
      <trkpt lat="47.34744" lon="-2.35292">
        <ele>10.39999961853</ele>
        <time>2019-05-26T09:36:43.000Z</time>
      </trkpt>
      <trkpt lat="47.34742" lon="-2.35305">
        <ele>10.39999961853</ele>
        <time>2019-05-26T09:36:47.000Z</time>
      </trkpt>
      <trkpt lat="47.34741" lon="-2.35305">
        <ele>10.39999961853</ele>
        <time>2019-05-26T09:36:48.000Z</time>
      </trkpt>
      <trkpt lat="47.34739" lon="-2.35306">
        <ele>10.39999961853</ele>
        <time>2019-05-26T09:36:56.000Z</time>
      </trkpt>
      <trkpt lat="47.34736" lon="-2.35308">
        <ele>10.39999961853</ele>
        <time>2019-05-26T09:36:59.000Z</time>
      </trkpt>
      <trkpt lat="47.34734" lon="-2.3531">
        <ele>10.39999961853</ele>
        <time>2019-05-26T09:37:01.000Z</time>
      </trkpt>
      <trkpt lat="47.34731" lon="-2.35316">
        <ele>10.39999961853</ele>
        <time>2019-05-26T09:37:04.000Z</time>
      </trkpt>
      <trkpt lat="47.3473" lon="-2.3532">
        <ele>10.39999961853</ele>
        <time>2019-05-26T09:37:06.000Z</time>
      </trkpt>
      <trkpt lat="47.3473" lon="-2.35322">
        <ele>11.199999809265</ele>
        <time>2019-05-26T09:37:07.000Z</time>
      </trkpt>
      <trkpt lat="47.3473" lon="-2.35324">
        <ele>11.60000038147</ele>
        <time>2019-05-26T09:37:08.000Z</time>
      </trkpt>
      <trkpt lat="47.34731" lon="-2.35328">
        <ele>12</ele>
        <time>2019-05-26T09:37:09.000Z</time>
      </trkpt>
      <trkpt lat="47.3473" lon="-2.35334">
        <ele>12.39999961853</ele>
        <time>2019-05-26T09:37:10.000Z</time>
      </trkpt>
      <trkpt lat="47.34728" lon="-2.35358">
        <ele>12.39999961853</ele>
        <time>2019-05-26T09:37:15.000Z</time>
      </trkpt>
      <trkpt lat="47.34726" lon="-2.35362">
        <ele>12.39999961853</ele>
        <time>2019-05-26T09:37:16.000Z</time>
      </trkpt>
      <trkpt lat="47.34718" lon="-2.35377">
        <ele>12.39999961853</ele>
        <time>2019-05-26T09:37:20.000Z</time>
      </trkpt>
      <trkpt lat="47.34704" lon="-2.35391">
        <ele>12.39999961853</ele>
        <time>2019-05-26T09:37:24.000Z</time>
      </trkpt>
      <trkpt lat="47.34701" lon="-2.35396">
        <ele>12.39999961853</ele>
        <time>2019-05-26T09:37:25.000Z</time>
      </trkpt>
      <trkpt lat="47.34695" lon="-2.35398">
        <ele>12.39999961853</ele>
        <time>2019-05-26T09:37:27.000Z</time>
      </trkpt>
      <trkpt lat="47.34692" lon="-2.35398">
        <ele>12.39999961853</ele>
        <time>2019-05-26T09:37:28.000Z</time>
      </trkpt>
      <trkpt lat="47.34671" lon="-2.35401">
        <ele>12.39999961853</ele>
        <time>2019-05-26T09:37:33.000Z</time>
      </trkpt>
      <trkpt lat="47.34657" lon="-2.35404">
        <ele>12.39999961853</ele>
        <time>2019-05-26T09:37:37.000Z</time>
      </trkpt>
      <trkpt lat="47.34652" lon="-2.35403">
        <ele>12</ele>
        <time>2019-05-26T09:37:38.000Z</time>
      </trkpt>
      <trkpt lat="47.34648" lon="-2.35401">
        <ele>11.60000038147</ele>
        <time>2019-05-26T09:37:39.000Z</time>
      </trkpt>
      <trkpt lat="47.34644" lon="-2.354">
        <ele>11.199999809265</ele>
        <time>2019-05-26T09:37:40.000Z</time>
      </trkpt>
      <trkpt lat="47.3464" lon="-2.354">
        <ele>10.800000190735</ele>
        <time>2019-05-26T09:37:41.000Z</time>
      </trkpt>
      <trkpt lat="47.34637" lon="-2.35398">
        <ele>10.39999961853</ele>
        <time>2019-05-26T09:37:42.000Z</time>
      </trkpt>
      <trkpt lat="47.34626" lon="-2.35389">
        <ele>10.39999961853</ele>
        <time>2019-05-26T09:37:45.000Z</time>
      </trkpt>
      <trkpt lat="47.346" lon="-2.35371">
        <ele>10.39999961853</ele>
        <time>2019-05-26T09:37:53.000Z</time>
      </trkpt>
      <trkpt lat="47.34595" lon="-2.35369">
        <ele>10.800000190735</ele>
        <time>2019-05-26T09:37:56.000Z</time>
      </trkpt>
      <trkpt lat="47.34593" lon="-2.35367">
        <ele>11.60000038147</ele>
        <time>2019-05-26T09:37:57.000Z</time>
      </trkpt>
      <trkpt lat="47.34592" lon="-2.35366">
        <ele>12</ele>
        <time>2019-05-26T09:37:58.000Z</time>
      </trkpt>
      <trkpt lat="47.34591" lon="-2.35364">
        <ele>12.60000038147</ele>
        <time>2019-05-26T09:37:59.000Z</time>
      </trkpt>
      <trkpt lat="47.34587" lon="-2.35361">
        <ele>12.60000038147</ele>
        <time>2019-05-26T09:38:01.000Z</time>
      </trkpt>
      <trkpt lat="47.34585" lon="-2.35359">
        <ele>12.60000038147</ele>
        <time>2019-05-26T09:38:02.000Z</time>
      </trkpt>
      <trkpt lat="47.34574" lon="-2.35354">
        <ele>12.60000038147</ele>
        <time>2019-05-26T09:38:09.000Z</time>
      </trkpt>
      <trkpt lat="47.34574" lon="-2.35354">
        <ele>12.60000038147</ele>
        <time>2019-05-26T09:38:10.000Z</time>
      </trkpt>
      <trkpt lat="47.34573" lon="-2.35359">
        <ele>14.60000038147</ele>
        <time>2019-05-26T09:46:02.000Z</time>
      </trkpt>
      <trkpt lat="47.34568" lon="-2.35363">
        <ele>14.60000038147</ele>
        <time>2019-05-26T09:46:04.000Z</time>
      </trkpt>
      <trkpt lat="47.34557" lon="-2.35368">
        <ele>14.60000038147</ele>
        <time>2019-05-26T09:46:07.000Z</time>
      </trkpt>
      <trkpt lat="47.34552" lon="-2.35368">
        <ele>14.60000038147</ele>
        <time>2019-05-26T09:46:08.000Z</time>
      </trkpt>
      <trkpt lat="47.34547" lon="-2.35368">
        <ele>14.199999809265</ele>
        <time>2019-05-26T09:46:09.000Z</time>
      </trkpt>
      <trkpt lat="47.34542" lon="-2.35369">
        <ele>13.800000190735</ele>
        <time>2019-05-26T09:46:10.000Z</time>
      </trkpt>
      <trkpt lat="47.34537" lon="-2.35368">
        <ele>12.800000190735</ele>
        <time>2019-05-26T09:46:11.000Z</time>
      </trkpt>
      <trkpt lat="47.34533" lon="-2.35368">
        <ele>12.39999961853</ele>
        <time>2019-05-26T09:46:12.000Z</time>
      </trkpt>
      <trkpt lat="47.34528" lon="-2.35366">
        <ele>12.39999961853</ele>
        <time>2019-05-26T09:46:13.000Z</time>
      </trkpt>
      <trkpt lat="47.34524" lon="-2.35364">
        <ele>12.39999961853</ele>
        <time>2019-05-26T09:46:14.000Z</time>
      </trkpt>
      <trkpt lat="47.34507" lon="-2.35372">
        <ele>12.39999961853</ele>
        <time>2019-05-26T09:46:18.000Z</time>
      </trkpt>
      <trkpt lat="47.34497" lon="-2.35386">
        <ele>12.39999961853</ele>
        <time>2019-05-26T09:46:21.000Z</time>
      </trkpt>
      <trkpt lat="47.34493" lon="-2.35389">
        <ele>12.39999961853</ele>
        <time>2019-05-26T09:46:22.000Z</time>
      </trkpt>
      <trkpt lat="47.34489" lon="-2.3539">
        <ele>12</ele>
        <time>2019-05-26T09:46:23.000Z</time>
      </trkpt>
      <trkpt lat="47.34485" lon="-2.35392">
        <ele>11.60000038147</ele>
        <time>2019-05-26T09:46:24.000Z</time>
      </trkpt>
      <trkpt lat="47.34481" lon="-2.35395">
        <ele>11.199999809265</ele>
        <time>2019-05-26T09:46:25.000Z</time>
      </trkpt>
      <trkpt lat="47.34477" lon="-2.354">
        <ele>10.800000190735</ele>
        <time>2019-05-26T09:46:26.000Z</time>
      </trkpt>
      <trkpt lat="47.34474" lon="-2.35403">
        <ele>10.39999961853</ele>
        <time>2019-05-26T09:46:27.000Z</time>
      </trkpt>
      <trkpt lat="47.3447" lon="-2.35406">
        <ele>10.39999961853</ele>
        <time>2019-05-26T09:46:28.000Z</time>
      </trkpt>
      <trkpt lat="47.34461" lon="-2.35404">
        <ele>10.39999961853</ele>
        <time>2019-05-26T09:46:31.000Z</time>
      </trkpt>
      <trkpt lat="47.34451" lon="-2.35403">
        <ele>10.39999961853</ele>
        <time>2019-05-26T09:46:35.000Z</time>
      </trkpt>
      <trkpt lat="47.34448" lon="-2.35403">
        <ele>10.39999961853</ele>
        <time>2019-05-26T09:46:36.000Z</time>
      </trkpt>
      <trkpt lat="47.34437" lon="-2.35402">
        <ele>10.39999961853</ele>
        <time>2019-05-26T09:46:40.000Z</time>
      </trkpt>
      <trkpt lat="47.34434" lon="-2.35404">
        <ele>10.39999961853</ele>
        <time>2019-05-26T09:46:41.000Z</time>
      </trkpt>
      <trkpt lat="47.34426" lon="-2.35418">
        <ele>10.39999961853</ele>
        <time>2019-05-26T09:46:45.000Z</time>
      </trkpt>
      <trkpt lat="47.34422" lon="-2.3543">
        <ele>10.39999961853</ele>
        <time>2019-05-26T09:46:47.000Z</time>
      </trkpt>
      <trkpt lat="47.34415" lon="-2.35452">
        <ele>10.39999961853</ele>
        <time>2019-05-26T09:46:51.000Z</time>
      </trkpt>
      <trkpt lat="47.34413" lon="-2.35457">
        <ele>10.39999961853</ele>
        <time>2019-05-26T09:46:54.000Z</time>
      </trkpt>
      <trkpt lat="47.34413" lon="-2.35456">
        <ele>10.39999961853</ele>
        <time>2019-05-26T09:46:55.000Z</time>
      </trkpt>
      <trkpt lat="47.34411" lon="-2.35459">
        <ele>10.39999961853</ele>
        <time>2019-05-26T09:47:01.000Z</time>
      </trkpt>
      <trkpt lat="47.34408" lon="-2.35465">
        <ele>10.39999961853</ele>
        <time>2019-05-26T09:47:03.000Z</time>
      </trkpt>
      <trkpt lat="47.34393" lon="-2.35489">
        <ele>10.39999961853</ele>
        <time>2019-05-26T09:47:08.000Z</time>
      </trkpt>
      <trkpt lat="47.34374" lon="-2.35519">
        <ele>10.39999961853</ele>
        <time>2019-05-26T09:47:14.000Z</time>
      </trkpt>
      <trkpt lat="47.34353" lon="-2.35545">
        <ele>10.39999961853</ele>
        <time>2019-05-26T09:47:21.000Z</time>
      </trkpt>
      <trkpt lat="47.34338" lon="-2.35567">
        <ele>10.39999961853</ele>
        <time>2019-05-26T09:47:27.000Z</time>
      </trkpt>
      <trkpt lat="47.34325" lon="-2.35584">
        <ele>10.39999961853</ele>
        <time>2019-05-26T09:47:31.000Z</time>
      </trkpt>
      <trkpt lat="47.34316" lon="-2.35597">
        <ele>10.39999961853</ele>
        <time>2019-05-26T09:47:34.000Z</time>
      </trkpt>
      <trkpt lat="47.34306" lon="-2.3561">
        <ele>10.39999961853</ele>
        <time>2019-05-26T09:47:37.000Z</time>
      </trkpt>
      <trkpt lat="47.34295" lon="-2.35628">
        <ele>10.39999961853</ele>
        <time>2019-05-26T09:47:41.000Z</time>
      </trkpt>
      <trkpt lat="47.34271" lon="-2.35664">
        <ele>10.39999961853</ele>
        <time>2019-05-26T09:47:49.000Z</time>
      </trkpt>
      <trkpt lat="47.34254" lon="-2.35684">
        <ele>10.39999961853</ele>
        <time>2019-05-26T09:47:54.000Z</time>
      </trkpt>
      <trkpt lat="47.34246" lon="-2.35688">
        <ele>10.39999961853</ele>
        <time>2019-05-26T09:47:56.000Z</time>
      </trkpt>
      <trkpt lat="47.34221" lon="-2.35699">
        <ele>10.800000190735</ele>
        <time>2019-05-26T09:48:02.000Z</time>
      </trkpt>
      <trkpt lat="47.34218" lon="-2.357">
        <ele>11.199999809265</ele>
        <time>2019-05-26T09:48:03.000Z</time>
      </trkpt>
      <trkpt lat="47.34214" lon="-2.357">
        <ele>11.60000038147</ele>
        <time>2019-05-26T09:48:04.000Z</time>
      </trkpt>
      <trkpt lat="47.3421" lon="-2.357">
        <ele>12.199999809265</ele>
        <time>2019-05-26T09:48:05.000Z</time>
      </trkpt>
      <trkpt lat="47.34206" lon="-2.357">
        <ele>12.60000038147</ele>
        <time>2019-05-26T09:48:06.000Z</time>
      </trkpt>
      <trkpt lat="47.342" lon="-2.35696">
        <ele>13</ele>
        <time>2019-05-26T09:48:08.000Z</time>
      </trkpt>
      <trkpt lat="47.34196" lon="-2.35694">
        <ele>13.39999961853</ele>
        <time>2019-05-26T09:48:09.000Z</time>
      </trkpt>
      <trkpt lat="47.34193" lon="-2.35689">
        <ele>14</ele>
        <time>2019-05-26T09:48:10.000Z</time>
      </trkpt>
      <trkpt lat="47.34191" lon="-2.35684">
        <ele>14.39999961853</ele>
        <time>2019-05-26T09:48:11.000Z</time>
      </trkpt>
      <trkpt lat="47.34189" lon="-2.3568">
        <ele>14.800000190735</ele>
        <time>2019-05-26T09:48:12.000Z</time>
      </trkpt>
      <trkpt lat="47.34186" lon="-2.35675">
        <ele>15.199999809265</ele>
        <time>2019-05-26T09:48:13.000Z</time>
      </trkpt>
      <trkpt lat="47.34183" lon="-2.35671">
        <ele>16</ele>
        <time>2019-05-26T09:48:14.000Z</time>
      </trkpt>
      <trkpt lat="47.3418" lon="-2.35666">
        <ele>16.39999961853</ele>
        <time>2019-05-26T09:48:15.000Z</time>
      </trkpt>
      <trkpt lat="47.34177" lon="-2.3566">
        <ele>16.799999237061</ele>
        <time>2019-05-26T09:48:16.000Z</time>
      </trkpt>
      <trkpt lat="47.34171" lon="-2.35649">
        <ele>17.200000762939</ele>
        <time>2019-05-26T09:48:18.000Z</time>
      </trkpt>
      <trkpt lat="47.34167" lon="-2.35644">
        <ele>17.799999237061</ele>
        <time>2019-05-26T09:48:19.000Z</time>
      </trkpt>
      <trkpt lat="47.34164" lon="-2.35639">
        <ele>18.200000762939</ele>
        <time>2019-05-26T09:48:20.000Z</time>
      </trkpt>
      <trkpt lat="47.34161" lon="-2.35632">
        <ele>18.60000038147</ele>
        <time>2019-05-26T09:48:21.000Z</time>
      </trkpt>
      <trkpt lat="47.34157" lon="-2.35627">
        <ele>19</ele>
        <time>2019-05-26T09:48:22.000Z</time>
      </trkpt>
      <trkpt lat="47.3415" lon="-2.35615">
        <ele>19</ele>
        <time>2019-05-26T09:48:24.000Z</time>
      </trkpt>
      <trkpt lat="47.34144" lon="-2.35603">
        <ele>19</ele>
        <time>2019-05-26T09:48:26.000Z</time>
      </trkpt>
      <trkpt lat="47.34132" lon="-2.35573">
        <ele>19</ele>
        <time>2019-05-26T09:48:30.000Z</time>
      </trkpt>
      <trkpt lat="47.34114" lon="-2.35517">
        <ele>19</ele>
        <time>2019-05-26T09:48:37.000Z</time>
      </trkpt>
      <trkpt lat="47.34089" lon="-2.35455">
        <ele>19</ele>
        <time>2019-05-26T09:48:45.000Z</time>
      </trkpt>
      <trkpt lat="47.34066" lon="-2.35395">
        <ele>19</ele>
        <time>2019-05-26T09:48:53.000Z</time>
      </trkpt>
      <trkpt lat="47.3405" lon="-2.35362">
        <ele>19</ele>
        <time>2019-05-26T09:48:58.000Z</time>
      </trkpt>
      <trkpt lat="47.34046" lon="-2.35356">
        <ele>19</ele>
        <time>2019-05-26T09:48:59.000Z</time>
      </trkpt>
      <trkpt lat="47.34033" lon="-2.35342">
        <ele>19.39999961853</ele>
        <time>2019-05-26T09:49:02.000Z</time>
      </trkpt>
      <trkpt lat="47.34028" lon="-2.35337">
        <ele>20.200000762939</ele>
        <time>2019-05-26T09:49:03.000Z</time>
      </trkpt>
      <trkpt lat="47.34024" lon="-2.35332">
        <ele>20.60000038147</ele>
        <time>2019-05-26T09:49:04.000Z</time>
      </trkpt>
      <trkpt lat="47.34019" lon="-2.35328">
        <ele>21</ele>
        <time>2019-05-26T09:49:05.000Z</time>
      </trkpt>
      <trkpt lat="47.33987" lon="-2.35297">
        <ele>21</ele>
        <time>2019-05-26T09:49:12.000Z</time>
      </trkpt>
      <trkpt lat="47.33983" lon="-2.35292">
        <ele>21</ele>
        <time>2019-05-26T09:49:13.000Z</time>
      </trkpt>
      <trkpt lat="47.33964" lon="-2.35271">
        <ele>21.39999961853</ele>
        <time>2019-05-26T09:49:18.000Z</time>
      </trkpt>
      <trkpt lat="47.33959" lon="-2.35267">
        <ele>21.799999237061</ele>
        <time>2019-05-26T09:49:19.000Z</time>
      </trkpt>
      <trkpt lat="47.33956" lon="-2.35262">
        <ele>22.200000762939</ele>
        <time>2019-05-26T09:49:20.000Z</time>
      </trkpt>
      <trkpt lat="47.33952" lon="-2.35255">
        <ele>22.799999237061</ele>
        <time>2019-05-26T09:49:21.000Z</time>
      </trkpt>
      <trkpt lat="47.3395" lon="-2.35248">
        <ele>23.200000762939</ele>
        <time>2019-05-26T09:49:22.000Z</time>
      </trkpt>
      <trkpt lat="47.3394" lon="-2.35218">
        <ele>23.200000762939</ele>
        <time>2019-05-26T09:49:26.000Z</time>
      </trkpt>
      <trkpt lat="47.33932" lon="-2.35205">
        <ele>24</ele>
        <time>2019-05-26T09:49:28.000Z</time>
      </trkpt>
      <trkpt lat="47.33928" lon="-2.35199">
        <ele>24.39999961853</ele>
        <time>2019-05-26T09:49:29.000Z</time>
      </trkpt>
      <trkpt lat="47.33923" lon="-2.35193">
        <ele>24.799999237061</ele>
        <time>2019-05-26T09:49:30.000Z</time>
      </trkpt>
      <trkpt lat="47.33918" lon="-2.35187">
        <ele>25.39999961853</ele>
        <time>2019-05-26T09:49:31.000Z</time>
      </trkpt>
      <trkpt lat="47.33885" lon="-2.35157">
        <ele>25.39999961853</ele>
        <time>2019-05-26T09:49:37.000Z</time>
      </trkpt>
      <trkpt lat="47.33853" lon="-2.35129">
        <ele>25.39999961853</ele>
        <time>2019-05-26T09:49:43.000Z</time>
      </trkpt>
      <trkpt lat="47.33848" lon="-2.35126">
        <ele>25.39999961853</ele>
        <time>2019-05-26T09:49:44.000Z</time>
      </trkpt>
      <trkpt lat="47.33813" lon="-2.35102">
        <ele>25.39999961853</ele>
        <time>2019-05-26T09:49:50.000Z</time>
      </trkpt>
      <trkpt lat="47.33766" lon="-2.35076">
        <ele>25</ele>
        <time>2019-05-26T09:49:57.000Z</time>
      </trkpt>
      <trkpt lat="47.3376" lon="-2.35071">
        <ele>24.60000038147</ele>
        <time>2019-05-26T09:49:58.000Z</time>
      </trkpt>
      <trkpt lat="47.33753" lon="-2.35067">
        <ele>24.200000762939</ele>
        <time>2019-05-26T09:49:59.000Z</time>
      </trkpt>
      <trkpt lat="47.33747" lon="-2.35062">
        <ele>23.799999237061</ele>
        <time>2019-05-26T09:50:00.000Z</time>
      </trkpt>
      <trkpt lat="47.33741" lon="-2.35056">
        <ele>23.39999961853</ele>
        <time>2019-05-26T09:50:01.000Z</time>
      </trkpt>
      <trkpt lat="47.33731" lon="-2.35045">
        <ele>23.39999961853</ele>
        <time>2019-05-26T09:50:03.000Z</time>
      </trkpt>
      <trkpt lat="47.33708" lon="-2.3501">
        <ele>23.39999961853</ele>
        <time>2019-05-26T09:50:08.000Z</time>
      </trkpt>
      <trkpt lat="47.33685" lon="-2.34976">
        <ele>23.39999961853</ele>
        <time>2019-05-26T09:50:14.000Z</time>
      </trkpt>
      <trkpt lat="47.33681" lon="-2.34971">
        <ele>23.39999961853</ele>
        <time>2019-05-26T09:50:15.000Z</time>
      </trkpt>
      <trkpt lat="47.33669" lon="-2.34962">
        <ele>23.39999961853</ele>
        <time>2019-05-26T09:50:18.000Z</time>
      </trkpt>
      <trkpt lat="47.33659" lon="-2.34963">
        <ele>23.39999961853</ele>
        <time>2019-05-26T09:50:20.000Z</time>
      </trkpt>
      <trkpt lat="47.33651" lon="-2.34966">
        <ele>23.39999961853</ele>
        <time>2019-05-26T09:50:22.000Z</time>
      </trkpt>
      <trkpt lat="47.33637" lon="-2.34959">
        <ele>23.39999961853</ele>
        <time>2019-05-26T09:50:26.000Z</time>
      </trkpt>
      <trkpt lat="47.33628" lon="-2.34953">
        <ele>23.39999961853</ele>
        <time>2019-05-26T09:50:28.000Z</time>
      </trkpt>
      <trkpt lat="47.33619" lon="-2.34947">
        <ele>23.39999961853</ele>
        <time>2019-05-26T09:50:30.000Z</time>
      </trkpt>
      <trkpt lat="47.33608" lon="-2.34939">
        <ele>23.39999961853</ele>
        <time>2019-05-26T09:50:33.000Z</time>
      </trkpt>
      <trkpt lat="47.3359" lon="-2.34931">
        <ele>23.799999237061</ele>
        <time>2019-05-26T09:50:37.000Z</time>
      </trkpt>
      <trkpt lat="47.33586" lon="-2.34929">
        <ele>24.200000762939</ele>
        <time>2019-05-26T09:50:38.000Z</time>
      </trkpt>
      <trkpt lat="47.33581" lon="-2.34927">
        <ele>24.60000038147</ele>
        <time>2019-05-26T09:50:39.000Z</time>
      </trkpt>
      <trkpt lat="47.33576" lon="-2.34924">
        <ele>25</ele>
        <time>2019-05-26T09:50:40.000Z</time>
      </trkpt>
      <trkpt lat="47.33571" lon="-2.34922">
        <ele>25.39999961853</ele>
        <time>2019-05-26T09:50:41.000Z</time>
      </trkpt>
      <trkpt lat="47.33565" lon="-2.34921">
        <ele>25.39999961853</ele>
        <time>2019-05-26T09:50:42.000Z</time>
      </trkpt>
      <trkpt lat="47.33548" lon="-2.34914">
        <ele>25.39999961853</ele>
        <time>2019-05-26T09:50:45.000Z</time>
      </trkpt>
      <trkpt lat="47.33537" lon="-2.34907">
        <ele>25.39999961853</ele>
        <time>2019-05-26T09:50:47.000Z</time>
      </trkpt>
      <trkpt lat="47.33521" lon="-2.34899">
        <ele>25.39999961853</ele>
        <time>2019-05-26T09:50:50.000Z</time>
      </trkpt>
      <trkpt lat="47.33515" lon="-2.34898">
        <ele>25.39999961853</ele>
        <time>2019-05-26T09:50:51.000Z</time>
      </trkpt>
      <trkpt lat="47.33498" lon="-2.34901">
        <ele>25.39999961853</ele>
        <time>2019-05-26T09:50:54.000Z</time>
      </trkpt>
      <trkpt lat="47.33493" lon="-2.34903">
        <ele>25.39999961853</ele>
        <time>2019-05-26T09:50:55.000Z</time>
      </trkpt>
      <trkpt lat="47.3346" lon="-2.34914">
        <ele>25.39999961853</ele>
        <time>2019-05-26T09:51:00.000Z</time>
      </trkpt>
      <trkpt lat="47.33421" lon="-2.3493">
        <ele>25.39999961853</ele>
        <time>2019-05-26T09:51:06.000Z</time>
      </trkpt>
      <trkpt lat="47.33402" lon="-2.34937">
        <ele>25.39999961853</ele>
        <time>2019-05-26T09:51:09.000Z</time>
      </trkpt>
      <trkpt lat="47.3339" lon="-2.34941">
        <ele>25.39999961853</ele>
        <time>2019-05-26T09:51:11.000Z</time>
      </trkpt>
      <trkpt lat="47.33383" lon="-2.34942">
        <ele>25.39999961853</ele>
        <time>2019-05-26T09:51:12.000Z</time>
      </trkpt>
      <trkpt lat="47.33371" lon="-2.34944">
        <ele>25.39999961853</ele>
        <time>2019-05-26T09:51:14.000Z</time>
      </trkpt>
      <trkpt lat="47.33347" lon="-2.34947">
        <ele>25.39999961853</ele>
        <time>2019-05-26T09:51:18.000Z</time>
      </trkpt>
      <trkpt lat="47.33331" lon="-2.34945">
        <ele>25.39999961853</ele>
        <time>2019-05-26T09:51:22.000Z</time>
      </trkpt>
      <trkpt lat="47.33325" lon="-2.34946">
        <ele>25</ele>
        <time>2019-05-26T09:51:27.000Z</time>
      </trkpt>
      <trkpt lat="47.33323" lon="-2.34946">
        <ele>24.60000038147</ele>
        <time>2019-05-26T09:51:28.000Z</time>
      </trkpt>
      <trkpt lat="47.33321" lon="-2.34945">
        <ele>24.200000762939</ele>
        <time>2019-05-26T09:51:29.000Z</time>
      </trkpt>
      <trkpt lat="47.33319" lon="-2.34944">
        <ele>23.799999237061</ele>
        <time>2019-05-26T09:51:30.000Z</time>
      </trkpt>
      <trkpt lat="47.33315" lon="-2.34944">
        <ele>23.39999961853</ele>
        <time>2019-05-26T09:51:31.000Z</time>
      </trkpt>
      <trkpt lat="47.33289" lon="-2.34946">
        <ele>23.39999961853</ele>
        <time>2019-05-26T09:51:37.000Z</time>
      </trkpt>
      <trkpt lat="47.33275" lon="-2.34947">
        <ele>23.39999961853</ele>
        <time>2019-05-26T09:51:40.000Z</time>
      </trkpt>
      <trkpt lat="47.33266" lon="-2.34949">
        <ele>23.39999961853</ele>
        <time>2019-05-26T09:51:42.000Z</time>
      </trkpt>
      <trkpt lat="47.33257" lon="-2.34951">
        <ele>23.39999961853</ele>
        <time>2019-05-26T09:51:44.000Z</time>
      </trkpt>
      <trkpt lat="47.33249" lon="-2.34954">
        <ele>23.39999961853</ele>
        <time>2019-05-26T09:51:46.000Z</time>
      </trkpt>
      <trkpt lat="47.33239" lon="-2.34957">
        <ele>23.39999961853</ele>
        <time>2019-05-26T09:51:48.000Z</time>
      </trkpt>
      <trkpt lat="47.3323" lon="-2.34962">
        <ele>23.39999961853</ele>
        <time>2019-05-26T09:51:50.000Z</time>
      </trkpt>
      <trkpt lat="47.33222" lon="-2.34967">
        <ele>23.39999961853</ele>
        <time>2019-05-26T09:51:52.000Z</time>
      </trkpt>
      <trkpt lat="47.33214" lon="-2.34973">
        <ele>23.39999961853</ele>
        <time>2019-05-26T09:51:54.000Z</time>
      </trkpt>
      <trkpt lat="47.3321" lon="-2.34978">
        <ele>23.39999961853</ele>
        <time>2019-05-26T09:51:55.000Z</time>
      </trkpt>
      <trkpt lat="47.33185" lon="-2.35007">
        <ele>23.39999961853</ele>
        <time>2019-05-26T09:52:01.000Z</time>
      </trkpt>
      <trkpt lat="47.33174" lon="-2.35014">
        <ele>23.39999961853</ele>
        <time>2019-05-26T09:52:04.000Z</time>
      </trkpt>
      <trkpt lat="47.33172" lon="-2.35014">
        <ele>23.39999961853</ele>
        <time>2019-05-26T09:52:05.000Z</time>
      </trkpt>
      <trkpt lat="47.33161" lon="-2.35008">
        <ele>23.39999961853</ele>
        <time>2019-05-26T09:52:09.000Z</time>
      </trkpt>
      <trkpt lat="47.33152" lon="-2.35013">
        <ele>23.39999961853</ele>
        <time>2019-05-26T09:52:12.000Z</time>
      </trkpt>
      <trkpt lat="47.33139" lon="-2.35038">
        <ele>23.39999961853</ele>
        <time>2019-05-26T09:52:17.000Z</time>
      </trkpt>
      <trkpt lat="47.33136" lon="-2.35043">
        <ele>23.39999961853</ele>
        <time>2019-05-26T09:52:18.000Z</time>
      </trkpt>
      <trkpt lat="47.33125" lon="-2.35059">
        <ele>23.39999961853</ele>
        <time>2019-05-26T09:52:21.000Z</time>
      </trkpt>
      <trkpt lat="47.33122" lon="-2.35064">
        <ele>23.39999961853</ele>
        <time>2019-05-26T09:52:22.000Z</time>
      </trkpt>
      <trkpt lat="47.33112" lon="-2.35079">
        <ele>23.39999961853</ele>
        <time>2019-05-26T09:52:25.000Z</time>
      </trkpt>
      <trkpt lat="47.33106" lon="-2.35088">
        <ele>23.39999961853</ele>
        <time>2019-05-26T09:52:27.000Z</time>
      </trkpt>
      <trkpt lat="47.33084" lon="-2.35117">
        <ele>23.39999961853</ele>
        <time>2019-05-26T09:52:33.000Z</time>
      </trkpt>
      <trkpt lat="47.33073" lon="-2.35133">
        <ele>23.39999961853</ele>
        <time>2019-05-26T09:52:36.000Z</time>
      </trkpt>
      <trkpt lat="47.3307" lon="-2.35138">
        <ele>23.39999961853</ele>
        <time>2019-05-26T09:52:37.000Z</time>
      </trkpt>
      <trkpt lat="47.33059" lon="-2.35152">
        <ele>23.39999961853</ele>
        <time>2019-05-26T09:52:40.000Z</time>
      </trkpt>
      <trkpt lat="47.33055" lon="-2.35156">
        <ele>23.39999961853</ele>
        <time>2019-05-26T09:52:41.000Z</time>
      </trkpt>
      <trkpt lat="47.33045" lon="-2.35163">
        <ele>23.39999961853</ele>
        <time>2019-05-26T09:52:44.000Z</time>
      </trkpt>
      <trkpt lat="47.33035" lon="-2.35161">
        <ele>23.39999961853</ele>
        <time>2019-05-26T09:52:47.000Z</time>
      </trkpt>
      <trkpt lat="47.33029" lon="-2.35142">
        <ele>23.39999961853</ele>
        <time>2019-05-26T09:52:51.000Z</time>
      </trkpt>
      <trkpt lat="47.33024" lon="-2.35109">
        <ele>23.39999961853</ele>
        <time>2019-05-26T09:52:57.000Z</time>
      </trkpt>
      <trkpt lat="47.33019" lon="-2.35094">
        <ele>23.39999961853</ele>
        <time>2019-05-26T09:53:01.000Z</time>
      </trkpt>
      <trkpt lat="47.33014" lon="-2.35076">
        <ele>23.39999961853</ele>
        <time>2019-05-26T09:53:05.000Z</time>
      </trkpt>
      <trkpt lat="47.33012" lon="-2.35051">
        <ele>23.39999961853</ele>
        <time>2019-05-26T09:53:09.000Z</time>
      </trkpt>
      <trkpt lat="47.33005" lon="-2.3503">
        <ele>23.39999961853</ele>
        <time>2019-05-26T09:53:14.000Z</time>
      </trkpt>
      <trkpt lat="47.32994" lon="-2.35006">
        <ele>23.39999961853</ele>
        <time>2019-05-26T09:53:18.000Z</time>
      </trkpt>
      <trkpt lat="47.32983" lon="-2.3498">
        <ele>23.39999961853</ele>
        <time>2019-05-26T09:53:23.000Z</time>
      </trkpt>
      <trkpt lat="47.32977" lon="-2.34959">
        <ele>23</ele>
        <time>2019-05-26T09:53:26.000Z</time>
      </trkpt>
      <trkpt lat="47.32975" lon="-2.34952">
        <ele>22.60000038147</ele>
        <time>2019-05-26T09:53:27.000Z</time>
      </trkpt>
      <trkpt lat="47.32973" lon="-2.34946">
        <ele>22</ele>
        <time>2019-05-26T09:53:28.000Z</time>
      </trkpt>
      <trkpt lat="47.32971" lon="-2.34941">
        <ele>21.60000038147</ele>
        <time>2019-05-26T09:53:29.000Z</time>
      </trkpt>
      <trkpt lat="47.32969" lon="-2.34935">
        <ele>21.200000762939</ele>
        <time>2019-05-26T09:53:30.000Z</time>
      </trkpt>
      <trkpt lat="47.32963" lon="-2.3492">
        <ele>21.200000762939</ele>
        <time>2019-05-26T09:53:32.000Z</time>
      </trkpt>
      <trkpt lat="47.32947" lon="-2.34879">
        <ele>21.200000762939</ele>
        <time>2019-05-26T09:53:38.000Z</time>
      </trkpt>
      <trkpt lat="47.32944" lon="-2.34872">
        <ele>21.200000762939</ele>
        <time>2019-05-26T09:53:39.000Z</time>
      </trkpt>
      <trkpt lat="47.32941" lon="-2.34866">
        <ele>21.200000762939</ele>
        <time>2019-05-26T09:53:40.000Z</time>
      </trkpt>
      <trkpt lat="47.32934" lon="-2.34842">
        <ele>21.200000762939</ele>
        <time>2019-05-26T09:53:43.000Z</time>
      </trkpt>
      <trkpt lat="47.32931" lon="-2.34835">
        <ele>21.200000762939</ele>
        <time>2019-05-26T09:53:44.000Z</time>
      </trkpt>
      <trkpt lat="47.32923" lon="-2.34823">
        <ele>21.200000762939</ele>
        <time>2019-05-26T09:53:46.000Z</time>
      </trkpt>
      <trkpt lat="47.32919" lon="-2.34811">
        <ele>21.200000762939</ele>
        <time>2019-05-26T09:53:48.000Z</time>
      </trkpt>
      <trkpt lat="47.32913" lon="-2.34801">
        <ele>21.200000762939</ele>
        <time>2019-05-26T09:53:50.000Z</time>
      </trkpt>
      <trkpt lat="47.32906" lon="-2.34798">
        <ele>21.200000762939</ele>
        <time>2019-05-26T09:53:52.000Z</time>
      </trkpt>
      <trkpt lat="47.32904" lon="-2.34797">
        <ele>21.200000762939</ele>
        <time>2019-05-26T09:53:53.000Z</time>
      </trkpt>
      <trkpt lat="47.32895" lon="-2.34796">
        <ele>21.200000762939</ele>
        <time>2019-05-26T09:53:58.000Z</time>
      </trkpt>
      <trkpt lat="47.32886" lon="-2.34799">
        <ele>21.200000762939</ele>
        <time>2019-05-26T09:54:03.000Z</time>
      </trkpt>
      <trkpt lat="47.32878" lon="-2.34805">
        <ele>21.200000762939</ele>
        <time>2019-05-26T09:54:08.000Z</time>
      </trkpt>
      <trkpt lat="47.32873" lon="-2.348">
        <ele>21.200000762939</ele>
        <time>2019-05-26T09:54:12.000Z</time>
      </trkpt>
      <trkpt lat="47.32876" lon="-2.34798">
        <ele>21.200000762939</ele>
        <time>2019-05-26T09:54:15.000Z</time>
      </trkpt>
      <trkpt lat="47.32891" lon="-2.34788">
        <ele>21.200000762939</ele>
        <time>2019-05-26T09:54:20.000Z</time>
      </trkpt>
      <trkpt lat="47.32903" lon="-2.3478">
        <ele>20.799999237061</ele>
        <time>2019-05-26T09:54:24.000Z</time>
      </trkpt>
      <trkpt lat="47.32905" lon="-2.34781">
        <ele>20</ele>
        <time>2019-05-26T09:54:25.000Z</time>
      </trkpt>
      <trkpt lat="47.32905" lon="-2.34782">
        <ele>19.60000038147</ele>
        <time>2019-05-26T09:54:26.000Z</time>
      </trkpt>
      <trkpt lat="47.32905" lon="-2.34783">
        <ele>19.200000762939</ele>
        <time>2019-05-26T09:54:27.000Z</time>
      </trkpt>
      <trkpt lat="47.32903" lon="-2.34785">
        <ele>19.200000762939</ele>
        <time>2019-05-26T09:54:29.000Z</time>
      </trkpt>
      <trkpt lat="47.3289" lon="-2.34791">
        <ele>19.200000762939</ele>
        <time>2019-05-26T09:54:34.000Z</time>
      </trkpt>
      <trkpt lat="47.32886" lon="-2.34793">
        <ele>19.200000762939</ele>
        <time>2019-05-26T09:54:35.000Z</time>
      </trkpt>
      <trkpt lat="47.3287" lon="-2.34806">
        <ele>19.200000762939</ele>
        <time>2019-05-26T09:54:40.000Z</time>
      </trkpt>
      <trkpt lat="47.32856" lon="-2.34817">
        <ele>19.200000762939</ele>
        <time>2019-05-26T09:54:44.000Z</time>
      </trkpt>
      <trkpt lat="47.32847" lon="-2.34822">
        <ele>19.200000762939</ele>
        <time>2019-05-26T09:54:46.000Z</time>
      </trkpt>
      <trkpt lat="47.32838" lon="-2.34827">
        <ele>19.200000762939</ele>
        <time>2019-05-26T09:54:48.000Z</time>
      </trkpt>
      <trkpt lat="47.32833" lon="-2.34829">
        <ele>19.200000762939</ele>
        <time>2019-05-26T09:54:49.000Z</time>
      </trkpt>
      <trkpt lat="47.3282" lon="-2.34839">
        <ele>19.200000762939</ele>
        <time>2019-05-26T09:54:52.000Z</time>
      </trkpt>
      <trkpt lat="47.32798" lon="-2.34856">
        <ele>19.60000038147</ele>
        <time>2019-05-26T09:54:57.000Z</time>
      </trkpt>
      <trkpt lat="47.32794" lon="-2.34859">
        <ele>20</ele>
        <time>2019-05-26T09:54:58.000Z</time>
      </trkpt>
      <trkpt lat="47.32789" lon="-2.34862">
        <ele>20.39999961853</ele>
        <time>2019-05-26T09:54:59.000Z</time>
      </trkpt>
      <trkpt lat="47.32785" lon="-2.34866">
        <ele>20.799999237061</ele>
        <time>2019-05-26T09:55:00.000Z</time>
      </trkpt>
      <trkpt lat="47.32781" lon="-2.34869">
        <ele>21.200000762939</ele>
        <time>2019-05-26T09:55:01.000Z</time>
      </trkpt>
      <trkpt lat="47.32763" lon="-2.34883">
        <ele>21.200000762939</ele>
        <time>2019-05-26T09:55:05.000Z</time>
      </trkpt>
      <trkpt lat="47.32736" lon="-2.34904">
        <ele>21.200000762939</ele>
        <time>2019-05-26T09:55:11.000Z</time>
      </trkpt>
      <trkpt lat="47.32727" lon="-2.34911">
        <ele>21.200000762939</ele>
        <time>2019-05-26T09:55:13.000Z</time>
      </trkpt>
      <trkpt lat="47.32718" lon="-2.34917">
        <ele>21.200000762939</ele>
        <time>2019-05-26T09:55:15.000Z</time>
      </trkpt>
      <trkpt lat="47.32709" lon="-2.34923">
        <ele>21.200000762939</ele>
        <time>2019-05-26T09:55:17.000Z</time>
      </trkpt>
      <trkpt lat="47.32682" lon="-2.34943">
        <ele>21.200000762939</ele>
        <time>2019-05-26T09:55:24.000Z</time>
      </trkpt>
      <trkpt lat="47.32668" lon="-2.34957">
        <ele>21.200000762939</ele>
        <time>2019-05-26T09:55:28.000Z</time>
      </trkpt>
      <trkpt lat="47.32661" lon="-2.34961">
        <ele>21.200000762939</ele>
        <time>2019-05-26T09:55:32.000Z</time>
      </trkpt>
      <trkpt lat="47.32658" lon="-2.34964">
        <ele>21.200000762939</ele>
        <time>2019-05-26T09:55:40.000Z</time>
      </trkpt>
      <trkpt lat="47.32652" lon="-2.34968">
        <ele>21.200000762939</ele>
        <time>2019-05-26T09:55:42.000Z</time>
      </trkpt>
      <trkpt lat="47.32648" lon="-2.3497">
        <ele>21.200000762939</ele>
        <time>2019-05-26T09:55:43.000Z</time>
      </trkpt>
      <trkpt lat="47.32635" lon="-2.34977">
        <ele>21.200000762939</ele>
        <time>2019-05-26T09:55:46.000Z</time>
      </trkpt>
      <trkpt lat="47.32625" lon="-2.34982">
        <ele>21.60000038147</ele>
        <time>2019-05-26T09:55:48.000Z</time>
      </trkpt>
      <trkpt lat="47.3262" lon="-2.34984">
        <ele>22</ele>
        <time>2019-05-26T09:55:49.000Z</time>
      </trkpt>
      <trkpt lat="47.32615" lon="-2.34986">
        <ele>22.60000038147</ele>
        <time>2019-05-26T09:55:50.000Z</time>
      </trkpt>
      <trkpt lat="47.32611" lon="-2.34989">
        <ele>23</ele>
        <time>2019-05-26T09:55:51.000Z</time>
      </trkpt>
      <trkpt lat="47.32606" lon="-2.34992">
        <ele>23.39999961853</ele>
        <time>2019-05-26T09:55:52.000Z</time>
      </trkpt>
      <trkpt lat="47.32585" lon="-2.35004">
        <ele>23.39999961853</ele>
        <time>2019-05-26T09:55:56.000Z</time>
      </trkpt>
      <trkpt lat="47.32567" lon="-2.35012">
        <ele>23.39999961853</ele>
        <time>2019-05-26T09:56:00.000Z</time>
      </trkpt>
      <trkpt lat="47.32557" lon="-2.35016">
        <ele>23.39999961853</ele>
        <time>2019-05-26T09:56:02.000Z</time>
      </trkpt>
      <trkpt lat="47.32546" lon="-2.35021">
        <ele>23.799999237061</ele>
        <time>2019-05-26T09:56:04.000Z</time>
      </trkpt>
      <trkpt lat="47.32541" lon="-2.35022">
        <ele>24.200000762939</ele>
        <time>2019-05-26T09:56:05.000Z</time>
      </trkpt>
      <trkpt lat="47.32535" lon="-2.35024">
        <ele>24.799999237061</ele>
        <time>2019-05-26T09:56:06.000Z</time>
      </trkpt>
      <trkpt lat="47.3253" lon="-2.35025">
        <ele>25.200000762939</ele>
        <time>2019-05-26T09:56:07.000Z</time>
      </trkpt>
      <trkpt lat="47.32524" lon="-2.35025">
        <ele>25.60000038147</ele>
        <time>2019-05-26T09:56:08.000Z</time>
      </trkpt>
      <trkpt lat="47.325" lon="-2.3503">
        <ele>25.60000038147</ele>
        <time>2019-05-26T09:56:12.000Z</time>
      </trkpt>
      <trkpt lat="47.32471" lon="-2.35038">
        <ele>25.60000038147</ele>
        <time>2019-05-26T09:56:17.000Z</time>
      </trkpt>
      <trkpt lat="47.32447" lon="-2.35044">
        <ele>25.60000038147</ele>
        <time>2019-05-26T09:56:21.000Z</time>
      </trkpt>
      <trkpt lat="47.32436" lon="-2.35047">
        <ele>25.60000038147</ele>
        <time>2019-05-26T09:56:23.000Z</time>
      </trkpt>
      <trkpt lat="47.32418" lon="-2.3505">
        <ele>25.60000038147</ele>
        <time>2019-05-26T09:56:26.000Z</time>
      </trkpt>
      <trkpt lat="47.32406" lon="-2.35051">
        <ele>25.60000038147</ele>
        <time>2019-05-26T09:56:28.000Z</time>
      </trkpt>
      <trkpt lat="47.32382" lon="-2.35052">
        <ele>25.60000038147</ele>
        <time>2019-05-26T09:56:32.000Z</time>
      </trkpt>
      <trkpt lat="47.32364" lon="-2.3505">
        <ele>25.60000038147</ele>
        <time>2019-05-26T09:56:35.000Z</time>
      </trkpt>
      <trkpt lat="47.32327" lon="-2.35048">
        <ele>25.60000038147</ele>
        <time>2019-05-26T09:56:41.000Z</time>
      </trkpt>
      <trkpt lat="47.32308" lon="-2.35047">
        <ele>25.60000038147</ele>
        <time>2019-05-26T09:56:44.000Z</time>
      </trkpt>
      <trkpt lat="47.32291" lon="-2.35048">
        <ele>25.60000038147</ele>
        <time>2019-05-26T09:56:47.000Z</time>
      </trkpt>
      <trkpt lat="47.32263" lon="-2.35048">
        <ele>25.60000038147</ele>
        <time>2019-05-26T09:56:51.000Z</time>
      </trkpt>
      <trkpt lat="47.32249" lon="-2.35048">
        <ele>24.799999237061</ele>
        <time>2019-05-26T09:56:53.000Z</time>
      </trkpt>
      <trkpt lat="47.32244" lon="-2.35049">
        <ele>24.200000762939</ele>
        <time>2019-05-26T09:56:54.000Z</time>
      </trkpt>
      <trkpt lat="47.32237" lon="-2.35051">
        <ele>23.799999237061</ele>
        <time>2019-05-26T09:56:55.000Z</time>
      </trkpt>
      <trkpt lat="47.32231" lon="-2.35052">
        <ele>23.39999961853</ele>
        <time>2019-05-26T09:56:56.000Z</time>
      </trkpt>
      <trkpt lat="47.32204" lon="-2.35055">
        <ele>23.39999961853</ele>
        <time>2019-05-26T09:57:00.000Z</time>
      </trkpt>
      <trkpt lat="47.32177" lon="-2.35058">
        <ele>23.39999961853</ele>
        <time>2019-05-26T09:57:04.000Z</time>
      </trkpt>
      <trkpt lat="47.3217" lon="-2.35058">
        <ele>23.39999961853</ele>
        <time>2019-05-26T09:57:05.000Z</time>
      </trkpt>
      <trkpt lat="47.32135" lon="-2.3506">
        <ele>23</ele>
        <time>2019-05-26T09:57:10.000Z</time>
      </trkpt>
      <trkpt lat="47.32128" lon="-2.3506">
        <ele>22.60000038147</ele>
        <time>2019-05-26T09:57:11.000Z</time>
      </trkpt>
      <trkpt lat="47.32121" lon="-2.35059">
        <ele>22.200000762939</ele>
        <time>2019-05-26T09:57:12.000Z</time>
      </trkpt>
      <trkpt lat="47.32114" lon="-2.35059">
        <ele>21.799999237061</ele>
        <time>2019-05-26T09:57:13.000Z</time>
      </trkpt>
      <trkpt lat="47.32107" lon="-2.35059">
        <ele>21.39999961853</ele>
        <time>2019-05-26T09:57:14.000Z</time>
      </trkpt>
      <trkpt lat="47.32087" lon="-2.35059">
        <ele>21.39999961853</ele>
        <time>2019-05-26T09:57:17.000Z</time>
      </trkpt>
      <trkpt lat="47.32039" lon="-2.35057">
        <ele>21.39999961853</ele>
        <time>2019-05-26T09:57:24.000Z</time>
      </trkpt>
      <trkpt lat="47.32033" lon="-2.35058">
        <ele>21.39999961853</ele>
        <time>2019-05-26T09:57:25.000Z</time>
      </trkpt>
      <trkpt lat="47.32009" lon="-2.35057">
        <ele>21.39999961853</ele>
        <time>2019-05-26T09:57:29.000Z</time>
      </trkpt>
      <trkpt lat="47.31959" lon="-2.35046">
        <ele>21.39999961853</ele>
        <time>2019-05-26T09:57:37.000Z</time>
      </trkpt>
      <trkpt lat="47.31933" lon="-2.35034">
        <ele>21.39999961853</ele>
        <time>2019-05-26T09:57:42.000Z</time>
      </trkpt>
      <trkpt lat="47.31917" lon="-2.35024">
        <ele>21.39999961853</ele>
        <time>2019-05-26T09:57:45.000Z</time>
      </trkpt>
      <trkpt lat="47.31907" lon="-2.35017">
        <ele>21.39999961853</ele>
        <time>2019-05-26T09:57:47.000Z</time>
      </trkpt>
      <trkpt lat="47.31895" lon="-2.3501">
        <ele>21.799999237061</ele>
        <time>2019-05-26T09:57:49.000Z</time>
      </trkpt>
      <trkpt lat="47.31889" lon="-2.35007">
        <ele>22.200000762939</ele>
        <time>2019-05-26T09:57:50.000Z</time>
      </trkpt>
      <trkpt lat="47.31884" lon="-2.35004">
        <ele>22.60000038147</ele>
        <time>2019-05-26T09:57:51.000Z</time>
      </trkpt>
      <trkpt lat="47.31878" lon="-2.35001">
        <ele>23</ele>
        <time>2019-05-26T09:57:52.000Z</time>
      </trkpt>
      <trkpt lat="47.31873" lon="-2.34999">
        <ele>23.39999961853</ele>
        <time>2019-05-26T09:57:53.000Z</time>
      </trkpt>
      <trkpt lat="47.31849" lon="-2.34984">
        <ele>23.39999961853</ele>
        <time>2019-05-26T09:57:58.000Z</time>
      </trkpt>
      <trkpt lat="47.31843" lon="-2.34982">
        <ele>23.39999961853</ele>
        <time>2019-05-26T09:57:59.000Z</time>
      </trkpt>
      <trkpt lat="47.31812" lon="-2.34971">
        <ele>23.39999961853</ele>
        <time>2019-05-26T09:58:05.000Z</time>
      </trkpt>
      <trkpt lat="47.3178" lon="-2.34961">
        <ele>23.39999961853</ele>
        <time>2019-05-26T09:58:11.000Z</time>
      </trkpt>
      <trkpt lat="47.31776" lon="-2.3496">
        <ele>23.39999961853</ele>
        <time>2019-05-26T09:58:12.000Z</time>
      </trkpt>
      <trkpt lat="47.31762" lon="-2.3496">
        <ele>23.39999961853</ele>
        <time>2019-05-26T09:58:15.000Z</time>
      </trkpt>
      <trkpt lat="47.31733" lon="-2.34965">
        <ele>23.39999961853</ele>
        <time>2019-05-26T09:58:20.000Z</time>
      </trkpt>
      <trkpt lat="47.31697" lon="-2.34975">
        <ele>23.39999961853</ele>
        <time>2019-05-26T09:58:26.000Z</time>
      </trkpt>
      <trkpt lat="47.31673" lon="-2.34973">
        <ele>23.39999961853</ele>
        <time>2019-05-26T09:58:30.000Z</time>
      </trkpt>
      <trkpt lat="47.31662" lon="-2.34978">
        <ele>23.39999961853</ele>
        <time>2019-05-26T09:58:32.000Z</time>
      </trkpt>
      <trkpt lat="47.31657" lon="-2.3498">
        <ele>23.799999237061</ele>
        <time>2019-05-26T09:58:33.000Z</time>
      </trkpt>
      <trkpt lat="47.31652" lon="-2.34983">
        <ele>24.200000762939</ele>
        <time>2019-05-26T09:58:34.000Z</time>
      </trkpt>
      <trkpt lat="47.31647" lon="-2.34985">
        <ele>24.799999237061</ele>
        <time>2019-05-26T09:58:35.000Z</time>
      </trkpt>
      <trkpt lat="47.31643" lon="-2.34987">
        <ele>25.200000762939</ele>
        <time>2019-05-26T09:58:36.000Z</time>
      </trkpt>
      <trkpt lat="47.31638" lon="-2.34989">
        <ele>25.60000038147</ele>
        <time>2019-05-26T09:58:37.000Z</time>
      </trkpt>
      <trkpt lat="47.31614" lon="-2.35">
        <ele>25.60000038147</ele>
        <time>2019-05-26T09:58:42.000Z</time>
      </trkpt>
      <trkpt lat="47.31609" lon="-2.35003">
        <ele>25.60000038147</ele>
        <time>2019-05-26T09:58:43.000Z</time>
      </trkpt>
      <trkpt lat="47.31599" lon="-2.35005">
        <ele>25.60000038147</ele>
        <time>2019-05-26T09:58:45.000Z</time>
      </trkpt>
      <trkpt lat="47.31582" lon="-2.35007">
        <ele>25.60000038147</ele>
        <time>2019-05-26T09:58:48.000Z</time>
      </trkpt>
      <trkpt lat="47.31554" lon="-2.35011">
        <ele>25.60000038147</ele>
        <time>2019-05-26T09:58:54.000Z</time>
      </trkpt>
      <trkpt lat="47.31544" lon="-2.35012">
        <ele>26</ele>
        <time>2019-05-26T09:58:56.000Z</time>
      </trkpt>
      <trkpt lat="47.31539" lon="-2.35013">
        <ele>26.39999961853</ele>
        <time>2019-05-26T09:58:57.000Z</time>
      </trkpt>
      <trkpt lat="47.31534" lon="-2.35013">
        <ele>26.799999237061</ele>
        <time>2019-05-26T09:58:58.000Z</time>
      </trkpt>
      <trkpt lat="47.31529" lon="-2.35013">
        <ele>27.200000762939</ele>
        <time>2019-05-26T09:58:59.000Z</time>
      </trkpt>
      <trkpt lat="47.31523" lon="-2.35013">
        <ele>27.60000038147</ele>
        <time>2019-05-26T09:59:00.000Z</time>
      </trkpt>
      <trkpt lat="47.31481" lon="-2.35014">
        <ele>27.60000038147</ele>
        <time>2019-05-26T09:59:07.000Z</time>
      </trkpt>
      <trkpt lat="47.31457" lon="-2.35014">
        <ele>28</ele>
        <time>2019-05-26T09:59:11.000Z</time>
      </trkpt>
      <trkpt lat="47.31452" lon="-2.35014">
        <ele>28.60000038147</ele>
        <time>2019-05-26T09:59:12.000Z</time>
      </trkpt>
      <trkpt lat="47.31446" lon="-2.35014">
        <ele>29</ele>
        <time>2019-05-26T09:59:13.000Z</time>
      </trkpt>
      <trkpt lat="47.31441" lon="-2.35014">
        <ele>29.39999961853</ele>
        <time>2019-05-26T09:59:14.000Z</time>
      </trkpt>
      <trkpt lat="47.31435" lon="-2.35013">
        <ele>29.799999237061</ele>
        <time>2019-05-26T09:59:15.000Z</time>
      </trkpt>
      <trkpt lat="47.31418" lon="-2.3501">
        <ele>29.799999237061</ele>
        <time>2019-05-26T09:59:18.000Z</time>
      </trkpt>
      <trkpt lat="47.31408" lon="-2.35006">
        <ele>29.799999237061</ele>
        <time>2019-05-26T09:59:20.000Z</time>
      </trkpt>
      <trkpt lat="47.31372" lon="-2.34998">
        <ele>29.799999237061</ele>
        <time>2019-05-26T09:59:27.000Z</time>
      </trkpt>
      <trkpt lat="47.31359" lon="-2.34998">
        <ele>29.799999237061</ele>
        <time>2019-05-26T09:59:30.000Z</time>
      </trkpt>
      <trkpt lat="47.31348" lon="-2.34999">
        <ele>29.799999237061</ele>
        <time>2019-05-26T09:59:33.000Z</time>
      </trkpt>
      <trkpt lat="47.31342" lon="-2.34995">
        <ele>29.799999237061</ele>
        <time>2019-05-26T09:59:35.000Z</time>
      </trkpt>
      <trkpt lat="47.3134" lon="-2.3499">
        <ele>29.799999237061</ele>
        <time>2019-05-26T09:59:36.000Z</time>
      </trkpt>
      <trkpt lat="47.31336" lon="-2.34969">
        <ele>29.799999237061</ele>
        <time>2019-05-26T09:59:39.000Z</time>
      </trkpt>
      <trkpt lat="47.31335" lon="-2.34962">
        <ele>29.799999237061</ele>
        <time>2019-05-26T09:59:40.000Z</time>
      </trkpt>
      <trkpt lat="47.31324" lon="-2.34921">
        <ele>29.799999237061</ele>
        <time>2019-05-26T09:59:46.000Z</time>
      </trkpt>
      <trkpt lat="47.31322" lon="-2.34914">
        <ele>30.200000762939</ele>
        <time>2019-05-26T09:59:47.000Z</time>
      </trkpt>
      <trkpt lat="47.31319" lon="-2.34906">
        <ele>30.60000038147</ele>
        <time>2019-05-26T09:59:48.000Z</time>
      </trkpt>
      <trkpt lat="47.31317" lon="-2.34899">
        <ele>31</ele>
        <time>2019-05-26T09:59:49.000Z</time>
      </trkpt>
      <trkpt lat="47.31315" lon="-2.34892">
        <ele>31.39999961853</ele>
        <time>2019-05-26T09:59:50.000Z</time>
      </trkpt>
      <trkpt lat="47.31313" lon="-2.34884">
        <ele>31.799999237061</ele>
        <time>2019-05-26T09:59:51.000Z</time>
      </trkpt>
      <trkpt lat="47.31298" lon="-2.34827">
        <ele>31.799999237061</ele>
        <time>2019-05-26T09:59:58.000Z</time>
      </trkpt>
      <trkpt lat="47.31286" lon="-2.34761">
        <ele>31.799999237061</ele>
        <time>2019-05-26T10:00:06.000Z</time>
      </trkpt>
      <trkpt lat="47.31279" lon="-2.3472">
        <ele>31.799999237061</ele>
        <time>2019-05-26T10:00:11.000Z</time>
      </trkpt>
      <trkpt lat="47.31276" lon="-2.34708">
        <ele>31.799999237061</ele>
        <time>2019-05-26T10:00:14.000Z</time>
      </trkpt>
      <trkpt lat="47.31278" lon="-2.34692">
        <ele>31.799999237061</ele>
        <time>2019-05-26T10:00:17.000Z</time>
      </trkpt>
      <trkpt lat="47.31287" lon="-2.34663">
        <ele>31.799999237061</ele>
        <time>2019-05-26T10:00:21.000Z</time>
      </trkpt>
      <trkpt lat="47.31289" lon="-2.34623">
        <ele>31.799999237061</ele>
        <time>2019-05-26T10:00:25.000Z</time>
      </trkpt>
      <trkpt lat="47.31289" lon="-2.34612">
        <ele>31.39999961853</ele>
        <time>2019-05-26T10:00:26.000Z</time>
      </trkpt>
      <trkpt lat="47.31288" lon="-2.346">
        <ele>31</ele>
        <time>2019-05-26T10:00:27.000Z</time>
      </trkpt>
      <trkpt lat="47.31287" lon="-2.34588">
        <ele>30.60000038147</ele>
        <time>2019-05-26T10:00:28.000Z</time>
      </trkpt>
      <trkpt lat="47.31286" lon="-2.34575">
        <ele>30.200000762939</ele>
        <time>2019-05-26T10:00:29.000Z</time>
      </trkpt>
      <trkpt lat="47.31285" lon="-2.34563">
        <ele>29.60000038147</ele>
        <time>2019-05-26T10:00:30.000Z</time>
      </trkpt>
      <trkpt lat="47.31274" lon="-2.34473">
        <ele>29.60000038147</ele>
        <time>2019-05-26T10:00:37.000Z</time>
      </trkpt>
      <trkpt lat="47.31271" lon="-2.34447">
        <ele>29.200000762939</ele>
        <time>2019-05-26T10:00:39.000Z</time>
      </trkpt>
      <trkpt lat="47.31269" lon="-2.34434">
        <ele>28.799999237061</ele>
        <time>2019-05-26T10:00:40.000Z</time>
      </trkpt>
      <trkpt lat="47.31267" lon="-2.34421">
        <ele>28.39999961853</ele>
        <time>2019-05-26T10:00:41.000Z</time>
      </trkpt>
      <trkpt lat="47.31266" lon="-2.34408">
        <ele>28</ele>
        <time>2019-05-26T10:00:42.000Z</time>
      </trkpt>
      <trkpt lat="47.31264" lon="-2.34395">
        <ele>27.60000038147</ele>
        <time>2019-05-26T10:00:43.000Z</time>
      </trkpt>
      <trkpt lat="47.31261" lon="-2.34382">
        <ele>27.60000038147</ele>
        <time>2019-05-26T10:00:44.000Z</time>
      </trkpt>
      <trkpt lat="47.31251" lon="-2.34359">
        <ele>27</ele>
        <time>2019-05-26T10:00:46.000Z</time>
      </trkpt>
      <trkpt lat="47.31244" lon="-2.3435">
        <ele>26.60000038147</ele>
        <time>2019-05-26T10:00:47.000Z</time>
      </trkpt>
      <trkpt lat="47.31236" lon="-2.34343">
        <ele>26</ele>
        <time>2019-05-26T10:00:48.000Z</time>
      </trkpt>
      <trkpt lat="47.31228" lon="-2.34336">
        <ele>25.39999961853</ele>
        <time>2019-05-26T10:00:49.000Z</time>
      </trkpt>
      <trkpt lat="47.3122" lon="-2.34333">
        <ele>25</ele>
        <time>2019-05-26T10:00:50.000Z</time>
      </trkpt>
      <trkpt lat="47.31204" lon="-2.34324">
        <ele>25</ele>
        <time>2019-05-26T10:00:52.000Z</time>
      </trkpt>
      <trkpt lat="47.31185" lon="-2.34296">
        <ele>25</ele>
        <time>2019-05-26T10:00:55.000Z</time>
      </trkpt>
      <trkpt lat="47.31179" lon="-2.34285">
        <ele>24.39999961853</ele>
        <time>2019-05-26T10:00:56.000Z</time>
      </trkpt>
      <trkpt lat="47.31174" lon="-2.34274">
        <ele>24</ele>
        <time>2019-05-26T10:00:57.000Z</time>
      </trkpt>
      <trkpt lat="47.3117" lon="-2.34263">
        <ele>23.60000038147</ele>
        <time>2019-05-26T10:00:58.000Z</time>
      </trkpt>
      <trkpt lat="47.31165" lon="-2.34253">
        <ele>23.200000762939</ele>
        <time>2019-05-26T10:00:59.000Z</time>
      </trkpt>
      <trkpt lat="47.3116" lon="-2.34244">
        <ele>22.799999237061</ele>
        <time>2019-05-26T10:01:00.000Z</time>
      </trkpt>
      <trkpt lat="47.31131" lon="-2.34193">
        <ele>22.799999237061</ele>
        <time>2019-05-26T10:01:06.000Z</time>
      </trkpt>
      <trkpt lat="47.31111" lon="-2.34156">
        <ele>23.200000762939</ele>
        <time>2019-05-26T10:01:12.000Z</time>
      </trkpt>
      <trkpt lat="47.31108" lon="-2.3415">
        <ele>23.60000038147</ele>
        <time>2019-05-26T10:01:13.000Z</time>
      </trkpt>
      <trkpt lat="47.31106" lon="-2.34144">
        <ele>24.200000762939</ele>
        <time>2019-05-26T10:01:14.000Z</time>
      </trkpt>
      <trkpt lat="47.31104" lon="-2.34139">
        <ele>24.60000038147</ele>
        <time>2019-05-26T10:01:15.000Z</time>
      </trkpt>
      <trkpt lat="47.31101" lon="-2.34134">
        <ele>25</ele>
        <time>2019-05-26T10:01:16.000Z</time>
      </trkpt>
      <trkpt lat="47.31098" lon="-2.34128">
        <ele>25</ele>
        <time>2019-05-26T10:01:17.000Z</time>
      </trkpt>
      <trkpt lat="47.31088" lon="-2.3411">
        <ele>25.39999961853</ele>
        <time>2019-05-26T10:01:20.000Z</time>
      </trkpt>
      <trkpt lat="47.31085" lon="-2.34104">
        <ele>26</ele>
        <time>2019-05-26T10:01:21.000Z</time>
      </trkpt>
      <trkpt lat="47.31082" lon="-2.34097">
        <ele>26.39999961853</ele>
        <time>2019-05-26T10:01:22.000Z</time>
      </trkpt>
      <trkpt lat="47.31079" lon="-2.34091">
        <ele>26.799999237061</ele>
        <time>2019-05-26T10:01:23.000Z</time>
      </trkpt>
      <trkpt lat="47.31078" lon="-2.34084">
        <ele>27.200000762939</ele>
        <time>2019-05-26T10:01:24.000Z</time>
      </trkpt>
      <trkpt lat="47.31076" lon="-2.34077">
        <ele>27.60000038147</ele>
        <time>2019-05-26T10:01:25.000Z</time>
      </trkpt>
      <trkpt lat="47.31074" lon="-2.34069">
        <ele>28.200000762939</ele>
        <time>2019-05-26T10:01:26.000Z</time>
      </trkpt>
      <trkpt lat="47.31071" lon="-2.34061">
        <ele>28.60000038147</ele>
        <time>2019-05-26T10:01:27.000Z</time>
      </trkpt>
      <trkpt lat="47.3107" lon="-2.34054">
        <ele>29</ele>
        <time>2019-05-26T10:01:28.000Z</time>
      </trkpt>
      <trkpt lat="47.31068" lon="-2.34046">
        <ele>29.39999961853</ele>
        <time>2019-05-26T10:01:29.000Z</time>
      </trkpt>
      <trkpt lat="47.31064" lon="-2.34021">
        <ele>29.39999961853</ele>
        <time>2019-05-26T10:01:32.000Z</time>
      </trkpt>
      <trkpt lat="47.31063" lon="-2.33996">
        <ele>29.799999237061</ele>
        <time>2019-05-26T10:01:35.000Z</time>
      </trkpt>
      <trkpt lat="47.31063" lon="-2.33988">
        <ele>30.200000762939</ele>
        <time>2019-05-26T10:01:36.000Z</time>
      </trkpt>
      <trkpt lat="47.31063" lon="-2.3398">
        <ele>30.60000038147</ele>
        <time>2019-05-26T10:01:37.000Z</time>
      </trkpt>
      <trkpt lat="47.31062" lon="-2.33972">
        <ele>31</ele>
        <time>2019-05-26T10:01:38.000Z</time>
      </trkpt>
      <trkpt lat="47.31062" lon="-2.33963">
        <ele>31.39999961853</ele>
        <time>2019-05-26T10:01:39.000Z</time>
      </trkpt>
      <trkpt lat="47.31061" lon="-2.33955">
        <ele>31.39999961853</ele>
        <time>2019-05-26T10:01:40.000Z</time>
      </trkpt>
      <trkpt lat="47.31058" lon="-2.33948">
        <ele>31.39999961853</ele>
        <time>2019-05-26T10:01:41.000Z</time>
      </trkpt>
      <trkpt lat="47.31047" lon="-2.33945">
        <ele>31.39999961853</ele>
        <time>2019-05-26T10:01:43.000Z</time>
      </trkpt>
      <trkpt lat="47.31036" lon="-2.33947">
        <ele>31.39999961853</ele>
        <time>2019-05-26T10:01:45.000Z</time>
      </trkpt>
      <trkpt lat="47.3102" lon="-2.33952">
        <ele>31.39999961853</ele>
        <time>2019-05-26T10:01:48.000Z</time>
      </trkpt>
      <trkpt lat="47.30979" lon="-2.33956">
        <ele>31.39999961853</ele>
        <time>2019-05-26T10:01:56.000Z</time>
      </trkpt>
      <trkpt lat="47.30973" lon="-2.33957">
        <ele>32</ele>
        <time>2019-05-26T10:01:57.000Z</time>
      </trkpt>
      <trkpt lat="47.30968" lon="-2.33957">
        <ele>32.400001525879</ele>
        <time>2019-05-26T10:01:58.000Z</time>
      </trkpt>
      <trkpt lat="47.30963" lon="-2.33956">
        <ele>32.799999237061</ele>
        <time>2019-05-26T10:01:59.000Z</time>
      </trkpt>
      <trkpt lat="47.30958" lon="-2.33956">
        <ele>33.200000762939</ele>
        <time>2019-05-26T10:02:00.000Z</time>
      </trkpt>
      <trkpt lat="47.30953" lon="-2.33955">
        <ele>33.599998474121</ele>
        <time>2019-05-26T10:02:01.000Z</time>
      </trkpt>
      <trkpt lat="47.30947" lon="-2.33954">
        <ele>33.599998474121</ele>
        <time>2019-05-26T10:02:02.000Z</time>
      </trkpt>
      <trkpt lat="47.30916" lon="-2.33948">
        <ele>33.599998474121</ele>
        <time>2019-05-26T10:02:08.000Z</time>
      </trkpt>
      <trkpt lat="47.30899" lon="-2.33949">
        <ele>33.599998474121</ele>
        <time>2019-05-26T10:02:11.000Z</time>
      </trkpt>
      <trkpt lat="47.30878" lon="-2.33951">
        <ele>33.599998474121</ele>
        <time>2019-05-26T10:02:15.000Z</time>
      </trkpt>
      <trkpt lat="47.30873" lon="-2.33951">
        <ele>33.599998474121</ele>
        <time>2019-05-26T10:02:16.000Z</time>
      </trkpt>
      <trkpt lat="47.30848" lon="-2.33955">
        <ele>33.599998474121</ele>
        <time>2019-05-26T10:02:21.000Z</time>
      </trkpt>
      <trkpt lat="47.30819" lon="-2.33961">
        <ele>33.599998474121</ele>
        <time>2019-05-26T10:02:27.000Z</time>
      </trkpt>
      <trkpt lat="47.30791" lon="-2.33969">
        <ele>33.599998474121</ele>
        <time>2019-05-26T10:02:34.000Z</time>
      </trkpt>
      <trkpt lat="47.30784" lon="-2.33972">
        <ele>33.599998474121</ele>
        <time>2019-05-26T10:02:36.000Z</time>
      </trkpt>
      <trkpt lat="47.30782" lon="-2.33979">
        <ele>33.599998474121</ele>
        <time>2019-05-26T10:02:38.000Z</time>
      </trkpt>
      <trkpt lat="47.30781" lon="-2.34005">
        <ele>33.599998474121</ele>
        <time>2019-05-26T10:02:43.000Z</time>
      </trkpt>
      <trkpt lat="47.3078" lon="-2.34033">
        <ele>33.599998474121</ele>
        <time>2019-05-26T10:02:47.000Z</time>
      </trkpt>
      <trkpt lat="47.3078" lon="-2.34039">
        <ele>33.599998474121</ele>
        <time>2019-05-26T10:02:48.000Z</time>
      </trkpt>
      <trkpt lat="47.3078" lon="-2.34057">
        <ele>33.599998474121</ele>
        <time>2019-05-26T10:02:51.000Z</time>
      </trkpt>
      <trkpt lat="47.30776" lon="-2.34083">
        <ele>33.599998474121</ele>
        <time>2019-05-26T10:02:55.000Z</time>
      </trkpt>
      <trkpt lat="47.30776" lon="-2.3409">
        <ele>33.599998474121</ele>
        <time>2019-05-26T10:02:56.000Z</time>
      </trkpt>
      <trkpt lat="47.30774" lon="-2.34111">
        <ele>33.599998474121</ele>
        <time>2019-05-26T10:02:59.000Z</time>
      </trkpt>
      <trkpt lat="47.30774" lon="-2.34126">
        <ele>33.599998474121</ele>
        <time>2019-05-26T10:03:01.000Z</time>
      </trkpt>
      <trkpt lat="47.30773" lon="-2.3414">
        <ele>33.599998474121</ele>
        <time>2019-05-26T10:03:03.000Z</time>
      </trkpt>
      <trkpt lat="47.30771" lon="-2.34169">
        <ele>33.599998474121</ele>
        <time>2019-05-26T10:03:07.000Z</time>
      </trkpt>
      <trkpt lat="47.30769" lon="-2.34197">
        <ele>33.599998474121</ele>
        <time>2019-05-26T10:03:11.000Z</time>
      </trkpt>
      <trkpt lat="47.30767" lon="-2.34203">
        <ele>33.599998474121</ele>
        <time>2019-05-26T10:03:12.000Z</time>
      </trkpt>
      <trkpt lat="47.30757" lon="-2.34211">
        <ele>33.599998474121</ele>
        <time>2019-05-26T10:03:14.000Z</time>
      </trkpt>
      <trkpt lat="47.30741" lon="-2.34217">
        <ele>33.599998474121</ele>
        <time>2019-05-26T10:03:17.000Z</time>
      </trkpt>
      <trkpt lat="47.30734" lon="-2.3422">
        <ele>33.599998474121</ele>
        <time>2019-05-26T10:03:19.000Z</time>
      </trkpt>
      <trkpt lat="47.30731" lon="-2.34223">
        <ele>33.599998474121</ele>
        <time>2019-05-26T10:03:20.000Z</time>
      </trkpt>
      <trkpt lat="47.30731" lon="-2.34233">
        <ele>33.599998474121</ele>
        <time>2019-05-26T10:03:22.000Z</time>
      </trkpt>
      <trkpt lat="47.30729" lon="-2.34256">
        <ele>33.599998474121</ele>
        <time>2019-05-26T10:03:26.000Z</time>
      </trkpt>
      <trkpt lat="47.30728" lon="-2.34263">
        <ele>33.599998474121</ele>
        <time>2019-05-26T10:03:27.000Z</time>
      </trkpt>
      <trkpt lat="47.30725" lon="-2.3427">
        <ele>33.599998474121</ele>
        <time>2019-05-26T10:03:28.000Z</time>
      </trkpt>
      <trkpt lat="47.30719" lon="-2.34283">
        <ele>33.599998474121</ele>
        <time>2019-05-26T10:03:30.000Z</time>
      </trkpt>
      <trkpt lat="47.30716" lon="-2.34289">
        <ele>33.599998474121</ele>
        <time>2019-05-26T10:03:31.000Z</time>
      </trkpt>
      <trkpt lat="47.3071" lon="-2.34301">
        <ele>33.599998474121</ele>
        <time>2019-05-26T10:03:33.000Z</time>
      </trkpt>
      <trkpt lat="47.30705" lon="-2.34312">
        <ele>33.599998474121</ele>
        <time>2019-05-26T10:03:35.000Z</time>
      </trkpt>
      <trkpt lat="47.30701" lon="-2.34318">
        <ele>34</ele>
        <time>2019-05-26T10:03:36.000Z</time>
      </trkpt>
      <trkpt lat="47.30698" lon="-2.34324">
        <ele>34.400001525879</ele>
        <time>2019-05-26T10:03:37.000Z</time>
      </trkpt>
      <trkpt lat="47.30695" lon="-2.3433">
        <ele>34.799999237061</ele>
        <time>2019-05-26T10:03:38.000Z</time>
      </trkpt>
      <trkpt lat="47.30691" lon="-2.34337">
        <ele>35.200000762939</ele>
        <time>2019-05-26T10:03:39.000Z</time>
      </trkpt>
      <trkpt lat="47.30688" lon="-2.34344">
        <ele>35.599998474121</ele>
        <time>2019-05-26T10:03:40.000Z</time>
      </trkpt>
      <trkpt lat="47.30685" lon="-2.34351">
        <ele>35.599998474121</ele>
        <time>2019-05-26T10:03:41.000Z</time>
      </trkpt>
      <trkpt lat="47.30677" lon="-2.34364">
        <ele>35.599998474121</ele>
        <time>2019-05-26T10:03:43.000Z</time>
      </trkpt>
      <trkpt lat="47.30663" lon="-2.34385">
        <ele>35.599998474121</ele>
        <time>2019-05-26T10:03:47.000Z</time>
      </trkpt>
      <trkpt lat="47.30639" lon="-2.34414">
        <ele>35.599998474121</ele>
        <time>2019-05-26T10:03:52.000Z</time>
      </trkpt>
      <trkpt lat="47.30613" lon="-2.34449">
        <ele>35.599998474121</ele>
        <time>2019-05-26T10:03:58.000Z</time>
      </trkpt>
      <trkpt lat="47.30605" lon="-2.34462">
        <ele>36.200000762939</ele>
        <time>2019-05-26T10:04:00.000Z</time>
      </trkpt>
      <trkpt lat="47.30601" lon="-2.3447">
        <ele>36.599998474121</ele>
        <time>2019-05-26T10:04:01.000Z</time>
      </trkpt>
      <trkpt lat="47.30598" lon="-2.34478">
        <ele>37</ele>
        <time>2019-05-26T10:04:02.000Z</time>
      </trkpt>
      <trkpt lat="47.30594" lon="-2.34486">
        <ele>37.400001525879</ele>
        <time>2019-05-26T10:04:03.000Z</time>
      </trkpt>
      <trkpt lat="47.30591" lon="-2.34494">
        <ele>37.799999237061</ele>
        <time>2019-05-26T10:04:04.000Z</time>
      </trkpt>
      <trkpt lat="47.30575" lon="-2.34525">
        <ele>37.799999237061</ele>
        <time>2019-05-26T10:04:08.000Z</time>
      </trkpt>
      <trkpt lat="47.30554" lon="-2.34562">
        <ele>37.400001525879</ele>
        <time>2019-05-26T10:04:13.000Z</time>
      </trkpt>
      <trkpt lat="47.3055" lon="-2.3457">
        <ele>36.799999237061</ele>
        <time>2019-05-26T10:04:14.000Z</time>
      </trkpt>
      <trkpt lat="47.30545" lon="-2.34578">
        <ele>36.400001525879</ele>
        <time>2019-05-26T10:04:15.000Z</time>
      </trkpt>
      <trkpt lat="47.30539" lon="-2.34584">
        <ele>36</ele>
        <time>2019-05-26T10:04:16.000Z</time>
      </trkpt>
      <trkpt lat="47.30534" lon="-2.34591">
        <ele>35.599998474121</ele>
        <time>2019-05-26T10:04:17.000Z</time>
      </trkpt>
      <trkpt lat="47.30529" lon="-2.34597">
        <ele>35.599998474121</ele>
        <time>2019-05-26T10:04:18.000Z</time>
      </trkpt>
      <trkpt lat="47.30517" lon="-2.34614">
        <ele>35.599998474121</ele>
        <time>2019-05-26T10:04:21.000Z</time>
      </trkpt>
      <trkpt lat="47.3051" lon="-2.34627">
        <ele>35.599998474121</ele>
        <time>2019-05-26T10:04:23.000Z</time>
      </trkpt>
      <trkpt lat="47.30501" lon="-2.34646">
        <ele>35.599998474121</ele>
        <time>2019-05-26T10:04:26.000Z</time>
      </trkpt>
      <trkpt lat="47.30496" lon="-2.34653">
        <ele>35.599998474121</ele>
        <time>2019-05-26T10:04:27.000Z</time>
      </trkpt>
      <trkpt lat="47.30482" lon="-2.34669">
        <ele>35.599998474121</ele>
        <time>2019-05-26T10:04:30.000Z</time>
      </trkpt>
      <trkpt lat="47.30473" lon="-2.3468">
        <ele>35.599998474121</ele>
        <time>2019-05-26T10:04:32.000Z</time>
      </trkpt>
      <trkpt lat="47.30462" lon="-2.3469">
        <ele>35.599998474121</ele>
        <time>2019-05-26T10:04:34.000Z</time>
      </trkpt>
      <trkpt lat="47.30441" lon="-2.34709">
        <ele>35.599998474121</ele>
        <time>2019-05-26T10:04:38.000Z</time>
      </trkpt>
      <trkpt lat="47.30436" lon="-2.34714">
        <ele>35.599998474121</ele>
        <time>2019-05-26T10:04:39.000Z</time>
      </trkpt>
      <trkpt lat="47.30426" lon="-2.34723">
        <ele>35.599998474121</ele>
        <time>2019-05-26T10:04:41.000Z</time>
      </trkpt>
      <trkpt lat="47.30409" lon="-2.34734">
        <ele>35.599998474121</ele>
        <time>2019-05-26T10:04:44.000Z</time>
      </trkpt>
      <trkpt lat="47.30383" lon="-2.34749">
        <ele>35.599998474121</ele>
        <time>2019-05-26T10:04:49.000Z</time>
      </trkpt>
      <trkpt lat="47.30354" lon="-2.3477">
        <ele>35.599998474121</ele>
        <time>2019-05-26T10:04:55.000Z</time>
      </trkpt>
      <trkpt lat="47.30338" lon="-2.34786">
        <ele>35.599998474121</ele>
        <time>2019-05-26T10:04:58.000Z</time>
      </trkpt>
      <trkpt lat="47.30335" lon="-2.34793">
        <ele>35.599998474121</ele>
        <time>2019-05-26T10:04:59.000Z</time>
      </trkpt>
      <trkpt lat="47.30319" lon="-2.34822">
        <ele>35.599998474121</ele>
        <time>2019-05-26T10:05:03.000Z</time>
      </trkpt>
      <trkpt lat="47.30315" lon="-2.34828">
        <ele>35.599998474121</ele>
        <time>2019-05-26T10:05:04.000Z</time>
      </trkpt>
      <trkpt lat="47.30305" lon="-2.34841">
        <ele>35.599998474121</ele>
        <time>2019-05-26T10:05:06.000Z</time>
      </trkpt>
      <trkpt lat="47.30295" lon="-2.34851">
        <ele>35.599998474121</ele>
        <time>2019-05-26T10:05:08.000Z</time>
      </trkpt>
      <trkpt lat="47.30289" lon="-2.34854">
        <ele>35.599998474121</ele>
        <time>2019-05-26T10:05:09.000Z</time>
      </trkpt>
      <trkpt lat="47.30251" lon="-2.34874">
        <ele>35.599998474121</ele>
        <time>2019-05-26T10:05:16.000Z</time>
      </trkpt>
      <trkpt lat="47.30239" lon="-2.34885">
        <ele>35.599998474121</ele>
        <time>2019-05-26T10:05:20.000Z</time>
      </trkpt>
      <trkpt lat="47.30222" lon="-2.34899">
        <ele>35.599998474121</ele>
        <time>2019-05-26T10:05:25.000Z</time>
      </trkpt>
      <trkpt lat="47.30214" lon="-2.34905">
        <ele>35.599998474121</ele>
        <time>2019-05-26T10:05:27.000Z</time>
      </trkpt>
      <trkpt lat="47.30211" lon="-2.34917">
        <ele>35.599998474121</ele>
        <time>2019-05-26T10:05:29.000Z</time>
      </trkpt>
      <trkpt lat="47.3021" lon="-2.34938">
        <ele>35.599998474121</ele>
        <time>2019-05-26T10:05:32.000Z</time>
      </trkpt>
      <trkpt lat="47.30209" lon="-2.34947">
        <ele>35.599998474121</ele>
        <time>2019-05-26T10:05:33.000Z</time>
      </trkpt>
      <trkpt lat="47.30208" lon="-2.34974">
        <ele>35.599998474121</ele>
        <time>2019-05-26T10:05:36.000Z</time>
      </trkpt>
      <trkpt lat="47.30208" lon="-2.35003">
        <ele>35.599998474121</ele>
        <time>2019-05-26T10:05:39.000Z</time>
      </trkpt>
      <trkpt lat="47.30209" lon="-2.35014">
        <ele>35.200000762939</ele>
        <time>2019-05-26T10:05:40.000Z</time>
      </trkpt>
      <trkpt lat="47.30209" lon="-2.35024">
        <ele>34.799999237061</ele>
        <time>2019-05-26T10:05:41.000Z</time>
      </trkpt>
      <trkpt lat="47.3021" lon="-2.35035">
        <ele>34.400001525879</ele>
        <time>2019-05-26T10:05:42.000Z</time>
      </trkpt>
      <trkpt lat="47.3021" lon="-2.35044">
        <ele>34</ele>
        <time>2019-05-26T10:05:43.000Z</time>
      </trkpt>
      <trkpt lat="47.3021" lon="-2.35054">
        <ele>33.400001525879</ele>
        <time>2019-05-26T10:05:44.000Z</time>
      </trkpt>
      <trkpt lat="47.3021" lon="-2.35064">
        <ele>33.400001525879</ele>
        <time>2019-05-26T10:05:45.000Z</time>
      </trkpt>
      <trkpt lat="47.30208" lon="-2.35118">
        <ele>33.400001525879</ele>
        <time>2019-05-26T10:05:51.000Z</time>
      </trkpt>
      <trkpt lat="47.30208" lon="-2.35126">
        <ele>33</ele>
        <time>2019-05-26T10:05:52.000Z</time>
      </trkpt>
      <trkpt lat="47.30208" lon="-2.35135">
        <ele>32.599998474121</ele>
        <time>2019-05-26T10:05:53.000Z</time>
      </trkpt>
      <trkpt lat="47.30208" lon="-2.35144">
        <ele>32.200000762939</ele>
        <time>2019-05-26T10:05:54.000Z</time>
      </trkpt>
      <trkpt lat="47.30208" lon="-2.35153">
        <ele>31.799999237061</ele>
        <time>2019-05-26T10:05:55.000Z</time>
      </trkpt>
      <trkpt lat="47.30206" lon="-2.35162">
        <ele>31.39999961853</ele>
        <time>2019-05-26T10:05:56.000Z</time>
      </trkpt>
      <trkpt lat="47.30197" lon="-2.3517">
        <ele>31.39999961853</ele>
        <time>2019-05-26T10:05:58.000Z</time>
      </trkpt>
      <trkpt lat="47.30188" lon="-2.35171">
        <ele>30.799999237061</ele>
        <time>2019-05-26T10:06:00.000Z</time>
      </trkpt>
      <trkpt lat="47.30183" lon="-2.35173">
        <ele>30.39999961853</ele>
        <time>2019-05-26T10:06:01.000Z</time>
      </trkpt>
      <trkpt lat="47.30178" lon="-2.35175">
        <ele>30</ele>
        <time>2019-05-26T10:06:02.000Z</time>
      </trkpt>
      <trkpt lat="47.30173" lon="-2.35176">
        <ele>29.60000038147</ele>
        <time>2019-05-26T10:06:03.000Z</time>
      </trkpt>
      <trkpt lat="47.30169" lon="-2.35179">
        <ele>29.200000762939</ele>
        <time>2019-05-26T10:06:04.000Z</time>
      </trkpt>
      <trkpt lat="47.30166" lon="-2.35183">
        <ele>29.200000762939</ele>
        <time>2019-05-26T10:06:05.000Z</time>
      </trkpt>
      <trkpt lat="47.3016" lon="-2.35192">
        <ele>29.200000762939</ele>
        <time>2019-05-26T10:06:09.000Z</time>
      </trkpt>
      <trkpt lat="47.30148" lon="-2.35196">
        <ele>29.200000762939</ele>
        <time>2019-05-26T10:06:14.000Z</time>
      </trkpt>
      <trkpt lat="47.30138" lon="-2.35196">
        <ele>29.200000762939</ele>
        <time>2019-05-26T10:06:17.000Z</time>
      </trkpt>
      <trkpt lat="47.30133" lon="-2.35197">
        <ele>29.200000762939</ele>
        <time>2019-05-26T10:06:18.000Z</time>
      </trkpt>
      <trkpt lat="47.30116" lon="-2.35203">
        <ele>29.200000762939</ele>
        <time>2019-05-26T10:06:21.000Z</time>
      </trkpt>
      <trkpt lat="47.30106" lon="-2.35208">
        <ele>29.200000762939</ele>
        <time>2019-05-26T10:06:23.000Z</time>
      </trkpt>
      <trkpt lat="47.30078" lon="-2.35219">
        <ele>29.200000762939</ele>
        <time>2019-05-26T10:06:28.000Z</time>
      </trkpt>
      <trkpt lat="47.30073" lon="-2.35223">
        <ele>29.200000762939</ele>
        <time>2019-05-26T10:06:29.000Z</time>
      </trkpt>
      <trkpt lat="47.30061" lon="-2.35232">
        <ele>29.200000762939</ele>
        <time>2019-05-26T10:06:32.000Z</time>
      </trkpt>
      <trkpt lat="47.30051" lon="-2.35235">
        <ele>29.200000762939</ele>
        <time>2019-05-26T10:06:34.000Z</time>
      </trkpt>
      <trkpt lat="47.30042" lon="-2.3524">
        <ele>29.200000762939</ele>
        <time>2019-05-26T10:06:36.000Z</time>
      </trkpt>
      <trkpt lat="47.30038" lon="-2.35243">
        <ele>29.200000762939</ele>
        <time>2019-05-26T10:06:37.000Z</time>
      </trkpt>
      <trkpt lat="47.30028" lon="-2.35249">
        <ele>29.200000762939</ele>
        <time>2019-05-26T10:06:41.000Z</time>
      </trkpt>
      <trkpt lat="47.3002" lon="-2.35252">
        <ele>29.200000762939</ele>
        <time>2019-05-26T10:06:45.000Z</time>
      </trkpt>
      <trkpt lat="47.30002" lon="-2.35263">
        <ele>29.200000762939</ele>
        <time>2019-05-26T10:06:51.000Z</time>
      </trkpt>
      <trkpt lat="47.29991" lon="-2.35273">
        <ele>29.200000762939</ele>
        <time>2019-05-26T10:06:54.000Z</time>
      </trkpt>
      <trkpt lat="47.29983" lon="-2.35281">
        <ele>29.200000762939</ele>
        <time>2019-05-26T10:06:56.000Z</time>
      </trkpt>
      <trkpt lat="47.29956" lon="-2.35313">
        <ele>29.200000762939</ele>
        <time>2019-05-26T10:07:04.000Z</time>
      </trkpt>
      <trkpt lat="47.29935" lon="-2.35339">
        <ele>29.200000762939</ele>
        <time>2019-05-26T10:07:10.000Z</time>
      </trkpt>
      <trkpt lat="47.29907" lon="-2.35375">
        <ele>29.200000762939</ele>
        <time>2019-05-26T10:07:18.000Z</time>
      </trkpt>
      <trkpt lat="47.29874" lon="-2.3541">
        <ele>29.200000762939</ele>
        <time>2019-05-26T10:07:26.000Z</time>
      </trkpt>
      <trkpt lat="47.29844" lon="-2.35441">
        <ele>29.200000762939</ele>
        <time>2019-05-26T10:07:33.000Z</time>
      </trkpt>
      <trkpt lat="47.29832" lon="-2.35456">
        <ele>29.200000762939</ele>
        <time>2019-05-26T10:07:36.000Z</time>
      </trkpt>
      <trkpt lat="47.29828" lon="-2.35468">
        <ele>29.200000762939</ele>
        <time>2019-05-26T10:07:38.000Z</time>
      </trkpt>
      <trkpt lat="47.2983" lon="-2.35488">
        <ele>29.200000762939</ele>
        <time>2019-05-26T10:07:41.000Z</time>
      </trkpt>
      <trkpt lat="47.29837" lon="-2.35507">
        <ele>29.200000762939</ele>
        <time>2019-05-26T10:07:44.000Z</time>
      </trkpt>
      <trkpt lat="47.29838" lon="-2.35514">
        <ele>29.200000762939</ele>
        <time>2019-05-26T10:07:45.000Z</time>
      </trkpt>
      <trkpt lat="47.2984" lon="-2.3552">
        <ele>29.200000762939</ele>
        <time>2019-05-26T10:07:46.000Z</time>
      </trkpt>
      <trkpt lat="47.29842" lon="-2.35527">
        <ele>29.60000038147</ele>
        <time>2019-05-26T10:07:47.000Z</time>
      </trkpt>
      <trkpt lat="47.29844" lon="-2.35534">
        <ele>30</ele>
        <time>2019-05-26T10:07:48.000Z</time>
      </trkpt>
      <trkpt lat="47.29846" lon="-2.3554">
        <ele>30.39999961853</ele>
        <time>2019-05-26T10:07:49.000Z</time>
      </trkpt>
      <trkpt lat="47.29848" lon="-2.35547">
        <ele>30.799999237061</ele>
        <time>2019-05-26T10:07:50.000Z</time>
      </trkpt>
      <trkpt lat="47.2985" lon="-2.35553">
        <ele>31.200000762939</ele>
        <time>2019-05-26T10:07:51.000Z</time>
      </trkpt>
      <trkpt lat="47.29864" lon="-2.35602">
        <ele>31.200000762939</ele>
        <time>2019-05-26T10:07:58.000Z</time>
      </trkpt>
      <trkpt lat="47.29867" lon="-2.35616">
        <ele>31.200000762939</ele>
        <time>2019-05-26T10:08:00.000Z</time>
      </trkpt>
      <trkpt lat="47.29873" lon="-2.35643">
        <ele>31.60000038147</ele>
        <time>2019-05-26T10:08:04.000Z</time>
      </trkpt>
      <trkpt lat="47.29874" lon="-2.3565">
        <ele>32</ele>
        <time>2019-05-26T10:08:05.000Z</time>
      </trkpt>
      <trkpt lat="47.29876" lon="-2.35657">
        <ele>32.400001525879</ele>
        <time>2019-05-26T10:08:06.000Z</time>
      </trkpt>
      <trkpt lat="47.29877" lon="-2.35664">
        <ele>32.799999237061</ele>
        <time>2019-05-26T10:08:07.000Z</time>
      </trkpt>
      <trkpt lat="47.29878" lon="-2.35671">
        <ele>33.200000762939</ele>
        <time>2019-05-26T10:08:08.000Z</time>
      </trkpt>
      <trkpt lat="47.2988" lon="-2.35686">
        <ele>33.200000762939</ele>
        <time>2019-05-26T10:08:10.000Z</time>
      </trkpt>
      <trkpt lat="47.2989" lon="-2.35729">
        <ele>33.200000762939</ele>
        <time>2019-05-26T10:08:17.000Z</time>
      </trkpt>
      <trkpt lat="47.29895" lon="-2.35749">
        <ele>33.200000762939</ele>
        <time>2019-05-26T10:08:22.000Z</time>
      </trkpt>
      <trkpt lat="47.29893" lon="-2.35751">
        <ele>33.200000762939</ele>
        <time>2019-05-26T10:08:23.000Z</time>
      </trkpt>
      <trkpt lat="47.2989" lon="-2.35754">
        <ele>33.200000762939</ele>
        <time>2019-05-26T10:08:26.000Z</time>
      </trkpt>
      <trkpt lat="47.29881" lon="-2.35766">
        <ele>33.200000762939</ele>
        <time>2019-05-26T10:08:32.000Z</time>
      </trkpt>
      <trkpt lat="47.29872" lon="-2.35771">
        <ele>33.200000762939</ele>
        <time>2019-05-26T10:08:34.000Z</time>
      </trkpt>
      <trkpt lat="47.29863" lon="-2.35775">
        <ele>33.200000762939</ele>
        <time>2019-05-26T10:08:36.000Z</time>
      </trkpt>
      <trkpt lat="47.29841" lon="-2.35785">
        <ele>33.200000762939</ele>
        <time>2019-05-26T10:08:41.000Z</time>
      </trkpt>
      <trkpt lat="47.29832" lon="-2.35787">
        <ele>33.200000762939</ele>
        <time>2019-05-26T10:08:43.000Z</time>
      </trkpt>
      <trkpt lat="47.29804" lon="-2.35797">
        <ele>33.200000762939</ele>
        <time>2019-05-26T10:08:50.000Z</time>
      </trkpt>
      <trkpt lat="47.29792" lon="-2.35801">
        <ele>33.200000762939</ele>
        <time>2019-05-26T10:08:53.000Z</time>
      </trkpt>
      <trkpt lat="47.29775" lon="-2.35806">
        <ele>33.200000762939</ele>
        <time>2019-05-26T10:08:57.000Z</time>
      </trkpt>
      <trkpt lat="47.29741" lon="-2.3582">
        <ele>33.200000762939</ele>
        <time>2019-05-26T10:09:04.000Z</time>
      </trkpt>
      <trkpt lat="47.29702" lon="-2.35841">
        <ele>33.200000762939</ele>
        <time>2019-05-26T10:09:10.000Z</time>
      </trkpt>
      <trkpt lat="47.29689" lon="-2.35846">
        <ele>33.200000762939</ele>
        <time>2019-05-26T10:09:12.000Z</time>
      </trkpt>
      <trkpt lat="47.29671" lon="-2.35854">
        <ele>33.200000762939</ele>
        <time>2019-05-26T10:09:15.000Z</time>
      </trkpt>
      <trkpt lat="47.29648" lon="-2.35871">
        <ele>33.200000762939</ele>
        <time>2019-05-26T10:09:19.000Z</time>
      </trkpt>
      <trkpt lat="47.29619" lon="-2.35886">
        <ele>33.200000762939</ele>
        <time>2019-05-26T10:09:24.000Z</time>
      </trkpt>
      <trkpt lat="47.29584" lon="-2.35909">
        <ele>33.200000762939</ele>
        <time>2019-05-26T10:09:31.000Z</time>
      </trkpt>
      <trkpt lat="47.29543" lon="-2.35933">
        <ele>33.200000762939</ele>
        <time>2019-05-26T10:09:39.000Z</time>
      </trkpt>
      <trkpt lat="47.29516" lon="-2.35944">
        <ele>32.799999237061</ele>
        <time>2019-05-26T10:09:45.000Z</time>
      </trkpt>
      <trkpt lat="47.29512" lon="-2.35942">
        <ele>32.400001525879</ele>
        <time>2019-05-26T10:09:46.000Z</time>
      </trkpt>
      <trkpt lat="47.29509" lon="-2.35938">
        <ele>32</ele>
        <time>2019-05-26T10:09:47.000Z</time>
      </trkpt>
      <trkpt lat="47.29507" lon="-2.35933">
        <ele>31.60000038147</ele>
        <time>2019-05-26T10:09:48.000Z</time>
      </trkpt>
      <trkpt lat="47.29506" lon="-2.35928">
        <ele>31.200000762939</ele>
        <time>2019-05-26T10:09:49.000Z</time>
      </trkpt>
      <trkpt lat="47.29495" lon="-2.35901">
        <ele>31.200000762939</ele>
        <time>2019-05-26T10:09:54.000Z</time>
      </trkpt>
      <trkpt lat="47.29483" lon="-2.359">
        <ele>31.200000762939</ele>
        <time>2019-05-26T10:09:57.000Z</time>
      </trkpt>
      <trkpt lat="47.29475" lon="-2.35902">
        <ele>31.200000762939</ele>
        <time>2019-05-26T10:09:59.000Z</time>
      </trkpt>
      <trkpt lat="47.29466" lon="-2.35902">
        <ele>31.200000762939</ele>
        <time>2019-05-26T10:10:01.000Z</time>
      </trkpt>
      <trkpt lat="47.29457" lon="-2.35905">
        <ele>31.200000762939</ele>
        <time>2019-05-26T10:10:03.000Z</time>
      </trkpt>
      <trkpt lat="47.29441" lon="-2.35915">
        <ele>31.200000762939</ele>
        <time>2019-05-26T10:10:07.000Z</time>
      </trkpt>
      <trkpt lat="47.29437" lon="-2.35915">
        <ele>31.200000762939</ele>
        <time>2019-05-26T10:10:08.000Z</time>
      </trkpt>
      <trkpt lat="47.29431" lon="-2.35906">
        <ele>31.200000762939</ele>
        <time>2019-05-26T10:10:10.000Z</time>
      </trkpt>
      <trkpt lat="47.29423" lon="-2.3589">
        <ele>31.200000762939</ele>
        <time>2019-05-26T10:10:13.000Z</time>
      </trkpt>
      <trkpt lat="47.29416" lon="-2.35881">
        <ele>31.200000762939</ele>
        <time>2019-05-26T10:10:15.000Z</time>
      </trkpt>
      <trkpt lat="47.29404" lon="-2.35867">
        <ele>31.200000762939</ele>
        <time>2019-05-26T10:10:18.000Z</time>
      </trkpt>
      <trkpt lat="47.29392" lon="-2.35854">
        <ele>31.200000762939</ele>
        <time>2019-05-26T10:10:21.000Z</time>
      </trkpt>
      <trkpt lat="47.29377" lon="-2.35839">
        <ele>31.200000762939</ele>
        <time>2019-05-26T10:10:25.000Z</time>
      </trkpt>
      <trkpt lat="47.29369" lon="-2.35831">
        <ele>31.200000762939</ele>
        <time>2019-05-26T10:10:27.000Z</time>
      </trkpt>
      <trkpt lat="47.2934" lon="-2.35805">
        <ele>31.200000762939</ele>
        <time>2019-05-26T10:10:33.000Z</time>
      </trkpt>
      <trkpt lat="47.29296" lon="-2.35767">
        <ele>31.200000762939</ele>
        <time>2019-05-26T10:10:42.000Z</time>
      </trkpt>
      <trkpt lat="47.29257" lon="-2.35734">
        <ele>31.200000762939</ele>
        <time>2019-05-26T10:10:50.000Z</time>
      </trkpt>
      <trkpt lat="47.29247" lon="-2.3574">
        <ele>31.200000762939</ele>
        <time>2019-05-26T10:10:52.000Z</time>
      </trkpt>
      <trkpt lat="47.29231" lon="-2.35766">
        <ele>31.200000762939</ele>
        <time>2019-05-26T10:10:56.000Z</time>
      </trkpt>
      <trkpt lat="47.29227" lon="-2.35772">
        <ele>31.200000762939</ele>
        <time>2019-05-26T10:10:57.000Z</time>
      </trkpt>
      <trkpt lat="47.29203" lon="-2.35794">
        <ele>31.200000762939</ele>
        <time>2019-05-26T10:11:02.000Z</time>
      </trkpt>
      <trkpt lat="47.29163" lon="-2.35821">
        <ele>31.200000762939</ele>
        <time>2019-05-26T10:11:10.000Z</time>
      </trkpt>
      <trkpt lat="47.29158" lon="-2.35825">
        <ele>31.200000762939</ele>
        <time>2019-05-26T10:11:11.000Z</time>
      </trkpt>
      <trkpt lat="47.29139" lon="-2.35844">
        <ele>31.200000762939</ele>
        <time>2019-05-26T10:11:15.000Z</time>
      </trkpt>
      <trkpt lat="47.29099" lon="-2.35888">
        <ele>31.200000762939</ele>
        <time>2019-05-26T10:11:24.000Z</time>
      </trkpt>
      <trkpt lat="47.29062" lon="-2.35935">
        <ele>31.200000762939</ele>
        <time>2019-05-26T10:11:33.000Z</time>
      </trkpt>
      <trkpt lat="47.2904" lon="-2.3596">
        <ele>31.60000038147</ele>
        <time>2019-05-26T10:11:38.000Z</time>
      </trkpt>
      <trkpt lat="47.29035" lon="-2.35964">
        <ele>32</ele>
        <time>2019-05-26T10:11:39.000Z</time>
      </trkpt>
      <trkpt lat="47.29031" lon="-2.3597">
        <ele>32.400001525879</ele>
        <time>2019-05-26T10:11:40.000Z</time>
      </trkpt>
      <trkpt lat="47.29026" lon="-2.35975">
        <ele>33.200000762939</ele>
        <time>2019-05-26T10:11:41.000Z</time>
      </trkpt>
      <trkpt lat="47.28992" lon="-2.36008">
        <ele>33.200000762939</ele>
        <time>2019-05-26T10:11:48.000Z</time>
      </trkpt>
      <trkpt lat="47.28968" lon="-2.36033">
        <ele>33.200000762939</ele>
        <time>2019-05-26T10:11:53.000Z</time>
      </trkpt>
      <trkpt lat="47.28964" lon="-2.36037">
        <ele>33.200000762939</ele>
        <time>2019-05-26T10:11:54.000Z</time>
      </trkpt>
      <trkpt lat="47.28954" lon="-2.36044">
        <ele>33.200000762939</ele>
        <time>2019-05-26T10:11:56.000Z</time>
      </trkpt>
      <trkpt lat="47.28936" lon="-2.36056">
        <ele>33.200000762939</ele>
        <time>2019-05-26T10:12:00.000Z</time>
      </trkpt>
      <trkpt lat="47.28905" lon="-2.36078">
        <ele>33.200000762939</ele>
        <time>2019-05-26T10:12:07.000Z</time>
      </trkpt>
      <trkpt lat="47.28875" lon="-2.36108">
        <ele>33.200000762939</ele>
        <time>2019-05-26T10:12:14.000Z</time>
      </trkpt>
      <trkpt lat="47.2884" lon="-2.36144">
        <ele>33.200000762939</ele>
        <time>2019-05-26T10:12:22.000Z</time>
      </trkpt>
      <trkpt lat="47.28821" lon="-2.36171">
        <ele>33.200000762939</ele>
        <time>2019-05-26T10:12:28.000Z</time>
      </trkpt>
      <trkpt lat="47.28811" lon="-2.36182">
        <ele>32.400001525879</ele>
        <time>2019-05-26T10:12:31.000Z</time>
      </trkpt>
      <trkpt lat="47.28808" lon="-2.36184">
        <ele>32</ele>
        <time>2019-05-26T10:12:32.000Z</time>
      </trkpt>
      <trkpt lat="47.28804" lon="-2.36186">
        <ele>31.60000038147</ele>
        <time>2019-05-26T10:12:33.000Z</time>
      </trkpt>
      <trkpt lat="47.288" lon="-2.36188">
        <ele>31.200000762939</ele>
        <time>2019-05-26T10:12:34.000Z</time>
      </trkpt>
      <trkpt lat="47.28796" lon="-2.3619">
        <ele>31.200000762939</ele>
        <time>2019-05-26T10:12:35.000Z</time>
      </trkpt>
      <trkpt lat="47.28778" lon="-2.36204">
        <ele>31.200000762939</ele>
        <time>2019-05-26T10:12:40.000Z</time>
      </trkpt>
      <trkpt lat="47.2876" lon="-2.36217">
        <ele>31.200000762939</ele>
        <time>2019-05-26T10:12:46.000Z</time>
      </trkpt>
      <trkpt lat="47.28756" lon="-2.36216">
        <ele>31.200000762939</ele>
        <time>2019-05-26T10:12:48.000Z</time>
      </trkpt>
      <trkpt lat="47.28754" lon="-2.36214">
        <ele>31.200000762939</ele>
        <time>2019-05-26T10:12:49.000Z</time>
      </trkpt>
      <trkpt lat="47.28751" lon="-2.36208">
        <ele>31.200000762939</ele>
        <time>2019-05-26T10:12:51.000Z</time>
      </trkpt>
      <trkpt lat="47.28747" lon="-2.36207">
        <ele>31.200000762939</ele>
        <time>2019-05-26T10:12:53.000Z</time>
      </trkpt>
      <trkpt lat="47.28738" lon="-2.36214">
        <ele>31.200000762939</ele>
        <time>2019-05-26T10:12:57.000Z</time>
      </trkpt>
      <trkpt lat="47.28735" lon="-2.36215">
        <ele>31.200000762939</ele>
        <time>2019-05-26T10:12:58.000Z</time>
      </trkpt>
      <trkpt lat="47.28717" lon="-2.36223">
        <ele>31.200000762939</ele>
        <time>2019-05-26T10:13:03.000Z</time>
      </trkpt>
      <trkpt lat="47.28714" lon="-2.36222">
        <ele>31.200000762939</ele>
        <time>2019-05-26T10:13:04.000Z</time>
      </trkpt>
      <trkpt lat="47.28709" lon="-2.3622">
        <ele>31.200000762939</ele>
        <time>2019-05-26T10:13:06.000Z</time>
      </trkpt>
      <trkpt lat="47.28704" lon="-2.36211">
        <ele>31.200000762939</ele>
        <time>2019-05-26T10:13:08.000Z</time>
      </trkpt>
      <trkpt lat="47.28703" lon="-2.36205">
        <ele>31.200000762939</ele>
        <time>2019-05-26T10:13:09.000Z</time>
      </trkpt>
      <trkpt lat="47.28697" lon="-2.36188">
        <ele>31.200000762939</ele>
        <time>2019-05-26T10:13:13.000Z</time>
      </trkpt>
      <trkpt lat="47.28695" lon="-2.36185">
        <ele>31.799999237061</ele>
        <time>2019-05-26T10:13:14.000Z</time>
      </trkpt>
      <trkpt lat="47.28693" lon="-2.36183">
        <ele>32.200000762939</ele>
        <time>2019-05-26T10:13:15.000Z</time>
      </trkpt>
      <trkpt lat="47.28691" lon="-2.36181">
        <ele>32.599998474121</ele>
        <time>2019-05-26T10:13:16.000Z</time>
      </trkpt>
      <trkpt lat="47.28691" lon="-2.36179">
        <ele>33</ele>
        <time>2019-05-26T10:13:17.000Z</time>
      </trkpt>
      <trkpt lat="47.2869" lon="-2.36177">
        <ele>33.400001525879</ele>
        <time>2019-05-26T10:13:18.000Z</time>
      </trkpt>
      <trkpt lat="47.28685" lon="-2.3617">
        <ele>33.400001525879</ele>
        <time>2019-05-26T10:13:24.000Z</time>
      </trkpt>
      <trkpt lat="47.28682" lon="-2.36153">
        <ele>33.400001525879</ele>
        <time>2019-05-26T10:13:27.000Z</time>
      </trkpt>
      <trkpt lat="47.28673" lon="-2.36129">
        <ele>33.400001525879</ele>
        <time>2019-05-26T10:13:31.000Z</time>
      </trkpt>
      <trkpt lat="47.28662" lon="-2.36101">
        <ele>33.400001525879</ele>
        <time>2019-05-26T10:13:36.000Z</time>
      </trkpt>
      <trkpt lat="47.28648" lon="-2.36077">
        <ele>33.400001525879</ele>
        <time>2019-05-26T10:13:41.000Z</time>
      </trkpt>
      <trkpt lat="47.28643" lon="-2.36063">
        <ele>33.400001525879</ele>
        <time>2019-05-26T10:13:43.000Z</time>
      </trkpt>
      <trkpt lat="47.28639" lon="-2.36047">
        <ele>33.400001525879</ele>
        <time>2019-05-26T10:13:45.000Z</time>
      </trkpt>
      <trkpt lat="47.28631" lon="-2.36028">
        <ele>33.400001525879</ele>
        <time>2019-05-26T10:13:48.000Z</time>
      </trkpt>
      <trkpt lat="47.28626" lon="-2.36016">
        <ele>33.400001525879</ele>
        <time>2019-05-26T10:13:50.000Z</time>
      </trkpt>
      <trkpt lat="47.28617" lon="-2.35994">
        <ele>33</ele>
        <time>2019-05-26T10:13:54.000Z</time>
      </trkpt>
      <trkpt lat="47.28615" lon="-2.35989">
        <ele>32.599998474121</ele>
        <time>2019-05-26T10:13:55.000Z</time>
      </trkpt>
      <trkpt lat="47.28612" lon="-2.35982">
        <ele>32.200000762939</ele>
        <time>2019-05-26T10:13:56.000Z</time>
      </trkpt>
      <trkpt lat="47.2861" lon="-2.35976">
        <ele>31.799999237061</ele>
        <time>2019-05-26T10:13:57.000Z</time>
      </trkpt>
      <trkpt lat="47.28608" lon="-2.35969">
        <ele>31.200000762939</ele>
        <time>2019-05-26T10:13:58.000Z</time>
      </trkpt>
      <trkpt lat="47.28605" lon="-2.35964">
        <ele>31.200000762939</ele>
        <time>2019-05-26T10:13:59.000Z</time>
      </trkpt>
      <trkpt lat="47.28597" lon="-2.35949">
        <ele>31.200000762939</ele>
        <time>2019-05-26T10:14:02.000Z</time>
      </trkpt>
      <trkpt lat="47.28588" lon="-2.35921">
        <ele>31.200000762939</ele>
        <time>2019-05-26T10:14:07.000Z</time>
      </trkpt>
      <trkpt lat="47.28575" lon="-2.35886">
        <ele>30.799999237061</ele>
        <time>2019-05-26T10:14:12.000Z</time>
      </trkpt>
      <trkpt lat="47.28572" lon="-2.35879">
        <ele>30.39999961853</ele>
        <time>2019-05-26T10:14:13.000Z</time>
      </trkpt>
      <trkpt lat="47.28569" lon="-2.35873">
        <ele>30</ele>
        <time>2019-05-26T10:14:14.000Z</time>
      </trkpt>
      <trkpt lat="47.28566" lon="-2.35867">
        <ele>29.60000038147</ele>
        <time>2019-05-26T10:14:15.000Z</time>
      </trkpt>
      <trkpt lat="47.28563" lon="-2.35861">
        <ele>29.200000762939</ele>
        <time>2019-05-26T10:14:16.000Z</time>
      </trkpt>
      <trkpt lat="47.28555" lon="-2.35851">
        <ele>29.200000762939</ele>
        <time>2019-05-26T10:14:18.000Z</time>
      </trkpt>
      <trkpt lat="47.28545" lon="-2.35844">
        <ele>29.200000762939</ele>
        <time>2019-05-26T10:14:20.000Z</time>
      </trkpt>
      <trkpt lat="47.28534" lon="-2.35838">
        <ele>29.200000762939</ele>
        <time>2019-05-26T10:14:22.000Z</time>
      </trkpt>
      <trkpt lat="47.28517" lon="-2.35831">
        <ele>28.799999237061</ele>
        <time>2019-05-26T10:14:25.000Z</time>
      </trkpt>
      <trkpt lat="47.28511" lon="-2.3583">
        <ele>28.39999961853</ele>
        <time>2019-05-26T10:14:26.000Z</time>
      </trkpt>
      <trkpt lat="47.28505" lon="-2.35828">
        <ele>28</ele>
        <time>2019-05-26T10:14:27.000Z</time>
      </trkpt>
      <trkpt lat="47.285" lon="-2.35826">
        <ele>27.60000038147</ele>
        <time>2019-05-26T10:14:28.000Z</time>
      </trkpt>
      <trkpt lat="47.28494" lon="-2.35824">
        <ele>27.200000762939</ele>
        <time>2019-05-26T10:14:29.000Z</time>
      </trkpt>
      <trkpt lat="47.28485" lon="-2.3582">
        <ele>27.200000762939</ele>
        <time>2019-05-26T10:14:31.000Z</time>
      </trkpt>
      <trkpt lat="47.28458" lon="-2.35811">
        <ele>27.200000762939</ele>
        <time>2019-05-26T10:14:36.000Z</time>
      </trkpt>
      <trkpt lat="47.28432" lon="-2.35799">
        <ele>27.200000762939</ele>
        <time>2019-05-26T10:14:41.000Z</time>
      </trkpt>
      <trkpt lat="47.28402" lon="-2.35787">
        <ele>27.200000762939</ele>
        <time>2019-05-26T10:14:47.000Z</time>
      </trkpt>
      <trkpt lat="47.2837" lon="-2.35778">
        <ele>27.200000762939</ele>
        <time>2019-05-26T10:14:53.000Z</time>
      </trkpt>
      <trkpt lat="47.28338" lon="-2.35761">
        <ele>27.200000762939</ele>
        <time>2019-05-26T10:14:58.000Z</time>
      </trkpt>
      <trkpt lat="47.28332" lon="-2.35757">
        <ele>26.799999237061</ele>
        <time>2019-05-26T10:14:59.000Z</time>
      </trkpt>
      <trkpt lat="47.28325" lon="-2.35753">
        <ele>26.39999961853</ele>
        <time>2019-05-26T10:15:00.000Z</time>
      </trkpt>
      <trkpt lat="47.28319" lon="-2.35749">
        <ele>26</ele>
        <time>2019-05-26T10:15:01.000Z</time>
      </trkpt>
      <trkpt lat="47.28313" lon="-2.35743">
        <ele>25.60000038147</ele>
        <time>2019-05-26T10:15:02.000Z</time>
      </trkpt>
      <trkpt lat="47.28306" lon="-2.35737">
        <ele>25.200000762939</ele>
        <time>2019-05-26T10:15:03.000Z</time>
      </trkpt>
      <trkpt lat="47.283" lon="-2.35731">
        <ele>25.200000762939</ele>
        <time>2019-05-26T10:15:04.000Z</time>
      </trkpt>
      <trkpt lat="47.28262" lon="-2.35686">
        <ele>25.200000762939</ele>
        <time>2019-05-26T10:15:10.000Z</time>
      </trkpt>
      <trkpt lat="47.28225" lon="-2.35638">
        <ele>25.200000762939</ele>
        <time>2019-05-26T10:15:16.000Z</time>
      </trkpt>
      <trkpt lat="47.28213" lon="-2.35623">
        <ele>24.799999237061</ele>
        <time>2019-05-26T10:15:18.000Z</time>
      </trkpt>
      <trkpt lat="47.28207" lon="-2.35615">
        <ele>24.39999961853</ele>
        <time>2019-05-26T10:15:19.000Z</time>
      </trkpt>
      <trkpt lat="47.28201" lon="-2.35607">
        <ele>24</ele>
        <time>2019-05-26T10:15:20.000Z</time>
      </trkpt>
      <trkpt lat="47.28195" lon="-2.35599">
        <ele>23.39999961853</ele>
        <time>2019-05-26T10:15:21.000Z</time>
      </trkpt>
      <trkpt lat="47.28189" lon="-2.35592">
        <ele>23</ele>
        <time>2019-05-26T10:15:22.000Z</time>
      </trkpt>
      <trkpt lat="47.28181" lon="-2.35585">
        <ele>23</ele>
        <time>2019-05-26T10:15:23.000Z</time>
      </trkpt>
      <trkpt lat="47.28174" lon="-2.3558">
        <ele>23</ele>
        <time>2019-05-26T10:15:24.000Z</time>
      </trkpt>
      <trkpt lat="47.28151" lon="-2.35568">
        <ele>23</ele>
        <time>2019-05-26T10:15:27.000Z</time>
      </trkpt>
      <trkpt lat="47.28144" lon="-2.35567">
        <ele>22.60000038147</ele>
        <time>2019-05-26T10:15:28.000Z</time>
      </trkpt>
      <trkpt lat="47.28136" lon="-2.35566">
        <ele>22.200000762939</ele>
        <time>2019-05-26T10:15:29.000Z</time>
      </trkpt>
      <trkpt lat="47.28129" lon="-2.35565">
        <ele>21.799999237061</ele>
        <time>2019-05-26T10:15:30.000Z</time>
      </trkpt>
      <trkpt lat="47.28122" lon="-2.35564">
        <ele>21.39999961853</ele>
        <time>2019-05-26T10:15:31.000Z</time>
      </trkpt>
      <trkpt lat="47.28113" lon="-2.35564">
        <ele>21</ele>
        <time>2019-05-26T10:15:32.000Z</time>
      </trkpt>
      <trkpt lat="47.28094" lon="-2.35563">
        <ele>21</ele>
        <time>2019-05-26T10:15:34.000Z</time>
      </trkpt>
      <trkpt lat="47.28076" lon="-2.35562">
        <ele>20.60000038147</ele>
        <time>2019-05-26T10:15:36.000Z</time>
      </trkpt>
      <trkpt lat="47.28068" lon="-2.35561">
        <ele>20.200000762939</ele>
        <time>2019-05-26T10:15:37.000Z</time>
      </trkpt>
      <trkpt lat="47.28059" lon="-2.35561">
        <ele>19.799999237061</ele>
        <time>2019-05-26T10:15:38.000Z</time>
      </trkpt>
      <trkpt lat="47.2805" lon="-2.35561">
        <ele>19.39999961853</ele>
        <time>2019-05-26T10:15:39.000Z</time>
      </trkpt>
      <trkpt lat="47.28041" lon="-2.35561">
        <ele>19</ele>
        <time>2019-05-26T10:15:40.000Z</time>
      </trkpt>
      <trkpt lat="47.28032" lon="-2.35561">
        <ele>19</ele>
        <time>2019-05-26T10:15:41.000Z</time>
      </trkpt>
      <trkpt lat="47.28023" lon="-2.35561">
        <ele>18.60000038147</ele>
        <time>2019-05-26T10:15:42.000Z</time>
      </trkpt>
      <trkpt lat="47.28015" lon="-2.35562">
        <ele>18.200000762939</ele>
        <time>2019-05-26T10:15:43.000Z</time>
      </trkpt>
      <trkpt lat="47.28006" lon="-2.35563">
        <ele>17.60000038147</ele>
        <time>2019-05-26T10:15:44.000Z</time>
      </trkpt>
      <trkpt lat="47.27998" lon="-2.35565">
        <ele>17.200000762939</ele>
        <time>2019-05-26T10:15:45.000Z</time>
      </trkpt>
      <trkpt lat="47.2799" lon="-2.35568">
        <ele>16.799999237061</ele>
        <time>2019-05-26T10:15:46.000Z</time>
      </trkpt>
      <trkpt lat="47.27982" lon="-2.3557">
        <ele>16.799999237061</ele>
        <time>2019-05-26T10:15:47.000Z</time>
      </trkpt>
      <trkpt lat="47.27934" lon="-2.35587">
        <ele>16.799999237061</ele>
        <time>2019-05-26T10:15:53.000Z</time>
      </trkpt>
      <trkpt lat="47.27927" lon="-2.35589">
        <ele>16.799999237061</ele>
        <time>2019-05-26T10:15:54.000Z</time>
      </trkpt>
      <trkpt lat="47.27895" lon="-2.35597">
        <ele>16.39999961853</ele>
        <time>2019-05-26T10:15:58.000Z</time>
      </trkpt>
      <trkpt lat="47.27887" lon="-2.356">
        <ele>16</ele>
        <time>2019-05-26T10:15:59.000Z</time>
      </trkpt>
      <trkpt lat="47.2788" lon="-2.35602">
        <ele>15.60000038147</ele>
        <time>2019-05-26T10:16:00.000Z</time>
      </trkpt>
      <trkpt lat="47.27871" lon="-2.35605">
        <ele>15.199999809265</ele>
        <time>2019-05-26T10:16:01.000Z</time>
      </trkpt>
      <trkpt lat="47.27863" lon="-2.35607">
        <ele>14.60000038147</ele>
        <time>2019-05-26T10:16:02.000Z</time>
      </trkpt>
      <trkpt lat="47.27822" lon="-2.35618">
        <ele>14.199999809265</ele>
        <time>2019-05-26T10:16:07.000Z</time>
      </trkpt>
      <trkpt lat="47.27813" lon="-2.35621">
        <ele>13.800000190735</ele>
        <time>2019-05-26T10:16:08.000Z</time>
      </trkpt>
      <trkpt lat="47.27805" lon="-2.35623">
        <ele>13.39999961853</ele>
        <time>2019-05-26T10:16:09.000Z</time>
      </trkpt>
      <trkpt lat="47.27797" lon="-2.35626">
        <ele>13</ele>
        <time>2019-05-26T10:16:10.000Z</time>
      </trkpt>
      <trkpt lat="47.27789" lon="-2.3563">
        <ele>12.60000038147</ele>
        <time>2019-05-26T10:16:11.000Z</time>
      </trkpt>
      <trkpt lat="47.27774" lon="-2.35641">
        <ele>12.199999809265</ele>
        <time>2019-05-26T10:16:13.000Z</time>
      </trkpt>
      <trkpt lat="47.27767" lon="-2.35648">
        <ele>11.800000190735</ele>
        <time>2019-05-26T10:16:14.000Z</time>
      </trkpt>
      <trkpt lat="47.27761" lon="-2.35656">
        <ele>11.199999809265</ele>
        <time>2019-05-26T10:16:15.000Z</time>
      </trkpt>
      <trkpt lat="47.27754" lon="-2.35664">
        <ele>10.800000190735</ele>
        <time>2019-05-26T10:16:16.000Z</time>
      </trkpt>
      <trkpt lat="47.27749" lon="-2.35672">
        <ele>10.39999961853</ele>
        <time>2019-05-26T10:16:17.000Z</time>
      </trkpt>
      <trkpt lat="47.27714" lon="-2.35719">
        <ele>10.39999961853</ele>
        <time>2019-05-26T10:16:23.000Z</time>
      </trkpt>
      <trkpt lat="47.27701" lon="-2.3573">
        <ele>10.39999961853</ele>
        <time>2019-05-26T10:16:25.000Z</time>
      </trkpt>
      <trkpt lat="47.27689" lon="-2.35737">
        <ele>9.8000001907349</ele>
        <time>2019-05-26T10:16:27.000Z</time>
      </trkpt>
      <trkpt lat="47.27684" lon="-2.35743">
        <ele>9.3999996185303</ele>
        <time>2019-05-26T10:16:28.000Z</time>
      </trkpt>
      <trkpt lat="47.27679" lon="-2.35748">
        <ele>8.8000001907349</ele>
        <time>2019-05-26T10:16:29.000Z</time>
      </trkpt>
      <trkpt lat="47.27674" lon="-2.35748">
        <ele>8.3999996185303</ele>
        <time>2019-05-26T10:16:30.000Z</time>
      </trkpt>
      <trkpt lat="47.27668" lon="-2.35744">
        <ele>7.8000001907349</ele>
        <time>2019-05-26T10:16:31.000Z</time>
      </trkpt>
      <trkpt lat="47.27664" lon="-2.35737">
        <ele>7.4000000953674</ele>
        <time>2019-05-26T10:16:32.000Z</time>
      </trkpt>
      <trkpt lat="47.27659" lon="-2.3573">
        <ele>7</ele>
        <time>2019-05-26T10:16:33.000Z</time>
      </trkpt>
      <trkpt lat="47.27654" lon="-2.35726">
        <ele>6.5999999046326</ele>
        <time>2019-05-26T10:16:34.000Z</time>
      </trkpt>
      <trkpt lat="47.27647" lon="-2.35723">
        <ele>6.1999998092651</ele>
        <time>2019-05-26T10:16:35.000Z</time>
      </trkpt>
      <trkpt lat="47.2764" lon="-2.3572">
        <ele>5.8000001907349</ele>
        <time>2019-05-26T10:16:36.000Z</time>
      </trkpt>
      <trkpt lat="47.27596" lon="-2.35707">
        <ele>5.8000001907349</ele>
        <time>2019-05-26T10:16:42.000Z</time>
      </trkpt>
      <trkpt lat="47.27552" lon="-2.35697">
        <ele>5.1999998092651</ele>
        <time>2019-05-26T10:16:48.000Z</time>
      </trkpt>
      <trkpt lat="47.27545" lon="-2.35695">
        <ele>4.8000001907349</ele>
        <time>2019-05-26T10:16:49.000Z</time>
      </trkpt>
      <trkpt lat="47.27538" lon="-2.35694">
        <ele>4.4000000953674</ele>
        <time>2019-05-26T10:16:50.000Z</time>
      </trkpt>
      <trkpt lat="47.27531" lon="-2.35693">
        <ele>3.7999999523163</ele>
        <time>2019-05-26T10:16:51.000Z</time>
      </trkpt>
      <trkpt lat="47.27523" lon="-2.35691">
        <ele>3.4000000953674</ele>
        <time>2019-05-26T10:16:52.000Z</time>
      </trkpt>
      <trkpt lat="47.27487" lon="-2.35681">
        <ele>3.4000000953674</ele>
        <time>2019-05-26T10:16:57.000Z</time>
      </trkpt>
      <trkpt lat="47.27452" lon="-2.35676">
        <ele>2.5999999046326</ele>
        <time>2019-05-26T10:17:02.000Z</time>
      </trkpt>
      <trkpt lat="47.27445" lon="-2.35674">
        <ele>2.2000000476837</ele>
        <time>2019-05-26T10:17:03.000Z</time>
      </trkpt>
      <trkpt lat="47.27439" lon="-2.35673">
        <ele>1.7999999523163</ele>
        <time>2019-05-26T10:17:04.000Z</time>
      </trkpt>
      <trkpt lat="47.27433" lon="-2.35672">
        <ele>1.3999999761581</ele>
        <time>2019-05-26T10:17:05.000Z</time>
      </trkpt>
      <trkpt lat="47.27416" lon="-2.35669">
        <ele>1.3999999761581</ele>
        <time>2019-05-26T10:17:08.000Z</time>
      </trkpt>
      <trkpt lat="47.27404" lon="-2.35671">
        <ele>1.3999999761581</ele>
        <time>2019-05-26T10:17:10.000Z</time>
      </trkpt>
      <trkpt lat="47.27388" lon="-2.35683">
        <ele>1.3999999761581</ele>
        <time>2019-05-26T10:17:13.000Z</time>
      </trkpt>
      <trkpt lat="47.27382" lon="-2.35687">
        <ele>1.3999999761581</ele>
        <time>2019-05-26T10:17:14.000Z</time>
      </trkpt>
      <trkpt lat="47.27359" lon="-2.35702">
        <ele>1.3999999761581</ele>
        <time>2019-05-26T10:17:18.000Z</time>
      </trkpt>
      <trkpt lat="47.2733" lon="-2.35725">
        <ele>1.3999999761581</ele>
        <time>2019-05-26T10:17:24.000Z</time>
      </trkpt>
      <trkpt lat="47.27316" lon="-2.35746">
        <ele>1.3999999761581</ele>
        <time>2019-05-26T10:17:29.000Z</time>
      </trkpt>
      <trkpt lat="47.27305" lon="-2.35738">
        <ele>1.3999999761581</ele>
        <time>2019-05-26T10:17:32.000Z</time>
      </trkpt>
      <trkpt lat="47.27299" lon="-2.35717">
        <ele>1.3999999761581</ele>
        <time>2019-05-26T10:17:35.000Z</time>
      </trkpt>
      <trkpt lat="47.27296" lon="-2.35709">
        <ele>1.3999999761581</ele>
        <time>2019-05-26T10:17:36.000Z</time>
      </trkpt>
      <trkpt lat="47.27275" lon="-2.35666">
        <ele>1.3999999761581</ele>
        <time>2019-05-26T10:17:42.000Z</time>
      </trkpt>
      <trkpt lat="47.27249" lon="-2.35609">
        <ele>1.3999999761581</ele>
        <time>2019-05-26T10:17:49.000Z</time>
      </trkpt>
      <trkpt lat="47.27226" lon="-2.35558">
        <ele>1.3999999761581</ele>
        <time>2019-05-26T10:17:55.000Z</time>
      </trkpt>
      <trkpt lat="47.27194" lon="-2.3549">
        <ele>1.3999999761581</ele>
        <time>2019-05-26T10:18:03.000Z</time>
      </trkpt>
      <trkpt lat="47.27159" lon="-2.35421">
        <ele>1.3999999761581</ele>
        <time>2019-05-26T10:18:11.000Z</time>
      </trkpt>
      <trkpt lat="47.27126" lon="-2.3536">
        <ele>1.3999999761581</ele>
        <time>2019-05-26T10:18:18.000Z</time>
      </trkpt>
      <trkpt lat="47.27091" lon="-2.35304">
        <ele>1.3999999761581</ele>
        <time>2019-05-26T10:18:25.000Z</time>
      </trkpt>
      <trkpt lat="47.27051" lon="-2.35243">
        <ele>1.3999999761581</ele>
        <time>2019-05-26T10:18:33.000Z</time>
      </trkpt>
      <trkpt lat="47.27046" lon="-2.35235">
        <ele>1.3999999761581</ele>
        <time>2019-05-26T10:18:34.000Z</time>
      </trkpt>
      <trkpt lat="47.27005" lon="-2.3517">
        <ele>1.3999999761581</ele>
        <time>2019-05-26T10:18:42.000Z</time>
      </trkpt>
      <trkpt lat="47.26964" lon="-2.35108">
        <ele>1.3999999761581</ele>
        <time>2019-05-26T10:18:50.000Z</time>
      </trkpt>
      <trkpt lat="47.26923" lon="-2.35045">
        <ele>1.3999999761581</ele>
        <time>2019-05-26T10:18:58.000Z</time>
      </trkpt>
      <trkpt lat="47.26888" lon="-2.34991">
        <ele>1.3999999761581</ele>
        <time>2019-05-26T10:19:05.000Z</time>
      </trkpt>
      <trkpt lat="47.26852" lon="-2.34938">
        <ele>1.3999999761581</ele>
        <time>2019-05-26T10:19:12.000Z</time>
      </trkpt>
      <trkpt lat="47.26817" lon="-2.34881">
        <ele>1.3999999761581</ele>
        <time>2019-05-26T10:19:19.000Z</time>
      </trkpt>
      <trkpt lat="47.26774" lon="-2.34821">
        <ele>1.3999999761581</ele>
        <time>2019-05-26T10:19:27.000Z</time>
      </trkpt>
      <trkpt lat="47.26762" lon="-2.3481">
        <ele>1.3999999761581</ele>
        <time>2019-05-26T10:19:29.000Z</time>
      </trkpt>
      <trkpt lat="47.26754" lon="-2.34794">
        <ele>1.3999999761581</ele>
        <time>2019-05-26T10:19:31.000Z</time>
      </trkpt>
      <trkpt lat="47.26743" lon="-2.3478">
        <ele>1.3999999761581</ele>
        <time>2019-05-26T10:19:33.000Z</time>
      </trkpt>
      <trkpt lat="47.26726" lon="-2.34759">
        <ele>1.3999999761581</ele>
        <time>2019-05-26T10:19:36.000Z</time>
      </trkpt>
      <trkpt lat="47.26681" lon="-2.34705">
        <ele>1.3999999761581</ele>
        <time>2019-05-26T10:19:44.000Z</time>
      </trkpt>
      <trkpt lat="47.26642" lon="-2.34658">
        <ele>1.3999999761581</ele>
        <time>2019-05-26T10:19:51.000Z</time>
      </trkpt>
      <trkpt lat="47.26603" lon="-2.34612">
        <ele>1.3999999761581</ele>
        <time>2019-05-26T10:19:58.000Z</time>
      </trkpt>
      <trkpt lat="47.26569" lon="-2.34573">
        <ele>1.3999999761581</ele>
        <time>2019-05-26T10:20:04.000Z</time>
      </trkpt>
      <trkpt lat="47.26529" lon="-2.34532">
        <ele>1.3999999761581</ele>
        <time>2019-05-26T10:20:11.000Z</time>
      </trkpt>
      <trkpt lat="47.26481" lon="-2.34494">
        <ele>1.3999999761581</ele>
        <time>2019-05-26T10:20:19.000Z</time>
      </trkpt>
      <trkpt lat="47.26437" lon="-2.34463">
        <ele>1.3999999761581</ele>
        <time>2019-05-26T10:20:26.000Z</time>
      </trkpt>
      <trkpt lat="47.26389" lon="-2.34426">
        <ele>1.3999999761581</ele>
        <time>2019-05-26T10:20:34.000Z</time>
      </trkpt>
      <trkpt lat="47.26343" lon="-2.34384">
        <ele>1.3999999761581</ele>
        <time>2019-05-26T10:20:42.000Z</time>
      </trkpt>
      <trkpt lat="47.26336" lon="-2.3438">
        <ele>1.3999999761581</ele>
        <time>2019-05-26T10:20:43.000Z</time>
      </trkpt>
      <trkpt lat="47.26318" lon="-2.34374">
        <ele>1.3999999761581</ele>
        <time>2019-05-26T10:20:46.000Z</time>
      </trkpt>
      <trkpt lat="47.26308" lon="-2.34353">
        <ele>1.3999999761581</ele>
        <time>2019-05-26T10:20:49.000Z</time>
      </trkpt>
      <trkpt lat="47.26291" lon="-2.34337">
        <ele>1.3999999761581</ele>
        <time>2019-05-26T10:20:52.000Z</time>
      </trkpt>
      <trkpt lat="47.26286" lon="-2.34332">
        <ele>1.3999999761581</ele>
        <time>2019-05-26T10:20:53.000Z</time>
      </trkpt>
      <trkpt lat="47.26254" lon="-2.34298">
        <ele>1.3999999761581</ele>
        <time>2019-05-26T10:20:59.000Z</time>
      </trkpt>
      <trkpt lat="47.26221" lon="-2.34264">
        <ele>1.3999999761581</ele>
        <time>2019-05-26T10:21:05.000Z</time>
      </trkpt>
      <trkpt lat="47.26176" lon="-2.34217">
        <ele>1.3999999761581</ele>
        <time>2019-05-26T10:21:13.000Z</time>
      </trkpt>
      <trkpt lat="47.26142" lon="-2.34183">
        <ele>1.3999999761581</ele>
        <time>2019-05-26T10:21:19.000Z</time>
      </trkpt>
      <trkpt lat="47.26135" lon="-2.34179">
        <ele>1.3999999761581</ele>
        <time>2019-05-26T10:21:20.000Z</time>
      </trkpt>
      <trkpt lat="47.26104" lon="-2.34157">
        <ele>1.3999999761581</ele>
        <time>2019-05-26T10:21:25.000Z</time>
      </trkpt>
      <trkpt lat="47.26091" lon="-2.34151">
        <ele>1.3999999761581</ele>
        <time>2019-05-26T10:21:27.000Z</time>
      </trkpt>
      <trkpt lat="47.26034" lon="-2.34121">
        <ele>1.3999999761581</ele>
        <time>2019-05-26T10:21:36.000Z</time>
      </trkpt>
      <trkpt lat="47.25986" lon="-2.34097">
        <ele>1.3999999761581</ele>
        <time>2019-05-26T10:21:44.000Z</time>
      </trkpt>
      <trkpt lat="47.2596" lon="-2.34086">
        <ele>1.3999999761581</ele>
        <time>2019-05-26T10:21:49.000Z</time>
      </trkpt>
      <trkpt lat="47.25924" lon="-2.34073">
        <ele>1.3999999761581</ele>
        <time>2019-05-26T10:21:56.000Z</time>
      </trkpt>
      <trkpt lat="47.25913" lon="-2.34071">
        <ele>1</ele>
        <time>2019-05-26T10:21:58.000Z</time>
      </trkpt>
      <trkpt lat="47.25908" lon="-2.34068">
        <ele>0.20000000298023</ele>
        <time>2019-05-26T10:21:59.000Z</time>
      </trkpt>
      <trkpt lat="47.25903" lon="-2.34064">
        <ele>-0.20000000298023</ele>
        <time>2019-05-26T10:22:00.000Z</time>
      </trkpt>
      <trkpt lat="47.25901" lon="-2.34057">
        <ele>-0.60000002384186</ele>
        <time>2019-05-26T10:22:01.000Z</time>
      </trkpt>
      <trkpt lat="47.25899" lon="-2.34048">
        <ele>-0.60000002384186</ele>
        <time>2019-05-26T10:22:02.000Z</time>
      </trkpt>
      <trkpt lat="47.25904" lon="-2.34024">
        <ele>-0.60000002384186</ele>
        <time>2019-05-26T10:22:05.000Z</time>
      </trkpt>
      <trkpt lat="47.25906" lon="-2.34017">
        <ele>-0.60000002384186</ele>
        <time>2019-05-26T10:22:06.000Z</time>
      </trkpt>
      <trkpt lat="47.25913" lon="-2.33983">
        <ele>-0.60000002384186</ele>
        <time>2019-05-26T10:22:10.000Z</time>
      </trkpt>
      <trkpt lat="47.25916" lon="-2.33976">
        <ele>-0.60000002384186</ele>
        <time>2019-05-26T10:22:11.000Z</time>
      </trkpt>
      <trkpt lat="47.25929" lon="-2.33947">
        <ele>-0.60000002384186</ele>
        <time>2019-05-26T10:22:15.000Z</time>
      </trkpt>
      <trkpt lat="47.25931" lon="-2.33939">
        <ele>-0.60000002384186</ele>
        <time>2019-05-26T10:22:16.000Z</time>
      </trkpt>
      <trkpt lat="47.25932" lon="-2.3392">
        <ele>-0.60000002384186</ele>
        <time>2019-05-26T10:22:18.000Z</time>
      </trkpt>
      <trkpt lat="47.2592" lon="-2.33899">
        <ele>-0.60000002384186</ele>
        <time>2019-05-26T10:22:21.000Z</time>
      </trkpt>
      <trkpt lat="47.25907" lon="-2.33892">
        <ele>-0.60000002384186</ele>
        <time>2019-05-26T10:22:23.000Z</time>
      </trkpt>
      <trkpt lat="47.25902" lon="-2.33888">
        <ele>-0.60000002384186</ele>
        <time>2019-05-26T10:22:24.000Z</time>
      </trkpt>
      <trkpt lat="47.2586" lon="-2.33869">
        <ele>-0.60000002384186</ele>
        <time>2019-05-26T10:22:31.000Z</time>
      </trkpt>
      <trkpt lat="47.25805" lon="-2.33847">
        <ele>-0.60000002384186</ele>
        <time>2019-05-26T10:22:40.000Z</time>
      </trkpt>
      <trkpt lat="47.25762" lon="-2.33825">
        <ele>-0.60000002384186</ele>
        <time>2019-05-26T10:22:47.000Z</time>
      </trkpt>
      <trkpt lat="47.2572" lon="-2.33807">
        <ele>-0.60000002384186</ele>
        <time>2019-05-26T10:22:54.000Z</time>
      </trkpt>
      <trkpt lat="47.25678" lon="-2.33791">
        <ele>-0.20000000298023</ele>
        <time>2019-05-26T10:23:01.000Z</time>
      </trkpt>
      <trkpt lat="47.25672" lon="-2.33789">
        <ele>0.20000000298023</ele>
        <time>2019-05-26T10:23:02.000Z</time>
      </trkpt>
      <trkpt lat="47.25666" lon="-2.33787">
        <ele>0.60000002384186</ele>
        <time>2019-05-26T10:23:03.000Z</time>
      </trkpt>
      <trkpt lat="47.2566" lon="-2.33785">
        <ele>1</ele>
        <time>2019-05-26T10:23:04.000Z</time>
      </trkpt>
      <trkpt lat="47.25655" lon="-2.33782">
        <ele>1.3999999761581</ele>
        <time>2019-05-26T10:23:05.000Z</time>
      </trkpt>
      <trkpt lat="47.25644" lon="-2.33776">
        <ele>1.3999999761581</ele>
        <time>2019-05-26T10:23:07.000Z</time>
      </trkpt>
      <trkpt lat="47.25624" lon="-2.33767">
        <ele>1.3999999761581</ele>
        <time>2019-05-26T10:23:11.000Z</time>
      </trkpt>
      <trkpt lat="47.25614" lon="-2.33762">
        <ele>1.3999999761581</ele>
        <time>2019-05-26T10:23:13.000Z</time>
      </trkpt>
      <trkpt lat="47.25598" lon="-2.33757">
        <ele>1.3999999761581</ele>
        <time>2019-05-26T10:23:16.000Z</time>
      </trkpt>
      <trkpt lat="47.25586" lon="-2.33757">
        <ele>1.7999999523163</ele>
        <time>2019-05-26T10:23:18.000Z</time>
      </trkpt>
      <trkpt lat="47.2558" lon="-2.33757">
        <ele>2.2000000476837</ele>
        <time>2019-05-26T10:23:19.000Z</time>
      </trkpt>
      <trkpt lat="47.25574" lon="-2.33757">
        <ele>2.7999999523163</ele>
        <time>2019-05-26T10:23:20.000Z</time>
      </trkpt>
      <trkpt lat="47.25568" lon="-2.33757">
        <ele>3.2000000476837</ele>
        <time>2019-05-26T10:23:21.000Z</time>
      </trkpt>
      <trkpt lat="47.25561" lon="-2.33757">
        <ele>3.5999999046326</ele>
        <time>2019-05-26T10:23:22.000Z</time>
      </trkpt>
      <trkpt lat="47.25549" lon="-2.33757">
        <ele>3.5999999046326</ele>
        <time>2019-05-26T10:23:24.000Z</time>
      </trkpt>
      <trkpt lat="47.25502" lon="-2.33758">
        <ele>3.5999999046326</ele>
        <time>2019-05-26T10:23:31.000Z</time>
      </trkpt>
      <trkpt lat="47.25471" lon="-2.33752">
        <ele>3.5999999046326</ele>
        <time>2019-05-26T10:23:36.000Z</time>
      </trkpt>
      <trkpt lat="47.25465" lon="-2.33748">
        <ele>3.5999999046326</ele>
        <time>2019-05-26T10:23:37.000Z</time>
      </trkpt>
      <trkpt lat="47.25454" lon="-2.33729">
        <ele>3.5999999046326</ele>
        <time>2019-05-26T10:23:40.000Z</time>
      </trkpt>
      <trkpt lat="47.25451" lon="-2.33703">
        <ele>3.5999999046326</ele>
        <time>2019-05-26T10:23:43.000Z</time>
      </trkpt>
      <trkpt lat="47.2545" lon="-2.33695">
        <ele>3.5999999046326</ele>
        <time>2019-05-26T10:23:44.000Z</time>
      </trkpt>
      <trkpt lat="47.25444" lon="-2.33651">
        <ele>3.5999999046326</ele>
        <time>2019-05-26T10:23:50.000Z</time>
      </trkpt>
      <trkpt lat="47.25441" lon="-2.33637">
        <ele>3.5999999046326</ele>
        <time>2019-05-26T10:23:52.000Z</time>
      </trkpt>
      <trkpt lat="47.25442" lon="-2.33623">
        <ele>3.2000000476837</ele>
        <time>2019-05-26T10:23:54.000Z</time>
      </trkpt>
      <trkpt lat="47.25441" lon="-2.33616">
        <ele>2.5999999046326</ele>
        <time>2019-05-26T10:23:55.000Z</time>
      </trkpt>
      <trkpt lat="47.25441" lon="-2.3361">
        <ele>2.2000000476837</ele>
        <time>2019-05-26T10:23:56.000Z</time>
      </trkpt>
      <trkpt lat="47.25441" lon="-2.33603">
        <ele>1.7999999523163</ele>
        <time>2019-05-26T10:23:57.000Z</time>
      </trkpt>
      <trkpt lat="47.25439" lon="-2.33596">
        <ele>1.3999999761581</ele>
        <time>2019-05-26T10:23:58.000Z</time>
      </trkpt>
      <trkpt lat="47.25439" lon="-2.33585">
        <ele>1.3999999761581</ele>
        <time>2019-05-26T10:24:00.000Z</time>
      </trkpt>
      <trkpt lat="47.25448" lon="-2.33579">
        <ele>1.3999999761581</ele>
        <time>2019-05-26T10:24:03.000Z</time>
      </trkpt>
      <trkpt lat="47.25452" lon="-2.33578">
        <ele>1.3999999761581</ele>
        <time>2019-05-26T10:24:04.000Z</time>
      </trkpt>
      <trkpt lat="47.25456" lon="-2.33574">
        <ele>1.3999999761581</ele>
        <time>2019-05-26T10:24:05.000Z</time>
      </trkpt>
      <trkpt lat="47.25456" lon="-2.33568">
        <ele>1.3999999761581</ele>
        <time>2019-05-26T10:24:06.000Z</time>
      </trkpt>
      <trkpt lat="47.25453" lon="-2.33553">
        <ele>1.3999999761581</ele>
        <time>2019-05-26T10:24:09.000Z</time>
      </trkpt>
      <trkpt lat="47.25452" lon="-2.33547">
        <ele>1.3999999761581</ele>
        <time>2019-05-26T10:24:10.000Z</time>
      </trkpt>
      <trkpt lat="47.25447" lon="-2.33516">
        <ele>1.3999999761581</ele>
        <time>2019-05-26T10:24:15.000Z</time>
      </trkpt>
      <trkpt lat="47.25434" lon="-2.33471">
        <ele>1.3999999761581</ele>
        <time>2019-05-26T10:24:22.000Z</time>
      </trkpt>
      <trkpt lat="47.25431" lon="-2.33459">
        <ele>1.3999999761581</ele>
        <time>2019-05-26T10:24:24.000Z</time>
      </trkpt>
      <trkpt lat="47.2543" lon="-2.33445">
        <ele>1.3999999761581</ele>
        <time>2019-05-26T10:24:26.000Z</time>
      </trkpt>
      <trkpt lat="47.25429" lon="-2.33431">
        <ele>1.3999999761581</ele>
        <time>2019-05-26T10:24:28.000Z</time>
      </trkpt>
      <trkpt lat="47.25429" lon="-2.33401">
        <ele>1.3999999761581</ele>
        <time>2019-05-26T10:24:32.000Z</time>
      </trkpt>
      <trkpt lat="47.25429" lon="-2.33355">
        <ele>1.3999999761581</ele>
        <time>2019-05-26T10:24:38.000Z</time>
      </trkpt>
      <trkpt lat="47.2543" lon="-2.33348">
        <ele>1.3999999761581</ele>
        <time>2019-05-26T10:24:39.000Z</time>
      </trkpt>
      <trkpt lat="47.25439" lon="-2.33321">
        <ele>1.3999999761581</ele>
        <time>2019-05-26T10:24:43.000Z</time>
      </trkpt>
      <trkpt lat="47.25442" lon="-2.33314">
        <ele>1.3999999761581</ele>
        <time>2019-05-26T10:24:44.000Z</time>
      </trkpt>
      <trkpt lat="47.25448" lon="-2.33294">
        <ele>1.3999999761581</ele>
        <time>2019-05-26T10:24:47.000Z</time>
      </trkpt>
      <trkpt lat="47.25447" lon="-2.33279">
        <ele>1.3999999761581</ele>
        <time>2019-05-26T10:24:49.000Z</time>
      </trkpt>
      <trkpt lat="47.25436" lon="-2.33253">
        <ele>1.3999999761581</ele>
        <time>2019-05-26T10:24:53.000Z</time>
      </trkpt>
      <trkpt lat="47.25406" lon="-2.33186">
        <ele>1.3999999761581</ele>
        <time>2019-05-26T10:25:03.000Z</time>
      </trkpt>
      <trkpt lat="47.25397" lon="-2.33165">
        <ele>1.3999999761581</ele>
        <time>2019-05-26T10:25:06.000Z</time>
      </trkpt>
      <trkpt lat="47.25391" lon="-2.33152">
        <ele>1.3999999761581</ele>
        <time>2019-05-26T10:25:08.000Z</time>
      </trkpt>
      <trkpt lat="47.25388" lon="-2.33148">
        <ele>1.3999999761581</ele>
        <time>2019-05-26T10:25:09.000Z</time>
      </trkpt>
      <trkpt lat="47.2538" lon="-2.33134">
        <ele>1.3999999761581</ele>
        <time>2019-05-26T10:25:13.000Z</time>
      </trkpt>
      <trkpt lat="47.25368" lon="-2.33101">
        <ele>1.3999999761581</ele>
        <time>2019-05-26T10:25:19.000Z</time>
      </trkpt>
      <trkpt lat="47.25359" lon="-2.33083">
        <ele>1.3999999761581</ele>
        <time>2019-05-26T10:25:25.000Z</time>
      </trkpt>
      <trkpt lat="47.25357" lon="-2.33076">
        <ele>3.4000000953674</ele>
        <time>2019-05-26T10:31:40.000Z</time>
      </trkpt>
      <trkpt lat="47.25354" lon="-2.33068">
        <ele>3.4000000953674</ele>
        <time>2019-05-26T10:31:43.000Z</time>
      </trkpt>
      <trkpt lat="47.25345" lon="-2.33048">
        <ele>3.4000000953674</ele>
        <time>2019-05-26T10:31:48.000Z</time>
      </trkpt>
      <trkpt lat="47.25334" lon="-2.3302">
        <ele>3.4000000953674</ele>
        <time>2019-05-26T10:31:54.000Z</time>
      </trkpt>
      <trkpt lat="47.25323" lon="-2.32991">
        <ele>3.4000000953674</ele>
        <time>2019-05-26T10:32:00.000Z</time>
      </trkpt>
      <trkpt lat="47.25311" lon="-2.32955">
        <ele>3.4000000953674</ele>
        <time>2019-05-26T10:32:07.000Z</time>
      </trkpt>
      <trkpt lat="47.25309" lon="-2.32925">
        <ele>3.4000000953674</ele>
        <time>2019-05-26T10:32:12.000Z</time>
      </trkpt>
      <trkpt lat="47.25311" lon="-2.3292">
        <ele>3.4000000953674</ele>
        <time>2019-05-26T10:32:13.000Z</time>
      </trkpt>
      <trkpt lat="47.25322" lon="-2.32908">
        <ele>3.4000000953674</ele>
        <time>2019-05-26T10:32:16.000Z</time>
      </trkpt>
      <trkpt lat="47.25348" lon="-2.32882">
        <ele>3.4000000953674</ele>
        <time>2019-05-26T10:32:23.000Z</time>
      </trkpt>
      <trkpt lat="47.25378" lon="-2.32851">
        <ele>3.4000000953674</ele>
        <time>2019-05-26T10:32:31.000Z</time>
      </trkpt>
      <trkpt lat="47.25407" lon="-2.32815">
        <ele>3.4000000953674</ele>
        <time>2019-05-26T10:32:39.000Z</time>
      </trkpt>
      <trkpt lat="47.25409" lon="-2.3281">
        <ele>3.7999999523163</ele>
        <time>2019-05-26T10:32:40.000Z</time>
      </trkpt>
      <trkpt lat="47.25412" lon="-2.32805">
        <ele>4.5999999046326</ele>
        <time>2019-05-26T10:32:41.000Z</time>
      </trkpt>
      <trkpt lat="47.25415" lon="-2.328">
        <ele>5</ele>
        <time>2019-05-26T10:32:42.000Z</time>
      </trkpt>
      <trkpt lat="47.25418" lon="-2.32796">
        <ele>5.5999999046326</ele>
        <time>2019-05-26T10:32:43.000Z</time>
      </trkpt>
      <trkpt lat="47.25423" lon="-2.32786">
        <ele>5.5999999046326</ele>
        <time>2019-05-26T10:32:45.000Z</time>
      </trkpt>
      <trkpt lat="47.25427" lon="-2.32776">
        <ele>5.5999999046326</ele>
        <time>2019-05-26T10:32:47.000Z</time>
      </trkpt>
      <trkpt lat="47.25438" lon="-2.32759">
        <ele>5.5999999046326</ele>
        <time>2019-05-26T10:32:51.000Z</time>
      </trkpt>
      <trkpt lat="47.25463" lon="-2.32725">
        <ele>5.5999999046326</ele>
        <time>2019-05-26T10:32:59.000Z</time>
      </trkpt>
      <trkpt lat="47.25479" lon="-2.32703">
        <ele>5.5999999046326</ele>
        <time>2019-05-26T10:33:04.000Z</time>
      </trkpt>
      <trkpt lat="47.25485" lon="-2.32693">
        <ele>5.5999999046326</ele>
        <time>2019-05-26T10:33:06.000Z</time>
      </trkpt>
      <trkpt lat="47.25488" lon="-2.32689">
        <ele>5.5999999046326</ele>
        <time>2019-05-26T10:33:07.000Z</time>
      </trkpt>
      <trkpt lat="47.25496" lon="-2.32687">
        <ele>6</ele>
        <time>2019-05-26T10:33:09.000Z</time>
      </trkpt>
      <trkpt lat="47.255" lon="-2.32689">
        <ele>6.4000000953674</ele>
        <time>2019-05-26T10:33:10.000Z</time>
      </trkpt>
      <trkpt lat="47.25505" lon="-2.32691">
        <ele>6.8000001907349</ele>
        <time>2019-05-26T10:33:11.000Z</time>
      </trkpt>
      <trkpt lat="47.25509" lon="-2.32693">
        <ele>7.1999998092651</ele>
        <time>2019-05-26T10:33:12.000Z</time>
      </trkpt>
      <trkpt lat="47.25514" lon="-2.32694">
        <ele>7.5999999046326</ele>
        <time>2019-05-26T10:33:13.000Z</time>
      </trkpt>
      <trkpt lat="47.25533" lon="-2.32693">
        <ele>7.5999999046326</ele>
        <time>2019-05-26T10:33:17.000Z</time>
      </trkpt>
      <trkpt lat="47.25537" lon="-2.32691">
        <ele>7.5999999046326</ele>
        <time>2019-05-26T10:33:18.000Z</time>
      </trkpt>
      <trkpt lat="47.25564" lon="-2.32681">
        <ele>7.5999999046326</ele>
        <time>2019-05-26T10:33:24.000Z</time>
      </trkpt>
      <trkpt lat="47.25568" lon="-2.32679">
        <ele>7.5999999046326</ele>
        <time>2019-05-26T10:33:25.000Z</time>
      </trkpt>
      <trkpt lat="47.25589" lon="-2.32668">
        <ele>7.5999999046326</ele>
        <time>2019-05-26T10:33:30.000Z</time>
      </trkpt>
      <trkpt lat="47.25611" lon="-2.32659">
        <ele>7.5999999046326</ele>
        <time>2019-05-26T10:33:35.000Z</time>
      </trkpt>
      <trkpt lat="47.2562" lon="-2.32655">
        <ele>7.5999999046326</ele>
        <time>2019-05-26T10:33:37.000Z</time>
      </trkpt>
      <trkpt lat="47.25635" lon="-2.3265">
        <ele>7.5999999046326</ele>
        <time>2019-05-26T10:33:40.000Z</time>
      </trkpt>
      <trkpt lat="47.25676" lon="-2.32632">
        <ele>7.5999999046326</ele>
        <time>2019-05-26T10:33:48.000Z</time>
      </trkpt>
      <trkpt lat="47.25703" lon="-2.32619">
        <ele>7.5999999046326</ele>
        <time>2019-05-26T10:33:53.000Z</time>
      </trkpt>
      <trkpt lat="47.25707" lon="-2.32614">
        <ele>7.5999999046326</ele>
        <time>2019-05-26T10:33:54.000Z</time>
      </trkpt>
      <trkpt lat="47.25709" lon="-2.32607">
        <ele>6.8000001907349</ele>
        <time>2019-05-26T10:33:55.000Z</time>
      </trkpt>
      <trkpt lat="47.25709" lon="-2.326">
        <ele>6.4000000953674</ele>
        <time>2019-05-26T10:33:56.000Z</time>
      </trkpt>
      <trkpt lat="47.25707" lon="-2.32592">
        <ele>6</ele>
        <time>2019-05-26T10:33:57.000Z</time>
      </trkpt>
      <trkpt lat="47.25705" lon="-2.32585">
        <ele>5.5999999046326</ele>
        <time>2019-05-26T10:33:58.000Z</time>
      </trkpt>
      <trkpt lat="47.257" lon="-2.3257">
        <ele>5.5999999046326</ele>
        <time>2019-05-26T10:34:00.000Z</time>
      </trkpt>
      <trkpt lat="47.25698" lon="-2.32562">
        <ele>5.5999999046326</ele>
        <time>2019-05-26T10:34:01.000Z</time>
      </trkpt>
      <trkpt lat="47.25683" lon="-2.32515">
        <ele>5.5999999046326</ele>
        <time>2019-05-26T10:34:07.000Z</time>
      </trkpt>
      <trkpt lat="47.25675" lon="-2.32488">
        <ele>5</ele>
        <time>2019-05-26T10:34:10.000Z</time>
      </trkpt>
      <trkpt lat="47.25672" lon="-2.32479">
        <ele>4.5999999046326</ele>
        <time>2019-05-26T10:34:11.000Z</time>
      </trkpt>
      <trkpt lat="47.25669" lon="-2.3247">
        <ele>4.1999998092651</ele>
        <time>2019-05-26T10:34:12.000Z</time>
      </trkpt>
      <trkpt lat="47.25666" lon="-2.32461">
        <ele>3.7999999523163</ele>
        <time>2019-05-26T10:34:13.000Z</time>
      </trkpt>
      <trkpt lat="47.25664" lon="-2.32452">
        <ele>3.2000000476837</ele>
        <time>2019-05-26T10:34:14.000Z</time>
      </trkpt>
      <trkpt lat="47.25658" lon="-2.32424">
        <ele>3.2000000476837</ele>
        <time>2019-05-26T10:34:17.000Z</time>
      </trkpt>
      <trkpt lat="47.25654" lon="-2.32409">
        <ele>3.2000000476837</ele>
        <time>2019-05-26T10:34:19.000Z</time>
      </trkpt>
      <trkpt lat="47.2566" lon="-2.32401">
        <ele>3.2000000476837</ele>
        <time>2019-05-26T10:34:21.000Z</time>
      </trkpt>
      <trkpt lat="47.25672" lon="-2.3241">
        <ele>3.2000000476837</ele>
        <time>2019-05-26T10:34:24.000Z</time>
      </trkpt>
      <trkpt lat="47.25676" lon="-2.32415">
        <ele>2.7999999523163</ele>
        <time>2019-05-26T10:34:25.000Z</time>
      </trkpt>
      <trkpt lat="47.25681" lon="-2.32418">
        <ele>2.4000000953674</ele>
        <time>2019-05-26T10:34:26.000Z</time>
      </trkpt>
      <trkpt lat="47.25687" lon="-2.32419">
        <ele>2</ele>
        <time>2019-05-26T10:34:27.000Z</time>
      </trkpt>
      <trkpt lat="47.25693" lon="-2.3242">
        <ele>1.6000000238419</ele>
        <time>2019-05-26T10:34:28.000Z</time>
      </trkpt>
      <trkpt lat="47.25699" lon="-2.3242">
        <ele>1.2000000476837</ele>
        <time>2019-05-26T10:34:29.000Z</time>
      </trkpt>
      <trkpt lat="47.25723" lon="-2.32422">
        <ele>1.2000000476837</ele>
        <time>2019-05-26T10:34:33.000Z</time>
      </trkpt>
      <trkpt lat="47.25745" lon="-2.32422">
        <ele>1.2000000476837</ele>
        <time>2019-05-26T10:34:37.000Z</time>
      </trkpt>
      <trkpt lat="47.2575" lon="-2.32422">
        <ele>1.2000000476837</ele>
        <time>2019-05-26T10:34:38.000Z</time>
      </trkpt>
      <trkpt lat="47.25769" lon="-2.32415">
        <ele>1.2000000476837</ele>
        <time>2019-05-26T10:34:42.000Z</time>
      </trkpt>
      <trkpt lat="47.25774" lon="-2.32414">
        <ele>1.2000000476837</ele>
        <time>2019-05-26T10:34:43.000Z</time>
      </trkpt>
      <trkpt lat="47.25788" lon="-2.32422">
        <ele>1.2000000476837</ele>
        <time>2019-05-26T10:34:46.000Z</time>
      </trkpt>
      <trkpt lat="47.25799" lon="-2.32442">
        <ele>1.2000000476837</ele>
        <time>2019-05-26T10:34:49.000Z</time>
      </trkpt>
      <trkpt lat="47.25815" lon="-2.32456">
        <ele>1.2000000476837</ele>
        <time>2019-05-26T10:34:52.000Z</time>
      </trkpt>
      <trkpt lat="47.25838" lon="-2.32468">
        <ele>1.2000000476837</ele>
        <time>2019-05-26T10:34:56.000Z</time>
      </trkpt>
      <trkpt lat="47.25848" lon="-2.32471">
        <ele>1.2000000476837</ele>
        <time>2019-05-26T10:34:58.000Z</time>
      </trkpt>
      <trkpt lat="47.25854" lon="-2.32471">
        <ele>1.2000000476837</ele>
        <time>2019-05-26T10:34:59.000Z</time>
      </trkpt>
      <trkpt lat="47.25875" lon="-2.32468">
        <ele>1.2000000476837</ele>
        <time>2019-05-26T10:35:03.000Z</time>
      </trkpt>
      <trkpt lat="47.25892" lon="-2.32465">
        <ele>1.2000000476837</ele>
        <time>2019-05-26T10:35:06.000Z</time>
      </trkpt>
      <trkpt lat="47.25901" lon="-2.32454">
        <ele>1.2000000476837</ele>
        <time>2019-05-26T10:35:08.000Z</time>
      </trkpt>
      <trkpt lat="47.25929" lon="-2.3242">
        <ele>1.2000000476837</ele>
        <time>2019-05-26T10:35:14.000Z</time>
      </trkpt>
      <trkpt lat="47.25961" lon="-2.3238">
        <ele>1.2000000476837</ele>
        <time>2019-05-26T10:35:21.000Z</time>
      </trkpt>
      <trkpt lat="47.25992" lon="-2.32338">
        <ele>1.2000000476837</ele>
        <time>2019-05-26T10:35:28.000Z</time>
      </trkpt>
      <trkpt lat="47.26028" lon="-2.32294">
        <ele>1.2000000476837</ele>
        <time>2019-05-26T10:35:36.000Z</time>
      </trkpt>
      <trkpt lat="47.2607" lon="-2.32247">
        <ele>1.2000000476837</ele>
        <time>2019-05-26T10:35:45.000Z</time>
      </trkpt>
      <trkpt lat="47.26095" lon="-2.32214">
        <ele>1.2000000476837</ele>
        <time>2019-05-26T10:35:51.000Z</time>
      </trkpt>
      <trkpt lat="47.26103" lon="-2.32202">
        <ele>1.2000000476837</ele>
        <time>2019-05-26T10:35:53.000Z</time>
      </trkpt>
      <trkpt lat="47.26108" lon="-2.32187">
        <ele>1.2000000476837</ele>
        <time>2019-05-26T10:35:55.000Z</time>
      </trkpt>
      <trkpt lat="47.26111" lon="-2.3218">
        <ele>1.2000000476837</ele>
        <time>2019-05-26T10:35:56.000Z</time>
      </trkpt>
      <trkpt lat="47.26122" lon="-2.3215">
        <ele>1.2000000476837</ele>
        <time>2019-05-26T10:36:00.000Z</time>
      </trkpt>
      <trkpt lat="47.26128" lon="-2.32128">
        <ele>1.2000000476837</ele>
        <time>2019-05-26T10:36:03.000Z</time>
      </trkpt>
      <trkpt lat="47.26137" lon="-2.32088">
        <ele>1.2000000476837</ele>
        <time>2019-05-26T10:36:08.000Z</time>
      </trkpt>
      <trkpt lat="47.2614" lon="-2.32081">
        <ele>1.2000000476837</ele>
        <time>2019-05-26T10:36:09.000Z</time>
      </trkpt>
      <trkpt lat="47.26146" lon="-2.32058">
        <ele>1.2000000476837</ele>
        <time>2019-05-26T10:36:12.000Z</time>
      </trkpt>
      <trkpt lat="47.26153" lon="-2.32036">
        <ele>1.2000000476837</ele>
        <time>2019-05-26T10:36:15.000Z</time>
      </trkpt>
      <trkpt lat="47.26156" lon="-2.3203">
        <ele>1.2000000476837</ele>
        <time>2019-05-26T10:36:16.000Z</time>
      </trkpt>
      <trkpt lat="47.26172" lon="-2.32018">
        <ele>1.2000000476837</ele>
        <time>2019-05-26T10:36:20.000Z</time>
      </trkpt>
      <trkpt lat="47.26188" lon="-2.32023">
        <ele>1.2000000476837</ele>
        <time>2019-05-26T10:36:24.000Z</time>
      </trkpt>
      <trkpt lat="47.2619" lon="-2.32024">
        <ele>1.2000000476837</ele>
        <time>2019-05-26T10:36:25.000Z</time>
      </trkpt>
      <trkpt lat="47.26194" lon="-2.32023">
        <ele>1.2000000476837</ele>
        <time>2019-05-26T10:36:27.000Z</time>
      </trkpt>
      <trkpt lat="47.26196" lon="-2.32022">
        <ele>0.80000001192093</ele>
        <time>2019-05-26T10:36:28.000Z</time>
      </trkpt>
      <trkpt lat="47.26197" lon="-2.32019">
        <ele>0.40000000596046</ele>
        <time>2019-05-26T10:36:29.000Z</time>
      </trkpt>
      <trkpt lat="47.26198" lon="-2.32015">
        <ele>3</ele>
        <time>2019-05-26T10:36:30.000Z</time>
      </trkpt>
      <trkpt lat="47.26199" lon="-2.32011">
        <ele>-0.40000000596046</ele>
        <time>2019-05-26T10:36:31.000Z</time>
      </trkpt>
      <trkpt lat="47.262" lon="-2.32008">
        <ele>-0.80000001192093</ele>
        <time>2019-05-26T10:36:32.000Z</time>
      </trkpt>
      <trkpt lat="47.26204" lon="-2.32005">
        <ele>-0.80000001192093</ele>
        <time>2019-05-26T10:36:34.000Z</time>
      </trkpt>
      <trkpt lat="47.26218" lon="-2.31992">
        <ele>-0.80000001192093</ele>
        <time>2019-05-26T10:36:39.000Z</time>
      </trkpt>
      <trkpt lat="47.26226" lon="-2.31982">
        <ele>-0.80000001192093</ele>
        <time>2019-05-26T10:36:42.000Z</time>
      </trkpt>
      <trkpt lat="47.2623" lon="-2.31982">
        <ele>-0.80000001192093</ele>
        <time>2019-05-26T10:36:43.000Z</time>
      </trkpt>
      <trkpt lat="47.26239" lon="-2.31975">
        <ele>-0.80000001192093</ele>
        <time>2019-05-26T10:36:46.000Z</time>
      </trkpt>
      <trkpt lat="47.26243" lon="-2.31965">
        <ele>-0.80000001192093</ele>
        <time>2019-05-26T10:36:48.000Z</time>
      </trkpt>
      <trkpt lat="47.26252" lon="-2.31948">
        <ele>-0.80000001192093</ele>
        <time>2019-05-26T10:36:51.000Z</time>
      </trkpt>
      <trkpt lat="47.26255" lon="-2.31943">
        <ele>-0.80000001192093</ele>
        <time>2019-05-26T10:36:52.000Z</time>
      </trkpt>
      <trkpt lat="47.26267" lon="-2.31921">
        <ele>-0.80000001192093</ele>
        <time>2019-05-26T10:36:57.000Z</time>
      </trkpt>
      <trkpt lat="47.26283" lon="-2.31905">
        <ele>-0.80000001192093</ele>
        <time>2019-05-26T10:37:01.000Z</time>
      </trkpt>
      <trkpt lat="47.26287" lon="-2.31902">
        <ele>-0.80000001192093</ele>
        <time>2019-05-26T10:37:02.000Z</time>
      </trkpt>
      <trkpt lat="47.26298" lon="-2.31892">
        <ele>-0.80000001192093</ele>
        <time>2019-05-26T10:37:05.000Z</time>
      </trkpt>
      <trkpt lat="47.26298" lon="-2.31884">
        <ele>-0.80000001192093</ele>
        <time>2019-05-26T10:37:06.000Z</time>
      </trkpt>
      <trkpt lat="47.26298" lon="-2.31855">
        <ele>-0.80000001192093</ele>
        <time>2019-05-26T10:37:10.000Z</time>
      </trkpt>
      <trkpt lat="47.26299" lon="-2.31848">
        <ele>-0.80000001192093</ele>
        <time>2019-05-26T10:37:11.000Z</time>
      </trkpt>
      <trkpt lat="47.26301" lon="-2.31809">
        <ele>-0.80000001192093</ele>
        <time>2019-05-26T10:37:17.000Z</time>
      </trkpt>
      <trkpt lat="47.26301" lon="-2.31791">
        <ele>-0.80000001192093</ele>
        <time>2019-05-26T10:37:19.000Z</time>
      </trkpt>
      <trkpt lat="47.26302" lon="-2.31769">
        <ele>-0.80000001192093</ele>
        <time>2019-05-26T10:37:22.000Z</time>
      </trkpt>
      <trkpt lat="47.263" lon="-2.31736">
        <ele>-0.80000001192093</ele>
        <time>2019-05-26T10:37:27.000Z</time>
      </trkpt>
      <trkpt lat="47.26308" lon="-2.31718">
        <ele>-0.80000001192093</ele>
        <time>2019-05-26T10:37:30.000Z</time>
      </trkpt>
      <trkpt lat="47.26316" lon="-2.31713">
        <ele>-0.40000000596046</ele>
        <time>2019-05-26T10:37:32.000Z</time>
      </trkpt>
      <trkpt lat="47.2632" lon="-2.31711">
        <ele>5</ele>
        <time>2019-05-26T10:37:33.000Z</time>
      </trkpt>
      <trkpt lat="47.26323" lon="-2.3171">
        <ele>0.40000000596046</ele>
        <time>2019-05-26T10:37:34.000Z</time>
      </trkpt>
      <trkpt lat="47.26327" lon="-2.31707">
        <ele>0.80000001192093</ele>
        <time>2019-05-26T10:37:35.000Z</time>
      </trkpt>
      <trkpt lat="47.2633" lon="-2.31704">
        <ele>1.2000000476837</ele>
        <time>2019-05-26T10:37:36.000Z</time>
      </trkpt>
      <trkpt lat="47.26338" lon="-2.31689">
        <ele>1.2000000476837</ele>
        <time>2019-05-26T10:37:40.000Z</time>
      </trkpt>
      <trkpt lat="47.26347" lon="-2.31683">
        <ele>1.6000000238419</ele>
        <time>2019-05-26T10:37:43.000Z</time>
      </trkpt>
      <trkpt lat="47.2635" lon="-2.31681">
        <ele>2</ele>
        <time>2019-05-26T10:37:44.000Z</time>
      </trkpt>
      <trkpt lat="47.26354" lon="-2.31679">
        <ele>2.4000000953674</ele>
        <time>2019-05-26T10:37:45.000Z</time>
      </trkpt>
      <trkpt lat="47.26358" lon="-2.31677">
        <ele>2.7999999523163</ele>
        <time>2019-05-26T10:37:46.000Z</time>
      </trkpt>
      <trkpt lat="47.26362" lon="-2.31675">
        <ele>3.4000000953674</ele>
        <time>2019-05-26T10:37:47.000Z</time>
      </trkpt>
      <trkpt lat="47.2638" lon="-2.31665">
        <ele>3.4000000953674</ele>
        <time>2019-05-26T10:37:52.000Z</time>
      </trkpt>
      <trkpt lat="47.26398" lon="-2.31658">
        <ele>3.4000000953674</ele>
        <time>2019-05-26T10:37:57.000Z</time>
      </trkpt>
      <trkpt lat="47.26409" lon="-2.31648">
        <ele>3.4000000953674</ele>
        <time>2019-05-26T10:38:01.000Z</time>
      </trkpt>
      <trkpt lat="47.2641" lon="-2.31644">
        <ele>3.4000000953674</ele>
        <time>2019-05-26T10:38:02.000Z</time>
      </trkpt>
      <trkpt lat="47.2641" lon="-2.31626">
        <ele>3.4000000953674</ele>
        <time>2019-05-26T10:38:06.000Z</time>
      </trkpt>
      <trkpt lat="47.26411" lon="-2.31595">
        <ele>3.7999999523163</ele>
        <time>2019-05-26T10:38:12.000Z</time>
      </trkpt>
      <trkpt lat="47.26411" lon="-2.31591">
        <ele>4.1999998092651</ele>
        <time>2019-05-26T10:38:13.000Z</time>
      </trkpt>
      <trkpt lat="47.26411" lon="-2.31585">
        <ele>4.5999999046326</ele>
        <time>2019-05-26T10:38:14.000Z</time>
      </trkpt>
      <trkpt lat="47.26411" lon="-2.31581">
        <ele>5</ele>
        <time>2019-05-26T10:38:15.000Z</time>
      </trkpt>
      <trkpt lat="47.26411" lon="-2.31576">
        <ele>5.4000000953674</ele>
        <time>2019-05-26T10:38:16.000Z</time>
      </trkpt>
      <trkpt lat="47.26411" lon="-2.31555">
        <ele>5.4000000953674</ele>
        <time>2019-05-26T10:38:21.000Z</time>
      </trkpt>
      <trkpt lat="47.26412" lon="-2.31552">
        <ele>5.4000000953674</ele>
        <time>2019-05-26T10:38:22.000Z</time>
      </trkpt>
      <trkpt lat="47.26416" lon="-2.31552">
        <ele>5.4000000953674</ele>
        <time>2019-05-26T10:38:24.000Z</time>
      </trkpt>
      <trkpt lat="47.26417" lon="-2.31552">
        <ele>5.4000000953674</ele>
        <time>2019-05-26T10:38:26.000Z</time>
      </trkpt>
    </trkseg>
  </trk>
</gpx>